<?xml version="1.0" encoding="UTF-8" standalone="no" ?>
<gpx xmlns="http://www.topografix.com/GPX/1/1" xmlns:xsi="http://www.w3.org/2001/XMLSchema-instance" xsi:schemaLocation="http://www.topografix.com/GPX/1/1 http://www.topografix.com/GPX/1/1/gpx.xsd" version="1.1" creator="VisuGPX - https://www.visugpx.com">
  <metadata>
    <name>LOZERIENNE 24-05-2019</name>
  </metadata>
  <trk>
    <name><![CDATA[LOZERIENNE 24-05-2019]]></name>
    <trkseg>
      <trkpt lat="44.43134" lon="3.21483">
        <ele>562.20001220703</ele>
        <time>2019-05-24T13:59:06Z</time>
      </trkpt>
      <trkpt lat="44.43134" lon="3.21483">
        <ele>562.40002441406</ele>
        <time>2019-05-24T13:59:17Z</time>
      </trkpt>
      <trkpt lat="44.43135" lon="3.21481">
        <ele>562.40002441406</ele>
        <time>2019-05-24T13:59:34Z</time>
      </trkpt>
      <trkpt lat="44.43135" lon="3.21481">
        <ele>562.40002441406</ele>
        <time>2019-05-24T13:59:52Z</time>
      </trkpt>
      <trkpt lat="44.43135" lon="3.21481">
        <ele>562.59997558594</ele>
        <time>2019-05-24T14:00:09Z</time>
      </trkpt>
      <trkpt lat="44.43135" lon="3.21481">
        <ele>562.59997558594</ele>
        <time>2019-05-24T14:00:28Z</time>
      </trkpt>
      <trkpt lat="44.43134" lon="3.21481">
        <ele>562.40002441406</ele>
        <time>2019-05-24T14:00:43Z</time>
      </trkpt>
      <trkpt lat="44.43134" lon="3.21481">
        <ele>562.40002441406</ele>
        <time>2019-05-24T14:00:58Z</time>
      </trkpt>
      <trkpt lat="44.43134" lon="3.21481">
        <ele>562.20001220703</ele>
        <time>2019-05-24T14:01:15Z</time>
      </trkpt>
      <trkpt lat="44.43134" lon="3.21481">
        <ele>562</ele>
        <time>2019-05-24T14:01:32Z</time>
      </trkpt>
      <trkpt lat="44.43134" lon="3.21481">
        <ele>562</ele>
        <time>2019-05-24T14:01:49Z</time>
      </trkpt>
      <trkpt lat="44.43134" lon="3.21482">
        <ele>562.20001220703</ele>
        <time>2019-05-24T14:02:04Z</time>
      </trkpt>
      <trkpt lat="44.43134" lon="3.21482">
        <ele>562.40002441406</ele>
        <time>2019-05-24T14:02:21Z</time>
      </trkpt>
      <trkpt lat="44.43134" lon="3.21482">
        <ele>562.59997558594</ele>
        <time>2019-05-24T14:02:31Z</time>
      </trkpt>
      <trkpt lat="44.43134" lon="3.21482">
        <ele>562.79998779297</ele>
        <time>2019-05-24T14:02:46Z</time>
      </trkpt>
      <trkpt lat="44.43134" lon="3.21482">
        <ele>562.79998779297</ele>
        <time>2019-05-24T14:03:01Z</time>
      </trkpt>
      <trkpt lat="44.43134" lon="3.21482">
        <ele>563</ele>
        <time>2019-05-24T14:03:15Z</time>
      </trkpt>
      <trkpt lat="44.43135" lon="3.21482">
        <ele>563.20001220703</ele>
        <time>2019-05-24T14:03:29Z</time>
      </trkpt>
      <trkpt lat="44.43135" lon="3.21482">
        <ele>563.20001220703</ele>
        <time>2019-05-24T14:03:44Z</time>
      </trkpt>
      <trkpt lat="44.43134" lon="3.21481">
        <ele>563.40002441406</ele>
        <time>2019-05-24T14:03:58Z</time>
      </trkpt>
      <trkpt lat="44.43134" lon="3.2148">
        <ele>563.59997558594</ele>
        <time>2019-05-24T14:04:05Z</time>
      </trkpt>
      <trkpt lat="44.43132" lon="3.21482">
        <ele>563.79998779297</ele>
        <time>2019-05-24T14:04:12Z</time>
      </trkpt>
      <trkpt lat="44.4313" lon="3.21484">
        <ele>564</ele>
        <time>2019-05-24T14:04:20Z</time>
      </trkpt>
      <trkpt lat="44.43126" lon="3.21486">
        <ele>564.59997558594</ele>
        <time>2019-05-24T14:04:26Z</time>
      </trkpt>
      <trkpt lat="44.43126" lon="3.21487">
        <ele>564.59997558594</ele>
        <time>2019-05-24T14:04:30Z</time>
      </trkpt>
      <trkpt lat="44.43125" lon="3.21488">
        <ele>564.59997558594</ele>
        <time>2019-05-24T14:04:36Z</time>
      </trkpt>
      <trkpt lat="44.43123" lon="3.21487">
        <ele>564.79998779297</ele>
        <time>2019-05-24T14:04:41Z</time>
      </trkpt>
      <trkpt lat="44.43123" lon="3.21487">
        <ele>565.20001220703</ele>
        <time>2019-05-24T14:04:55Z</time>
      </trkpt>
      <trkpt lat="44.43123" lon="3.21487">
        <ele>565.59997558594</ele>
        <time>2019-05-24T14:05:18Z</time>
      </trkpt>
      <trkpt lat="44.43123" lon="3.21487">
        <ele>566</ele>
        <time>2019-05-24T14:05:37Z</time>
      </trkpt>
      <trkpt lat="44.43123" lon="3.21487">
        <ele>566.40002441406</ele>
        <time>2019-05-24T14:06:02Z</time>
      </trkpt>
      <trkpt lat="44.43123" lon="3.21487">
        <ele>566.59997558594</ele>
        <time>2019-05-24T14:06:15Z</time>
      </trkpt>
      <trkpt lat="44.43123" lon="3.21487">
        <ele>566.59997558594</ele>
        <time>2019-05-24T14:06:29Z</time>
      </trkpt>
      <trkpt lat="44.43123" lon="3.21487">
        <ele>566.79998779297</ele>
        <time>2019-05-24T14:06:45Z</time>
      </trkpt>
      <trkpt lat="44.43123" lon="3.21487">
        <ele>567</ele>
        <time>2019-05-24T14:07:00Z</time>
      </trkpt>
      <trkpt lat="44.43123" lon="3.21487">
        <ele>567</ele>
        <time>2019-05-24T14:07:14Z</time>
      </trkpt>
      <trkpt lat="44.43124" lon="3.21489">
        <ele>567</ele>
        <time>2019-05-24T14:07:29Z</time>
      </trkpt>
      <trkpt lat="44.43123" lon="3.21493">
        <ele>567.20001220703</ele>
        <time>2019-05-24T14:07:34Z</time>
      </trkpt>
      <trkpt lat="44.43122" lon="3.21494">
        <ele>567.20001220703</ele>
        <time>2019-05-24T14:07:35Z</time>
      </trkpt>
      <trkpt lat="44.43122" lon="3.21498">
        <ele>567.20001220703</ele>
        <time>2019-05-24T14:07:38Z</time>
      </trkpt>
      <trkpt lat="44.4312" lon="3.21503">
        <ele>567</ele>
        <time>2019-05-24T14:07:41Z</time>
      </trkpt>
      <trkpt lat="44.43124" lon="3.21508">
        <ele>567</ele>
        <time>2019-05-24T14:07:45Z</time>
      </trkpt>
      <trkpt lat="44.43124" lon="3.21507">
        <ele>567</ele>
        <time>2019-05-24T14:07:46Z</time>
      </trkpt>
      <trkpt lat="44.43124" lon="3.21504">
        <ele>567</ele>
        <time>2019-05-24T14:07:48Z</time>
      </trkpt>
      <trkpt lat="44.4313" lon="3.21497">
        <ele>567</ele>
        <time>2019-05-24T14:07:52Z</time>
      </trkpt>
      <trkpt lat="44.4314" lon="3.2148">
        <ele>566.79998779297</ele>
        <time>2019-05-24T14:07:56Z</time>
      </trkpt>
      <trkpt lat="44.43151" lon="3.2147">
        <ele>566.40002441406</ele>
        <time>2019-05-24T14:07:59Z</time>
      </trkpt>
      <trkpt lat="44.43158" lon="3.21466">
        <ele>566.40002441406</ele>
        <time>2019-05-24T14:08:01Z</time>
      </trkpt>
      <trkpt lat="44.4318" lon="3.21465">
        <ele>566.20001220703</ele>
        <time>2019-05-24T14:08:06Z</time>
      </trkpt>
      <trkpt lat="44.4319" lon="3.21462">
        <ele>566</ele>
        <time>2019-05-24T14:08:08Z</time>
      </trkpt>
      <trkpt lat="44.43205" lon="3.21458">
        <ele>565.79998779297</ele>
        <time>2019-05-24T14:08:11Z</time>
      </trkpt>
      <trkpt lat="44.4324" lon="3.21447">
        <ele>565.40002441406</ele>
        <time>2019-05-24T14:08:18Z</time>
      </trkpt>
      <trkpt lat="44.43277" lon="3.21435">
        <ele>565.20001220703</ele>
        <time>2019-05-24T14:08:24Z</time>
      </trkpt>
      <trkpt lat="44.43289" lon="3.21432">
        <ele>565</ele>
        <time>2019-05-24T14:08:26Z</time>
      </trkpt>
      <trkpt lat="44.433" lon="3.21436">
        <ele>564.79998779297</ele>
        <time>2019-05-24T14:08:28Z</time>
      </trkpt>
      <trkpt lat="44.43308" lon="3.21445">
        <ele>564.79998779297</ele>
        <time>2019-05-24T14:08:30Z</time>
      </trkpt>
      <trkpt lat="44.43312" lon="3.2145">
        <ele>564.59997558594</ele>
        <time>2019-05-24T14:08:31Z</time>
      </trkpt>
      <trkpt lat="44.43315" lon="3.21455">
        <ele>564.59997558594</ele>
        <time>2019-05-24T14:08:32Z</time>
      </trkpt>
      <trkpt lat="44.43324" lon="3.2146">
        <ele>564.59997558594</ele>
        <time>2019-05-24T14:08:34Z</time>
      </trkpt>
      <trkpt lat="44.43328" lon="3.21463">
        <ele>564.59997558594</ele>
        <time>2019-05-24T14:08:35Z</time>
      </trkpt>
      <trkpt lat="44.43346" lon="3.21473">
        <ele>564.40002441406</ele>
        <time>2019-05-24T14:08:39Z</time>
      </trkpt>
      <trkpt lat="44.43354" lon="3.2148">
        <ele>564.40002441406</ele>
        <time>2019-05-24T14:08:41Z</time>
      </trkpt>
      <trkpt lat="44.43362" lon="3.21486">
        <ele>564.40002441406</ele>
        <time>2019-05-24T14:08:43Z</time>
      </trkpt>
      <trkpt lat="44.43375" lon="3.21493">
        <ele>564.40002441406</ele>
        <time>2019-05-24T14:08:46Z</time>
      </trkpt>
      <trkpt lat="44.43383" lon="3.21495">
        <ele>564.40002441406</ele>
        <time>2019-05-24T14:08:48Z</time>
      </trkpt>
      <trkpt lat="44.43405" lon="3.21499">
        <ele>564.59997558594</ele>
        <time>2019-05-24T14:08:54Z</time>
      </trkpt>
      <trkpt lat="44.43424" lon="3.21507">
        <ele>564.79998779297</ele>
        <time>2019-05-24T14:08:59Z</time>
      </trkpt>
      <trkpt lat="44.43452" lon="3.21518">
        <ele>565</ele>
        <time>2019-05-24T14:09:06Z</time>
      </trkpt>
      <trkpt lat="44.43466" lon="3.21533">
        <ele>565.20001220703</ele>
        <time>2019-05-24T14:09:10Z</time>
      </trkpt>
      <trkpt lat="44.43469" lon="3.21536">
        <ele>565.20001220703</ele>
        <time>2019-05-24T14:09:11Z</time>
      </trkpt>
      <trkpt lat="44.43484" lon="3.21554">
        <ele>565.20001220703</ele>
        <time>2019-05-24T14:09:16Z</time>
      </trkpt>
      <trkpt lat="44.43511" lon="3.21587">
        <ele>565.40002441406</ele>
        <time>2019-05-24T14:09:25Z</time>
      </trkpt>
      <trkpt lat="44.43533" lon="3.21613">
        <ele>565.59997558594</ele>
        <time>2019-05-24T14:09:32Z</time>
      </trkpt>
      <trkpt lat="44.43549" lon="3.21636">
        <ele>566</ele>
        <time>2019-05-24T14:09:38Z</time>
      </trkpt>
      <trkpt lat="44.43554" lon="3.21661">
        <ele>566.20001220703</ele>
        <time>2019-05-24T14:09:43Z</time>
      </trkpt>
      <trkpt lat="44.43565" lon="3.2168">
        <ele>566.40002441406</ele>
        <time>2019-05-24T14:09:48Z</time>
      </trkpt>
      <trkpt lat="44.43589" lon="3.217">
        <ele>567</ele>
        <time>2019-05-24T14:09:56Z</time>
      </trkpt>
      <trkpt lat="44.43609" lon="3.21712">
        <ele>567.20001220703</ele>
        <time>2019-05-24T14:10:04Z</time>
      </trkpt>
      <trkpt lat="44.43632" lon="3.21724">
        <ele>567.59997558594</ele>
        <time>2019-05-24T14:10:13Z</time>
      </trkpt>
      <trkpt lat="44.4365" lon="3.21732">
        <ele>568</ele>
        <time>2019-05-24T14:10:21Z</time>
      </trkpt>
      <trkpt lat="44.43666" lon="3.21739">
        <ele>568.40002441406</ele>
        <time>2019-05-24T14:10:28Z</time>
      </trkpt>
      <trkpt lat="44.43685" lon="3.21746">
        <ele>568.79998779297</ele>
        <time>2019-05-24T14:10:37Z</time>
      </trkpt>
      <trkpt lat="44.43702" lon="3.21751">
        <ele>569</ele>
        <time>2019-05-24T14:10:46Z</time>
      </trkpt>
      <trkpt lat="44.43709" lon="3.21755">
        <ele>569.79998779297</ele>
        <time>2019-05-24T14:10:52Z</time>
      </trkpt>
      <trkpt lat="44.4372" lon="3.2176">
        <ele>570</ele>
        <time>2019-05-24T14:10:58Z</time>
      </trkpt>
      <trkpt lat="44.43738" lon="3.21766">
        <ele>570.59997558594</ele>
        <time>2019-05-24T14:11:08Z</time>
      </trkpt>
      <trkpt lat="44.43754" lon="3.21774">
        <ele>571</ele>
        <time>2019-05-24T14:11:17Z</time>
      </trkpt>
      <trkpt lat="44.43766" lon="3.21781">
        <ele>571.40002441406</ele>
        <time>2019-05-24T14:11:25Z</time>
      </trkpt>
      <trkpt lat="44.4378" lon="3.21789">
        <ele>571.79998779297</ele>
        <time>2019-05-24T14:11:34Z</time>
      </trkpt>
      <trkpt lat="44.43795" lon="3.21797">
        <ele>572.40002441406</ele>
        <time>2019-05-24T14:11:43Z</time>
      </trkpt>
      <trkpt lat="44.43809" lon="3.21804">
        <ele>572.79998779297</ele>
        <time>2019-05-24T14:11:51Z</time>
      </trkpt>
      <trkpt lat="44.43822" lon="3.21809">
        <ele>573.20001220703</ele>
        <time>2019-05-24T14:11:58Z</time>
      </trkpt>
      <trkpt lat="44.4384" lon="3.21815">
        <ele>573.59997558594</ele>
        <time>2019-05-24T14:12:08Z</time>
      </trkpt>
      <trkpt lat="44.43854" lon="3.2182">
        <ele>574</ele>
        <time>2019-05-24T14:12:17Z</time>
      </trkpt>
      <trkpt lat="44.43859" lon="3.21822">
        <ele>574.20001220703</ele>
        <time>2019-05-24T14:12:20Z</time>
      </trkpt>
      <trkpt lat="44.43864" lon="3.21824">
        <ele>574.40002441406</ele>
        <time>2019-05-24T14:12:23Z</time>
      </trkpt>
      <trkpt lat="44.43875" lon="3.21828">
        <ele>574.59997558594</ele>
        <time>2019-05-24T14:12:29Z</time>
      </trkpt>
      <trkpt lat="44.43884" lon="3.21836">
        <ele>575</ele>
        <time>2019-05-24T14:12:36Z</time>
      </trkpt>
      <trkpt lat="44.43897" lon="3.21847">
        <ele>575.59997558594</ele>
        <time>2019-05-24T14:12:45Z</time>
      </trkpt>
      <trkpt lat="44.43908" lon="3.21861">
        <ele>576.20001220703</ele>
        <time>2019-05-24T14:12:54Z</time>
      </trkpt>
      <trkpt lat="44.43915" lon="3.21872">
        <ele>576.59997558594</ele>
        <time>2019-05-24T14:13:01Z</time>
      </trkpt>
      <trkpt lat="44.43922" lon="3.21887">
        <ele>577</ele>
        <time>2019-05-24T14:13:10Z</time>
      </trkpt>
      <trkpt lat="44.43929" lon="3.21896">
        <ele>577.40002441406</ele>
        <time>2019-05-24T14:13:17Z</time>
      </trkpt>
      <trkpt lat="44.43939" lon="3.21911">
        <ele>578</ele>
        <time>2019-05-24T14:13:26Z</time>
      </trkpt>
      <trkpt lat="44.43949" lon="3.21926">
        <ele>578.40002441406</ele>
        <time>2019-05-24T14:13:35Z</time>
      </trkpt>
      <trkpt lat="44.43954" lon="3.21941">
        <ele>580</ele>
        <time>2019-05-24T14:13:46Z</time>
      </trkpt>
      <trkpt lat="44.43954" lon="3.21953">
        <ele>582.40002441406</ele>
        <time>2019-05-24T14:13:54Z</time>
      </trkpt>
      <trkpt lat="44.43958" lon="3.21963">
        <ele>584.20001220703</ele>
        <time>2019-05-24T14:14:01Z</time>
      </trkpt>
      <trkpt lat="44.43963" lon="3.21975">
        <ele>586.79998779297</ele>
        <time>2019-05-24T14:14:10Z</time>
      </trkpt>
      <trkpt lat="44.43966" lon="3.21985">
        <ele>589.40002441406</ele>
        <time>2019-05-24T14:14:18Z</time>
      </trkpt>
      <trkpt lat="44.43967" lon="3.21991">
        <ele>590.79998779297</ele>
        <time>2019-05-24T14:14:22Z</time>
      </trkpt>
      <trkpt lat="44.43967" lon="3.21994">
        <ele>591.59997558594</ele>
        <time>2019-05-24T14:14:24Z</time>
      </trkpt>
      <trkpt lat="44.43968" lon="3.21995">
        <ele>592</ele>
        <time>2019-05-24T14:14:25Z</time>
      </trkpt>
      <trkpt lat="44.43968" lon="3.22003">
        <ele>593.79998779297</ele>
        <time>2019-05-24T14:14:30Z</time>
      </trkpt>
      <trkpt lat="44.43968" lon="3.22005">
        <ele>594.20001220703</ele>
        <time>2019-05-24T14:14:31Z</time>
      </trkpt>
      <trkpt lat="44.43964" lon="3.22015">
        <ele>597.20001220703</ele>
        <time>2019-05-24T14:14:39Z</time>
      </trkpt>
      <trkpt lat="44.43964" lon="3.22017">
        <ele>597.59997558594</ele>
        <time>2019-05-24T14:14:40Z</time>
      </trkpt>
      <trkpt lat="44.43963" lon="3.22024">
        <ele>600</ele>
        <time>2019-05-24T14:14:45Z</time>
      </trkpt>
      <trkpt lat="44.43963" lon="3.22035">
        <ele>603</ele>
        <time>2019-05-24T14:14:52Z</time>
      </trkpt>
      <trkpt lat="44.43963" lon="3.22046">
        <ele>605.59997558594</ele>
        <time>2019-05-24T14:14:59Z</time>
      </trkpt>
      <trkpt lat="44.43964" lon="3.22056">
        <ele>608.59997558594</ele>
        <time>2019-05-24T14:15:06Z</time>
      </trkpt>
      <trkpt lat="44.43966" lon="3.22062">
        <ele>610.20001220703</ele>
        <time>2019-05-24T14:15:10Z</time>
      </trkpt>
      <trkpt lat="44.43965" lon="3.22065">
        <ele>611</ele>
        <time>2019-05-24T14:15:12Z</time>
      </trkpt>
      <trkpt lat="44.43964" lon="3.22067">
        <ele>611.40002441406</ele>
        <time>2019-05-24T14:15:13Z</time>
      </trkpt>
      <trkpt lat="44.43964" lon="3.22069">
        <ele>611.79998779297</ele>
        <time>2019-05-24T14:15:14Z</time>
      </trkpt>
      <trkpt lat="44.43965" lon="3.22076">
        <ele>613.79998779297</ele>
        <time>2019-05-24T14:15:19Z</time>
      </trkpt>
      <trkpt lat="44.43965" lon="3.22077">
        <ele>614.20001220703</ele>
        <time>2019-05-24T14:15:20Z</time>
      </trkpt>
      <trkpt lat="44.43965" lon="3.22085">
        <ele>616.40002441406</ele>
        <time>2019-05-24T14:15:25Z</time>
      </trkpt>
      <trkpt lat="44.43965" lon="3.22088">
        <ele>617.20001220703</ele>
        <time>2019-05-24T14:15:27Z</time>
      </trkpt>
      <trkpt lat="44.43966" lon="3.22095">
        <ele>618.79998779297</ele>
        <time>2019-05-24T14:15:31Z</time>
      </trkpt>
      <trkpt lat="44.43966" lon="3.22103">
        <ele>620.59997558594</ele>
        <time>2019-05-24T14:15:36Z</time>
      </trkpt>
      <trkpt lat="44.43966" lon="3.22106">
        <ele>621.40002441406</ele>
        <time>2019-05-24T14:15:38Z</time>
      </trkpt>
      <trkpt lat="44.43965" lon="3.22113">
        <ele>622.79998779297</ele>
        <time>2019-05-24T14:15:42Z</time>
      </trkpt>
      <trkpt lat="44.43965" lon="3.22116">
        <ele>623.59997558594</ele>
        <time>2019-05-24T14:15:44Z</time>
      </trkpt>
      <trkpt lat="44.43965" lon="3.2212">
        <ele>624.59997558594</ele>
        <time>2019-05-24T14:15:47Z</time>
      </trkpt>
      <trkpt lat="44.43966" lon="3.22123">
        <ele>625.40002441406</ele>
        <time>2019-05-24T14:15:49Z</time>
      </trkpt>
      <trkpt lat="44.43966" lon="3.22124">
        <ele>625.59997558594</ele>
        <time>2019-05-24T14:15:50Z</time>
      </trkpt>
      <trkpt lat="44.43966" lon="3.22126">
        <ele>626</ele>
        <time>2019-05-24T14:15:51Z</time>
      </trkpt>
      <trkpt lat="44.43967" lon="3.22135">
        <ele>628</ele>
        <time>2019-05-24T14:15:57Z</time>
      </trkpt>
      <trkpt lat="44.43968" lon="3.22145">
        <ele>630.40002441406</ele>
        <time>2019-05-24T14:16:04Z</time>
      </trkpt>
      <trkpt lat="44.4397" lon="3.22157">
        <ele>632.59997558594</ele>
        <time>2019-05-24T14:16:12Z</time>
      </trkpt>
      <trkpt lat="44.4397" lon="3.22161">
        <ele>633.59997558594</ele>
        <time>2019-05-24T14:16:15Z</time>
      </trkpt>
      <trkpt lat="44.43971" lon="3.22168">
        <ele>634.59997558594</ele>
        <time>2019-05-24T14:16:19Z</time>
      </trkpt>
      <trkpt lat="44.43971" lon="3.22181">
        <ele>636.79998779297</ele>
        <time>2019-05-24T14:16:27Z</time>
      </trkpt>
      <trkpt lat="44.43973" lon="3.22191">
        <ele>638.40002441406</ele>
        <time>2019-05-24T14:16:34Z</time>
      </trkpt>
      <trkpt lat="44.43973" lon="3.22193">
        <ele>638.79998779297</ele>
        <time>2019-05-24T14:16:35Z</time>
      </trkpt>
      <trkpt lat="44.43976" lon="3.22208">
        <ele>641</ele>
        <time>2019-05-24T14:16:44Z</time>
      </trkpt>
      <trkpt lat="44.43978" lon="3.22223">
        <ele>643</ele>
        <time>2019-05-24T14:16:53Z</time>
      </trkpt>
      <trkpt lat="44.43979" lon="3.22231">
        <ele>644.20001220703</ele>
        <time>2019-05-24T14:16:58Z</time>
      </trkpt>
      <trkpt lat="44.4398" lon="3.22233">
        <ele>644.40002441406</ele>
        <time>2019-05-24T14:16:59Z</time>
      </trkpt>
      <trkpt lat="44.43982" lon="3.22245">
        <ele>646</ele>
        <time>2019-05-24T14:17:06Z</time>
      </trkpt>
      <trkpt lat="44.43984" lon="3.22257">
        <ele>647.40002441406</ele>
        <time>2019-05-24T14:17:12Z</time>
      </trkpt>
      <trkpt lat="44.43986" lon="3.22267">
        <ele>649</ele>
        <time>2019-05-24T14:17:18Z</time>
      </trkpt>
      <trkpt lat="44.43989" lon="3.22277">
        <ele>650.40002441406</ele>
        <time>2019-05-24T14:17:24Z</time>
      </trkpt>
      <trkpt lat="44.43992" lon="3.22289">
        <ele>652.40002441406</ele>
        <time>2019-05-24T14:17:32Z</time>
      </trkpt>
      <trkpt lat="44.43992" lon="3.22296">
        <ele>653.20001220703</ele>
        <time>2019-05-24T14:17:36Z</time>
      </trkpt>
      <trkpt lat="44.4399" lon="3.22296">
        <ele>653.79998779297</ele>
        <time>2019-05-24T14:17:38Z</time>
      </trkpt>
      <trkpt lat="44.43985" lon="3.2229">
        <ele>655</ele>
        <time>2019-05-24T14:17:43Z</time>
      </trkpt>
      <trkpt lat="44.43981" lon="3.22272">
        <ele>656.59997558594</ele>
        <time>2019-05-24T14:17:50Z</time>
      </trkpt>
      <trkpt lat="44.43976" lon="3.22259">
        <ele>657.79998779297</ele>
        <time>2019-05-24T14:17:56Z</time>
      </trkpt>
      <trkpt lat="44.43975" lon="3.22258">
        <ele>658</ele>
        <time>2019-05-24T14:17:57Z</time>
      </trkpt>
      <trkpt lat="44.43971" lon="3.22258">
        <ele>658.40002441406</ele>
        <time>2019-05-24T14:17:59Z</time>
      </trkpt>
      <trkpt lat="44.4397" lon="3.22261">
        <ele>659.20001220703</ele>
        <time>2019-05-24T14:18:02Z</time>
      </trkpt>
      <trkpt lat="44.43972" lon="3.22271">
        <ele>660.40002441406</ele>
        <time>2019-05-24T14:18:08Z</time>
      </trkpt>
      <trkpt lat="44.43973" lon="3.22273">
        <ele>660.79998779297</ele>
        <time>2019-05-24T14:18:09Z</time>
      </trkpt>
      <trkpt lat="44.43974" lon="3.22276">
        <ele>661.20001220703</ele>
        <time>2019-05-24T14:18:11Z</time>
      </trkpt>
      <trkpt lat="44.43976" lon="3.22285">
        <ele>662.40002441406</ele>
        <time>2019-05-24T14:18:16Z</time>
      </trkpt>
      <trkpt lat="44.43978" lon="3.22299">
        <ele>664</ele>
        <time>2019-05-24T14:18:24Z</time>
      </trkpt>
      <trkpt lat="44.43978" lon="3.22313">
        <ele>665.20001220703</ele>
        <time>2019-05-24T14:18:31Z</time>
      </trkpt>
      <trkpt lat="44.43976" lon="3.22328">
        <ele>667.20001220703</ele>
        <time>2019-05-24T14:18:40Z</time>
      </trkpt>
      <trkpt lat="44.43974" lon="3.22333">
        <ele>668.20001220703</ele>
        <time>2019-05-24T14:18:43Z</time>
      </trkpt>
      <trkpt lat="44.43972" lon="3.22338">
        <ele>669</ele>
        <time>2019-05-24T14:18:46Z</time>
      </trkpt>
      <trkpt lat="44.43968" lon="3.22347">
        <ele>670.59997558594</ele>
        <time>2019-05-24T14:18:52Z</time>
      </trkpt>
      <trkpt lat="44.43965" lon="3.22353">
        <ele>671.40002441406</ele>
        <time>2019-05-24T14:18:56Z</time>
      </trkpt>
      <trkpt lat="44.43965" lon="3.22357">
        <ele>671.59997558594</ele>
        <time>2019-05-24T14:18:58Z</time>
      </trkpt>
      <trkpt lat="44.43965" lon="3.22362">
        <ele>672.40002441406</ele>
        <time>2019-05-24T14:19:01Z</time>
      </trkpt>
      <trkpt lat="44.43965" lon="3.22364">
        <ele>672.59997558594</ele>
        <time>2019-05-24T14:19:02Z</time>
      </trkpt>
      <trkpt lat="44.43963" lon="3.22372">
        <ele>673.59997558594</ele>
        <time>2019-05-24T14:19:06Z</time>
      </trkpt>
      <trkpt lat="44.43962" lon="3.22374">
        <ele>673.79998779297</ele>
        <time>2019-05-24T14:19:07Z</time>
      </trkpt>
      <trkpt lat="44.4396" lon="3.22385">
        <ele>675.59997558594</ele>
        <time>2019-05-24T14:19:13Z</time>
      </trkpt>
      <trkpt lat="44.43957" lon="3.22399">
        <ele>677.40002441406</ele>
        <time>2019-05-24T14:19:21Z</time>
      </trkpt>
      <trkpt lat="44.43955" lon="3.22415">
        <ele>679.79998779297</ele>
        <time>2019-05-24T14:19:30Z</time>
      </trkpt>
      <trkpt lat="44.43955" lon="3.22421">
        <ele>680.40002441406</ele>
        <time>2019-05-24T14:19:33Z</time>
      </trkpt>
      <trkpt lat="44.43955" lon="3.22427">
        <ele>681</ele>
        <time>2019-05-24T14:19:36Z</time>
      </trkpt>
      <trkpt lat="44.43955" lon="3.22432">
        <ele>681.40002441406</ele>
        <time>2019-05-24T14:19:38Z</time>
      </trkpt>
      <trkpt lat="44.43955" lon="3.22437">
        <ele>682.20001220703</ele>
        <time>2019-05-24T14:19:41Z</time>
      </trkpt>
      <trkpt lat="44.43954" lon="3.22448">
        <ele>683.59997558594</ele>
        <time>2019-05-24T14:19:47Z</time>
      </trkpt>
      <trkpt lat="44.43954" lon="3.2245">
        <ele>683.79998779297</ele>
        <time>2019-05-24T14:19:48Z</time>
      </trkpt>
      <trkpt lat="44.43955" lon="3.22461">
        <ele>685.79998779297</ele>
        <time>2019-05-24T14:19:55Z</time>
      </trkpt>
      <trkpt lat="44.43955" lon="3.22465">
        <ele>686.40002441406</ele>
        <time>2019-05-24T14:19:57Z</time>
      </trkpt>
      <trkpt lat="44.43953" lon="3.22467">
        <ele>687</ele>
        <time>2019-05-24T14:19:59Z</time>
      </trkpt>
      <trkpt lat="44.43952" lon="3.22467">
        <ele>687.20001220703</ele>
        <time>2019-05-24T14:20:00Z</time>
      </trkpt>
      <trkpt lat="44.43951" lon="3.22466">
        <ele>687.40002441406</ele>
        <time>2019-05-24T14:20:01Z</time>
      </trkpt>
      <trkpt lat="44.43948" lon="3.22459">
        <ele>688.59997558594</ele>
        <time>2019-05-24T14:20:05Z</time>
      </trkpt>
      <trkpt lat="44.43945" lon="3.22441">
        <ele>690</ele>
        <time>2019-05-24T14:20:12Z</time>
      </trkpt>
      <trkpt lat="44.43944" lon="3.22423">
        <ele>691.40002441406</ele>
        <time>2019-05-24T14:20:19Z</time>
      </trkpt>
      <trkpt lat="44.43942" lon="3.22403">
        <ele>692.79998779297</ele>
        <time>2019-05-24T14:20:26Z</time>
      </trkpt>
      <trkpt lat="44.43941" lon="3.2239">
        <ele>693.79998779297</ele>
        <time>2019-05-24T14:20:31Z</time>
      </trkpt>
      <trkpt lat="44.4394" lon="3.22374">
        <ele>694.79998779297</ele>
        <time>2019-05-24T14:20:37Z</time>
      </trkpt>
      <trkpt lat="44.43939" lon="3.22366">
        <ele>695.59997558594</ele>
        <time>2019-05-24T14:20:41Z</time>
      </trkpt>
      <trkpt lat="44.43937" lon="3.22365">
        <ele>696</ele>
        <time>2019-05-24T14:20:42Z</time>
      </trkpt>
      <trkpt lat="44.43936" lon="3.22365">
        <ele>696.20001220703</ele>
        <time>2019-05-24T14:20:43Z</time>
      </trkpt>
      <trkpt lat="44.43932" lon="3.22368">
        <ele>696.79998779297</ele>
        <time>2019-05-24T14:20:46Z</time>
      </trkpt>
      <trkpt lat="44.43933" lon="3.22382">
        <ele>698</ele>
        <time>2019-05-24T14:20:52Z</time>
      </trkpt>
      <trkpt lat="44.43935" lon="3.22392">
        <ele>698.79998779297</ele>
        <time>2019-05-24T14:20:56Z</time>
      </trkpt>
      <trkpt lat="44.43935" lon="3.22395">
        <ele>699</ele>
        <time>2019-05-24T14:20:57Z</time>
      </trkpt>
      <trkpt lat="44.43935" lon="3.22398">
        <ele>699.20001220703</ele>
        <time>2019-05-24T14:20:58Z</time>
      </trkpt>
      <trkpt lat="44.43935" lon="3.22406">
        <ele>699.59997558594</ele>
        <time>2019-05-24T14:21:01Z</time>
      </trkpt>
      <trkpt lat="44.43935" lon="3.22414">
        <ele>700.20001220703</ele>
        <time>2019-05-24T14:21:04Z</time>
      </trkpt>
      <trkpt lat="44.43934" lon="3.2242">
        <ele>700.40002441406</ele>
        <time>2019-05-24T14:21:06Z</time>
      </trkpt>
      <trkpt lat="44.43935" lon="3.22424">
        <ele>700.79998779297</ele>
        <time>2019-05-24T14:21:08Z</time>
      </trkpt>
      <trkpt lat="44.43934" lon="3.22429">
        <ele>701</ele>
        <time>2019-05-24T14:21:10Z</time>
      </trkpt>
      <trkpt lat="44.43933" lon="3.22442">
        <ele>702</ele>
        <time>2019-05-24T14:21:16Z</time>
      </trkpt>
      <trkpt lat="44.43933" lon="3.22456">
        <ele>703</ele>
        <time>2019-05-24T14:21:22Z</time>
      </trkpt>
      <trkpt lat="44.43932" lon="3.22464">
        <ele>703.59997558594</ele>
        <time>2019-05-24T14:21:26Z</time>
      </trkpt>
      <trkpt lat="44.43933" lon="3.22466">
        <ele>703.79998779297</ele>
        <time>2019-05-24T14:21:27Z</time>
      </trkpt>
      <trkpt lat="44.43933" lon="3.22468">
        <ele>704</ele>
        <time>2019-05-24T14:21:28Z</time>
      </trkpt>
      <trkpt lat="44.43934" lon="3.22477">
        <ele>704.59997558594</ele>
        <time>2019-05-24T14:21:32Z</time>
      </trkpt>
      <trkpt lat="44.43935" lon="3.22489">
        <ele>705.40002441406</ele>
        <time>2019-05-24T14:21:37Z</time>
      </trkpt>
      <trkpt lat="44.43936" lon="3.22491">
        <ele>705.59997558594</ele>
        <time>2019-05-24T14:21:38Z</time>
      </trkpt>
      <trkpt lat="44.43938" lon="3.22505">
        <ele>706.59997558594</ele>
        <time>2019-05-24T14:21:45Z</time>
      </trkpt>
      <trkpt lat="44.43942" lon="3.22523">
        <ele>708.40002441406</ele>
        <time>2019-05-24T14:21:54Z</time>
      </trkpt>
      <trkpt lat="44.43946" lon="3.22538">
        <ele>709.79998779297</ele>
        <time>2019-05-24T14:22:02Z</time>
      </trkpt>
      <trkpt lat="44.43947" lon="3.22542">
        <ele>710</ele>
        <time>2019-05-24T14:22:04Z</time>
      </trkpt>
      <trkpt lat="44.43949" lon="3.22549">
        <ele>710.59997558594</ele>
        <time>2019-05-24T14:22:07Z</time>
      </trkpt>
      <trkpt lat="44.43952" lon="3.22563">
        <ele>711.59997558594</ele>
        <time>2019-05-24T14:22:14Z</time>
      </trkpt>
      <trkpt lat="44.43959" lon="3.22581">
        <ele>713.79998779297</ele>
        <time>2019-05-24T14:22:23Z</time>
      </trkpt>
      <trkpt lat="44.43966" lon="3.22599">
        <ele>714.79998779297</ele>
        <time>2019-05-24T14:22:30Z</time>
      </trkpt>
      <trkpt lat="44.43972" lon="3.22615">
        <ele>716.40002441406</ele>
        <time>2019-05-24T14:22:38Z</time>
      </trkpt>
      <trkpt lat="44.43981" lon="3.22629">
        <ele>717.79998779297</ele>
        <time>2019-05-24T14:22:46Z</time>
      </trkpt>
      <trkpt lat="44.43991" lon="3.22648">
        <ele>718.79998779297</ele>
        <time>2019-05-24T14:22:53Z</time>
      </trkpt>
      <trkpt lat="44.44003" lon="3.22668">
        <ele>719.59997558594</ele>
        <time>2019-05-24T14:23:00Z</time>
      </trkpt>
      <trkpt lat="44.44018" lon="3.22683">
        <ele>720.59997558594</ele>
        <time>2019-05-24T14:23:07Z</time>
      </trkpt>
      <trkpt lat="44.44029" lon="3.22688">
        <ele>721.20001220703</ele>
        <time>2019-05-24T14:23:12Z</time>
      </trkpt>
      <trkpt lat="44.44037" lon="3.227">
        <ele>722.20001220703</ele>
        <time>2019-05-24T14:23:18Z</time>
      </trkpt>
      <trkpt lat="44.44038" lon="3.22703">
        <ele>722.20001220703</ele>
        <time>2019-05-24T14:23:19Z</time>
      </trkpt>
      <trkpt lat="44.44041" lon="3.22711">
        <ele>722.79998779297</ele>
        <time>2019-05-24T14:23:23Z</time>
      </trkpt>
      <trkpt lat="44.44046" lon="3.22728">
        <ele>724</ele>
        <time>2019-05-24T14:23:31Z</time>
      </trkpt>
      <trkpt lat="44.4405" lon="3.22747">
        <ele>725.20001220703</ele>
        <time>2019-05-24T14:23:39Z</time>
      </trkpt>
      <trkpt lat="44.44056" lon="3.22769">
        <ele>726.79998779297</ele>
        <time>2019-05-24T14:23:49Z</time>
      </trkpt>
      <trkpt lat="44.44061" lon="3.22787">
        <ele>728</ele>
        <time>2019-05-24T14:23:57Z</time>
      </trkpt>
      <trkpt lat="44.44067" lon="3.22804">
        <ele>729.20001220703</ele>
        <time>2019-05-24T14:24:05Z</time>
      </trkpt>
      <trkpt lat="44.44071" lon="3.22815">
        <ele>730</ele>
        <time>2019-05-24T14:24:10Z</time>
      </trkpt>
      <trkpt lat="44.44078" lon="3.22832">
        <ele>731</ele>
        <time>2019-05-24T14:24:17Z</time>
      </trkpt>
      <trkpt lat="44.44081" lon="3.22845">
        <ele>731.79998779297</ele>
        <time>2019-05-24T14:24:23Z</time>
      </trkpt>
      <trkpt lat="44.44087" lon="3.22864">
        <ele>733.20001220703</ele>
        <time>2019-05-24T14:24:32Z</time>
      </trkpt>
      <trkpt lat="44.44091" lon="3.2288">
        <ele>734.59997558594</ele>
        <time>2019-05-24T14:24:40Z</time>
      </trkpt>
      <trkpt lat="44.44097" lon="3.22896">
        <ele>735.79998779297</ele>
        <time>2019-05-24T14:24:48Z</time>
      </trkpt>
      <trkpt lat="44.441" lon="3.22906">
        <ele>736.79998779297</ele>
        <time>2019-05-24T14:24:54Z</time>
      </trkpt>
      <trkpt lat="44.44105" lon="3.22918">
        <ele>738.20001220703</ele>
        <time>2019-05-24T14:25:01Z</time>
      </trkpt>
      <trkpt lat="44.44105" lon="3.22922">
        <ele>738.59997558594</ele>
        <time>2019-05-24T14:25:03Z</time>
      </trkpt>
      <trkpt lat="44.44107" lon="3.22927">
        <ele>739</ele>
        <time>2019-05-24T14:25:06Z</time>
      </trkpt>
      <trkpt lat="44.44111" lon="3.22939">
        <ele>740.40002441406</ele>
        <time>2019-05-24T14:25:13Z</time>
      </trkpt>
      <trkpt lat="44.44114" lon="3.22949">
        <ele>741.40002441406</ele>
        <time>2019-05-24T14:25:19Z</time>
      </trkpt>
      <trkpt lat="44.44119" lon="3.22959">
        <ele>742.59997558594</ele>
        <time>2019-05-24T14:25:25Z</time>
      </trkpt>
      <trkpt lat="44.44125" lon="3.22977">
        <ele>744</ele>
        <time>2019-05-24T14:25:34Z</time>
      </trkpt>
      <trkpt lat="44.4413" lon="3.22993">
        <ele>745.20001220703</ele>
        <time>2019-05-24T14:25:41Z</time>
      </trkpt>
      <trkpt lat="44.44134" lon="3.23009">
        <ele>746.59997558594</ele>
        <time>2019-05-24T14:25:48Z</time>
      </trkpt>
      <trkpt lat="44.44138" lon="3.23021">
        <ele>747.40002441406</ele>
        <time>2019-05-24T14:25:54Z</time>
      </trkpt>
      <trkpt lat="44.44142" lon="3.23035">
        <ele>748.40002441406</ele>
        <time>2019-05-24T14:26:00Z</time>
      </trkpt>
      <trkpt lat="44.44145" lon="3.23047">
        <ele>749.40002441406</ele>
        <time>2019-05-24T14:26:06Z</time>
      </trkpt>
      <trkpt lat="44.44151" lon="3.23066">
        <ele>750.79998779297</ele>
        <time>2019-05-24T14:26:15Z</time>
      </trkpt>
      <trkpt lat="44.44156" lon="3.2308">
        <ele>751.79998779297</ele>
        <time>2019-05-24T14:26:22Z</time>
      </trkpt>
      <trkpt lat="44.44157" lon="3.23083">
        <ele>752</ele>
        <time>2019-05-24T14:26:23Z</time>
      </trkpt>
      <trkpt lat="44.44164" lon="3.23103">
        <ele>753.59997558594</ele>
        <time>2019-05-24T14:26:32Z</time>
      </trkpt>
      <trkpt lat="44.4417" lon="3.23119">
        <ele>755</ele>
        <time>2019-05-24T14:26:40Z</time>
      </trkpt>
      <trkpt lat="44.44175" lon="3.23136">
        <ele>756.20001220703</ele>
        <time>2019-05-24T14:26:48Z</time>
      </trkpt>
      <trkpt lat="44.4418" lon="3.2316">
        <ele>757.79998779297</ele>
        <time>2019-05-24T14:26:58Z</time>
      </trkpt>
      <trkpt lat="44.44184" lon="3.2318">
        <ele>759.20001220703</ele>
        <time>2019-05-24T14:27:06Z</time>
      </trkpt>
      <trkpt lat="44.44187" lon="3.23192">
        <ele>760.20001220703</ele>
        <time>2019-05-24T14:27:11Z</time>
      </trkpt>
      <trkpt lat="44.44193" lon="3.23212">
        <ele>761.59997558594</ele>
        <time>2019-05-24T14:27:19Z</time>
      </trkpt>
      <trkpt lat="44.44198" lon="3.23228">
        <ele>762.59997558594</ele>
        <time>2019-05-24T14:27:25Z</time>
      </trkpt>
      <trkpt lat="44.44202" lon="3.2324">
        <ele>763.59997558594</ele>
        <time>2019-05-24T14:27:30Z</time>
      </trkpt>
      <trkpt lat="44.44202" lon="3.23259">
        <ele>765</ele>
        <time>2019-05-24T14:27:37Z</time>
      </trkpt>
      <trkpt lat="44.44203" lon="3.23273">
        <ele>766.20001220703</ele>
        <time>2019-05-24T14:27:42Z</time>
      </trkpt>
      <trkpt lat="44.44203" lon="3.23275">
        <ele>766.40002441406</ele>
        <time>2019-05-24T14:27:43Z</time>
      </trkpt>
      <trkpt lat="44.44205" lon="3.23292">
        <ele>768</ele>
        <time>2019-05-24T14:27:50Z</time>
      </trkpt>
      <trkpt lat="44.44207" lon="3.23309">
        <ele>769.40002441406</ele>
        <time>2019-05-24T14:27:57Z</time>
      </trkpt>
      <trkpt lat="44.44207" lon="3.23326">
        <ele>770.79998779297</ele>
        <time>2019-05-24T14:28:04Z</time>
      </trkpt>
      <trkpt lat="44.44205" lon="3.23341">
        <ele>772.40002441406</ele>
        <time>2019-05-24T14:28:11Z</time>
      </trkpt>
      <trkpt lat="44.44205" lon="3.23355">
        <ele>773.59997558594</ele>
        <time>2019-05-24T14:28:17Z</time>
      </trkpt>
      <trkpt lat="44.44204" lon="3.2337">
        <ele>775</ele>
        <time>2019-05-24T14:28:24Z</time>
      </trkpt>
      <trkpt lat="44.44204" lon="3.23371">
        <ele>775.20001220703</ele>
        <time>2019-05-24T14:28:25Z</time>
      </trkpt>
      <trkpt lat="44.44204" lon="3.23378">
        <ele>775.79998779297</ele>
        <time>2019-05-24T14:28:28Z</time>
      </trkpt>
      <trkpt lat="44.44204" lon="3.23381">
        <ele>776</ele>
        <time>2019-05-24T14:28:29Z</time>
      </trkpt>
      <trkpt lat="44.44203" lon="3.23388">
        <ele>776.59997558594</ele>
        <time>2019-05-24T14:28:32Z</time>
      </trkpt>
      <trkpt lat="44.44203" lon="3.23391">
        <ele>776.79998779297</ele>
        <time>2019-05-24T14:28:33Z</time>
      </trkpt>
      <trkpt lat="44.44202" lon="3.23406">
        <ele>777.79998779297</ele>
        <time>2019-05-24T14:28:39Z</time>
      </trkpt>
      <trkpt lat="44.44202" lon="3.23409">
        <ele>778</ele>
        <time>2019-05-24T14:28:40Z</time>
      </trkpt>
      <trkpt lat="44.44202" lon="3.23411">
        <ele>778.20001220703</ele>
        <time>2019-05-24T14:28:41Z</time>
      </trkpt>
      <trkpt lat="44.44202" lon="3.2342">
        <ele>778.79998779297</ele>
        <time>2019-05-24T14:28:45Z</time>
      </trkpt>
      <trkpt lat="44.442" lon="3.23444">
        <ele>780.40002441406</ele>
        <time>2019-05-24T14:28:55Z</time>
      </trkpt>
      <trkpt lat="44.442" lon="3.23455">
        <ele>781.40002441406</ele>
        <time>2019-05-24T14:29:00Z</time>
      </trkpt>
      <trkpt lat="44.44199" lon="3.23475">
        <ele>782.59997558594</ele>
        <time>2019-05-24T14:29:08Z</time>
      </trkpt>
      <trkpt lat="44.44201" lon="3.23495">
        <ele>783.79998779297</ele>
        <time>2019-05-24T14:29:16Z</time>
      </trkpt>
      <trkpt lat="44.44203" lon="3.23515">
        <ele>784.79998779297</ele>
        <time>2019-05-24T14:29:23Z</time>
      </trkpt>
      <trkpt lat="44.44205" lon="3.23543">
        <ele>786.20001220703</ele>
        <time>2019-05-24T14:29:31Z</time>
      </trkpt>
      <trkpt lat="44.44205" lon="3.23573">
        <ele>787.20001220703</ele>
        <time>2019-05-24T14:29:38Z</time>
      </trkpt>
      <trkpt lat="44.44205" lon="3.23595">
        <ele>787.79998779297</ele>
        <time>2019-05-24T14:29:43Z</time>
      </trkpt>
      <trkpt lat="44.44207" lon="3.23626">
        <ele>788.59997558594</ele>
        <time>2019-05-24T14:29:50Z</time>
      </trkpt>
      <trkpt lat="44.44207" lon="3.23656">
        <ele>789.20001220703</ele>
        <time>2019-05-24T14:29:57Z</time>
      </trkpt>
      <trkpt lat="44.44211" lon="3.2368">
        <ele>790</ele>
        <time>2019-05-24T14:30:03Z</time>
      </trkpt>
      <trkpt lat="44.44221" lon="3.23714">
        <ele>791</ele>
        <time>2019-05-24T14:30:12Z</time>
      </trkpt>
      <trkpt lat="44.44227" lon="3.23735">
        <ele>791.79998779297</ele>
        <time>2019-05-24T14:30:18Z</time>
      </trkpt>
      <trkpt lat="44.44235" lon="3.23752">
        <ele>792.79998779297</ele>
        <time>2019-05-24T14:30:24Z</time>
      </trkpt>
      <trkpt lat="44.44242" lon="3.23765">
        <ele>793.59997558594</ele>
        <time>2019-05-24T14:30:30Z</time>
      </trkpt>
      <trkpt lat="44.44247" lon="3.23774">
        <ele>794.40002441406</ele>
        <time>2019-05-24T14:30:35Z</time>
      </trkpt>
      <trkpt lat="44.44248" lon="3.23775">
        <ele>794.59997558594</ele>
        <time>2019-05-24T14:30:36Z</time>
      </trkpt>
      <trkpt lat="44.44255" lon="3.23782">
        <ele>795.40002441406</ele>
        <time>2019-05-24T14:30:41Z</time>
      </trkpt>
      <trkpt lat="44.44263" lon="3.23791">
        <ele>796.59997558594</ele>
        <time>2019-05-24T14:30:48Z</time>
      </trkpt>
      <trkpt lat="44.4427" lon="3.23799">
        <ele>797.59997558594</ele>
        <time>2019-05-24T14:30:54Z</time>
      </trkpt>
      <trkpt lat="44.44273" lon="3.23811">
        <ele>798.59997558594</ele>
        <time>2019-05-24T14:31:01Z</time>
      </trkpt>
      <trkpt lat="44.44278" lon="3.23823">
        <ele>799.79998779297</ele>
        <time>2019-05-24T14:31:08Z</time>
      </trkpt>
      <trkpt lat="44.44285" lon="3.23832">
        <ele>801.20001220703</ele>
        <time>2019-05-24T14:31:16Z</time>
      </trkpt>
      <trkpt lat="44.44291" lon="3.23842">
        <ele>802.59997558594</ele>
        <time>2019-05-24T14:31:23Z</time>
      </trkpt>
      <trkpt lat="44.44299" lon="3.23854">
        <ele>804.40002441406</ele>
        <time>2019-05-24T14:31:33Z</time>
      </trkpt>
      <trkpt lat="44.44302" lon="3.23857">
        <ele>805.40002441406</ele>
        <time>2019-05-24T14:31:38Z</time>
      </trkpt>
      <trkpt lat="44.44308" lon="3.23862">
        <ele>806.20001220703</ele>
        <time>2019-05-24T14:31:43Z</time>
      </trkpt>
      <trkpt lat="44.44316" lon="3.23869">
        <ele>807.40002441406</ele>
        <time>2019-05-24T14:31:50Z</time>
      </trkpt>
      <trkpt lat="44.44324" lon="3.23872">
        <ele>808.79998779297</ele>
        <time>2019-05-24T14:31:57Z</time>
      </trkpt>
      <trkpt lat="44.4433" lon="3.23873">
        <ele>809.59997558594</ele>
        <time>2019-05-24T14:32:02Z</time>
      </trkpt>
      <trkpt lat="44.44332" lon="3.23875">
        <ele>810.20001220703</ele>
        <time>2019-05-24T14:32:05Z</time>
      </trkpt>
      <trkpt lat="44.44335" lon="3.23883">
        <ele>811.40002441406</ele>
        <time>2019-05-24T14:32:12Z</time>
      </trkpt>
      <trkpt lat="44.44335" lon="3.23897">
        <ele>813</ele>
        <time>2019-05-24T14:32:20Z</time>
      </trkpt>
      <trkpt lat="44.44333" lon="3.23901">
        <ele>813.79998779297</ele>
        <time>2019-05-24T14:32:23Z</time>
      </trkpt>
      <trkpt lat="44.44332" lon="3.23908">
        <ele>814.79998779297</ele>
        <time>2019-05-24T14:32:27Z</time>
      </trkpt>
      <trkpt lat="44.44333" lon="3.23912">
        <ele>815.20001220703</ele>
        <time>2019-05-24T14:32:29Z</time>
      </trkpt>
      <trkpt lat="44.44333" lon="3.23915">
        <ele>815.40002441406</ele>
        <time>2019-05-24T14:32:31Z</time>
      </trkpt>
      <trkpt lat="44.44334" lon="3.23918">
        <ele>815.79998779297</ele>
        <time>2019-05-24T14:32:33Z</time>
      </trkpt>
      <trkpt lat="44.44335" lon="3.23931">
        <ele>817.20001220703</ele>
        <time>2019-05-24T14:32:41Z</time>
      </trkpt>
      <trkpt lat="44.44335" lon="3.23942">
        <ele>818.40002441406</ele>
        <time>2019-05-24T14:32:47Z</time>
      </trkpt>
      <trkpt lat="44.44335" lon="3.23943">
        <ele>818.59997558594</ele>
        <time>2019-05-24T14:32:48Z</time>
      </trkpt>
      <trkpt lat="44.44337" lon="3.23955">
        <ele>819.59997558594</ele>
        <time>2019-05-24T14:32:55Z</time>
      </trkpt>
      <trkpt lat="44.44339" lon="3.23972">
        <ele>821.20001220703</ele>
        <time>2019-05-24T14:33:05Z</time>
      </trkpt>
      <trkpt lat="44.44343" lon="3.23986">
        <ele>822.79998779297</ele>
        <time>2019-05-24T14:33:14Z</time>
      </trkpt>
      <trkpt lat="44.44344" lon="3.23997">
        <ele>824</ele>
        <time>2019-05-24T14:33:21Z</time>
      </trkpt>
      <trkpt lat="44.44347" lon="3.24006">
        <ele>824.79998779297</ele>
        <time>2019-05-24T14:33:27Z</time>
      </trkpt>
      <trkpt lat="44.44348" lon="3.24008">
        <ele>825</ele>
        <time>2019-05-24T14:33:28Z</time>
      </trkpt>
      <trkpt lat="44.44349" lon="3.24011">
        <ele>825.40002441406</ele>
        <time>2019-05-24T14:33:30Z</time>
      </trkpt>
      <trkpt lat="44.44353" lon="3.24015">
        <ele>826</ele>
        <time>2019-05-24T14:33:34Z</time>
      </trkpt>
      <trkpt lat="44.44357" lon="3.24028">
        <ele>828</ele>
        <time>2019-05-24T14:33:43Z</time>
      </trkpt>
      <trkpt lat="44.44359" lon="3.24033">
        <ele>828.79998779297</ele>
        <time>2019-05-24T14:33:47Z</time>
      </trkpt>
      <trkpt lat="44.44361" lon="3.24037">
        <ele>829.40002441406</ele>
        <time>2019-05-24T14:33:50Z</time>
      </trkpt>
      <trkpt lat="44.44367" lon="3.2405">
        <ele>831.40002441406</ele>
        <time>2019-05-24T14:33:59Z</time>
      </trkpt>
      <trkpt lat="44.44368" lon="3.24054">
        <ele>832.20001220703</ele>
        <time>2019-05-24T14:34:02Z</time>
      </trkpt>
      <trkpt lat="44.4437" lon="3.2406">
        <ele>833</ele>
        <time>2019-05-24T14:34:06Z</time>
      </trkpt>
      <trkpt lat="44.44373" lon="3.24073">
        <ele>834.59997558594</ele>
        <time>2019-05-24T14:34:14Z</time>
      </trkpt>
      <trkpt lat="44.44373" lon="3.24075">
        <ele>834.79998779297</ele>
        <time>2019-05-24T14:34:15Z</time>
      </trkpt>
      <trkpt lat="44.44376" lon="3.24083">
        <ele>835.79998779297</ele>
        <time>2019-05-24T14:34:20Z</time>
      </trkpt>
      <trkpt lat="44.44382" lon="3.24097">
        <ele>837.40002441406</ele>
        <time>2019-05-24T14:34:28Z</time>
      </trkpt>
      <trkpt lat="44.44389" lon="3.2411">
        <ele>838.59997558594</ele>
        <time>2019-05-24T14:34:35Z</time>
      </trkpt>
      <trkpt lat="44.44397" lon="3.24129">
        <ele>839.79998779297</ele>
        <time>2019-05-24T14:34:42Z</time>
      </trkpt>
      <trkpt lat="44.44404" lon="3.2415">
        <ele>840.59997558594</ele>
        <time>2019-05-24T14:34:50Z</time>
      </trkpt>
      <trkpt lat="44.44408" lon="3.24163">
        <ele>841.59997558594</ele>
        <time>2019-05-24T14:34:55Z</time>
      </trkpt>
      <trkpt lat="44.44415" lon="3.2418">
        <ele>842.20001220703</ele>
        <time>2019-05-24T14:35:00Z</time>
      </trkpt>
      <trkpt lat="44.44424" lon="3.24201">
        <ele>842.79998779297</ele>
        <time>2019-05-24T14:35:06Z</time>
      </trkpt>
      <trkpt lat="44.44432" lon="3.24219">
        <ele>843.20001220703</ele>
        <time>2019-05-24T14:35:11Z</time>
      </trkpt>
      <trkpt lat="44.44442" lon="3.24247">
        <ele>844.20001220703</ele>
        <time>2019-05-24T14:35:19Z</time>
      </trkpt>
      <trkpt lat="44.44448" lon="3.24266">
        <ele>844.79998779297</ele>
        <time>2019-05-24T14:35:25Z</time>
      </trkpt>
      <trkpt lat="44.44452" lon="3.24277">
        <ele>845.40002441406</ele>
        <time>2019-05-24T14:35:29Z</time>
      </trkpt>
      <trkpt lat="44.44454" lon="3.24282">
        <ele>845.40002441406</ele>
        <time>2019-05-24T14:35:31Z</time>
      </trkpt>
      <trkpt lat="44.44458" lon="3.24292">
        <ele>845.59997558594</ele>
        <time>2019-05-24T14:35:35Z</time>
      </trkpt>
      <trkpt lat="44.44459" lon="3.24295">
        <ele>845.79998779297</ele>
        <time>2019-05-24T14:35:36Z</time>
      </trkpt>
      <trkpt lat="44.44466" lon="3.24306">
        <ele>846.40002441406</ele>
        <time>2019-05-24T14:35:41Z</time>
      </trkpt>
      <trkpt lat="44.44468" lon="3.24311">
        <ele>846.79998779297</ele>
        <time>2019-05-24T14:35:44Z</time>
      </trkpt>
      <trkpt lat="44.44469" lon="3.24314">
        <ele>847</ele>
        <time>2019-05-24T14:35:45Z</time>
      </trkpt>
      <trkpt lat="44.44476" lon="3.24333">
        <ele>848</ele>
        <time>2019-05-24T14:35:52Z</time>
      </trkpt>
      <trkpt lat="44.4448" lon="3.24347">
        <ele>848.79998779297</ele>
        <time>2019-05-24T14:35:57Z</time>
      </trkpt>
      <trkpt lat="44.4448" lon="3.2435">
        <ele>848.79998779297</ele>
        <time>2019-05-24T14:35:58Z</time>
      </trkpt>
      <trkpt lat="44.44482" lon="3.24358">
        <ele>849.40002441406</ele>
        <time>2019-05-24T14:36:01Z</time>
      </trkpt>
      <trkpt lat="44.44484" lon="3.24365">
        <ele>849.79998779297</ele>
        <time>2019-05-24T14:36:04Z</time>
      </trkpt>
      <trkpt lat="44.44484" lon="3.24368">
        <ele>849.79998779297</ele>
        <time>2019-05-24T14:36:05Z</time>
      </trkpt>
      <trkpt lat="44.44485" lon="3.24374">
        <ele>850.20001220703</ele>
        <time>2019-05-24T14:36:08Z</time>
      </trkpt>
      <trkpt lat="44.44486" lon="3.24379">
        <ele>850.40002441406</ele>
        <time>2019-05-24T14:36:10Z</time>
      </trkpt>
      <trkpt lat="44.44487" lon="3.2439">
        <ele>851</ele>
        <time>2019-05-24T14:36:15Z</time>
      </trkpt>
      <trkpt lat="44.44487" lon="3.24394">
        <ele>851.40002441406</ele>
        <time>2019-05-24T14:36:17Z</time>
      </trkpt>
      <trkpt lat="44.44489" lon="3.244">
        <ele>852</ele>
        <time>2019-05-24T14:36:20Z</time>
      </trkpt>
      <trkpt lat="44.4449" lon="3.24404">
        <ele>852.40002441406</ele>
        <time>2019-05-24T14:36:22Z</time>
      </trkpt>
      <trkpt lat="44.44492" lon="3.2441">
        <ele>852.79998779297</ele>
        <time>2019-05-24T14:36:25Z</time>
      </trkpt>
      <trkpt lat="44.44492" lon="3.24418">
        <ele>853.59997558594</ele>
        <time>2019-05-24T14:36:29Z</time>
      </trkpt>
      <trkpt lat="44.44493" lon="3.24434">
        <ele>854.59997558594</ele>
        <time>2019-05-24T14:36:35Z</time>
      </trkpt>
      <trkpt lat="44.44493" lon="3.24439">
        <ele>854.59997558594</ele>
        <time>2019-05-24T14:36:37Z</time>
      </trkpt>
      <trkpt lat="44.44492" lon="3.24446">
        <ele>855</ele>
        <time>2019-05-24T14:36:40Z</time>
      </trkpt>
      <trkpt lat="44.44489" lon="3.24452">
        <ele>855</ele>
        <time>2019-05-24T14:36:43Z</time>
      </trkpt>
      <trkpt lat="44.44487" lon="3.24455">
        <ele>855.20001220703</ele>
        <time>2019-05-24T14:36:45Z</time>
      </trkpt>
      <trkpt lat="44.44483" lon="3.24465">
        <ele>855.79998779297</ele>
        <time>2019-05-24T14:36:50Z</time>
      </trkpt>
      <trkpt lat="44.44482" lon="3.2447">
        <ele>856.20001220703</ele>
        <time>2019-05-24T14:36:52Z</time>
      </trkpt>
      <trkpt lat="44.44479" lon="3.24477">
        <ele>856.20001220703</ele>
        <time>2019-05-24T14:36:55Z</time>
      </trkpt>
      <trkpt lat="44.44479" lon="3.24481">
        <ele>856.59997558594</ele>
        <time>2019-05-24T14:36:57Z</time>
      </trkpt>
      <trkpt lat="44.44477" lon="3.24492">
        <ele>857.20001220703</ele>
        <time>2019-05-24T14:37:02Z</time>
      </trkpt>
      <trkpt lat="44.44477" lon="3.24495">
        <ele>857.20001220703</ele>
        <time>2019-05-24T14:37:03Z</time>
      </trkpt>
      <trkpt lat="44.44477" lon="3.24502">
        <ele>857.59997558594</ele>
        <time>2019-05-24T14:37:06Z</time>
      </trkpt>
      <trkpt lat="44.44476" lon="3.24511">
        <ele>858.20001220703</ele>
        <time>2019-05-24T14:37:10Z</time>
      </trkpt>
      <trkpt lat="44.44476" lon="3.24514">
        <ele>858.20001220703</ele>
        <time>2019-05-24T14:37:11Z</time>
      </trkpt>
      <trkpt lat="44.44477" lon="3.24523">
        <ele>858.59997558594</ele>
        <time>2019-05-24T14:37:15Z</time>
      </trkpt>
      <trkpt lat="44.44478" lon="3.24533">
        <ele>859.40002441406</ele>
        <time>2019-05-24T14:37:20Z</time>
      </trkpt>
      <trkpt lat="44.44479" lon="3.24542">
        <ele>860.20001220703</ele>
        <time>2019-05-24T14:37:24Z</time>
      </trkpt>
      <trkpt lat="44.44481" lon="3.24551">
        <ele>860.79998779297</ele>
        <time>2019-05-24T14:37:28Z</time>
      </trkpt>
      <trkpt lat="44.44483" lon="3.24556">
        <ele>861</ele>
        <time>2019-05-24T14:37:30Z</time>
      </trkpt>
      <trkpt lat="44.44487" lon="3.24569">
        <ele>861.59997558594</ele>
        <time>2019-05-24T14:37:35Z</time>
      </trkpt>
      <trkpt lat="44.44489" lon="3.24587">
        <ele>862.59997558594</ele>
        <time>2019-05-24T14:37:42Z</time>
      </trkpt>
      <trkpt lat="44.44491" lon="3.24594">
        <ele>863</ele>
        <time>2019-05-24T14:37:45Z</time>
      </trkpt>
      <trkpt lat="44.44492" lon="3.24596">
        <ele>863.20001220703</ele>
        <time>2019-05-24T14:37:46Z</time>
      </trkpt>
      <trkpt lat="44.44494" lon="3.24608">
        <ele>863.59997558594</ele>
        <time>2019-05-24T14:37:50Z</time>
      </trkpt>
      <trkpt lat="44.44501" lon="3.24629">
        <ele>864</ele>
        <time>2019-05-24T14:37:56Z</time>
      </trkpt>
      <trkpt lat="44.44507" lon="3.24645">
        <ele>864.40002441406</ele>
        <time>2019-05-24T14:38:00Z</time>
      </trkpt>
      <trkpt lat="44.44517" lon="3.24666">
        <ele>865.20001220703</ele>
        <time>2019-05-24T14:38:05Z</time>
      </trkpt>
      <trkpt lat="44.4452" lon="3.24679">
        <ele>865.40002441406</ele>
        <time>2019-05-24T14:38:08Z</time>
      </trkpt>
      <trkpt lat="44.44523" lon="3.24704">
        <ele>866.59997558594</ele>
        <time>2019-05-24T14:38:14Z</time>
      </trkpt>
      <trkpt lat="44.44524" lon="3.24709">
        <ele>866.59997558594</ele>
        <time>2019-05-24T14:38:15Z</time>
      </trkpt>
      <trkpt lat="44.44526" lon="3.24723">
        <ele>866.79998779297</ele>
        <time>2019-05-24T14:38:17Z</time>
      </trkpt>
      <trkpt lat="44.44533" lon="3.24753">
        <ele>867.20001220703</ele>
        <time>2019-05-24T14:38:21Z</time>
      </trkpt>
      <trkpt lat="44.44541" lon="3.248">
        <ele>868</ele>
        <time>2019-05-24T14:38:27Z</time>
      </trkpt>
      <trkpt lat="44.44549" lon="3.24842">
        <ele>868.40002441406</ele>
        <time>2019-05-24T14:38:33Z</time>
      </trkpt>
      <trkpt lat="44.44552" lon="3.24853">
        <ele>868.59997558594</ele>
        <time>2019-05-24T14:38:35Z</time>
      </trkpt>
      <trkpt lat="44.44555" lon="3.24869">
        <ele>869</ele>
        <time>2019-05-24T14:38:38Z</time>
      </trkpt>
      <trkpt lat="44.4456" lon="3.24902">
        <ele>869.79998779297</ele>
        <time>2019-05-24T14:38:44Z</time>
      </trkpt>
      <trkpt lat="44.44561" lon="3.24908">
        <ele>869.79998779297</ele>
        <time>2019-05-24T14:38:45Z</time>
      </trkpt>
      <trkpt lat="44.44561" lon="3.24918">
        <ele>870</ele>
        <time>2019-05-24T14:38:47Z</time>
      </trkpt>
      <trkpt lat="44.44561" lon="3.24939">
        <ele>870.20001220703</ele>
        <time>2019-05-24T14:38:50Z</time>
      </trkpt>
      <trkpt lat="44.44562" lon="3.24946">
        <ele>870.40002441406</ele>
        <time>2019-05-24T14:38:51Z</time>
      </trkpt>
      <trkpt lat="44.44564" lon="3.24953">
        <ele>870.40002441406</ele>
        <time>2019-05-24T14:38:52Z</time>
      </trkpt>
      <trkpt lat="44.44569" lon="3.24966">
        <ele>870.59997558594</ele>
        <time>2019-05-24T14:38:54Z</time>
      </trkpt>
      <trkpt lat="44.44573" lon="3.24971">
        <ele>870.79998779297</ele>
        <time>2019-05-24T14:38:55Z</time>
      </trkpt>
      <trkpt lat="44.44576" lon="3.24977">
        <ele>870.79998779297</ele>
        <time>2019-05-24T14:38:56Z</time>
      </trkpt>
      <trkpt lat="44.44584" lon="3.25002">
        <ele>871.40002441406</ele>
        <time>2019-05-24T14:39:00Z</time>
      </trkpt>
      <trkpt lat="44.44587" lon="3.25028">
        <ele>871.59997558594</ele>
        <time>2019-05-24T14:39:04Z</time>
      </trkpt>
      <trkpt lat="44.44587" lon="3.25034">
        <ele>871.59997558594</ele>
        <time>2019-05-24T14:39:05Z</time>
      </trkpt>
      <trkpt lat="44.44583" lon="3.25065">
        <ele>871.79998779297</ele>
        <time>2019-05-24T14:39:09Z</time>
      </trkpt>
      <trkpt lat="44.44583" lon="3.25075">
        <ele>871.79998779297</ele>
        <time>2019-05-24T14:39:10Z</time>
      </trkpt>
      <trkpt lat="44.44585" lon="3.25104">
        <ele>871.79998779297</ele>
        <time>2019-05-24T14:39:13Z</time>
      </trkpt>
      <trkpt lat="44.4459" lon="3.25159">
        <ele>871.79998779297</ele>
        <time>2019-05-24T14:39:19Z</time>
      </trkpt>
      <trkpt lat="44.44595" lon="3.25172">
        <ele>871.79998779297</ele>
        <time>2019-05-24T14:39:21Z</time>
      </trkpt>
      <trkpt lat="44.44599" lon="3.25186">
        <ele>871.79998779297</ele>
        <time>2019-05-24T14:39:23Z</time>
      </trkpt>
      <trkpt lat="44.44603" lon="3.25202">
        <ele>871.59997558594</ele>
        <time>2019-05-24T14:39:25Z</time>
      </trkpt>
      <trkpt lat="44.44612" lon="3.25219">
        <ele>871.59997558594</ele>
        <time>2019-05-24T14:39:27Z</time>
      </trkpt>
      <trkpt lat="44.44622" lon="3.25235">
        <ele>871.59997558594</ele>
        <time>2019-05-24T14:39:29Z</time>
      </trkpt>
      <trkpt lat="44.44629" lon="3.25255">
        <ele>871.59997558594</ele>
        <time>2019-05-24T14:39:31Z</time>
      </trkpt>
      <trkpt lat="44.44632" lon="3.25272">
        <ele>871.40002441406</ele>
        <time>2019-05-24T14:39:33Z</time>
      </trkpt>
      <trkpt lat="44.44633" lon="3.25277">
        <ele>871.40002441406</ele>
        <time>2019-05-24T14:39:34Z</time>
      </trkpt>
      <trkpt lat="44.44633" lon="3.25283">
        <ele>871.20001220703</ele>
        <time>2019-05-24T14:39:35Z</time>
      </trkpt>
      <trkpt lat="44.44633" lon="3.25295">
        <ele>871</ele>
        <time>2019-05-24T14:39:37Z</time>
      </trkpt>
      <trkpt lat="44.44635" lon="3.25308">
        <ele>870.59997558594</ele>
        <time>2019-05-24T14:39:39Z</time>
      </trkpt>
      <trkpt lat="44.4464" lon="3.2532">
        <ele>870.40002441406</ele>
        <time>2019-05-24T14:39:41Z</time>
      </trkpt>
      <trkpt lat="44.44646" lon="3.2533">
        <ele>870.20001220703</ele>
        <time>2019-05-24T14:39:43Z</time>
      </trkpt>
      <trkpt lat="44.44652" lon="3.2534">
        <ele>870</ele>
        <time>2019-05-24T14:39:45Z</time>
      </trkpt>
      <trkpt lat="44.44656" lon="3.25344">
        <ele>869.79998779297</ele>
        <time>2019-05-24T14:39:46Z</time>
      </trkpt>
      <trkpt lat="44.44663" lon="3.25357">
        <ele>869.40002441406</ele>
        <time>2019-05-24T14:39:49Z</time>
      </trkpt>
      <trkpt lat="44.4467" lon="3.25377">
        <ele>868.79998779297</ele>
        <time>2019-05-24T14:39:53Z</time>
      </trkpt>
      <trkpt lat="44.44683" lon="3.25397">
        <ele>868.20001220703</ele>
        <time>2019-05-24T14:39:58Z</time>
      </trkpt>
      <trkpt lat="44.44697" lon="3.25411">
        <ele>867.79998779297</ele>
        <time>2019-05-24T14:40:03Z</time>
      </trkpt>
      <trkpt lat="44.44711" lon="3.25431">
        <ele>867.59997558594</ele>
        <time>2019-05-24T14:40:09Z</time>
      </trkpt>
      <trkpt lat="44.4472" lon="3.25447">
        <ele>867.59997558594</ele>
        <time>2019-05-24T14:40:14Z</time>
      </trkpt>
      <trkpt lat="44.44734" lon="3.25469">
        <ele>867.59997558594</ele>
        <time>2019-05-24T14:40:21Z</time>
      </trkpt>
      <trkpt lat="44.44746" lon="3.25488">
        <ele>867.20001220703</ele>
        <time>2019-05-24T14:40:27Z</time>
      </trkpt>
      <trkpt lat="44.44754" lon="3.25492">
        <ele>867.20001220703</ele>
        <time>2019-05-24T14:40:29Z</time>
      </trkpt>
      <trkpt lat="44.44763" lon="3.25496">
        <ele>867</ele>
        <time>2019-05-24T14:40:31Z</time>
      </trkpt>
      <trkpt lat="44.44784" lon="3.25503">
        <ele>866.59997558594</ele>
        <time>2019-05-24T14:40:35Z</time>
      </trkpt>
      <trkpt lat="44.44788" lon="3.25507">
        <ele>866.40002441406</ele>
        <time>2019-05-24T14:40:36Z</time>
      </trkpt>
      <trkpt lat="44.44793" lon="3.25512">
        <ele>866.20001220703</ele>
        <time>2019-05-24T14:40:37Z</time>
      </trkpt>
      <trkpt lat="44.448" lon="3.25526">
        <ele>866</ele>
        <time>2019-05-24T14:40:39Z</time>
      </trkpt>
      <trkpt lat="44.44814" lon="3.25561">
        <ele>865</ele>
        <time>2019-05-24T14:40:44Z</time>
      </trkpt>
      <trkpt lat="44.44817" lon="3.25567">
        <ele>864.79998779297</ele>
        <time>2019-05-24T14:40:45Z</time>
      </trkpt>
      <trkpt lat="44.44832" lon="3.25605">
        <ele>863.40002441406</ele>
        <time>2019-05-24T14:40:51Z</time>
      </trkpt>
      <trkpt lat="44.44843" lon="3.25635">
        <ele>862.20001220703</ele>
        <time>2019-05-24T14:40:57Z</time>
      </trkpt>
      <trkpt lat="44.44853" lon="3.25666">
        <ele>861</ele>
        <time>2019-05-24T14:41:04Z</time>
      </trkpt>
      <trkpt lat="44.44861" lon="3.25693">
        <ele>860</ele>
        <time>2019-05-24T14:41:11Z</time>
      </trkpt>
      <trkpt lat="44.44865" lon="3.25717">
        <ele>859.20001220703</ele>
        <time>2019-05-24T14:41:17Z</time>
      </trkpt>
      <trkpt lat="44.44869" lon="3.25741">
        <ele>858.59997558594</ele>
        <time>2019-05-24T14:41:22Z</time>
      </trkpt>
      <trkpt lat="44.44876" lon="3.25779">
        <ele>857.59997558594</ele>
        <time>2019-05-24T14:41:29Z</time>
      </trkpt>
      <trkpt lat="44.44884" lon="3.25816">
        <ele>857</ele>
        <time>2019-05-24T14:41:36Z</time>
      </trkpt>
      <trkpt lat="44.44887" lon="3.25839">
        <ele>857.20001220703</ele>
        <time>2019-05-24T14:41:41Z</time>
      </trkpt>
      <trkpt lat="44.44892" lon="3.25863">
        <ele>857</ele>
        <time>2019-05-24T14:41:47Z</time>
      </trkpt>
      <trkpt lat="44.44895" lon="3.25882">
        <ele>857</ele>
        <time>2019-05-24T14:41:52Z</time>
      </trkpt>
      <trkpt lat="44.44898" lon="3.2591">
        <ele>856.59997558594</ele>
        <time>2019-05-24T14:41:59Z</time>
      </trkpt>
      <trkpt lat="44.44898" lon="3.25932">
        <ele>856.40002441406</ele>
        <time>2019-05-24T14:42:05Z</time>
      </trkpt>
      <trkpt lat="44.44898" lon="3.25949">
        <ele>856.40002441406</ele>
        <time>2019-05-24T14:42:10Z</time>
      </trkpt>
      <trkpt lat="44.44897" lon="3.25967">
        <ele>856.40002441406</ele>
        <time>2019-05-24T14:42:16Z</time>
      </trkpt>
      <trkpt lat="44.44897" lon="3.25988">
        <ele>856.20001220703</ele>
        <time>2019-05-24T14:42:23Z</time>
      </trkpt>
      <trkpt lat="44.44896" lon="3.26013">
        <ele>856.79998779297</ele>
        <time>2019-05-24T14:42:32Z</time>
      </trkpt>
      <trkpt lat="44.44894" lon="3.26029">
        <ele>856.79998779297</ele>
        <time>2019-05-24T14:42:39Z</time>
      </trkpt>
      <trkpt lat="44.4489" lon="3.26047">
        <ele>857.20001220703</ele>
        <time>2019-05-24T14:42:47Z</time>
      </trkpt>
      <trkpt lat="44.44886" lon="3.2607">
        <ele>858.20001220703</ele>
        <time>2019-05-24T14:42:57Z</time>
      </trkpt>
      <trkpt lat="44.44885" lon="3.26074">
        <ele>858.40002441406</ele>
        <time>2019-05-24T14:42:59Z</time>
      </trkpt>
      <trkpt lat="44.44885" lon="3.26081">
        <ele>858.79998779297</ele>
        <time>2019-05-24T14:43:02Z</time>
      </trkpt>
      <trkpt lat="44.44885" lon="3.26085">
        <ele>858.79998779297</ele>
        <time>2019-05-24T14:43:04Z</time>
      </trkpt>
      <trkpt lat="44.44884" lon="3.26089">
        <ele>859.20001220703</ele>
        <time>2019-05-24T14:43:06Z</time>
      </trkpt>
      <trkpt lat="44.44885" lon="3.26091">
        <ele>859.20001220703</ele>
        <time>2019-05-24T14:43:07Z</time>
      </trkpt>
      <trkpt lat="44.44882" lon="3.26102">
        <ele>859.79998779297</ele>
        <time>2019-05-24T14:43:12Z</time>
      </trkpt>
      <trkpt lat="44.44876" lon="3.26112">
        <ele>860</ele>
        <time>2019-05-24T14:43:17Z</time>
      </trkpt>
      <trkpt lat="44.4487" lon="3.26119">
        <ele>860.40002441406</ele>
        <time>2019-05-24T14:43:23Z</time>
      </trkpt>
      <trkpt lat="44.44869" lon="3.2612">
        <ele>860.40002441406</ele>
        <time>2019-05-24T14:43:24Z</time>
      </trkpt>
      <trkpt lat="44.44868" lon="3.26123">
        <ele>860.59997558594</ele>
        <time>2019-05-24T14:43:26Z</time>
      </trkpt>
      <trkpt lat="44.44866" lon="3.26129">
        <ele>860.59997558594</ele>
        <time>2019-05-24T14:43:30Z</time>
      </trkpt>
      <trkpt lat="44.44861" lon="3.26138">
        <ele>860.40002441406</ele>
        <time>2019-05-24T14:43:36Z</time>
      </trkpt>
      <trkpt lat="44.44855" lon="3.26151">
        <ele>860.40002441406</ele>
        <time>2019-05-24T14:43:44Z</time>
      </trkpt>
      <trkpt lat="44.44851" lon="3.26158">
        <ele>860.59997558594</ele>
        <time>2019-05-24T14:43:48Z</time>
      </trkpt>
      <trkpt lat="44.44849" lon="3.26165">
        <ele>860.59997558594</ele>
        <time>2019-05-24T14:43:51Z</time>
      </trkpt>
      <trkpt lat="44.44843" lon="3.26178">
        <ele>861</ele>
        <time>2019-05-24T14:43:57Z</time>
      </trkpt>
      <trkpt lat="44.44843" lon="3.2618">
        <ele>861</ele>
        <time>2019-05-24T14:43:58Z</time>
      </trkpt>
      <trkpt lat="44.44837" lon="3.26193">
        <ele>861.20001220703</ele>
        <time>2019-05-24T14:44:04Z</time>
      </trkpt>
      <trkpt lat="44.4483" lon="3.26208">
        <ele>861.40002441406</ele>
        <time>2019-05-24T14:44:10Z</time>
      </trkpt>
      <trkpt lat="44.44818" lon="3.26229">
        <ele>861.59997558594</ele>
        <time>2019-05-24T14:44:18Z</time>
      </trkpt>
      <trkpt lat="44.44811" lon="3.26238">
        <ele>861.79998779297</ele>
        <time>2019-05-24T14:44:22Z</time>
      </trkpt>
      <trkpt lat="44.44809" lon="3.26239">
        <ele>861.79998779297</ele>
        <time>2019-05-24T14:44:23Z</time>
      </trkpt>
      <trkpt lat="44.44797" lon="3.26245">
        <ele>862</ele>
        <time>2019-05-24T14:44:29Z</time>
      </trkpt>
      <trkpt lat="44.44784" lon="3.26247">
        <ele>863.20001220703</ele>
        <time>2019-05-24T14:44:35Z</time>
      </trkpt>
      <trkpt lat="44.44769" lon="3.26253">
        <ele>864.40002441406</ele>
        <time>2019-05-24T14:44:42Z</time>
      </trkpt>
      <trkpt lat="44.44757" lon="3.26262">
        <ele>865.20001220703</ele>
        <time>2019-05-24T14:44:47Z</time>
      </trkpt>
      <trkpt lat="44.44739" lon="3.26273">
        <ele>865.40002441406</ele>
        <time>2019-05-24T14:44:52Z</time>
      </trkpt>
      <trkpt lat="44.44715" lon="3.26291">
        <ele>865.79998779297</ele>
        <time>2019-05-24T14:44:57Z</time>
      </trkpt>
      <trkpt lat="44.44711" lon="3.26295">
        <ele>865.79998779297</ele>
        <time>2019-05-24T14:44:58Z</time>
      </trkpt>
      <trkpt lat="44.44692" lon="3.26307">
        <ele>866.40002441406</ele>
        <time>2019-05-24T14:45:02Z</time>
      </trkpt>
      <trkpt lat="44.44688" lon="3.26308">
        <ele>866.40002441406</ele>
        <time>2019-05-24T14:45:03Z</time>
      </trkpt>
      <trkpt lat="44.44674" lon="3.2631">
        <ele>866.79998779297</ele>
        <time>2019-05-24T14:45:06Z</time>
      </trkpt>
      <trkpt lat="44.44669" lon="3.26309">
        <ele>866.79998779297</ele>
        <time>2019-05-24T14:45:07Z</time>
      </trkpt>
      <trkpt lat="44.44647" lon="3.2631">
        <ele>867.59997558594</ele>
        <time>2019-05-24T14:45:12Z</time>
      </trkpt>
      <trkpt lat="44.44632" lon="3.26312">
        <ele>868</ele>
        <time>2019-05-24T14:45:16Z</time>
      </trkpt>
      <trkpt lat="44.44622" lon="3.26321">
        <ele>868.59997558594</ele>
        <time>2019-05-24T14:45:20Z</time>
      </trkpt>
      <trkpt lat="44.4461" lon="3.26339">
        <ele>869</ele>
        <time>2019-05-24T14:45:26Z</time>
      </trkpt>
      <trkpt lat="44.44596" lon="3.26362">
        <ele>870</ele>
        <time>2019-05-24T14:45:34Z</time>
      </trkpt>
      <trkpt lat="44.44591" lon="3.26365">
        <ele>870.20001220703</ele>
        <time>2019-05-24T14:45:36Z</time>
      </trkpt>
      <trkpt lat="44.44587" lon="3.26365">
        <ele>870.40002441406</ele>
        <time>2019-05-24T14:45:38Z</time>
      </trkpt>
      <trkpt lat="44.44577" lon="3.26374">
        <ele>871</ele>
        <time>2019-05-24T14:45:43Z</time>
      </trkpt>
      <trkpt lat="44.44566" lon="3.26381">
        <ele>871.20001220703</ele>
        <time>2019-05-24T14:45:47Z</time>
      </trkpt>
      <trkpt lat="44.44554" lon="3.26387">
        <ele>871.59997558594</ele>
        <time>2019-05-24T14:45:51Z</time>
      </trkpt>
      <trkpt lat="44.44541" lon="3.26392">
        <ele>873</ele>
        <time>2019-05-24T14:45:57Z</time>
      </trkpt>
      <trkpt lat="44.44531" lon="3.26399">
        <ele>874.20001220703</ele>
        <time>2019-05-24T14:46:03Z</time>
      </trkpt>
      <trkpt lat="44.44519" lon="3.26406">
        <ele>875.20001220703</ele>
        <time>2019-05-24T14:46:09Z</time>
      </trkpt>
      <trkpt lat="44.44503" lon="3.26412">
        <ele>876.40002441406</ele>
        <time>2019-05-24T14:46:16Z</time>
      </trkpt>
      <trkpt lat="44.44485" lon="3.26411">
        <ele>877</ele>
        <time>2019-05-24T14:46:22Z</time>
      </trkpt>
      <trkpt lat="44.44469" lon="3.26401">
        <ele>878</ele>
        <time>2019-05-24T14:46:29Z</time>
      </trkpt>
      <trkpt lat="44.44458" lon="3.26399">
        <ele>879</ele>
        <time>2019-05-24T14:46:34Z</time>
      </trkpt>
      <trkpt lat="44.44446" lon="3.26398">
        <ele>880.20001220703</ele>
        <time>2019-05-24T14:46:40Z</time>
      </trkpt>
      <trkpt lat="44.44434" lon="3.26396">
        <ele>882</ele>
        <time>2019-05-24T14:46:46Z</time>
      </trkpt>
      <trkpt lat="44.4442" lon="3.26394">
        <ele>883.59997558594</ele>
        <time>2019-05-24T14:46:52Z</time>
      </trkpt>
      <trkpt lat="44.44406" lon="3.26394">
        <ele>885</ele>
        <time>2019-05-24T14:46:59Z</time>
      </trkpt>
      <trkpt lat="44.44392" lon="3.26391">
        <ele>886.20001220703</ele>
        <time>2019-05-24T14:47:05Z</time>
      </trkpt>
      <trkpt lat="44.4438" lon="3.26392">
        <ele>887.20001220703</ele>
        <time>2019-05-24T14:47:11Z</time>
      </trkpt>
      <trkpt lat="44.44368" lon="3.26396">
        <ele>888.20001220703</ele>
        <time>2019-05-24T14:47:17Z</time>
      </trkpt>
      <trkpt lat="44.44354" lon="3.26398">
        <ele>889.20001220703</ele>
        <time>2019-05-24T14:47:23Z</time>
      </trkpt>
      <trkpt lat="44.44344" lon="3.26397">
        <ele>890.59997558594</ele>
        <time>2019-05-24T14:47:28Z</time>
      </trkpt>
      <trkpt lat="44.44334" lon="3.26396">
        <ele>891.40002441406</ele>
        <time>2019-05-24T14:47:33Z</time>
      </trkpt>
      <trkpt lat="44.44324" lon="3.26391">
        <ele>892.20001220703</ele>
        <time>2019-05-24T14:47:37Z</time>
      </trkpt>
      <trkpt lat="44.44317" lon="3.26384">
        <ele>893.59997558594</ele>
        <time>2019-05-24T14:47:42Z</time>
      </trkpt>
      <trkpt lat="44.44304" lon="3.26377">
        <ele>895</ele>
        <time>2019-05-24T14:47:52Z</time>
      </trkpt>
      <trkpt lat="44.44294" lon="3.26375">
        <ele>895.59997558594</ele>
        <time>2019-05-24T14:47:57Z</time>
      </trkpt>
      <trkpt lat="44.44282" lon="3.26372">
        <ele>896.40002441406</ele>
        <time>2019-05-24T14:48:04Z</time>
      </trkpt>
      <trkpt lat="44.44273" lon="3.26373">
        <ele>897.40002441406</ele>
        <time>2019-05-24T14:48:09Z</time>
      </trkpt>
      <trkpt lat="44.44266" lon="3.26372">
        <ele>898.20001220703</ele>
        <time>2019-05-24T14:48:14Z</time>
      </trkpt>
      <trkpt lat="44.44263" lon="3.26372">
        <ele>898.59997558594</ele>
        <time>2019-05-24T14:48:16Z</time>
      </trkpt>
      <trkpt lat="44.44253" lon="3.26373">
        <ele>900</ele>
        <time>2019-05-24T14:48:23Z</time>
      </trkpt>
      <trkpt lat="44.44227" lon="3.26369">
        <ele>903.20001220703</ele>
        <time>2019-05-24T14:48:43Z</time>
      </trkpt>
      <trkpt lat="44.44221" lon="3.26367">
        <ele>904</ele>
        <time>2019-05-24T14:48:47Z</time>
      </trkpt>
      <trkpt lat="44.4422" lon="3.26367">
        <ele>904</ele>
        <time>2019-05-24T14:48:48Z</time>
      </trkpt>
      <trkpt lat="44.44216" lon="3.26365">
        <ele>904.79998779297</ele>
        <time>2019-05-24T14:48:51Z</time>
      </trkpt>
      <trkpt lat="44.44211" lon="3.26363">
        <ele>905.40002441406</ele>
        <time>2019-05-24T14:48:54Z</time>
      </trkpt>
      <trkpt lat="44.44203" lon="3.26366">
        <ele>906.59997558594</ele>
        <time>2019-05-24T14:49:00Z</time>
      </trkpt>
      <trkpt lat="44.44193" lon="3.26366">
        <ele>907.59997558594</ele>
        <time>2019-05-24T14:49:06Z</time>
      </trkpt>
      <trkpt lat="44.44183" lon="3.26368">
        <ele>908.59997558594</ele>
        <time>2019-05-24T14:49:13Z</time>
      </trkpt>
      <trkpt lat="44.44171" lon="3.26378">
        <ele>909.59997558594</ele>
        <time>2019-05-24T14:49:21Z</time>
      </trkpt>
      <trkpt lat="44.44166" lon="3.26383">
        <ele>909.79998779297</ele>
        <time>2019-05-24T14:49:25Z</time>
      </trkpt>
      <trkpt lat="44.44163" lon="3.26385">
        <ele>910</ele>
        <time>2019-05-24T14:49:27Z</time>
      </trkpt>
      <trkpt lat="44.44155" lon="3.26383">
        <ele>911</ele>
        <time>2019-05-24T14:49:33Z</time>
      </trkpt>
      <trkpt lat="44.44146" lon="3.26383">
        <ele>912.20001220703</ele>
        <time>2019-05-24T14:49:39Z</time>
      </trkpt>
      <trkpt lat="44.44145" lon="3.26383">
        <ele>912.40002441406</ele>
        <time>2019-05-24T14:49:40Z</time>
      </trkpt>
      <trkpt lat="44.44141" lon="3.26383">
        <ele>912.79998779297</ele>
        <time>2019-05-24T14:49:42Z</time>
      </trkpt>
      <trkpt lat="44.44138" lon="3.26384">
        <ele>913.20001220703</ele>
        <time>2019-05-24T14:49:44Z</time>
      </trkpt>
      <trkpt lat="44.44134" lon="3.26385">
        <ele>913.59997558594</ele>
        <time>2019-05-24T14:49:46Z</time>
      </trkpt>
      <trkpt lat="44.44123" lon="3.26391">
        <ele>914.59997558594</ele>
        <time>2019-05-24T14:49:52Z</time>
      </trkpt>
      <trkpt lat="44.44116" lon="3.26397">
        <ele>915.20001220703</ele>
        <time>2019-05-24T14:49:56Z</time>
      </trkpt>
      <trkpt lat="44.44114" lon="3.26401">
        <ele>915.59997558594</ele>
        <time>2019-05-24T14:49:58Z</time>
      </trkpt>
      <trkpt lat="44.44111" lon="3.26404">
        <ele>915.79998779297</ele>
        <time>2019-05-24T14:50:00Z</time>
      </trkpt>
      <trkpt lat="44.44108" lon="3.26406">
        <ele>916</ele>
        <time>2019-05-24T14:50:02Z</time>
      </trkpt>
      <trkpt lat="44.44102" lon="3.26414">
        <ele>916.79998779297</ele>
        <time>2019-05-24T14:50:07Z</time>
      </trkpt>
      <trkpt lat="44.44088" lon="3.26428">
        <ele>917.40002441406</ele>
        <time>2019-05-24T14:50:15Z</time>
      </trkpt>
      <trkpt lat="44.44079" lon="3.26434">
        <ele>917.59997558594</ele>
        <time>2019-05-24T14:50:21Z</time>
      </trkpt>
      <trkpt lat="44.44065" lon="3.26434">
        <ele>918.40002441406</ele>
        <time>2019-05-24T14:50:28Z</time>
      </trkpt>
      <trkpt lat="44.44051" lon="3.26428">
        <ele>918.59997558594</ele>
        <time>2019-05-24T14:50:33Z</time>
      </trkpt>
      <trkpt lat="44.44037" lon="3.26422">
        <ele>918.59997558594</ele>
        <time>2019-05-24T14:50:38Z</time>
      </trkpt>
      <trkpt lat="44.44018" lon="3.2642">
        <ele>918.59997558594</ele>
        <time>2019-05-24T14:50:42Z</time>
      </trkpt>
      <trkpt lat="44.44009" lon="3.26415">
        <ele>918.59997558594</ele>
        <time>2019-05-24T14:50:44Z</time>
      </trkpt>
      <trkpt lat="44.44003" lon="3.26406">
        <ele>918.59997558594</ele>
        <time>2019-05-24T14:50:46Z</time>
      </trkpt>
      <trkpt lat="44.43998" lon="3.26397">
        <ele>918.59997558594</ele>
        <time>2019-05-24T14:50:48Z</time>
      </trkpt>
      <trkpt lat="44.43989" lon="3.26386">
        <ele>918.79998779297</ele>
        <time>2019-05-24T14:50:51Z</time>
      </trkpt>
      <trkpt lat="44.43976" lon="3.26377">
        <ele>919.40002441406</ele>
        <time>2019-05-24T14:50:56Z</time>
      </trkpt>
      <trkpt lat="44.43964" lon="3.26367">
        <ele>919.79998779297</ele>
        <time>2019-05-24T14:51:00Z</time>
      </trkpt>
      <trkpt lat="44.43961" lon="3.26364">
        <ele>920</ele>
        <time>2019-05-24T14:51:01Z</time>
      </trkpt>
      <trkpt lat="44.43955" lon="3.26356">
        <ele>920</ele>
        <time>2019-05-24T14:51:03Z</time>
      </trkpt>
      <trkpt lat="44.43947" lon="3.2635">
        <ele>920.20001220703</ele>
        <time>2019-05-24T14:51:05Z</time>
      </trkpt>
      <trkpt lat="44.43943" lon="3.26347">
        <ele>920.20001220703</ele>
        <time>2019-05-24T14:51:06Z</time>
      </trkpt>
      <trkpt lat="44.43933" lon="3.26343">
        <ele>920.20001220703</ele>
        <time>2019-05-24T14:51:08Z</time>
      </trkpt>
      <trkpt lat="44.43921" lon="3.26342">
        <ele>920.20001220703</ele>
        <time>2019-05-24T14:51:10Z</time>
      </trkpt>
      <trkpt lat="44.43895" lon="3.2634">
        <ele>920</ele>
        <time>2019-05-24T14:51:14Z</time>
      </trkpt>
      <trkpt lat="44.43847" lon="3.26337">
        <ele>919.79998779297</ele>
        <time>2019-05-24T14:51:21Z</time>
      </trkpt>
      <trkpt lat="44.4384" lon="3.26336">
        <ele>919.59997558594</ele>
        <time>2019-05-24T14:51:22Z</time>
      </trkpt>
      <trkpt lat="44.43828" lon="3.26335">
        <ele>919.79998779297</ele>
        <time>2019-05-24T14:51:24Z</time>
      </trkpt>
      <trkpt lat="44.43796" lon="3.26334">
        <ele>920</ele>
        <time>2019-05-24T14:51:29Z</time>
      </trkpt>
      <trkpt lat="44.43778" lon="3.2633">
        <ele>920.20001220703</ele>
        <time>2019-05-24T14:51:32Z</time>
      </trkpt>
      <trkpt lat="44.43774" lon="3.26327">
        <ele>920.20001220703</ele>
        <time>2019-05-24T14:51:33Z</time>
      </trkpt>
      <trkpt lat="44.43766" lon="3.2632">
        <ele>920.40002441406</ele>
        <time>2019-05-24T14:51:35Z</time>
      </trkpt>
      <trkpt lat="44.43756" lon="3.2631">
        <ele>920.59997558594</ele>
        <time>2019-05-24T14:51:38Z</time>
      </trkpt>
      <trkpt lat="44.43744" lon="3.263">
        <ele>920.79998779297</ele>
        <time>2019-05-24T14:51:42Z</time>
      </trkpt>
      <trkpt lat="44.43742" lon="3.26296">
        <ele>920.79998779297</ele>
        <time>2019-05-24T14:51:45Z</time>
      </trkpt>
      <trkpt lat="44.43743" lon="3.26295">
        <ele>920.79998779297</ele>
        <time>2019-05-24T14:51:46Z</time>
      </trkpt>
      <trkpt lat="44.43746" lon="3.26291">
        <ele>920.79998779297</ele>
        <time>2019-05-24T14:51:48Z</time>
      </trkpt>
      <trkpt lat="44.43747" lon="3.26287">
        <ele>920.79998779297</ele>
        <time>2019-05-24T14:51:50Z</time>
      </trkpt>
      <trkpt lat="44.43754" lon="3.2627">
        <ele>920.79998779297</ele>
        <time>2019-05-24T14:51:56Z</time>
      </trkpt>
      <trkpt lat="44.4376" lon="3.26259">
        <ele>920.59997558594</ele>
        <time>2019-05-24T14:52:02Z</time>
      </trkpt>
      <trkpt lat="44.43765" lon="3.26251">
        <ele>920.59997558594</ele>
        <time>2019-05-24T14:52:06Z</time>
      </trkpt>
      <trkpt lat="44.43766" lon="3.26249">
        <ele>920.59997558594</ele>
        <time>2019-05-24T14:52:07Z</time>
      </trkpt>
      <trkpt lat="44.43767" lon="3.26245">
        <ele>920.59997558594</ele>
        <time>2019-05-24T14:52:09Z</time>
      </trkpt>
      <trkpt lat="44.43769" lon="3.26241">
        <ele>920.59997558594</ele>
        <time>2019-05-24T14:52:11Z</time>
      </trkpt>
      <trkpt lat="44.43771" lon="3.26236">
        <ele>920.59997558594</ele>
        <time>2019-05-24T14:52:13Z</time>
      </trkpt>
      <trkpt lat="44.43775" lon="3.26229">
        <ele>920.79998779297</ele>
        <time>2019-05-24T14:52:17Z</time>
      </trkpt>
      <trkpt lat="44.43783" lon="3.26211">
        <ele>921</ele>
        <time>2019-05-24T14:52:26Z</time>
      </trkpt>
      <trkpt lat="44.43788" lon="3.26202">
        <ele>921</ele>
        <time>2019-05-24T14:52:30Z</time>
      </trkpt>
      <trkpt lat="44.43814" lon="3.26151">
        <ele>922.40002441406</ele>
        <time>2019-05-24T14:52:55Z</time>
      </trkpt>
      <trkpt lat="44.43816" lon="3.26146">
        <ele>922.40002441406</ele>
        <time>2019-05-24T14:52:57Z</time>
      </trkpt>
      <trkpt lat="44.43818" lon="3.26142">
        <ele>922.40002441406</ele>
        <time>2019-05-24T14:52:59Z</time>
      </trkpt>
      <trkpt lat="44.4382" lon="3.26132">
        <ele>922.59997558594</ele>
        <time>2019-05-24T14:53:03Z</time>
      </trkpt>
      <trkpt lat="44.4382" lon="3.26129">
        <ele>922.59997558594</ele>
        <time>2019-05-24T14:53:04Z</time>
      </trkpt>
      <trkpt lat="44.43821" lon="3.26122">
        <ele>922.79998779297</ele>
        <time>2019-05-24T14:53:07Z</time>
      </trkpt>
      <trkpt lat="44.43822" lon="3.26119">
        <ele>922.79998779297</ele>
        <time>2019-05-24T14:53:08Z</time>
      </trkpt>
      <trkpt lat="44.43824" lon="3.26116">
        <ele>923</ele>
        <time>2019-05-24T14:53:10Z</time>
      </trkpt>
      <trkpt lat="44.43825" lon="3.26106">
        <ele>923</ele>
        <time>2019-05-24T14:53:13Z</time>
      </trkpt>
      <trkpt lat="44.43825" lon="3.26102">
        <ele>923</ele>
        <time>2019-05-24T14:53:14Z</time>
      </trkpt>
      <trkpt lat="44.43828" lon="3.26088">
        <ele>922.79998779297</ele>
        <time>2019-05-24T14:53:19Z</time>
      </trkpt>
      <trkpt lat="44.43831" lon="3.26076">
        <ele>922.79998779297</ele>
        <time>2019-05-24T14:53:23Z</time>
      </trkpt>
      <trkpt lat="44.43832" lon="3.26073">
        <ele>922.79998779297</ele>
        <time>2019-05-24T14:53:24Z</time>
      </trkpt>
      <trkpt lat="44.43833" lon="3.26069">
        <ele>923</ele>
        <time>2019-05-24T14:53:26Z</time>
      </trkpt>
      <trkpt lat="44.43833" lon="3.26056">
        <ele>923</ele>
        <time>2019-05-24T14:53:30Z</time>
      </trkpt>
      <trkpt lat="44.43834" lon="3.26052">
        <ele>923</ele>
        <time>2019-05-24T14:53:31Z</time>
      </trkpt>
      <trkpt lat="44.43834" lon="3.26048">
        <ele>923</ele>
        <time>2019-05-24T14:53:32Z</time>
      </trkpt>
      <trkpt lat="44.43837" lon="3.26039">
        <ele>923</ele>
        <time>2019-05-24T14:53:35Z</time>
      </trkpt>
      <trkpt lat="44.43842" lon="3.26029">
        <ele>922.79998779297</ele>
        <time>2019-05-24T14:53:39Z</time>
      </trkpt>
      <trkpt lat="44.43842" lon="3.26026">
        <ele>922.79998779297</ele>
        <time>2019-05-24T14:53:40Z</time>
      </trkpt>
      <trkpt lat="44.43845" lon="3.26021">
        <ele>922.59997558594</ele>
        <time>2019-05-24T14:53:42Z</time>
      </trkpt>
      <trkpt lat="44.43847" lon="3.26015">
        <ele>922.40002441406</ele>
        <time>2019-05-24T14:53:44Z</time>
      </trkpt>
      <trkpt lat="44.4385" lon="3.2601">
        <ele>922.59997558594</ele>
        <time>2019-05-24T14:53:47Z</time>
      </trkpt>
      <trkpt lat="44.43852" lon="3.26007">
        <ele>922.79998779297</ele>
        <time>2019-05-24T14:53:48Z</time>
      </trkpt>
      <trkpt lat="44.43856" lon="3.25994">
        <ele>923.40002441406</ele>
        <time>2019-05-24T14:53:53Z</time>
      </trkpt>
      <trkpt lat="44.43859" lon="3.25986">
        <ele>923.79998779297</ele>
        <time>2019-05-24T14:53:56Z</time>
      </trkpt>
      <trkpt lat="44.43861" lon="3.25983">
        <ele>923.79998779297</ele>
        <time>2019-05-24T14:53:57Z</time>
      </trkpt>
      <trkpt lat="44.43863" lon="3.25976">
        <ele>923.79998779297</ele>
        <time>2019-05-24T14:53:59Z</time>
      </trkpt>
      <trkpt lat="44.43863" lon="3.25968">
        <ele>924</ele>
        <time>2019-05-24T14:54:01Z</time>
      </trkpt>
      <trkpt lat="44.43864" lon="3.25964">
        <ele>924</ele>
        <time>2019-05-24T14:54:02Z</time>
      </trkpt>
      <trkpt lat="44.43868" lon="3.25951">
        <ele>924</ele>
        <time>2019-05-24T14:54:06Z</time>
      </trkpt>
      <trkpt lat="44.43874" lon="3.25931">
        <ele>924.40002441406</ele>
        <time>2019-05-24T14:54:12Z</time>
      </trkpt>
      <trkpt lat="44.43878" lon="3.25908">
        <ele>925</ele>
        <time>2019-05-24T14:54:18Z</time>
      </trkpt>
      <trkpt lat="44.4388" lon="3.25903">
        <ele>925.20001220703</ele>
        <time>2019-05-24T14:54:19Z</time>
      </trkpt>
      <trkpt lat="44.43882" lon="3.25893">
        <ele>925.40002441406</ele>
        <time>2019-05-24T14:54:22Z</time>
      </trkpt>
      <trkpt lat="44.43888" lon="3.2588">
        <ele>925.79998779297</ele>
        <time>2019-05-24T14:54:27Z</time>
      </trkpt>
      <trkpt lat="44.4389" lon="3.25876">
        <ele>926</ele>
        <time>2019-05-24T14:54:28Z</time>
      </trkpt>
      <trkpt lat="44.43895" lon="3.25868">
        <ele>926.20001220703</ele>
        <time>2019-05-24T14:54:31Z</time>
      </trkpt>
      <trkpt lat="44.43902" lon="3.25851">
        <ele>926.20001220703</ele>
        <time>2019-05-24T14:54:36Z</time>
      </trkpt>
      <trkpt lat="44.43905" lon="3.25844">
        <ele>926.20001220703</ele>
        <time>2019-05-24T14:54:38Z</time>
      </trkpt>
      <trkpt lat="44.43906" lon="3.25837">
        <ele>926.20001220703</ele>
        <time>2019-05-24T14:54:40Z</time>
      </trkpt>
      <trkpt lat="44.43907" lon="3.25834">
        <ele>926.20001220703</ele>
        <time>2019-05-24T14:54:41Z</time>
      </trkpt>
      <trkpt lat="44.4391" lon="3.25825">
        <ele>926.40002441406</ele>
        <time>2019-05-24T14:54:44Z</time>
      </trkpt>
      <trkpt lat="44.43911" lon="3.25822">
        <ele>926.40002441406</ele>
        <time>2019-05-24T14:54:45Z</time>
      </trkpt>
      <trkpt lat="44.43912" lon="3.25816">
        <ele>926.20001220703</ele>
        <time>2019-05-24T14:54:47Z</time>
      </trkpt>
      <trkpt lat="44.43913" lon="3.25809">
        <ele>926.20001220703</ele>
        <time>2019-05-24T14:54:49Z</time>
      </trkpt>
      <trkpt lat="44.43917" lon="3.25799">
        <ele>926</ele>
        <time>2019-05-24T14:54:52Z</time>
      </trkpt>
      <trkpt lat="44.43921" lon="3.25784">
        <ele>925.79998779297</ele>
        <time>2019-05-24T14:54:57Z</time>
      </trkpt>
      <trkpt lat="44.43924" lon="3.25775">
        <ele>926.20001220703</ele>
        <time>2019-05-24T14:55:00Z</time>
      </trkpt>
      <trkpt lat="44.43926" lon="3.25773">
        <ele>926.20001220703</ele>
        <time>2019-05-24T14:55:01Z</time>
      </trkpt>
      <trkpt lat="44.43929" lon="3.25765">
        <ele>926.40002441406</ele>
        <time>2019-05-24T14:55:04Z</time>
      </trkpt>
      <trkpt lat="44.43931" lon="3.2576">
        <ele>926.20001220703</ele>
        <time>2019-05-24T14:55:06Z</time>
      </trkpt>
      <trkpt lat="44.43934" lon="3.2575">
        <ele>926.59997558594</ele>
        <time>2019-05-24T14:55:10Z</time>
      </trkpt>
      <trkpt lat="44.43936" lon="3.25747">
        <ele>926.59997558594</ele>
        <time>2019-05-24T14:55:11Z</time>
      </trkpt>
      <trkpt lat="44.43938" lon="3.25745">
        <ele>926.79998779297</ele>
        <time>2019-05-24T14:55:12Z</time>
      </trkpt>
      <trkpt lat="44.4395" lon="3.25741">
        <ele>927.20001220703</ele>
        <time>2019-05-24T14:55:17Z</time>
      </trkpt>
      <trkpt lat="44.43955" lon="3.25739">
        <ele>927.40002441406</ele>
        <time>2019-05-24T14:55:19Z</time>
      </trkpt>
      <trkpt lat="44.43957" lon="3.25732">
        <ele>927.20001220703</ele>
        <time>2019-05-24T14:55:21Z</time>
      </trkpt>
      <trkpt lat="44.43962" lon="3.25719">
        <ele>927.40002441406</ele>
        <time>2019-05-24T14:55:24Z</time>
      </trkpt>
      <trkpt lat="44.43968" lon="3.25706">
        <ele>927.59997558594</ele>
        <time>2019-05-24T14:55:27Z</time>
      </trkpt>
      <trkpt lat="44.43971" lon="3.25704">
        <ele>927.59997558594</ele>
        <time>2019-05-24T14:55:28Z</time>
      </trkpt>
      <trkpt lat="44.43987" lon="3.25692">
        <ele>928</ele>
        <time>2019-05-24T14:55:33Z</time>
      </trkpt>
      <trkpt lat="44.43996" lon="3.25688">
        <ele>928.20001220703</ele>
        <time>2019-05-24T14:55:35Z</time>
      </trkpt>
      <trkpt lat="44.44001" lon="3.25687">
        <ele>928.40002441406</ele>
        <time>2019-05-24T14:55:36Z</time>
      </trkpt>
      <trkpt lat="44.4401" lon="3.25684">
        <ele>928.40002441406</ele>
        <time>2019-05-24T14:55:38Z</time>
      </trkpt>
      <trkpt lat="44.44015" lon="3.25682">
        <ele>928.40002441406</ele>
        <time>2019-05-24T14:55:39Z</time>
      </trkpt>
      <trkpt lat="44.44025" lon="3.25678">
        <ele>928.59997558594</ele>
        <time>2019-05-24T14:55:41Z</time>
      </trkpt>
      <trkpt lat="44.44041" lon="3.25674">
        <ele>928.59997558594</ele>
        <time>2019-05-24T14:55:44Z</time>
      </trkpt>
      <trkpt lat="44.44058" lon="3.25669">
        <ele>928.79998779297</ele>
        <time>2019-05-24T14:55:47Z</time>
      </trkpt>
      <trkpt lat="44.44065" lon="3.25666">
        <ele>928.79998779297</ele>
        <time>2019-05-24T14:55:48Z</time>
      </trkpt>
      <trkpt lat="44.44077" lon="3.25659">
        <ele>928.79998779297</ele>
        <time>2019-05-24T14:55:50Z</time>
      </trkpt>
      <trkpt lat="44.44088" lon="3.25652">
        <ele>928.79998779297</ele>
        <time>2019-05-24T14:55:52Z</time>
      </trkpt>
      <trkpt lat="44.44113" lon="3.25644">
        <ele>928.40002441406</ele>
        <time>2019-05-24T14:55:56Z</time>
      </trkpt>
      <trkpt lat="44.4412" lon="3.25643">
        <ele>928.40002441406</ele>
        <time>2019-05-24T14:55:57Z</time>
      </trkpt>
      <trkpt lat="44.44132" lon="3.25643">
        <ele>928.40002441406</ele>
        <time>2019-05-24T14:55:59Z</time>
      </trkpt>
      <trkpt lat="44.44143" lon="3.25639">
        <ele>928.20001220703</ele>
        <time>2019-05-24T14:56:01Z</time>
      </trkpt>
      <trkpt lat="44.44151" lon="3.25636">
        <ele>928</ele>
        <time>2019-05-24T14:56:02Z</time>
      </trkpt>
      <trkpt lat="44.44171" lon="3.25629">
        <ele>928</ele>
        <time>2019-05-24T14:56:05Z</time>
      </trkpt>
      <trkpt lat="44.44177" lon="3.25626">
        <ele>928</ele>
        <time>2019-05-24T14:56:06Z</time>
      </trkpt>
      <trkpt lat="44.44182" lon="3.25623">
        <ele>928</ele>
        <time>2019-05-24T14:56:07Z</time>
      </trkpt>
      <trkpt lat="44.44193" lon="3.25617">
        <ele>928</ele>
        <time>2019-05-24T14:56:09Z</time>
      </trkpt>
      <trkpt lat="44.44198" lon="3.25617">
        <ele>927.79998779297</ele>
        <time>2019-05-24T14:56:10Z</time>
      </trkpt>
      <trkpt lat="44.44212" lon="3.25614">
        <ele>927.79998779297</ele>
        <time>2019-05-24T14:56:13Z</time>
      </trkpt>
      <trkpt lat="44.44216" lon="3.2561">
        <ele>927.59997558594</ele>
        <time>2019-05-24T14:56:14Z</time>
      </trkpt>
      <trkpt lat="44.44228" lon="3.25598">
        <ele>927.20001220703</ele>
        <time>2019-05-24T14:56:18Z</time>
      </trkpt>
      <trkpt lat="44.44231" lon="3.25582">
        <ele>926.20001220703</ele>
        <time>2019-05-24T14:56:23Z</time>
      </trkpt>
      <trkpt lat="44.44227" lon="3.25567">
        <ele>926</ele>
        <time>2019-05-24T14:56:26Z</time>
      </trkpt>
      <trkpt lat="44.4423" lon="3.25552">
        <ele>925.20001220703</ele>
        <time>2019-05-24T14:56:30Z</time>
      </trkpt>
      <trkpt lat="44.44232" lon="3.25546">
        <ele>924.79998779297</ele>
        <time>2019-05-24T14:56:32Z</time>
      </trkpt>
      <trkpt lat="44.44235" lon="3.25541">
        <ele>924.40002441406</ele>
        <time>2019-05-24T14:56:34Z</time>
      </trkpt>
      <trkpt lat="44.44235" lon="3.25535">
        <ele>924.20001220703</ele>
        <time>2019-05-24T14:56:36Z</time>
      </trkpt>
      <trkpt lat="44.44235" lon="3.25529">
        <ele>924</ele>
        <time>2019-05-24T14:56:38Z</time>
      </trkpt>
      <trkpt lat="44.44235" lon="3.25519">
        <ele>923.59997558594</ele>
        <time>2019-05-24T14:56:41Z</time>
      </trkpt>
      <trkpt lat="44.44235" lon="3.25512">
        <ele>923.40002441406</ele>
        <time>2019-05-24T14:56:43Z</time>
      </trkpt>
      <trkpt lat="44.44236" lon="3.25507">
        <ele>923.20001220703</ele>
        <time>2019-05-24T14:56:44Z</time>
      </trkpt>
      <trkpt lat="44.44238" lon="3.255">
        <ele>922.79998779297</ele>
        <time>2019-05-24T14:56:46Z</time>
      </trkpt>
      <trkpt lat="44.44242" lon="3.25482">
        <ele>921.79998779297</ele>
        <time>2019-05-24T14:56:50Z</time>
      </trkpt>
      <trkpt lat="44.44242" lon="3.25478">
        <ele>921.59997558594</ele>
        <time>2019-05-24T14:56:51Z</time>
      </trkpt>
      <trkpt lat="44.44243" lon="3.25469">
        <ele>921</ele>
        <time>2019-05-24T14:56:53Z</time>
      </trkpt>
      <trkpt lat="44.44243" lon="3.25463">
        <ele>920.20001220703</ele>
        <time>2019-05-24T14:56:55Z</time>
      </trkpt>
      <trkpt lat="44.44243" lon="3.25455">
        <ele>919.59997558594</ele>
        <time>2019-05-24T14:56:57Z</time>
      </trkpt>
      <trkpt lat="44.44245" lon="3.25447">
        <ele>918.79998779297</ele>
        <time>2019-05-24T14:56:59Z</time>
      </trkpt>
      <trkpt lat="44.44247" lon="3.25444">
        <ele>918.40002441406</ele>
        <time>2019-05-24T14:57:00Z</time>
      </trkpt>
      <trkpt lat="44.44248" lon="3.25441">
        <ele>918</ele>
        <time>2019-05-24T14:57:01Z</time>
      </trkpt>
      <trkpt lat="44.4425" lon="3.25432">
        <ele>917.20001220703</ele>
        <time>2019-05-24T14:57:03Z</time>
      </trkpt>
      <trkpt lat="44.44246" lon="3.25408">
        <ele>915.59997558594</ele>
        <time>2019-05-24T14:57:08Z</time>
      </trkpt>
      <trkpt lat="44.44236" lon="3.25388">
        <ele>914.59997558594</ele>
        <time>2019-05-24T14:57:12Z</time>
      </trkpt>
      <trkpt lat="44.44226" lon="3.25372">
        <ele>913.59997558594</ele>
        <time>2019-05-24T14:57:16Z</time>
      </trkpt>
      <trkpt lat="44.44221" lon="3.25354">
        <ele>912.59997558594</ele>
        <time>2019-05-24T14:57:20Z</time>
      </trkpt>
      <trkpt lat="44.44222" lon="3.25337">
        <ele>911.40002441406</ele>
        <time>2019-05-24T14:57:24Z</time>
      </trkpt>
      <trkpt lat="44.44217" lon="3.25331">
        <ele>910.79998779297</ele>
        <time>2019-05-24T14:57:26Z</time>
      </trkpt>
      <trkpt lat="44.44213" lon="3.2533">
        <ele>910.40002441406</ele>
        <time>2019-05-24T14:57:27Z</time>
      </trkpt>
      <trkpt lat="44.44194" lon="3.25332">
        <ele>909.40002441406</ele>
        <time>2019-05-24T14:57:32Z</time>
      </trkpt>
      <trkpt lat="44.44188" lon="3.25329">
        <ele>909.20001220703</ele>
        <time>2019-05-24T14:57:34Z</time>
      </trkpt>
      <trkpt lat="44.44183" lon="3.25323">
        <ele>909</ele>
        <time>2019-05-24T14:57:36Z</time>
      </trkpt>
      <trkpt lat="44.4417" lon="3.25299">
        <ele>908.20001220703</ele>
        <time>2019-05-24T14:57:41Z</time>
      </trkpt>
      <trkpt lat="44.4416" lon="3.25276">
        <ele>907.20001220703</ele>
        <time>2019-05-24T14:57:46Z</time>
      </trkpt>
      <trkpt lat="44.44159" lon="3.25271">
        <ele>907</ele>
        <time>2019-05-24T14:57:47Z</time>
      </trkpt>
      <trkpt lat="44.44154" lon="3.25261">
        <ele>906</ele>
        <time>2019-05-24T14:57:49Z</time>
      </trkpt>
      <trkpt lat="44.44149" lon="3.25245">
        <ele>904.40002441406</ele>
        <time>2019-05-24T14:57:53Z</time>
      </trkpt>
      <trkpt lat="44.44146" lon="3.25237">
        <ele>903.79998779297</ele>
        <time>2019-05-24T14:57:55Z</time>
      </trkpt>
      <trkpt lat="44.44143" lon="3.25234">
        <ele>903</ele>
        <time>2019-05-24T14:57:57Z</time>
      </trkpt>
      <trkpt lat="44.44135" lon="3.25225">
        <ele>901.59997558594</ele>
        <time>2019-05-24T14:58:01Z</time>
      </trkpt>
      <trkpt lat="44.4413" lon="3.25216">
        <ele>901</ele>
        <time>2019-05-24T14:58:04Z</time>
      </trkpt>
      <trkpt lat="44.44127" lon="3.25206">
        <ele>900.20001220703</ele>
        <time>2019-05-24T14:58:07Z</time>
      </trkpt>
      <trkpt lat="44.44126" lon="3.25202">
        <ele>899.79998779297</ele>
        <time>2019-05-24T14:58:08Z</time>
      </trkpt>
      <trkpt lat="44.44123" lon="3.25189">
        <ele>898.79998779297</ele>
        <time>2019-05-24T14:58:11Z</time>
      </trkpt>
      <trkpt lat="44.44123" lon="3.25185">
        <ele>898.40002441406</ele>
        <time>2019-05-24T14:58:12Z</time>
      </trkpt>
      <trkpt lat="44.44122" lon="3.25181">
        <ele>898</ele>
        <time>2019-05-24T14:58:13Z</time>
      </trkpt>
      <trkpt lat="44.44119" lon="3.25172">
        <ele>897.40002441406</ele>
        <time>2019-05-24T14:58:15Z</time>
      </trkpt>
      <trkpt lat="44.44113" lon="3.25156">
        <ele>895.79998779297</ele>
        <time>2019-05-24T14:58:20Z</time>
      </trkpt>
      <trkpt lat="44.44102" lon="3.25142">
        <ele>894.59997558594</ele>
        <time>2019-05-24T14:58:24Z</time>
      </trkpt>
      <trkpt lat="44.44099" lon="3.25137">
        <ele>894.40002441406</ele>
        <time>2019-05-24T14:58:25Z</time>
      </trkpt>
      <trkpt lat="44.44092" lon="3.25123">
        <ele>893.40002441406</ele>
        <time>2019-05-24T14:58:29Z</time>
      </trkpt>
      <trkpt lat="44.44088" lon="3.25109">
        <ele>892.59997558594</ele>
        <time>2019-05-24T14:58:33Z</time>
      </trkpt>
      <trkpt lat="44.4408" lon="3.25094">
        <ele>891.59997558594</ele>
        <time>2019-05-24T14:58:38Z</time>
      </trkpt>
      <trkpt lat="44.44071" lon="3.2508">
        <ele>890.59997558594</ele>
        <time>2019-05-24T14:58:42Z</time>
      </trkpt>
      <trkpt lat="44.44058" lon="3.25065">
        <ele>889.20001220703</ele>
        <time>2019-05-24T14:58:47Z</time>
      </trkpt>
      <trkpt lat="44.44054" lon="3.25061">
        <ele>888.59997558594</ele>
        <time>2019-05-24T14:58:49Z</time>
      </trkpt>
      <trkpt lat="44.44049" lon="3.25057">
        <ele>888</ele>
        <time>2019-05-24T14:58:51Z</time>
      </trkpt>
      <trkpt lat="44.44047" lon="3.25056">
        <ele>887.59997558594</ele>
        <time>2019-05-24T14:58:52Z</time>
      </trkpt>
      <trkpt lat="44.44041" lon="3.2505">
        <ele>886.79998779297</ele>
        <time>2019-05-24T14:58:56Z</time>
      </trkpt>
      <trkpt lat="44.4404" lon="3.25049">
        <ele>886.40002441406</ele>
        <time>2019-05-24T14:58:57Z</time>
      </trkpt>
      <trkpt lat="44.44017" lon="3.25049">
        <ele>883.79998779297</ele>
        <time>2019-05-24T14:59:10Z</time>
      </trkpt>
      <trkpt lat="44.44014" lon="3.25051">
        <ele>883.40002441406</ele>
        <time>2019-05-24T14:59:11Z</time>
      </trkpt>
      <trkpt lat="44.44003" lon="3.25054">
        <ele>882.40002441406</ele>
        <time>2019-05-24T14:59:15Z</time>
      </trkpt>
      <trkpt lat="44.43993" lon="3.25053">
        <ele>881</ele>
        <time>2019-05-24T14:59:20Z</time>
      </trkpt>
      <trkpt lat="44.43992" lon="3.25053">
        <ele>880.79998779297</ele>
        <time>2019-05-24T14:59:21Z</time>
      </trkpt>
      <trkpt lat="44.43945" lon="3.25079">
        <ele>854.79998779297</ele>
        <time>2019-05-24T15:01:02Z</time>
      </trkpt>
      <trkpt lat="44.43941" lon="3.25074">
        <ele>854.40002441406</ele>
        <time>2019-05-24T15:01:04Z</time>
      </trkpt>
      <trkpt lat="44.43934" lon="3.25059">
        <ele>853.40002441406</ele>
        <time>2019-05-24T15:01:09Z</time>
      </trkpt>
      <trkpt lat="44.43934" lon="3.25056">
        <ele>853.20001220703</ele>
        <time>2019-05-24T15:01:10Z</time>
      </trkpt>
      <trkpt lat="44.43934" lon="3.25049">
        <ele>853</ele>
        <time>2019-05-24T15:01:12Z</time>
      </trkpt>
      <trkpt lat="44.43935" lon="3.25047">
        <ele>852.79998779297</ele>
        <time>2019-05-24T15:01:13Z</time>
      </trkpt>
      <trkpt lat="44.43934" lon="3.25036">
        <ele>852.20001220703</ele>
        <time>2019-05-24T15:01:17Z</time>
      </trkpt>
      <trkpt lat="44.43934" lon="3.25034">
        <ele>852.20001220703</ele>
        <time>2019-05-24T15:01:18Z</time>
      </trkpt>
      <trkpt lat="44.43935" lon="3.25025">
        <ele>851.59997558594</ele>
        <time>2019-05-24T15:01:21Z</time>
      </trkpt>
      <trkpt lat="44.43936" lon="3.25023">
        <ele>851.40002441406</ele>
        <time>2019-05-24T15:01:22Z</time>
      </trkpt>
      <trkpt lat="44.43937" lon="3.25009">
        <ele>851</ele>
        <time>2019-05-24T15:01:27Z</time>
      </trkpt>
      <trkpt lat="44.4394" lon="3.24996">
        <ele>850.20001220703</ele>
        <time>2019-05-24T15:01:32Z</time>
      </trkpt>
      <trkpt lat="44.43941" lon="3.24988">
        <ele>850</ele>
        <time>2019-05-24T15:01:36Z</time>
      </trkpt>
      <trkpt lat="44.43942" lon="3.24972">
        <ele>849.40002441406</ele>
        <time>2019-05-24T15:01:41Z</time>
      </trkpt>
      <trkpt lat="44.43939" lon="3.24953">
        <ele>849</ele>
        <time>2019-05-24T15:01:46Z</time>
      </trkpt>
      <trkpt lat="44.43935" lon="3.24937">
        <ele>848.79998779297</ele>
        <time>2019-05-24T15:01:50Z</time>
      </trkpt>
      <trkpt lat="44.4393" lon="3.24912">
        <ele>848.40002441406</ele>
        <time>2019-05-24T15:01:56Z</time>
      </trkpt>
      <trkpt lat="44.43926" lon="3.24893">
        <ele>848.20001220703</ele>
        <time>2019-05-24T15:02:01Z</time>
      </trkpt>
      <trkpt lat="44.43924" lon="3.2488">
        <ele>848</ele>
        <time>2019-05-24T15:02:04Z</time>
      </trkpt>
      <trkpt lat="44.43923" lon="3.2487">
        <ele>847.59997558594</ele>
        <time>2019-05-24T15:02:06Z</time>
      </trkpt>
      <trkpt lat="44.43923" lon="3.24862">
        <ele>847.40002441406</ele>
        <time>2019-05-24T15:02:08Z</time>
      </trkpt>
      <trkpt lat="44.43922" lon="3.24844">
        <ele>847</ele>
        <time>2019-05-24T15:02:12Z</time>
      </trkpt>
      <trkpt lat="44.43919" lon="3.24831">
        <ele>846.59997558594</ele>
        <time>2019-05-24T15:02:15Z</time>
      </trkpt>
      <trkpt lat="44.43912" lon="3.24814">
        <ele>846.20001220703</ele>
        <time>2019-05-24T15:02:19Z</time>
      </trkpt>
      <trkpt lat="44.43901" lon="3.24792">
        <ele>845.40002441406</ele>
        <time>2019-05-24T15:02:24Z</time>
      </trkpt>
      <trkpt lat="44.43896" lon="3.24782">
        <ele>845.20001220703</ele>
        <time>2019-05-24T15:02:26Z</time>
      </trkpt>
      <trkpt lat="44.4389" lon="3.24767">
        <ele>844.59997558594</ele>
        <time>2019-05-24T15:02:29Z</time>
      </trkpt>
      <trkpt lat="44.43888" lon="3.24761">
        <ele>844.59997558594</ele>
        <time>2019-05-24T15:02:30Z</time>
      </trkpt>
      <trkpt lat="44.43882" lon="3.24735">
        <ele>844</ele>
        <time>2019-05-24T15:02:34Z</time>
      </trkpt>
      <trkpt lat="44.4388" lon="3.24723">
        <ele>843.79998779297</ele>
        <time>2019-05-24T15:02:36Z</time>
      </trkpt>
      <trkpt lat="44.43881" lon="3.24702">
        <ele>843.40002441406</ele>
        <time>2019-05-24T15:02:39Z</time>
      </trkpt>
      <trkpt lat="44.43882" lon="3.24685">
        <ele>843</ele>
        <time>2019-05-24T15:02:42Z</time>
      </trkpt>
      <trkpt lat="44.43884" lon="3.24683">
        <ele>843</ele>
        <time>2019-05-24T15:02:43Z</time>
      </trkpt>
      <trkpt lat="44.43886" lon="3.24679">
        <ele>842.79998779297</ele>
        <time>2019-05-24T15:02:44Z</time>
      </trkpt>
      <trkpt lat="44.43885" lon="3.24668">
        <ele>842.40002441406</ele>
        <time>2019-05-24T15:02:46Z</time>
      </trkpt>
      <trkpt lat="44.43884" lon="3.24648">
        <ele>842</ele>
        <time>2019-05-24T15:02:50Z</time>
      </trkpt>
      <trkpt lat="44.43885" lon="3.24643">
        <ele>842</ele>
        <time>2019-05-24T15:02:51Z</time>
      </trkpt>
      <trkpt lat="44.43885" lon="3.24627">
        <ele>841.79998779297</ele>
        <time>2019-05-24T15:02:53Z</time>
      </trkpt>
      <trkpt lat="44.43887" lon="3.24606">
        <ele>841.40002441406</ele>
        <time>2019-05-24T15:02:56Z</time>
      </trkpt>
      <trkpt lat="44.43887" lon="3.246">
        <ele>841.20001220703</ele>
        <time>2019-05-24T15:02:57Z</time>
      </trkpt>
      <trkpt lat="44.43889" lon="3.24562">
        <ele>840.59997558594</ele>
        <time>2019-05-24T15:03:04Z</time>
      </trkpt>
      <trkpt lat="44.43891" lon="3.24521">
        <ele>839.79998779297</ele>
        <time>2019-05-24T15:03:11Z</time>
      </trkpt>
      <trkpt lat="44.43891" lon="3.24487">
        <ele>839.20001220703</ele>
        <time>2019-05-24T15:03:17Z</time>
      </trkpt>
      <trkpt lat="44.43889" lon="3.2444">
        <ele>838.79998779297</ele>
        <time>2019-05-24T15:03:24Z</time>
      </trkpt>
      <trkpt lat="44.43886" lon="3.2441">
        <ele>838.40002441406</ele>
        <time>2019-05-24T15:03:28Z</time>
      </trkpt>
      <trkpt lat="44.43885" lon="3.24387">
        <ele>838.20001220703</ele>
        <time>2019-05-24T15:03:31Z</time>
      </trkpt>
      <trkpt lat="44.43884" lon="3.24339">
        <ele>837.79998779297</ele>
        <time>2019-05-24T15:03:37Z</time>
      </trkpt>
      <trkpt lat="44.43891" lon="3.24294">
        <ele>837.40002441406</ele>
        <time>2019-05-24T15:03:43Z</time>
      </trkpt>
      <trkpt lat="44.43898" lon="3.24258">
        <ele>837.20001220703</ele>
        <time>2019-05-24T15:03:48Z</time>
      </trkpt>
      <trkpt lat="44.439" lon="3.24251">
        <ele>837.20001220703</ele>
        <time>2019-05-24T15:03:49Z</time>
      </trkpt>
      <trkpt lat="44.43905" lon="3.24227">
        <ele>837</ele>
        <time>2019-05-24T15:03:52Z</time>
      </trkpt>
      <trkpt lat="44.43908" lon="3.24212">
        <ele>836.79998779297</ele>
        <time>2019-05-24T15:03:54Z</time>
      </trkpt>
      <trkpt lat="44.43912" lon="3.24188">
        <ele>835.40002441406</ele>
        <time>2019-05-24T15:03:58Z</time>
      </trkpt>
      <trkpt lat="44.43915" lon="3.24174">
        <ele>834.79998779297</ele>
        <time>2019-05-24T15:04:01Z</time>
      </trkpt>
      <trkpt lat="44.43917" lon="3.2417">
        <ele>834.59997558594</ele>
        <time>2019-05-24T15:04:02Z</time>
      </trkpt>
      <trkpt lat="44.43923" lon="3.24151">
        <ele>833.20001220703</ele>
        <time>2019-05-24T15:04:07Z</time>
      </trkpt>
      <trkpt lat="44.43924" lon="3.24141">
        <ele>832.59997558594</ele>
        <time>2019-05-24T15:04:09Z</time>
      </trkpt>
      <trkpt lat="44.43924" lon="3.24134">
        <ele>832.40002441406</ele>
        <time>2019-05-24T15:04:10Z</time>
      </trkpt>
      <trkpt lat="44.43924" lon="3.24128">
        <ele>832</ele>
        <time>2019-05-24T15:04:11Z</time>
      </trkpt>
      <trkpt lat="44.43926" lon="3.24115">
        <ele>831.40002441406</ele>
        <time>2019-05-24T15:04:13Z</time>
      </trkpt>
      <trkpt lat="44.43928" lon="3.2411">
        <ele>831.20001220703</ele>
        <time>2019-05-24T15:04:14Z</time>
      </trkpt>
      <trkpt lat="44.4393" lon="3.24098">
        <ele>830.79998779297</ele>
        <time>2019-05-24T15:04:16Z</time>
      </trkpt>
      <trkpt lat="44.43936" lon="3.24082">
        <ele>830.20001220703</ele>
        <time>2019-05-24T15:04:19Z</time>
      </trkpt>
      <trkpt lat="44.43941" lon="3.24065">
        <ele>829.40002441406</ele>
        <time>2019-05-24T15:04:22Z</time>
      </trkpt>
      <trkpt lat="44.43941" lon="3.2405">
        <ele>828.79998779297</ele>
        <time>2019-05-24T15:04:24Z</time>
      </trkpt>
      <trkpt lat="44.4394" lon="3.24025">
        <ele>827.79998779297</ele>
        <time>2019-05-24T15:04:27Z</time>
      </trkpt>
      <trkpt lat="44.43941" lon="3.24018">
        <ele>827.59997558594</ele>
        <time>2019-05-24T15:04:28Z</time>
      </trkpt>
      <trkpt lat="44.43946" lon="3.23999">
        <ele>826.59997558594</ele>
        <time>2019-05-24T15:04:31Z</time>
      </trkpt>
      <trkpt lat="44.43948" lon="3.23993">
        <ele>826.20001220703</ele>
        <time>2019-05-24T15:04:32Z</time>
      </trkpt>
      <trkpt lat="44.4395" lon="3.23983">
        <ele>825.59997558594</ele>
        <time>2019-05-24T15:04:34Z</time>
      </trkpt>
      <trkpt lat="44.43953" lon="3.23971">
        <ele>825</ele>
        <time>2019-05-24T15:04:36Z</time>
      </trkpt>
      <trkpt lat="44.43955" lon="3.23966">
        <ele>824.79998779297</ele>
        <time>2019-05-24T15:04:37Z</time>
      </trkpt>
      <trkpt lat="44.43965" lon="3.23949">
        <ele>823.79998779297</ele>
        <time>2019-05-24T15:04:40Z</time>
      </trkpt>
      <trkpt lat="44.43968" lon="3.23943">
        <ele>823.40002441406</ele>
        <time>2019-05-24T15:04:41Z</time>
      </trkpt>
      <trkpt lat="44.43971" lon="3.23931">
        <ele>822.79998779297</ele>
        <time>2019-05-24T15:04:43Z</time>
      </trkpt>
      <trkpt lat="44.43973" lon="3.23921">
        <ele>822.20001220703</ele>
        <time>2019-05-24T15:04:45Z</time>
      </trkpt>
      <trkpt lat="44.43973" lon="3.23917">
        <ele>821.79998779297</ele>
        <time>2019-05-24T15:04:46Z</time>
      </trkpt>
      <trkpt lat="44.43972" lon="3.23909">
        <ele>821.20001220703</ele>
        <time>2019-05-24T15:04:48Z</time>
      </trkpt>
      <trkpt lat="44.43967" lon="3.239">
        <ele>820.40002441406</ele>
        <time>2019-05-24T15:04:50Z</time>
      </trkpt>
      <trkpt lat="44.43954" lon="3.23876">
        <ele>818.59997558594</ele>
        <time>2019-05-24T15:04:55Z</time>
      </trkpt>
      <trkpt lat="44.43948" lon="3.23847">
        <ele>816.59997558594</ele>
        <time>2019-05-24T15:05:01Z</time>
      </trkpt>
      <trkpt lat="44.43949" lon="3.23826">
        <ele>815.40002441406</ele>
        <time>2019-05-24T15:05:05Z</time>
      </trkpt>
      <trkpt lat="44.43947" lon="3.23794">
        <ele>813.20001220703</ele>
        <time>2019-05-24T15:05:11Z</time>
      </trkpt>
      <trkpt lat="44.43941" lon="3.23769">
        <ele>811.20001220703</ele>
        <time>2019-05-24T15:05:17Z</time>
      </trkpt>
      <trkpt lat="44.43937" lon="3.23746">
        <ele>809.20001220703</ele>
        <time>2019-05-24T15:05:23Z</time>
      </trkpt>
      <trkpt lat="44.43934" lon="3.23719">
        <ele>807.20001220703</ele>
        <time>2019-05-24T15:05:29Z</time>
      </trkpt>
      <trkpt lat="44.43938" lon="3.23699">
        <ele>805.59997558594</ele>
        <time>2019-05-24T15:05:34Z</time>
      </trkpt>
      <trkpt lat="44.43939" lon="3.23692">
        <ele>804.79998779297</ele>
        <time>2019-05-24T15:05:36Z</time>
      </trkpt>
      <trkpt lat="44.43941" lon="3.23689">
        <ele>804.59997558594</ele>
        <time>2019-05-24T15:05:37Z</time>
      </trkpt>
      <trkpt lat="44.43946" lon="3.23678">
        <ele>803.40002441406</ele>
        <time>2019-05-24T15:05:41Z</time>
      </trkpt>
      <trkpt lat="44.43951" lon="3.23657">
        <ele>801.79998779297</ele>
        <time>2019-05-24T15:05:47Z</time>
      </trkpt>
      <trkpt lat="44.43952" lon="3.2365">
        <ele>800.79998779297</ele>
        <time>2019-05-24T15:05:50Z</time>
      </trkpt>
      <trkpt lat="44.43953" lon="3.23648">
        <ele>800.59997558594</ele>
        <time>2019-05-24T15:05:51Z</time>
      </trkpt>
      <trkpt lat="44.43957" lon="3.2364">
        <ele>799.40002441406</ele>
        <time>2019-05-24T15:05:55Z</time>
      </trkpt>
      <trkpt lat="44.43957" lon="3.23637">
        <ele>799.20001220703</ele>
        <time>2019-05-24T15:05:56Z</time>
      </trkpt>
      <trkpt lat="44.43962" lon="3.23619">
        <ele>797.59997558594</ele>
        <time>2019-05-24T15:06:02Z</time>
      </trkpt>
      <trkpt lat="44.43967" lon="3.23608">
        <ele>796.59997558594</ele>
        <time>2019-05-24T15:06:06Z</time>
      </trkpt>
      <trkpt lat="44.4397" lon="3.23598">
        <ele>795.79998779297</ele>
        <time>2019-05-24T15:06:09Z</time>
      </trkpt>
      <trkpt lat="44.43969" lon="3.23594">
        <ele>795.59997558594</ele>
        <time>2019-05-24T15:06:10Z</time>
      </trkpt>
      <trkpt lat="44.4397" lon="3.23591">
        <ele>795.40002441406</ele>
        <time>2019-05-24T15:06:11Z</time>
      </trkpt>
      <trkpt lat="44.43972" lon="3.23581">
        <ele>794.79998779297</ele>
        <time>2019-05-24T15:06:14Z</time>
      </trkpt>
      <trkpt lat="44.43975" lon="3.23574">
        <ele>794.20001220703</ele>
        <time>2019-05-24T15:06:16Z</time>
      </trkpt>
      <trkpt lat="44.43979" lon="3.23566">
        <ele>793.79998779297</ele>
        <time>2019-05-24T15:06:18Z</time>
      </trkpt>
      <trkpt lat="44.43982" lon="3.23556">
        <ele>793.20001220703</ele>
        <time>2019-05-24T15:06:20Z</time>
      </trkpt>
      <trkpt lat="44.43984" lon="3.23546">
        <ele>793</ele>
        <time>2019-05-24T15:06:22Z</time>
      </trkpt>
      <trkpt lat="44.43986" lon="3.23537">
        <ele>792.20001220703</ele>
        <time>2019-05-24T15:06:25Z</time>
      </trkpt>
      <trkpt lat="44.43984" lon="3.2353">
        <ele>791.79998779297</ele>
        <time>2019-05-24T15:06:26Z</time>
      </trkpt>
      <trkpt lat="44.43978" lon="3.23507">
        <ele>790.79998779297</ele>
        <time>2019-05-24T15:06:30Z</time>
      </trkpt>
      <trkpt lat="44.43972" lon="3.23483">
        <ele>789.79998779297</ele>
        <time>2019-05-24T15:06:35Z</time>
      </trkpt>
      <trkpt lat="44.43967" lon="3.23452">
        <ele>788.59997558594</ele>
        <time>2019-05-24T15:06:41Z</time>
      </trkpt>
      <trkpt lat="44.43959" lon="3.23422">
        <ele>787.20001220703</ele>
        <time>2019-05-24T15:06:47Z</time>
      </trkpt>
      <trkpt lat="44.43957" lon="3.23414">
        <ele>786.79998779297</ele>
        <time>2019-05-24T15:06:49Z</time>
      </trkpt>
      <trkpt lat="44.43956" lon="3.23401">
        <ele>786.20001220703</ele>
        <time>2019-05-24T15:06:52Z</time>
      </trkpt>
      <trkpt lat="44.43954" lon="3.23394">
        <ele>785.79998779297</ele>
        <time>2019-05-24T15:06:54Z</time>
      </trkpt>
      <trkpt lat="44.43952" lon="3.23387">
        <ele>785.40002441406</ele>
        <time>2019-05-24T15:06:56Z</time>
      </trkpt>
      <trkpt lat="44.4395" lon="3.23379">
        <ele>784.79998779297</ele>
        <time>2019-05-24T15:06:59Z</time>
      </trkpt>
      <trkpt lat="44.43951" lon="3.23377">
        <ele>784.59997558594</ele>
        <time>2019-05-24T15:07:00Z</time>
      </trkpt>
      <trkpt lat="44.43953" lon="3.23367">
        <ele>783.79998779297</ele>
        <time>2019-05-24T15:07:04Z</time>
      </trkpt>
      <trkpt lat="44.43955" lon="3.23364">
        <ele>783.59997558594</ele>
        <time>2019-05-24T15:07:05Z</time>
      </trkpt>
      <trkpt lat="44.43957" lon="3.23353">
        <ele>782.59997558594</ele>
        <time>2019-05-24T15:07:09Z</time>
      </trkpt>
      <trkpt lat="44.43959" lon="3.23346">
        <ele>778</ele>
        <time>2019-05-24T15:07:38Z</time>
      </trkpt>
      <trkpt lat="44.43962" lon="3.23324">
        <ele>777</ele>
        <time>2019-05-24T15:07:43Z</time>
      </trkpt>
      <trkpt lat="44.43958" lon="3.23308">
        <ele>776.59997558594</ele>
        <time>2019-05-24T15:07:46Z</time>
      </trkpt>
      <trkpt lat="44.4396" lon="3.23303">
        <ele>776.59997558594</ele>
        <time>2019-05-24T15:07:47Z</time>
      </trkpt>
      <trkpt lat="44.43957" lon="3.23287">
        <ele>776.20001220703</ele>
        <time>2019-05-24T15:07:49Z</time>
      </trkpt>
      <trkpt lat="44.43958" lon="3.23277">
        <ele>776</ele>
        <time>2019-05-24T15:07:51Z</time>
      </trkpt>
      <trkpt lat="44.43957" lon="3.23251">
        <ele>775.40002441406</ele>
        <time>2019-05-24T15:07:55Z</time>
      </trkpt>
      <trkpt lat="44.43961" lon="3.23211">
        <ele>774.40002441406</ele>
        <time>2019-05-24T15:08:01Z</time>
      </trkpt>
      <trkpt lat="44.43964" lon="3.23173">
        <ele>773.20001220703</ele>
        <time>2019-05-24T15:08:06Z</time>
      </trkpt>
      <trkpt lat="44.43964" lon="3.23137">
        <ele>772</ele>
        <time>2019-05-24T15:08:11Z</time>
      </trkpt>
      <trkpt lat="44.43964" lon="3.23121">
        <ele>771.40002441406</ele>
        <time>2019-05-24T15:08:15Z</time>
      </trkpt>
      <trkpt lat="44.43965" lon="3.23118">
        <ele>771.20001220703</ele>
        <time>2019-05-24T15:08:16Z</time>
      </trkpt>
      <trkpt lat="44.43967" lon="3.2311">
        <ele>770.79998779297</ele>
        <time>2019-05-24T15:08:19Z</time>
      </trkpt>
      <trkpt lat="44.43971" lon="3.23094">
        <ele>769.79998779297</ele>
        <time>2019-05-24T15:08:24Z</time>
      </trkpt>
      <trkpt lat="44.43975" lon="3.23076">
        <ele>769.20001220703</ele>
        <time>2019-05-24T15:08:28Z</time>
      </trkpt>
      <trkpt lat="44.43978" lon="3.23061">
        <ele>768.40002441406</ele>
        <time>2019-05-24T15:08:31Z</time>
      </trkpt>
      <trkpt lat="44.43978" lon="3.23057">
        <ele>768.20001220703</ele>
        <time>2019-05-24T15:08:32Z</time>
      </trkpt>
      <trkpt lat="44.4398" lon="3.2305">
        <ele>767.79998779297</ele>
        <time>2019-05-24T15:08:34Z</time>
      </trkpt>
      <trkpt lat="44.43978" lon="3.23041">
        <ele>767.59997558594</ele>
        <time>2019-05-24T15:08:36Z</time>
      </trkpt>
      <trkpt lat="44.43975" lon="3.23011">
        <ele>766.79998779297</ele>
        <time>2019-05-24T15:08:41Z</time>
      </trkpt>
      <trkpt lat="44.43975" lon="3.22985">
        <ele>766.20001220703</ele>
        <time>2019-05-24T15:08:46Z</time>
      </trkpt>
      <trkpt lat="44.43973" lon="3.22958">
        <ele>765.40002441406</ele>
        <time>2019-05-24T15:08:51Z</time>
      </trkpt>
      <trkpt lat="44.43971" lon="3.22932">
        <ele>764.79998779297</ele>
        <time>2019-05-24T15:08:56Z</time>
      </trkpt>
      <trkpt lat="44.43969" lon="3.22909">
        <ele>764.20001220703</ele>
        <time>2019-05-24T15:09:01Z</time>
      </trkpt>
      <trkpt lat="44.43969" lon="3.22893">
        <ele>763.59997558594</ele>
        <time>2019-05-24T15:09:05Z</time>
      </trkpt>
      <trkpt lat="44.43969" lon="3.22889">
        <ele>763.40002441406</ele>
        <time>2019-05-24T15:09:06Z</time>
      </trkpt>
      <trkpt lat="44.43969" lon="3.22886">
        <ele>763.40002441406</ele>
        <time>2019-05-24T15:09:07Z</time>
      </trkpt>
      <trkpt lat="44.43971" lon="3.22876">
        <ele>763</ele>
        <time>2019-05-24T15:09:10Z</time>
      </trkpt>
      <trkpt lat="44.43974" lon="3.2285">
        <ele>762.20001220703</ele>
        <time>2019-05-24T15:09:16Z</time>
      </trkpt>
      <trkpt lat="44.43974" lon="3.2284">
        <ele>762</ele>
        <time>2019-05-24T15:09:18Z</time>
      </trkpt>
      <trkpt lat="44.43974" lon="3.22831">
        <ele>761.59997558594</ele>
        <time>2019-05-24T15:09:20Z</time>
      </trkpt>
      <trkpt lat="44.43975" lon="3.2282">
        <ele>761.20001220703</ele>
        <time>2019-05-24T15:09:23Z</time>
      </trkpt>
      <trkpt lat="44.43976" lon="3.22817">
        <ele>761.20001220703</ele>
        <time>2019-05-24T15:09:24Z</time>
      </trkpt>
      <trkpt lat="44.43979" lon="3.22798">
        <ele>760.40002441406</ele>
        <time>2019-05-24T15:09:29Z</time>
      </trkpt>
      <trkpt lat="44.43982" lon="3.22771">
        <ele>759.79998779297</ele>
        <time>2019-05-24T15:09:34Z</time>
      </trkpt>
      <trkpt lat="44.43982" lon="3.22759">
        <ele>759.20001220703</ele>
        <time>2019-05-24T15:09:38Z</time>
      </trkpt>
      <trkpt lat="44.43983" lon="3.22757">
        <ele>759</ele>
        <time>2019-05-24T15:09:39Z</time>
      </trkpt>
      <trkpt lat="44.43984" lon="3.22753">
        <ele>758.79998779297</ele>
        <time>2019-05-24T15:09:40Z</time>
      </trkpt>
      <trkpt lat="44.43984" lon="3.22742">
        <ele>758.40002441406</ele>
        <time>2019-05-24T15:09:43Z</time>
      </trkpt>
      <trkpt lat="44.43984" lon="3.22722">
        <ele>757.79998779297</ele>
        <time>2019-05-24T15:09:47Z</time>
      </trkpt>
      <trkpt lat="44.43985" lon="3.22706">
        <ele>757.20001220703</ele>
        <time>2019-05-24T15:09:51Z</time>
      </trkpt>
      <trkpt lat="44.43985" lon="3.22692">
        <ele>756.59997558594</ele>
        <time>2019-05-24T15:09:56Z</time>
      </trkpt>
      <trkpt lat="44.43984" lon="3.22689">
        <ele>756.40002441406</ele>
        <time>2019-05-24T15:09:57Z</time>
      </trkpt>
      <trkpt lat="44.43978" lon="3.22677">
        <ele>752.20001220703</ele>
        <time>2019-05-24T15:10:31Z</time>
      </trkpt>
      <trkpt lat="44.43978" lon="3.22681">
        <ele>752</ele>
        <time>2019-05-24T15:10:33Z</time>
      </trkpt>
      <trkpt lat="44.43977" lon="3.22692">
        <ele>751.20001220703</ele>
        <time>2019-05-24T15:10:40Z</time>
      </trkpt>
      <trkpt lat="44.43928" lon="3.22671">
        <ele>745.40002441406</ele>
        <time>2019-05-24T15:11:46Z</time>
      </trkpt>
      <trkpt lat="44.43914" lon="3.22678">
        <ele>745</ele>
        <time>2019-05-24T15:11:52Z</time>
      </trkpt>
      <trkpt lat="44.43893" lon="3.22691">
        <ele>744.59997558594</ele>
        <time>2019-05-24T15:11:58Z</time>
      </trkpt>
      <trkpt lat="44.43877" lon="3.22703">
        <ele>744.40002441406</ele>
        <time>2019-05-24T15:12:03Z</time>
      </trkpt>
      <trkpt lat="44.43866" lon="3.22713">
        <ele>744</ele>
        <time>2019-05-24T15:12:07Z</time>
      </trkpt>
      <trkpt lat="44.43858" lon="3.22709">
        <ele>743.79998779297</ele>
        <time>2019-05-24T15:12:10Z</time>
      </trkpt>
      <trkpt lat="44.43851" lon="3.22702">
        <ele>743.59997558594</ele>
        <time>2019-05-24T15:12:12Z</time>
      </trkpt>
      <trkpt lat="44.43845" lon="3.22692">
        <ele>743.20001220703</ele>
        <time>2019-05-24T15:12:14Z</time>
      </trkpt>
      <trkpt lat="44.43841" lon="3.22681">
        <ele>743</ele>
        <time>2019-05-24T15:12:16Z</time>
      </trkpt>
      <trkpt lat="44.43834" lon="3.22665">
        <ele>742.79998779297</ele>
        <time>2019-05-24T15:12:19Z</time>
      </trkpt>
      <trkpt lat="44.43832" lon="3.22659">
        <ele>742.59997558594</ele>
        <time>2019-05-24T15:12:20Z</time>
      </trkpt>
      <trkpt lat="44.43828" lon="3.22649">
        <ele>742.40002441406</ele>
        <time>2019-05-24T15:12:22Z</time>
      </trkpt>
      <trkpt lat="44.43821" lon="3.22639">
        <ele>742</ele>
        <time>2019-05-24T15:12:24Z</time>
      </trkpt>
      <trkpt lat="44.43814" lon="3.22631">
        <ele>741.79998779297</ele>
        <time>2019-05-24T15:12:26Z</time>
      </trkpt>
      <trkpt lat="44.43808" lon="3.22621">
        <ele>741.40002441406</ele>
        <time>2019-05-24T15:12:29Z</time>
      </trkpt>
      <trkpt lat="44.43809" lon="3.22616">
        <ele>741</ele>
        <time>2019-05-24T15:12:32Z</time>
      </trkpt>
      <trkpt lat="44.43809" lon="3.22616">
        <ele>740.79998779297</ele>
        <time>2019-05-24T15:12:33Z</time>
      </trkpt>
      <trkpt lat="44.43807" lon="3.22609">
        <ele>740</ele>
        <time>2019-05-24T15:12:40Z</time>
      </trkpt>
      <trkpt lat="44.43806" lon="3.22607">
        <ele>739.79998779297</ele>
        <time>2019-05-24T15:12:41Z</time>
      </trkpt>
      <trkpt lat="44.43803" lon="3.22591">
        <ele>739.20001220703</ele>
        <time>2019-05-24T15:12:45Z</time>
      </trkpt>
      <trkpt lat="44.43796" lon="3.22571">
        <ele>738.20001220703</ele>
        <time>2019-05-24T15:12:50Z</time>
      </trkpt>
      <trkpt lat="44.43789" lon="3.22544">
        <ele>737</ele>
        <time>2019-05-24T15:12:56Z</time>
      </trkpt>
      <trkpt lat="44.43783" lon="3.22528">
        <ele>736.40002441406</ele>
        <time>2019-05-24T15:13:00Z</time>
      </trkpt>
      <trkpt lat="44.43777" lon="3.22505">
        <ele>735.79998779297</ele>
        <time>2019-05-24T15:13:05Z</time>
      </trkpt>
      <trkpt lat="44.43768" lon="3.22485">
        <ele>735.20001220703</ele>
        <time>2019-05-24T15:13:10Z</time>
      </trkpt>
      <trkpt lat="44.43762" lon="3.22468">
        <ele>734.59997558594</ele>
        <time>2019-05-24T15:13:14Z</time>
      </trkpt>
      <trkpt lat="44.43754" lon="3.22451">
        <ele>734</ele>
        <time>2019-05-24T15:13:18Z</time>
      </trkpt>
      <trkpt lat="44.43742" lon="3.22434">
        <ele>733.20001220703</ele>
        <time>2019-05-24T15:13:22Z</time>
      </trkpt>
      <trkpt lat="44.43734" lon="3.22422">
        <ele>732.79998779297</ele>
        <time>2019-05-24T15:13:25Z</time>
      </trkpt>
      <trkpt lat="44.43731" lon="3.22417">
        <ele>732.59997558594</ele>
        <time>2019-05-24T15:13:26Z</time>
      </trkpt>
      <trkpt lat="44.43728" lon="3.22413">
        <ele>732.40002441406</ele>
        <time>2019-05-24T15:13:27Z</time>
      </trkpt>
      <trkpt lat="44.43716" lon="3.22402">
        <ele>732.20001220703</ele>
        <time>2019-05-24T15:13:30Z</time>
      </trkpt>
      <trkpt lat="44.43702" lon="3.22386">
        <ele>731.79998779297</ele>
        <time>2019-05-24T15:13:34Z</time>
      </trkpt>
      <trkpt lat="44.43686" lon="3.22356">
        <ele>731.20001220703</ele>
        <time>2019-05-24T15:13:40Z</time>
      </trkpt>
      <trkpt lat="44.43677" lon="3.22342">
        <ele>730.40002441406</ele>
        <time>2019-05-24T15:13:45Z</time>
      </trkpt>
      <trkpt lat="44.43674" lon="3.22335">
        <ele>730.20001220703</ele>
        <time>2019-05-24T15:13:47Z</time>
      </trkpt>
      <trkpt lat="44.43672" lon="3.22327">
        <ele>729.59997558594</ele>
        <time>2019-05-24T15:13:50Z</time>
      </trkpt>
      <trkpt lat="44.43671" lon="3.22324">
        <ele>729.40002441406</ele>
        <time>2019-05-24T15:13:51Z</time>
      </trkpt>
      <trkpt lat="44.43665" lon="3.22318">
        <ele>728.59997558594</ele>
        <time>2019-05-24T15:13:54Z</time>
      </trkpt>
      <trkpt lat="44.43656" lon="3.22304">
        <ele>727.59997558594</ele>
        <time>2019-05-24T15:13:58Z</time>
      </trkpt>
      <trkpt lat="44.43645" lon="3.22288">
        <ele>726.59997558594</ele>
        <time>2019-05-24T15:14:02Z</time>
      </trkpt>
      <trkpt lat="44.43637" lon="3.22277">
        <ele>726.20001220703</ele>
        <time>2019-05-24T15:14:05Z</time>
      </trkpt>
      <trkpt lat="44.43625" lon="3.22264">
        <ele>725.59997558594</ele>
        <time>2019-05-24T15:14:08Z</time>
      </trkpt>
      <trkpt lat="44.43617" lon="3.22253">
        <ele>725.40002441406</ele>
        <time>2019-05-24T15:14:10Z</time>
      </trkpt>
      <trkpt lat="44.43608" lon="3.22244">
        <ele>724.79998779297</ele>
        <time>2019-05-24T15:14:13Z</time>
      </trkpt>
      <trkpt lat="44.43605" lon="3.2224">
        <ele>724.59997558594</ele>
        <time>2019-05-24T15:14:14Z</time>
      </trkpt>
      <trkpt lat="44.43593" lon="3.22232">
        <ele>724</ele>
        <time>2019-05-24T15:14:17Z</time>
      </trkpt>
      <trkpt lat="44.43585" lon="3.22229">
        <ele>723.79998779297</ele>
        <time>2019-05-24T15:14:19Z</time>
      </trkpt>
      <trkpt lat="44.43582" lon="3.22228">
        <ele>723.59997558594</ele>
        <time>2019-05-24T15:14:20Z</time>
      </trkpt>
      <trkpt lat="44.43568" lon="3.22222">
        <ele>722.79998779297</ele>
        <time>2019-05-24T15:14:24Z</time>
      </trkpt>
      <trkpt lat="44.43561" lon="3.22217">
        <ele>722.40002441406</ele>
        <time>2019-05-24T15:14:26Z</time>
      </trkpt>
      <trkpt lat="44.43555" lon="3.22211">
        <ele>721.79998779297</ele>
        <time>2019-05-24T15:14:28Z</time>
      </trkpt>
      <trkpt lat="44.4354" lon="3.22199">
        <ele>720.59997558594</ele>
        <time>2019-05-24T15:14:32Z</time>
      </trkpt>
      <trkpt lat="44.43537" lon="3.22195">
        <ele>720.40002441406</ele>
        <time>2019-05-24T15:14:33Z</time>
      </trkpt>
      <trkpt lat="44.43526" lon="3.22185">
        <ele>719.20001220703</ele>
        <time>2019-05-24T15:14:36Z</time>
      </trkpt>
      <trkpt lat="44.43505" lon="3.22171">
        <ele>717.40002441406</ele>
        <time>2019-05-24T15:14:41Z</time>
      </trkpt>
      <trkpt lat="44.43486" lon="3.22158">
        <ele>715.79998779297</ele>
        <time>2019-05-24T15:14:46Z</time>
      </trkpt>
      <trkpt lat="44.43476" lon="3.22143">
        <ele>714.79998779297</ele>
        <time>2019-05-24T15:14:51Z</time>
      </trkpt>
      <trkpt lat="44.43473" lon="3.22138">
        <ele>714.40002441406</ele>
        <time>2019-05-24T15:14:53Z</time>
      </trkpt>
      <trkpt lat="44.4347" lon="3.22137">
        <ele>714</ele>
        <time>2019-05-24T15:14:55Z</time>
      </trkpt>
      <trkpt lat="44.43469" lon="3.22136">
        <ele>713.59997558594</ele>
        <time>2019-05-24T15:14:56Z</time>
      </trkpt>
      <trkpt lat="44.43462" lon="3.22131">
        <ele>711.79998779297</ele>
        <time>2019-05-24T15:15:04Z</time>
      </trkpt>
      <trkpt lat="44.4346" lon="3.22129">
        <ele>711.59997558594</ele>
        <time>2019-05-24T15:15:05Z</time>
      </trkpt>
      <trkpt lat="44.43457" lon="3.22127">
        <ele>710.79998779297</ele>
        <time>2019-05-24T15:15:08Z</time>
      </trkpt>
      <trkpt lat="44.43433" lon="3.22088">
        <ele>697.79998779297</ele>
        <time>2019-05-24T15:16:01Z</time>
      </trkpt>
      <trkpt lat="44.43432" lon="3.22085">
        <ele>697.20001220703</ele>
        <time>2019-05-24T15:16:02Z</time>
      </trkpt>
      <trkpt lat="44.43431" lon="3.22084">
        <ele>696.79998779297</ele>
        <time>2019-05-24T15:16:03Z</time>
      </trkpt>
      <trkpt lat="44.43421" lon="3.2207">
        <ele>693.20001220703</ele>
        <time>2019-05-24T15:16:11Z</time>
      </trkpt>
      <trkpt lat="44.43414" lon="3.2206">
        <ele>691.40002441406</ele>
        <time>2019-05-24T15:16:15Z</time>
      </trkpt>
      <trkpt lat="44.43405" lon="3.22046">
        <ele>688</ele>
        <time>2019-05-24T15:16:21Z</time>
      </trkpt>
      <trkpt lat="44.43403" lon="3.22043">
        <ele>687.20001220703</ele>
        <time>2019-05-24T15:16:23Z</time>
      </trkpt>
      <trkpt lat="44.43367" lon="3.22014">
        <ele>673.79998779297</ele>
        <time>2019-05-24T15:17:30Z</time>
      </trkpt>
      <trkpt lat="44.43365" lon="3.22012">
        <ele>673.59997558594</ele>
        <time>2019-05-24T15:17:31Z</time>
      </trkpt>
      <trkpt lat="44.43352" lon="3.22">
        <ele>672</ele>
        <time>2019-05-24T15:17:38Z</time>
      </trkpt>
      <trkpt lat="44.43344" lon="3.21988">
        <ele>670.59997558594</ele>
        <time>2019-05-24T15:17:43Z</time>
      </trkpt>
      <trkpt lat="44.43343" lon="3.21984">
        <ele>670.40002441406</ele>
        <time>2019-05-24T15:17:44Z</time>
      </trkpt>
      <trkpt lat="44.43334" lon="3.21965">
        <ele>668.59997558594</ele>
        <time>2019-05-24T15:17:50Z</time>
      </trkpt>
      <trkpt lat="44.43331" lon="3.21953">
        <ele>667.20001220703</ele>
        <time>2019-05-24T15:17:54Z</time>
      </trkpt>
      <trkpt lat="44.4332" lon="3.21944">
        <ele>665.79998779297</ele>
        <time>2019-05-24T15:17:58Z</time>
      </trkpt>
      <trkpt lat="44.43302" lon="3.21931">
        <ele>664</ele>
        <time>2019-05-24T15:18:03Z</time>
      </trkpt>
      <trkpt lat="44.43286" lon="3.21921">
        <ele>662</ele>
        <time>2019-05-24T15:18:08Z</time>
      </trkpt>
      <trkpt lat="44.43268" lon="3.21913">
        <ele>660</ele>
        <time>2019-05-24T15:18:13Z</time>
      </trkpt>
      <trkpt lat="44.43252" lon="3.21906">
        <ele>658</ele>
        <time>2019-05-24T15:18:18Z</time>
      </trkpt>
      <trkpt lat="44.43231" lon="3.21898">
        <ele>655.40002441406</ele>
        <time>2019-05-24T15:18:24Z</time>
      </trkpt>
      <trkpt lat="44.43214" lon="3.21891">
        <ele>653</ele>
        <time>2019-05-24T15:18:30Z</time>
      </trkpt>
      <trkpt lat="44.43195" lon="3.2188">
        <ele>650</ele>
        <time>2019-05-24T15:18:36Z</time>
      </trkpt>
      <trkpt lat="44.43171" lon="3.21864">
        <ele>646.59997558594</ele>
        <time>2019-05-24T15:18:43Z</time>
      </trkpt>
      <trkpt lat="44.43162" lon="3.21852">
        <ele>644.79998779297</ele>
        <time>2019-05-24T15:18:47Z</time>
      </trkpt>
      <trkpt lat="44.43148" lon="3.21841">
        <ele>642.20001220703</ele>
        <time>2019-05-24T15:18:52Z</time>
      </trkpt>
      <trkpt lat="44.43132" lon="3.21829">
        <ele>639.20001220703</ele>
        <time>2019-05-24T15:18:58Z</time>
      </trkpt>
      <trkpt lat="44.43116" lon="3.2182">
        <ele>636.20001220703</ele>
        <time>2019-05-24T15:19:04Z</time>
      </trkpt>
      <trkpt lat="44.43102" lon="3.21807">
        <ele>633.40002441406</ele>
        <time>2019-05-24T15:19:09Z</time>
      </trkpt>
      <trkpt lat="44.43088" lon="3.2179">
        <ele>630</ele>
        <time>2019-05-24T15:19:15Z</time>
      </trkpt>
      <trkpt lat="44.43077" lon="3.21781">
        <ele>627.20001220703</ele>
        <time>2019-05-24T15:19:20Z</time>
      </trkpt>
      <trkpt lat="44.43067" lon="3.21773">
        <ele>624.79998779297</ele>
        <time>2019-05-24T15:19:24Z</time>
      </trkpt>
      <trkpt lat="44.43061" lon="3.21767">
        <ele>623</ele>
        <time>2019-05-24T15:19:27Z</time>
      </trkpt>
      <trkpt lat="44.43058" lon="3.21767">
        <ele>622</ele>
        <time>2019-05-24T15:19:29Z</time>
      </trkpt>
      <trkpt lat="44.43052" lon="3.21771">
        <ele>620.40002441406</ele>
        <time>2019-05-24T15:19:32Z</time>
      </trkpt>
      <trkpt lat="44.4305" lon="3.21772">
        <ele>620</ele>
        <time>2019-05-24T15:19:33Z</time>
      </trkpt>
      <trkpt lat="44.4304" lon="3.21774">
        <ele>617.20001220703</ele>
        <time>2019-05-24T15:19:38Z</time>
      </trkpt>
      <trkpt lat="44.43034" lon="3.21775">
        <ele>615.40002441406</ele>
        <time>2019-05-24T15:19:41Z</time>
      </trkpt>
      <trkpt lat="44.43033" lon="3.21777">
        <ele>614.79998779297</ele>
        <time>2019-05-24T15:19:42Z</time>
      </trkpt>
      <trkpt lat="44.43022" lon="3.21788">
        <ele>611.40002441406</ele>
        <time>2019-05-24T15:19:48Z</time>
      </trkpt>
      <trkpt lat="44.4302" lon="3.21789">
        <ele>610.79998779297</ele>
        <time>2019-05-24T15:19:49Z</time>
      </trkpt>
      <trkpt lat="44.43018" lon="3.21785">
        <ele>609.79998779297</ele>
        <time>2019-05-24T15:19:51Z</time>
      </trkpt>
      <trkpt lat="44.43017" lon="3.21781">
        <ele>608.79998779297</ele>
        <time>2019-05-24T15:19:53Z</time>
      </trkpt>
      <trkpt lat="44.43017" lon="3.21775">
        <ele>607.79998779297</ele>
        <time>2019-05-24T15:19:55Z</time>
      </trkpt>
      <trkpt lat="44.43021" lon="3.21769">
        <ele>606.79998779297</ele>
        <time>2019-05-24T15:19:57Z</time>
      </trkpt>
      <trkpt lat="44.43027" lon="3.21759">
        <ele>605.59997558594</ele>
        <time>2019-05-24T15:19:59Z</time>
      </trkpt>
      <trkpt lat="44.43041" lon="3.21737">
        <ele>603.40002441406</ele>
        <time>2019-05-24T15:20:03Z</time>
      </trkpt>
      <trkpt lat="44.43047" lon="3.2172">
        <ele>602.20001220703</ele>
        <time>2019-05-24T15:20:05Z</time>
      </trkpt>
      <trkpt lat="44.4305" lon="3.2171">
        <ele>601.59997558594</ele>
        <time>2019-05-24T15:20:06Z</time>
      </trkpt>
      <trkpt lat="44.43053" lon="3.21701">
        <ele>601</ele>
        <time>2019-05-24T15:20:07Z</time>
      </trkpt>
      <trkpt lat="44.43061" lon="3.21684">
        <ele>599.59997558594</ele>
        <time>2019-05-24T15:20:09Z</time>
      </trkpt>
      <trkpt lat="44.43065" lon="3.21677">
        <ele>599.20001220703</ele>
        <time>2019-05-24T15:20:10Z</time>
      </trkpt>
      <trkpt lat="44.43069" lon="3.21669">
        <ele>598.40002441406</ele>
        <time>2019-05-24T15:20:11Z</time>
      </trkpt>
      <trkpt lat="44.43079" lon="3.21653">
        <ele>597.40002441406</ele>
        <time>2019-05-24T15:20:13Z</time>
      </trkpt>
      <trkpt lat="44.43098" lon="3.21614">
        <ele>595</ele>
        <time>2019-05-24T15:20:17Z</time>
      </trkpt>
      <trkpt lat="44.43118" lon="3.21581">
        <ele>592.59997558594</ele>
        <time>2019-05-24T15:20:21Z</time>
      </trkpt>
      <trkpt lat="44.43127" lon="3.21563">
        <ele>590</ele>
        <time>2019-05-24T15:20:25Z</time>
      </trkpt>
      <trkpt lat="44.43124" lon="3.21556">
        <ele>589</ele>
        <time>2019-05-24T15:20:27Z</time>
      </trkpt>
      <trkpt lat="44.43124" lon="3.21552">
        <ele>588.59997558594</ele>
        <time>2019-05-24T15:20:28Z</time>
      </trkpt>
      <trkpt lat="44.43126" lon="3.21545">
        <ele>587.59997558594</ele>
        <time>2019-05-24T15:20:30Z</time>
      </trkpt>
      <trkpt lat="44.43131" lon="3.21527">
        <ele>585.59997558594</ele>
        <time>2019-05-24T15:20:34Z</time>
      </trkpt>
      <trkpt lat="44.43135" lon="3.21514">
        <ele>584.20001220703</ele>
        <time>2019-05-24T15:20:37Z</time>
      </trkpt>
      <trkpt lat="44.4314" lon="3.21505">
        <ele>583.20001220703</ele>
        <time>2019-05-24T15:20:39Z</time>
      </trkpt>
      <trkpt lat="44.4316" lon="3.21477">
        <ele>580</ele>
        <time>2019-05-24T15:20:45Z</time>
      </trkpt>
      <trkpt lat="44.43163" lon="3.21473">
        <ele>579.59997558594</ele>
        <time>2019-05-24T15:20:46Z</time>
      </trkpt>
      <trkpt lat="44.43164" lon="3.21469">
        <ele>579.20001220703</ele>
        <time>2019-05-24T15:20:47Z</time>
      </trkpt>
      <trkpt lat="44.43162" lon="3.21467">
        <ele>578.79998779297</ele>
        <time>2019-05-24T15:20:48Z</time>
      </trkpt>
      <trkpt lat="44.43157" lon="3.21467">
        <ele>578.20001220703</ele>
        <time>2019-05-24T15:20:50Z</time>
      </trkpt>
      <trkpt lat="44.43143" lon="3.21481">
        <ele>576.59997558594</ele>
        <time>2019-05-24T15:20:55Z</time>
      </trkpt>
      <trkpt lat="44.43135" lon="3.21494">
        <ele>575.20001220703</ele>
        <time>2019-05-24T15:21:00Z</time>
      </trkpt>
      <trkpt lat="44.43126" lon="3.21504">
        <ele>574</ele>
        <time>2019-05-24T15:21:06Z</time>
      </trkpt>
      <trkpt lat="44.43122" lon="3.21513">
        <ele>572.79998779297</ele>
        <time>2019-05-24T15:21:11Z</time>
      </trkpt>
      <trkpt lat="44.43129" lon="3.21522">
        <ele>566.59997558594</ele>
        <time>2019-05-24T15:22:40Z</time>
      </trkpt>
      <trkpt lat="44.43128" lon="3.21526">
        <ele>566.40002441406</ele>
        <time>2019-05-24T15:22:42Z</time>
      </trkpt>
      <trkpt lat="44.43117" lon="3.21538">
        <ele>566.40002441406</ele>
        <time>2019-05-24T15:22:51Z</time>
      </trkpt>
      <trkpt lat="44.43114" lon="3.21541">
        <ele>566.40002441406</ele>
        <time>2019-05-24T15:22:53Z</time>
      </trkpt>
      <trkpt lat="44.43105" lon="3.21552">
        <ele>566.59997558594</ele>
        <time>2019-05-24T15:23:00Z</time>
      </trkpt>
      <trkpt lat="44.43094" lon="3.21565">
        <ele>566.40002441406</ele>
        <time>2019-05-24T15:23:06Z</time>
      </trkpt>
      <trkpt lat="44.43082" lon="3.2158">
        <ele>566</ele>
        <time>2019-05-24T15:23:11Z</time>
      </trkpt>
      <trkpt lat="44.43066" lon="3.21604">
        <ele>565.79998779297</ele>
        <time>2019-05-24T15:23:17Z</time>
      </trkpt>
      <trkpt lat="44.4306" lon="3.21612">
        <ele>565.79998779297</ele>
        <time>2019-05-24T15:23:19Z</time>
      </trkpt>
      <trkpt lat="44.43053" lon="3.2162">
        <ele>565.59997558594</ele>
        <time>2019-05-24T15:23:21Z</time>
      </trkpt>
      <trkpt lat="44.43047" lon="3.21629">
        <ele>565.59997558594</ele>
        <time>2019-05-24T15:23:23Z</time>
      </trkpt>
      <trkpt lat="44.43045" lon="3.21634">
        <ele>565.59997558594</ele>
        <time>2019-05-24T15:23:24Z</time>
      </trkpt>
      <trkpt lat="44.43031" lon="3.2165">
        <ele>565.59997558594</ele>
        <time>2019-05-24T15:23:28Z</time>
      </trkpt>
      <trkpt lat="44.43011" lon="3.21674">
        <ele>565.40002441406</ele>
        <time>2019-05-24T15:23:34Z</time>
      </trkpt>
      <trkpt lat="44.43007" lon="3.21678">
        <ele>565.40002441406</ele>
        <time>2019-05-24T15:23:35Z</time>
      </trkpt>
      <trkpt lat="44.42998" lon="3.21692">
        <ele>565.20001220703</ele>
        <time>2019-05-24T15:23:38Z</time>
      </trkpt>
      <trkpt lat="44.42992" lon="3.217">
        <ele>565.20001220703</ele>
        <time>2019-05-24T15:23:40Z</time>
      </trkpt>
      <trkpt lat="44.42972" lon="3.21732">
        <ele>564.59997558594</ele>
        <time>2019-05-24T15:23:47Z</time>
      </trkpt>
      <trkpt lat="44.42966" lon="3.21742">
        <ele>564.40002441406</ele>
        <time>2019-05-24T15:23:49Z</time>
      </trkpt>
      <trkpt lat="44.42961" lon="3.2175">
        <ele>564.59997558594</ele>
        <time>2019-05-24T15:23:51Z</time>
      </trkpt>
      <trkpt lat="44.42956" lon="3.2176">
        <ele>564.59997558594</ele>
        <time>2019-05-24T15:23:53Z</time>
      </trkpt>
      <trkpt lat="44.42948" lon="3.21773">
        <ele>564.79998779297</ele>
        <time>2019-05-24T15:23:56Z</time>
      </trkpt>
      <trkpt lat="44.42944" lon="3.21783">
        <ele>565</ele>
        <time>2019-05-24T15:23:58Z</time>
      </trkpt>
      <trkpt lat="44.42938" lon="3.21793">
        <ele>565</ele>
        <time>2019-05-24T15:24:00Z</time>
      </trkpt>
      <trkpt lat="44.42932" lon="3.21809">
        <ele>565.20001220703</ele>
        <time>2019-05-24T15:24:03Z</time>
      </trkpt>
      <trkpt lat="44.4293" lon="3.21815">
        <ele>565.20001220703</ele>
        <time>2019-05-24T15:24:04Z</time>
      </trkpt>
      <trkpt lat="44.42924" lon="3.21848">
        <ele>565.20001220703</ele>
        <time>2019-05-24T15:24:09Z</time>
      </trkpt>
      <trkpt lat="44.42922" lon="3.21861">
        <ele>565.20001220703</ele>
        <time>2019-05-24T15:24:11Z</time>
      </trkpt>
      <trkpt lat="44.42919" lon="3.21914">
        <ele>565.40002441406</ele>
        <time>2019-05-24T15:24:20Z</time>
      </trkpt>
      <trkpt lat="44.42915" lon="3.21972">
        <ele>566.20001220703</ele>
        <time>2019-05-24T15:24:29Z</time>
      </trkpt>
      <trkpt lat="44.42912" lon="3.22036">
        <ele>566.79998779297</ele>
        <time>2019-05-24T15:24:39Z</time>
      </trkpt>
      <trkpt lat="44.42908" lon="3.2209">
        <ele>567.20001220703</ele>
        <time>2019-05-24T15:24:47Z</time>
      </trkpt>
      <trkpt lat="44.42905" lon="3.22128">
        <ele>567.59997558594</ele>
        <time>2019-05-24T15:24:53Z</time>
      </trkpt>
      <trkpt lat="44.42896" lon="3.22162">
        <ele>567.79998779297</ele>
        <time>2019-05-24T15:24:59Z</time>
      </trkpt>
      <trkpt lat="44.4288" lon="3.22191">
        <ele>568.20001220703</ele>
        <time>2019-05-24T15:25:06Z</time>
      </trkpt>
      <trkpt lat="44.42864" lon="3.22208">
        <ele>568.79998779297</ele>
        <time>2019-05-24T15:25:12Z</time>
      </trkpt>
      <trkpt lat="44.42842" lon="3.22219">
        <ele>569.40002441406</ele>
        <time>2019-05-24T15:25:18Z</time>
      </trkpt>
      <trkpt lat="44.42834" lon="3.22222">
        <ele>569.59997558594</ele>
        <time>2019-05-24T15:25:20Z</time>
      </trkpt>
      <trkpt lat="44.42818" lon="3.22226">
        <ele>570</ele>
        <time>2019-05-24T15:25:24Z</time>
      </trkpt>
      <trkpt lat="44.42782" lon="3.22233">
        <ele>570.59997558594</ele>
        <time>2019-05-24T15:25:33Z</time>
      </trkpt>
      <trkpt lat="44.42778" lon="3.22234">
        <ele>570.59997558594</ele>
        <time>2019-05-24T15:25:34Z</time>
      </trkpt>
      <trkpt lat="44.42766" lon="3.22236">
        <ele>571</ele>
        <time>2019-05-24T15:25:37Z</time>
      </trkpt>
      <trkpt lat="44.42758" lon="3.22237">
        <ele>571.20001220703</ele>
        <time>2019-05-24T15:25:39Z</time>
      </trkpt>
      <trkpt lat="44.42735" lon="3.22243">
        <ele>571.59997558594</ele>
        <time>2019-05-24T15:25:45Z</time>
      </trkpt>
      <trkpt lat="44.42715" lon="3.22254">
        <ele>572</ele>
        <time>2019-05-24T15:25:51Z</time>
      </trkpt>
      <trkpt lat="44.42698" lon="3.22263">
        <ele>572.40002441406</ele>
        <time>2019-05-24T15:25:57Z</time>
      </trkpt>
      <trkpt lat="44.42676" lon="3.22275">
        <ele>573.20001220703</ele>
        <time>2019-05-24T15:26:05Z</time>
      </trkpt>
      <trkpt lat="44.42658" lon="3.22285">
        <ele>574.20001220703</ele>
        <time>2019-05-24T15:26:12Z</time>
      </trkpt>
      <trkpt lat="44.4264" lon="3.22294">
        <ele>574.59997558594</ele>
        <time>2019-05-24T15:26:19Z</time>
      </trkpt>
      <trkpt lat="44.4262" lon="3.22301">
        <ele>575.59997558594</ele>
        <time>2019-05-24T15:26:27Z</time>
      </trkpt>
      <trkpt lat="44.42603" lon="3.22304">
        <ele>576.20001220703</ele>
        <time>2019-05-24T15:26:33Z</time>
      </trkpt>
      <trkpt lat="44.42587" lon="3.22308">
        <ele>576.40002441406</ele>
        <time>2019-05-24T15:26:39Z</time>
      </trkpt>
      <trkpt lat="44.42567" lon="3.22317">
        <ele>577</ele>
        <time>2019-05-24T15:26:46Z</time>
      </trkpt>
      <trkpt lat="44.42546" lon="3.22329">
        <ele>577.59997558594</ele>
        <time>2019-05-24T15:26:53Z</time>
      </trkpt>
      <trkpt lat="44.42542" lon="3.22334">
        <ele>577.79998779297</ele>
        <time>2019-05-24T15:26:55Z</time>
      </trkpt>
      <trkpt lat="44.42544" lon="3.22334">
        <ele>577.79998779297</ele>
        <time>2019-05-24T15:26:56Z</time>
      </trkpt>
      <trkpt lat="44.42548" lon="3.22328">
        <ele>578.40002441406</ele>
        <time>2019-05-24T15:27:01Z</time>
      </trkpt>
      <trkpt lat="44.42547" lon="3.22327">
        <ele>578.59997558594</ele>
        <time>2019-05-24T15:27:02Z</time>
      </trkpt>
      <trkpt lat="44.42537" lon="3.22332">
        <ele>578.79998779297</ele>
        <time>2019-05-24T15:27:06Z</time>
      </trkpt>
      <trkpt lat="44.42515" lon="3.22345">
        <ele>579.20001220703</ele>
        <time>2019-05-24T15:27:14Z</time>
      </trkpt>
      <trkpt lat="44.42485" lon="3.22365">
        <ele>580</ele>
        <time>2019-05-24T15:27:24Z</time>
      </trkpt>
      <trkpt lat="44.42466" lon="3.22375">
        <ele>580.79998779297</ele>
        <time>2019-05-24T15:27:31Z</time>
      </trkpt>
      <trkpt lat="44.42448" lon="3.22388">
        <ele>581</ele>
        <time>2019-05-24T15:27:38Z</time>
      </trkpt>
      <trkpt lat="44.42432" lon="3.22403">
        <ele>581.79998779297</ele>
        <time>2019-05-24T15:27:45Z</time>
      </trkpt>
      <trkpt lat="44.42414" lon="3.22425">
        <ele>582.40002441406</ele>
        <time>2019-05-24T15:27:53Z</time>
      </trkpt>
      <trkpt lat="44.42396" lon="3.22446">
        <ele>582.79998779297</ele>
        <time>2019-05-24T15:28:00Z</time>
      </trkpt>
      <trkpt lat="44.42372" lon="3.22482">
        <ele>583.59997558594</ele>
        <time>2019-05-24T15:28:10Z</time>
      </trkpt>
      <trkpt lat="44.42356" lon="3.22503">
        <ele>584</ele>
        <time>2019-05-24T15:28:16Z</time>
      </trkpt>
      <trkpt lat="44.42342" lon="3.2252">
        <ele>584.79998779297</ele>
        <time>2019-05-24T15:28:22Z</time>
      </trkpt>
      <trkpt lat="44.42323" lon="3.22539">
        <ele>585.20001220703</ele>
        <time>2019-05-24T15:28:29Z</time>
      </trkpt>
      <trkpt lat="44.42298" lon="3.22556">
        <ele>585.59997558594</ele>
        <time>2019-05-24T15:28:37Z</time>
      </trkpt>
      <trkpt lat="44.42272" lon="3.22568">
        <ele>586</ele>
        <time>2019-05-24T15:28:45Z</time>
      </trkpt>
      <trkpt lat="44.42245" lon="3.22581">
        <ele>586.40002441406</ele>
        <time>2019-05-24T15:28:53Z</time>
      </trkpt>
      <trkpt lat="44.42228" lon="3.22595">
        <ele>586.59997558594</ele>
        <time>2019-05-24T15:28:58Z</time>
      </trkpt>
      <trkpt lat="44.42224" lon="3.22599">
        <ele>586.59997558594</ele>
        <time>2019-05-24T15:28:59Z</time>
      </trkpt>
      <trkpt lat="44.42202" lon="3.22627">
        <ele>587.20001220703</ele>
        <time>2019-05-24T15:29:06Z</time>
      </trkpt>
      <trkpt lat="44.42189" lon="3.2264">
        <ele>587.59997558594</ele>
        <time>2019-05-24T15:29:10Z</time>
      </trkpt>
      <trkpt lat="44.42181" lon="3.22645">
        <ele>587.59997558594</ele>
        <time>2019-05-24T15:29:12Z</time>
      </trkpt>
      <trkpt lat="44.42154" lon="3.22654">
        <ele>588.20001220703</ele>
        <time>2019-05-24T15:29:19Z</time>
      </trkpt>
      <trkpt lat="44.42132" lon="3.2266">
        <ele>588.40002441406</ele>
        <time>2019-05-24T15:29:24Z</time>
      </trkpt>
      <trkpt lat="44.42128" lon="3.22663">
        <ele>588.40002441406</ele>
        <time>2019-05-24T15:29:25Z</time>
      </trkpt>
      <trkpt lat="44.42124" lon="3.22667">
        <ele>588.59997558594</ele>
        <time>2019-05-24T15:29:26Z</time>
      </trkpt>
      <trkpt lat="44.42119" lon="3.22678">
        <ele>588.59997558594</ele>
        <time>2019-05-24T15:29:28Z</time>
      </trkpt>
      <trkpt lat="44.42109" lon="3.22699">
        <ele>588.79998779297</ele>
        <time>2019-05-24T15:29:32Z</time>
      </trkpt>
      <trkpt lat="44.42105" lon="3.22703">
        <ele>589</ele>
        <time>2019-05-24T15:29:33Z</time>
      </trkpt>
      <trkpt lat="44.42076" lon="3.22727">
        <ele>589.40002441406</ele>
        <time>2019-05-24T15:29:40Z</time>
      </trkpt>
      <trkpt lat="44.42043" lon="3.22758">
        <ele>590</ele>
        <time>2019-05-24T15:29:48Z</time>
      </trkpt>
      <trkpt lat="44.42014" lon="3.22788">
        <ele>590.59997558594</ele>
        <time>2019-05-24T15:29:55Z</time>
      </trkpt>
      <trkpt lat="44.41993" lon="3.22807">
        <ele>590.79998779297</ele>
        <time>2019-05-24T15:30:00Z</time>
      </trkpt>
      <trkpt lat="44.41965" lon="3.22836">
        <ele>591.40002441406</ele>
        <time>2019-05-24T15:30:06Z</time>
      </trkpt>
      <trkpt lat="44.41934" lon="3.22869">
        <ele>592.20001220703</ele>
        <time>2019-05-24T15:30:13Z</time>
      </trkpt>
      <trkpt lat="44.41906" lon="3.22904">
        <ele>592.79998779297</ele>
        <time>2019-05-24T15:30:20Z</time>
      </trkpt>
      <trkpt lat="44.41884" lon="3.22937">
        <ele>593.40002441406</ele>
        <time>2019-05-24T15:30:26Z</time>
      </trkpt>
      <trkpt lat="44.41866" lon="3.22965">
        <ele>593.79998779297</ele>
        <time>2019-05-24T15:30:31Z</time>
      </trkpt>
      <trkpt lat="44.41858" lon="3.22976">
        <ele>594</ele>
        <time>2019-05-24T15:30:33Z</time>
      </trkpt>
      <trkpt lat="44.41834" lon="3.23007">
        <ele>594.40002441406</ele>
        <time>2019-05-24T15:30:39Z</time>
      </trkpt>
      <trkpt lat="44.41805" lon="3.23042">
        <ele>595</ele>
        <time>2019-05-24T15:30:46Z</time>
      </trkpt>
      <trkpt lat="44.41789" lon="3.23062">
        <ele>595.40002441406</ele>
        <time>2019-05-24T15:30:50Z</time>
      </trkpt>
      <trkpt lat="44.41785" lon="3.23067">
        <ele>595.59997558594</ele>
        <time>2019-05-24T15:30:51Z</time>
      </trkpt>
      <trkpt lat="44.41772" lon="3.23083">
        <ele>596.20001220703</ele>
        <time>2019-05-24T15:30:54Z</time>
      </trkpt>
      <trkpt lat="44.4176" lon="3.23098">
        <ele>596.59997558594</ele>
        <time>2019-05-24T15:30:57Z</time>
      </trkpt>
      <trkpt lat="44.41729" lon="3.23144">
        <ele>597.59997558594</ele>
        <time>2019-05-24T15:31:05Z</time>
      </trkpt>
      <trkpt lat="44.41722" lon="3.23155">
        <ele>597.79998779297</ele>
        <time>2019-05-24T15:31:07Z</time>
      </trkpt>
      <trkpt lat="44.41709" lon="3.2318">
        <ele>598.20001220703</ele>
        <time>2019-05-24T15:31:11Z</time>
      </trkpt>
      <trkpt lat="44.41688" lon="3.23221">
        <ele>599</ele>
        <time>2019-05-24T15:31:18Z</time>
      </trkpt>
      <trkpt lat="44.41685" lon="3.23226">
        <ele>599</ele>
        <time>2019-05-24T15:31:19Z</time>
      </trkpt>
      <trkpt lat="44.41677" lon="3.23238">
        <ele>599.40002441406</ele>
        <time>2019-05-24T15:31:22Z</time>
      </trkpt>
      <trkpt lat="44.41658" lon="3.23258">
        <ele>600.40002441406</ele>
        <time>2019-05-24T15:31:27Z</time>
      </trkpt>
      <trkpt lat="44.41644" lon="3.23273">
        <ele>601.20001220703</ele>
        <time>2019-05-24T15:31:31Z</time>
      </trkpt>
      <trkpt lat="44.4164" lon="3.23277">
        <ele>601.40002441406</ele>
        <time>2019-05-24T15:31:32Z</time>
      </trkpt>
      <trkpt lat="44.41629" lon="3.23289">
        <ele>602.20001220703</ele>
        <time>2019-05-24T15:31:35Z</time>
      </trkpt>
      <trkpt lat="44.41618" lon="3.233">
        <ele>603</ele>
        <time>2019-05-24T15:31:38Z</time>
      </trkpt>
      <trkpt lat="44.41604" lon="3.23314">
        <ele>603.79998779297</ele>
        <time>2019-05-24T15:31:42Z</time>
      </trkpt>
      <trkpt lat="44.4158" lon="3.23335">
        <ele>604.40002441406</ele>
        <time>2019-05-24T15:31:48Z</time>
      </trkpt>
      <trkpt lat="44.41549" lon="3.23359">
        <ele>605.20001220703</ele>
        <time>2019-05-24T15:31:56Z</time>
      </trkpt>
      <trkpt lat="44.41524" lon="3.23377">
        <ele>605.59997558594</ele>
        <time>2019-05-24T15:32:03Z</time>
      </trkpt>
      <trkpt lat="44.41487" lon="3.23394">
        <ele>606.59997558594</ele>
        <time>2019-05-24T15:32:12Z</time>
      </trkpt>
      <trkpt lat="44.41458" lon="3.23409">
        <ele>607.20001220703</ele>
        <time>2019-05-24T15:32:19Z</time>
      </trkpt>
      <trkpt lat="44.41431" lon="3.23423">
        <ele>607</ele>
        <time>2019-05-24T15:32:26Z</time>
      </trkpt>
      <trkpt lat="44.41416" lon="3.23434">
        <ele>607.20001220703</ele>
        <time>2019-05-24T15:32:30Z</time>
      </trkpt>
      <trkpt lat="44.41405" lon="3.23445">
        <ele>607.59997558594</ele>
        <time>2019-05-24T15:32:33Z</time>
      </trkpt>
      <trkpt lat="44.41383" lon="3.23473">
        <ele>607.79998779297</ele>
        <time>2019-05-24T15:32:40Z</time>
      </trkpt>
      <trkpt lat="44.4137" lon="3.23495">
        <ele>608.20001220703</ele>
        <time>2019-05-24T15:32:45Z</time>
      </trkpt>
      <trkpt lat="44.41354" lon="3.23522">
        <ele>609</ele>
        <time>2019-05-24T15:32:51Z</time>
      </trkpt>
      <trkpt lat="44.41341" lon="3.23537">
        <ele>609.40002441406</ele>
        <time>2019-05-24T15:32:55Z</time>
      </trkpt>
      <trkpt lat="44.41333" lon="3.23544">
        <ele>609.59997558594</ele>
        <time>2019-05-24T15:32:57Z</time>
      </trkpt>
      <trkpt lat="44.4133" lon="3.23548">
        <ele>609.79998779297</ele>
        <time>2019-05-24T15:32:58Z</time>
      </trkpt>
      <trkpt lat="44.41315" lon="3.23557">
        <ele>610.40002441406</ele>
        <time>2019-05-24T15:33:02Z</time>
      </trkpt>
      <trkpt lat="44.41291" lon="3.23569">
        <ele>611.20001220703</ele>
        <time>2019-05-24T15:33:08Z</time>
      </trkpt>
      <trkpt lat="44.41258" lon="3.23585">
        <ele>611.79998779297</ele>
        <time>2019-05-24T15:33:16Z</time>
      </trkpt>
      <trkpt lat="44.41254" lon="3.23588">
        <ele>611.79998779297</ele>
        <time>2019-05-24T15:33:17Z</time>
      </trkpt>
      <trkpt lat="44.41234" lon="3.23604">
        <ele>612.40002441406</ele>
        <time>2019-05-24T15:33:22Z</time>
      </trkpt>
      <trkpt lat="44.41214" lon="3.23623">
        <ele>612.79998779297</ele>
        <time>2019-05-24T15:33:27Z</time>
      </trkpt>
      <trkpt lat="44.41182" lon="3.23655">
        <ele>613.79998779297</ele>
        <time>2019-05-24T15:33:36Z</time>
      </trkpt>
      <trkpt lat="44.41162" lon="3.23677">
        <ele>614.40002441406</ele>
        <time>2019-05-24T15:33:42Z</time>
      </trkpt>
      <trkpt lat="44.41141" lon="3.23701">
        <ele>615</ele>
        <time>2019-05-24T15:33:48Z</time>
      </trkpt>
      <trkpt lat="44.41116" lon="3.23727">
        <ele>615.59997558594</ele>
        <time>2019-05-24T15:33:55Z</time>
      </trkpt>
      <trkpt lat="44.41113" lon="3.2373">
        <ele>615.79998779297</ele>
        <time>2019-05-24T15:33:56Z</time>
      </trkpt>
      <trkpt lat="44.41099" lon="3.23744">
        <ele>616.20001220703</ele>
        <time>2019-05-24T15:34:00Z</time>
      </trkpt>
      <trkpt lat="44.41079" lon="3.23765">
        <ele>616.79998779297</ele>
        <time>2019-05-24T15:34:06Z</time>
      </trkpt>
      <trkpt lat="44.41056" lon="3.2379">
        <ele>617.79998779297</ele>
        <time>2019-05-24T15:34:13Z</time>
      </trkpt>
      <trkpt lat="44.41031" lon="3.23816">
        <ele>618.59997558594</ele>
        <time>2019-05-24T15:34:20Z</time>
      </trkpt>
      <trkpt lat="44.41009" lon="3.23838">
        <ele>619.40002441406</ele>
        <time>2019-05-24T15:34:26Z</time>
      </trkpt>
      <trkpt lat="44.40981" lon="3.23867">
        <ele>619.79998779297</ele>
        <time>2019-05-24T15:34:34Z</time>
      </trkpt>
      <trkpt lat="44.40949" lon="3.23897">
        <ele>620.40002441406</ele>
        <time>2019-05-24T15:34:43Z</time>
      </trkpt>
      <trkpt lat="44.40932" lon="3.23924">
        <ele>620.79998779297</ele>
        <time>2019-05-24T15:34:49Z</time>
      </trkpt>
      <trkpt lat="44.40929" lon="3.2393">
        <ele>620.79998779297</ele>
        <time>2019-05-24T15:34:50Z</time>
      </trkpt>
      <trkpt lat="44.40925" lon="3.23948">
        <ele>621</ele>
        <time>2019-05-24T15:34:53Z</time>
      </trkpt>
      <trkpt lat="44.40925" lon="3.23955">
        <ele>621</ele>
        <time>2019-05-24T15:34:54Z</time>
      </trkpt>
      <trkpt lat="44.4092" lon="3.24008">
        <ele>621.40002441406</ele>
        <time>2019-05-24T15:35:02Z</time>
      </trkpt>
      <trkpt lat="44.40914" lon="3.24039">
        <ele>621.59997558594</ele>
        <time>2019-05-24T15:35:07Z</time>
      </trkpt>
      <trkpt lat="44.4091" lon="3.24052">
        <ele>621.59997558594</ele>
        <time>2019-05-24T15:35:09Z</time>
      </trkpt>
      <trkpt lat="44.40895" lon="3.24086">
        <ele>621.79998779297</ele>
        <time>2019-05-24T15:35:15Z</time>
      </trkpt>
      <trkpt lat="44.40891" lon="3.24091">
        <ele>621.79998779297</ele>
        <time>2019-05-24T15:35:16Z</time>
      </trkpt>
      <trkpt lat="44.40885" lon="3.24099">
        <ele>622</ele>
        <time>2019-05-24T15:35:18Z</time>
      </trkpt>
      <trkpt lat="44.40881" lon="3.24103">
        <ele>622</ele>
        <time>2019-05-24T15:35:19Z</time>
      </trkpt>
      <trkpt lat="44.40873" lon="3.24109">
        <ele>622.20001220703</ele>
        <time>2019-05-24T15:35:21Z</time>
      </trkpt>
      <trkpt lat="44.40856" lon="3.2412">
        <ele>622.79998779297</ele>
        <time>2019-05-24T15:35:25Z</time>
      </trkpt>
      <trkpt lat="44.40848" lon="3.24127">
        <ele>623</ele>
        <time>2019-05-24T15:35:27Z</time>
      </trkpt>
      <trkpt lat="44.40836" lon="3.24133">
        <ele>623.20001220703</ele>
        <time>2019-05-24T15:35:29Z</time>
      </trkpt>
      <trkpt lat="44.40806" lon="3.24147">
        <ele>623.40002441406</ele>
        <time>2019-05-24T15:35:34Z</time>
      </trkpt>
      <trkpt lat="44.40774" lon="3.2416">
        <ele>623.20001220703</ele>
        <time>2019-05-24T15:35:39Z</time>
      </trkpt>
      <trkpt lat="44.40768" lon="3.24161">
        <ele>623</ele>
        <time>2019-05-24T15:35:40Z</time>
      </trkpt>
      <trkpt lat="44.40762" lon="3.24159">
        <ele>623</ele>
        <time>2019-05-24T15:35:41Z</time>
      </trkpt>
      <trkpt lat="44.40751" lon="3.24152">
        <ele>622.79998779297</ele>
        <time>2019-05-24T15:35:43Z</time>
      </trkpt>
      <trkpt lat="44.40741" lon="3.2414">
        <ele>622.79998779297</ele>
        <time>2019-05-24T15:35:46Z</time>
      </trkpt>
      <trkpt lat="44.40737" lon="3.24138">
        <ele>622.59997558594</ele>
        <time>2019-05-24T15:35:49Z</time>
      </trkpt>
      <trkpt lat="44.40718" lon="3.24138">
        <ele>623.20001220703</ele>
        <time>2019-05-24T15:44:15Z</time>
      </trkpt>
      <trkpt lat="44.40715" lon="3.24141">
        <ele>623.40002441406</ele>
        <time>2019-05-24T15:44:17Z</time>
      </trkpt>
      <trkpt lat="44.40712" lon="3.24143">
        <ele>623.59997558594</ele>
        <time>2019-05-24T15:44:19Z</time>
      </trkpt>
      <trkpt lat="44.40711" lon="3.24144">
        <ele>623.59997558594</ele>
        <time>2019-05-24T15:44:20Z</time>
      </trkpt>
      <trkpt lat="44.40709" lon="3.24147">
        <ele>623.79998779297</ele>
        <time>2019-05-24T15:44:22Z</time>
      </trkpt>
      <trkpt lat="44.40706" lon="3.24153">
        <ele>624.20001220703</ele>
        <time>2019-05-24T15:44:25Z</time>
      </trkpt>
      <trkpt lat="44.40703" lon="3.24156">
        <ele>624.59997558594</ele>
        <time>2019-05-24T15:44:27Z</time>
      </trkpt>
      <trkpt lat="44.40696" lon="3.2416">
        <ele>625</ele>
        <time>2019-05-24T15:44:31Z</time>
      </trkpt>
      <trkpt lat="44.40694" lon="3.24164">
        <ele>625.40002441406</ele>
        <time>2019-05-24T15:44:33Z</time>
      </trkpt>
      <trkpt lat="44.40685" lon="3.24173">
        <ele>626</ele>
        <time>2019-05-24T15:44:38Z</time>
      </trkpt>
      <trkpt lat="44.40684" lon="3.24174">
        <ele>626.20001220703</ele>
        <time>2019-05-24T15:44:39Z</time>
      </trkpt>
      <trkpt lat="44.40683" lon="3.24176">
        <ele>626.20001220703</ele>
        <time>2019-05-24T15:44:40Z</time>
      </trkpt>
      <trkpt lat="44.40678" lon="3.24181">
        <ele>626.59997558594</ele>
        <time>2019-05-24T15:44:44Z</time>
      </trkpt>
      <trkpt lat="44.40668" lon="3.24191">
        <ele>627.40002441406</ele>
        <time>2019-05-24T15:44:50Z</time>
      </trkpt>
      <trkpt lat="44.4066" lon="3.24197">
        <ele>627.79998779297</ele>
        <time>2019-05-24T15:44:54Z</time>
      </trkpt>
      <trkpt lat="44.40648" lon="3.24201">
        <ele>628.20001220703</ele>
        <time>2019-05-24T15:45:00Z</time>
      </trkpt>
      <trkpt lat="44.40634" lon="3.24207">
        <ele>628.40002441406</ele>
        <time>2019-05-24T15:45:07Z</time>
      </trkpt>
      <trkpt lat="44.40625" lon="3.24208">
        <ele>628.79998779297</ele>
        <time>2019-05-24T15:45:12Z</time>
      </trkpt>
      <trkpt lat="44.40615" lon="3.24209">
        <ele>629.20001220703</ele>
        <time>2019-05-24T15:45:18Z</time>
      </trkpt>
      <trkpt lat="44.40604" lon="3.24212">
        <ele>629.59997558594</ele>
        <time>2019-05-24T15:45:24Z</time>
      </trkpt>
      <trkpt lat="44.40601" lon="3.24212">
        <ele>629.79998779297</ele>
        <time>2019-05-24T15:45:26Z</time>
      </trkpt>
      <trkpt lat="44.40595" lon="3.24214">
        <ele>630</ele>
        <time>2019-05-24T15:45:29Z</time>
      </trkpt>
      <trkpt lat="44.40593" lon="3.24214">
        <ele>630</ele>
        <time>2019-05-24T15:45:30Z</time>
      </trkpt>
      <trkpt lat="44.40592" lon="3.24212">
        <ele>630</ele>
        <time>2019-05-24T15:45:31Z</time>
      </trkpt>
      <trkpt lat="44.40593" lon="3.24209">
        <ele>630</ele>
        <time>2019-05-24T15:45:33Z</time>
      </trkpt>
      <trkpt lat="44.40601" lon="3.24203">
        <ele>629.79998779297</ele>
        <time>2019-05-24T15:45:38Z</time>
      </trkpt>
      <trkpt lat="44.40607" lon="3.24201">
        <ele>629</ele>
        <time>2019-05-24T15:45:42Z</time>
      </trkpt>
      <trkpt lat="44.4061" lon="3.24198">
        <ele>628.59997558594</ele>
        <time>2019-05-24T15:45:44Z</time>
      </trkpt>
      <trkpt lat="44.40627" lon="3.24191">
        <ele>626.59997558594</ele>
        <time>2019-05-24T15:45:52Z</time>
      </trkpt>
      <trkpt lat="44.40639" lon="3.24183">
        <ele>624.59997558594</ele>
        <time>2019-05-24T15:45:59Z</time>
      </trkpt>
      <trkpt lat="44.40645" lon="3.24174">
        <ele>623.20001220703</ele>
        <time>2019-05-24T15:46:04Z</time>
      </trkpt>
      <trkpt lat="44.40647" lon="3.2417">
        <ele>622.79998779297</ele>
        <time>2019-05-24T15:46:06Z</time>
      </trkpt>
      <trkpt lat="44.40649" lon="3.24169">
        <ele>622.40002441406</ele>
        <time>2019-05-24T15:46:07Z</time>
      </trkpt>
      <trkpt lat="44.40653" lon="3.24164">
        <ele>621.59997558594</ele>
        <time>2019-05-24T15:46:10Z</time>
      </trkpt>
      <trkpt lat="44.40658" lon="3.24149">
        <ele>620.20001220703</ele>
        <time>2019-05-24T15:46:17Z</time>
      </trkpt>
      <trkpt lat="44.40659" lon="3.24136">
        <ele>619.40002441406</ele>
        <time>2019-05-24T15:46:21Z</time>
      </trkpt>
      <trkpt lat="44.4066" lon="3.24126">
        <ele>618.40002441406</ele>
        <time>2019-05-24T15:46:25Z</time>
      </trkpt>
      <trkpt lat="44.4066" lon="3.24122">
        <ele>618.20001220703</ele>
        <time>2019-05-24T15:46:26Z</time>
      </trkpt>
      <trkpt lat="44.40661" lon="3.24118">
        <ele>617.79998779297</ele>
        <time>2019-05-24T15:46:28Z</time>
      </trkpt>
      <trkpt lat="44.40662" lon="3.24111">
        <ele>617.20001220703</ele>
        <time>2019-05-24T15:46:31Z</time>
      </trkpt>
      <trkpt lat="44.40664" lon="3.24106">
        <ele>617</ele>
        <time>2019-05-24T15:46:33Z</time>
      </trkpt>
      <trkpt lat="44.40666" lon="3.24099">
        <ele>616.40002441406</ele>
        <time>2019-05-24T15:46:37Z</time>
      </trkpt>
      <trkpt lat="44.40612" lon="3.24136">
        <ele>659</ele>
        <time>2019-05-24T15:49:06Z</time>
      </trkpt>
      <trkpt lat="44.40608" lon="3.24148">
        <ele>660.79998779297</ele>
        <time>2019-05-24T15:49:12Z</time>
      </trkpt>
      <trkpt lat="44.40607" lon="3.2415">
        <ele>661.20001220703</ele>
        <time>2019-05-24T15:49:13Z</time>
      </trkpt>
      <trkpt lat="44.40605" lon="3.24153">
        <ele>661.79998779297</ele>
        <time>2019-05-24T15:49:15Z</time>
      </trkpt>
      <trkpt lat="44.40601" lon="3.24158">
        <ele>662.59997558594</ele>
        <time>2019-05-24T15:49:18Z</time>
      </trkpt>
      <trkpt lat="44.40592" lon="3.24162">
        <ele>664</ele>
        <time>2019-05-24T15:49:24Z</time>
      </trkpt>
      <trkpt lat="44.40589" lon="3.24162">
        <ele>664.40002441406</ele>
        <time>2019-05-24T15:49:26Z</time>
      </trkpt>
      <trkpt lat="44.40585" lon="3.24162">
        <ele>664.59997558594</ele>
        <time>2019-05-24T15:49:28Z</time>
      </trkpt>
      <trkpt lat="44.40582" lon="3.24163">
        <ele>665</ele>
        <time>2019-05-24T15:49:30Z</time>
      </trkpt>
      <trkpt lat="44.40579" lon="3.24163">
        <ele>665.20001220703</ele>
        <time>2019-05-24T15:49:32Z</time>
      </trkpt>
      <trkpt lat="44.40564" lon="3.24166">
        <ele>666.79998779297</ele>
        <time>2019-05-24T15:49:42Z</time>
      </trkpt>
      <trkpt lat="44.40562" lon="3.24167">
        <ele>666.79998779297</ele>
        <time>2019-05-24T15:49:43Z</time>
      </trkpt>
      <trkpt lat="44.40552" lon="3.24174">
        <ele>667.40002441406</ele>
        <time>2019-05-24T15:49:50Z</time>
      </trkpt>
      <trkpt lat="44.40544" lon="3.24181">
        <ele>668.40002441406</ele>
        <time>2019-05-24T15:49:56Z</time>
      </trkpt>
      <trkpt lat="44.40533" lon="3.2419">
        <ele>669.59997558594</ele>
        <time>2019-05-24T15:50:03Z</time>
      </trkpt>
      <trkpt lat="44.40524" lon="3.24194">
        <ele>670.59997558594</ele>
        <time>2019-05-24T15:50:09Z</time>
      </trkpt>
      <trkpt lat="44.40521" lon="3.24196">
        <ele>671</ele>
        <time>2019-05-24T15:50:11Z</time>
      </trkpt>
      <trkpt lat="44.40515" lon="3.24201">
        <ele>672</ele>
        <time>2019-05-24T15:50:15Z</time>
      </trkpt>
      <trkpt lat="44.40504" lon="3.24205">
        <ele>673.40002441406</ele>
        <time>2019-05-24T15:50:21Z</time>
      </trkpt>
      <trkpt lat="44.40503" lon="3.24206">
        <ele>673.59997558594</ele>
        <time>2019-05-24T15:50:22Z</time>
      </trkpt>
      <trkpt lat="44.405" lon="3.24207">
        <ele>674.20001220703</ele>
        <time>2019-05-24T15:50:24Z</time>
      </trkpt>
      <trkpt lat="44.40496" lon="3.24209">
        <ele>674.40002441406</ele>
        <time>2019-05-24T15:50:26Z</time>
      </trkpt>
      <trkpt lat="44.40487" lon="3.24215">
        <ele>675.59997558594</ele>
        <time>2019-05-24T15:50:31Z</time>
      </trkpt>
      <trkpt lat="44.40479" lon="3.24223">
        <ele>677.20001220703</ele>
        <time>2019-05-24T15:50:36Z</time>
      </trkpt>
      <trkpt lat="44.40476" lon="3.24225">
        <ele>678</ele>
        <time>2019-05-24T15:50:39Z</time>
      </trkpt>
      <trkpt lat="44.40459" lon="3.24252">
        <ele>685.40002441406</ele>
        <time>2019-05-24T15:51:01Z</time>
      </trkpt>
      <trkpt lat="44.40453" lon="3.24259">
        <ele>686.79998779297</ele>
        <time>2019-05-24T15:51:05Z</time>
      </trkpt>
      <trkpt lat="44.40452" lon="3.24262">
        <ele>687</ele>
        <time>2019-05-24T15:51:06Z</time>
      </trkpt>
      <trkpt lat="44.40448" lon="3.24271">
        <ele>688</ele>
        <time>2019-05-24T15:51:10Z</time>
      </trkpt>
      <trkpt lat="44.40446" lon="3.24275">
        <ele>688.59997558594</ele>
        <time>2019-05-24T15:51:12Z</time>
      </trkpt>
      <trkpt lat="44.40438" lon="3.24286">
        <ele>690.20001220703</ele>
        <time>2019-05-24T15:51:18Z</time>
      </trkpt>
      <trkpt lat="44.40437" lon="3.24288">
        <ele>690.40002441406</ele>
        <time>2019-05-24T15:51:19Z</time>
      </trkpt>
      <trkpt lat="44.40435" lon="3.24295">
        <ele>691</ele>
        <time>2019-05-24T15:51:22Z</time>
      </trkpt>
      <trkpt lat="44.40434" lon="3.24299">
        <ele>691.20001220703</ele>
        <time>2019-05-24T15:51:24Z</time>
      </trkpt>
      <trkpt lat="44.40424" lon="3.24312">
        <ele>692.20001220703</ele>
        <time>2019-05-24T15:51:31Z</time>
      </trkpt>
      <trkpt lat="44.40422" lon="3.24314">
        <ele>692.40002441406</ele>
        <time>2019-05-24T15:51:32Z</time>
      </trkpt>
      <trkpt lat="44.40419" lon="3.2432">
        <ele>692.79998779297</ele>
        <time>2019-05-24T15:51:35Z</time>
      </trkpt>
      <trkpt lat="44.40417" lon="3.24325">
        <ele>693.40002441406</ele>
        <time>2019-05-24T15:51:37Z</time>
      </trkpt>
      <trkpt lat="44.40412" lon="3.24329">
        <ele>694</ele>
        <time>2019-05-24T15:51:40Z</time>
      </trkpt>
      <trkpt lat="44.40408" lon="3.24326">
        <ele>694.59997558594</ele>
        <time>2019-05-24T15:51:43Z</time>
      </trkpt>
      <trkpt lat="44.40408" lon="3.24324">
        <ele>694.79998779297</ele>
        <time>2019-05-24T15:51:44Z</time>
      </trkpt>
      <trkpt lat="44.40411" lon="3.24319">
        <ele>695.20001220703</ele>
        <time>2019-05-24T15:51:47Z</time>
      </trkpt>
      <trkpt lat="44.40415" lon="3.24311">
        <ele>695.79998779297</ele>
        <time>2019-05-24T15:51:51Z</time>
      </trkpt>
      <trkpt lat="44.40418" lon="3.24308">
        <ele>696</ele>
        <time>2019-05-24T15:51:53Z</time>
      </trkpt>
      <trkpt lat="44.40421" lon="3.24298">
        <ele>696.59997558594</ele>
        <time>2019-05-24T15:51:57Z</time>
      </trkpt>
      <trkpt lat="44.40427" lon="3.24282">
        <ele>697.59997558594</ele>
        <time>2019-05-24T15:52:05Z</time>
      </trkpt>
      <trkpt lat="44.40428" lon="3.24279">
        <ele>697.59997558594</ele>
        <time>2019-05-24T15:52:06Z</time>
      </trkpt>
      <trkpt lat="44.40431" lon="3.24271">
        <ele>698</ele>
        <time>2019-05-24T15:52:09Z</time>
      </trkpt>
      <trkpt lat="44.40469" lon="3.24192">
        <ele>710.79998779297</ele>
        <time>2019-05-24T15:53:43Z</time>
      </trkpt>
      <trkpt lat="44.40471" lon="3.2419">
        <ele>710.79998779297</ele>
        <time>2019-05-24T15:53:44Z</time>
      </trkpt>
      <trkpt lat="44.40474" lon="3.24187">
        <ele>710.79998779297</ele>
        <time>2019-05-24T15:53:46Z</time>
      </trkpt>
      <trkpt lat="44.40477" lon="3.24184">
        <ele>711</ele>
        <time>2019-05-24T15:53:48Z</time>
      </trkpt>
      <trkpt lat="44.40481" lon="3.24182">
        <ele>711.40002441406</ele>
        <time>2019-05-24T15:53:51Z</time>
      </trkpt>
      <trkpt lat="44.405" lon="3.24167">
        <ele>711.20001220703</ele>
        <time>2019-05-24T15:54:03Z</time>
      </trkpt>
      <trkpt lat="44.40504" lon="3.24165">
        <ele>711.20001220703</ele>
        <time>2019-05-24T15:54:05Z</time>
      </trkpt>
      <trkpt lat="44.40506" lon="3.24164">
        <ele>711.20001220703</ele>
        <time>2019-05-24T15:54:06Z</time>
      </trkpt>
      <trkpt lat="44.4051" lon="3.2416">
        <ele>711.40002441406</ele>
        <time>2019-05-24T15:54:09Z</time>
      </trkpt>
      <trkpt lat="44.40516" lon="3.24157">
        <ele>711.40002441406</ele>
        <time>2019-05-24T15:54:12Z</time>
      </trkpt>
      <trkpt lat="44.40519" lon="3.24154">
        <ele>711.59997558594</ele>
        <time>2019-05-24T15:54:14Z</time>
      </trkpt>
      <trkpt lat="44.40524" lon="3.24151">
        <ele>711.59997558594</ele>
        <time>2019-05-24T15:54:17Z</time>
      </trkpt>
      <trkpt lat="44.40532" lon="3.24139">
        <ele>711.59997558594</ele>
        <time>2019-05-24T15:54:24Z</time>
      </trkpt>
      <trkpt lat="44.40539" lon="3.24123">
        <ele>711.79998779297</ele>
        <time>2019-05-24T15:54:31Z</time>
      </trkpt>
      <trkpt lat="44.40545" lon="3.2411">
        <ele>711.79998779297</ele>
        <time>2019-05-24T15:54:34Z</time>
      </trkpt>
      <trkpt lat="44.40547" lon="3.24105">
        <ele>711.79998779297</ele>
        <time>2019-05-24T15:54:35Z</time>
      </trkpt>
      <trkpt lat="44.40552" lon="3.24094">
        <ele>711.79998779297</ele>
        <time>2019-05-24T15:54:38Z</time>
      </trkpt>
      <trkpt lat="44.40555" lon="3.24087">
        <ele>711.79998779297</ele>
        <time>2019-05-24T15:54:41Z</time>
      </trkpt>
      <trkpt lat="44.40556" lon="3.24085">
        <ele>711.79998779297</ele>
        <time>2019-05-24T15:54:42Z</time>
      </trkpt>
      <trkpt lat="44.40557" lon="3.24081">
        <ele>711.79998779297</ele>
        <time>2019-05-24T15:54:43Z</time>
      </trkpt>
      <trkpt lat="44.4056" lon="3.24066">
        <ele>712</ele>
        <time>2019-05-24T15:54:47Z</time>
      </trkpt>
      <trkpt lat="44.40563" lon="3.2405">
        <ele>712.20001220703</ele>
        <time>2019-05-24T15:54:52Z</time>
      </trkpt>
      <trkpt lat="44.40567" lon="3.24038">
        <ele>712.59997558594</ele>
        <time>2019-05-24T15:54:56Z</time>
      </trkpt>
      <trkpt lat="44.4057" lon="3.24024">
        <ele>712.79998779297</ele>
        <time>2019-05-24T15:55:01Z</time>
      </trkpt>
      <trkpt lat="44.40571" lon="3.24019">
        <ele>712.79998779297</ele>
        <time>2019-05-24T15:55:03Z</time>
      </trkpt>
      <trkpt lat="44.40564" lon="3.23946">
        <ele>717</ele>
        <time>2019-05-24T15:55:36Z</time>
      </trkpt>
      <trkpt lat="44.40564" lon="3.23942">
        <ele>717.20001220703</ele>
        <time>2019-05-24T15:55:38Z</time>
      </trkpt>
      <trkpt lat="44.40561" lon="3.23923">
        <ele>718.59997558594</ele>
        <time>2019-05-24T15:55:46Z</time>
      </trkpt>
      <trkpt lat="44.4056" lon="3.2391">
        <ele>719.40002441406</ele>
        <time>2019-05-24T15:55:51Z</time>
      </trkpt>
      <trkpt lat="44.40559" lon="3.23904">
        <ele>720</ele>
        <time>2019-05-24T15:55:54Z</time>
      </trkpt>
      <trkpt lat="44.40559" lon="3.23899">
        <ele>720.40002441406</ele>
        <time>2019-05-24T15:55:56Z</time>
      </trkpt>
      <trkpt lat="44.40559" lon="3.23894">
        <ele>720.79998779297</ele>
        <time>2019-05-24T15:55:58Z</time>
      </trkpt>
      <trkpt lat="44.40559" lon="3.2388">
        <ele>721.59997558594</ele>
        <time>2019-05-24T15:56:04Z</time>
      </trkpt>
      <trkpt lat="44.40559" lon="3.2387">
        <ele>722.20001220703</ele>
        <time>2019-05-24T15:56:09Z</time>
      </trkpt>
      <trkpt lat="44.40556" lon="3.23859">
        <ele>723</ele>
        <time>2019-05-24T15:56:14Z</time>
      </trkpt>
      <trkpt lat="44.40555" lon="3.2385">
        <ele>723.59997558594</ele>
        <time>2019-05-24T15:56:19Z</time>
      </trkpt>
      <trkpt lat="44.40554" lon="3.23843">
        <ele>723.79998779297</ele>
        <time>2019-05-24T15:56:23Z</time>
      </trkpt>
      <trkpt lat="44.40553" lon="3.23833">
        <ele>724</ele>
        <time>2019-05-24T15:56:26Z</time>
      </trkpt>
      <trkpt lat="44.40554" lon="3.2383">
        <ele>724</ele>
        <time>2019-05-24T15:56:27Z</time>
      </trkpt>
      <trkpt lat="44.40554" lon="3.23823">
        <ele>724.40002441406</ele>
        <time>2019-05-24T15:56:30Z</time>
      </trkpt>
      <trkpt lat="44.40553" lon="3.23815">
        <ele>724.59997558594</ele>
        <time>2019-05-24T15:56:33Z</time>
      </trkpt>
      <trkpt lat="44.40552" lon="3.23811">
        <ele>724.59997558594</ele>
        <time>2019-05-24T15:56:35Z</time>
      </trkpt>
      <trkpt lat="44.40552" lon="3.23809">
        <ele>724.79998779297</ele>
        <time>2019-05-24T15:56:36Z</time>
      </trkpt>
      <trkpt lat="44.40551" lon="3.23804">
        <ele>724.79998779297</ele>
        <time>2019-05-24T15:56:38Z</time>
      </trkpt>
      <trkpt lat="44.40549" lon="3.23794">
        <ele>725</ele>
        <time>2019-05-24T15:56:42Z</time>
      </trkpt>
      <trkpt lat="44.40545" lon="3.23781">
        <ele>725.79998779297</ele>
        <time>2019-05-24T15:56:48Z</time>
      </trkpt>
      <trkpt lat="44.40544" lon="3.23773">
        <ele>726</ele>
        <time>2019-05-24T15:56:51Z</time>
      </trkpt>
      <trkpt lat="44.40543" lon="3.23768">
        <ele>726.20001220703</ele>
        <time>2019-05-24T15:56:53Z</time>
      </trkpt>
      <trkpt lat="44.40541" lon="3.23761">
        <ele>726.59997558594</ele>
        <time>2019-05-24T15:56:56Z</time>
      </trkpt>
      <trkpt lat="44.4054" lon="3.23757">
        <ele>726.79998779297</ele>
        <time>2019-05-24T15:56:58Z</time>
      </trkpt>
      <trkpt lat="44.40538" lon="3.23753">
        <ele>727</ele>
        <time>2019-05-24T15:57:00Z</time>
      </trkpt>
      <trkpt lat="44.40535" lon="3.2375">
        <ele>727.20001220703</ele>
        <time>2019-05-24T15:57:02Z</time>
      </trkpt>
      <trkpt lat="44.40523" lon="3.23728">
        <ele>728.20001220703</ele>
        <time>2019-05-24T15:57:13Z</time>
      </trkpt>
      <trkpt lat="44.40523" lon="3.23725">
        <ele>728.20001220703</ele>
        <time>2019-05-24T15:57:14Z</time>
      </trkpt>
      <trkpt lat="44.40517" lon="3.23709">
        <ele>729.20001220703</ele>
        <time>2019-05-24T15:57:21Z</time>
      </trkpt>
      <trkpt lat="44.40517" lon="3.23707">
        <ele>729.40002441406</ele>
        <time>2019-05-24T15:57:22Z</time>
      </trkpt>
      <trkpt lat="44.40514" lon="3.23702">
        <ele>729.59997558594</ele>
        <time>2019-05-24T15:57:25Z</time>
      </trkpt>
      <trkpt lat="44.40509" lon="3.23694">
        <ele>730.20001220703</ele>
        <time>2019-05-24T15:57:29Z</time>
      </trkpt>
      <trkpt lat="44.40504" lon="3.23684">
        <ele>731</ele>
        <time>2019-05-24T15:57:35Z</time>
      </trkpt>
      <trkpt lat="44.40502" lon="3.23678">
        <ele>731.40002441406</ele>
        <time>2019-05-24T15:57:38Z</time>
      </trkpt>
      <trkpt lat="44.40496" lon="3.23666">
        <ele>732.59997558594</ele>
        <time>2019-05-24T15:57:45Z</time>
      </trkpt>
      <trkpt lat="44.40487" lon="3.23657">
        <ele>734.20001220703</ele>
        <time>2019-05-24T15:57:52Z</time>
      </trkpt>
      <trkpt lat="44.40486" lon="3.23656">
        <ele>734.40002441406</ele>
        <time>2019-05-24T15:57:53Z</time>
      </trkpt>
      <trkpt lat="44.4048" lon="3.23652">
        <ele>735.40002441406</ele>
        <time>2019-05-24T15:57:57Z</time>
      </trkpt>
      <trkpt lat="44.40471" lon="3.23645">
        <ele>737</ele>
        <time>2019-05-24T15:58:03Z</time>
      </trkpt>
      <trkpt lat="44.40462" lon="3.23637">
        <ele>738.59997558594</ele>
        <time>2019-05-24T15:58:09Z</time>
      </trkpt>
      <trkpt lat="44.40455" lon="3.23628">
        <ele>740</ele>
        <time>2019-05-24T15:58:15Z</time>
      </trkpt>
      <trkpt lat="44.4045" lon="3.23618">
        <ele>741.79998779297</ele>
        <time>2019-05-24T15:58:22Z</time>
      </trkpt>
      <trkpt lat="44.40446" lon="3.23604">
        <ele>743.79998779297</ele>
        <time>2019-05-24T15:58:30Z</time>
      </trkpt>
      <trkpt lat="44.40444" lon="3.23596">
        <ele>745</ele>
        <time>2019-05-24T15:58:35Z</time>
      </trkpt>
      <trkpt lat="44.40441" lon="3.23586">
        <ele>746.20001220703</ele>
        <time>2019-05-24T15:58:40Z</time>
      </trkpt>
      <trkpt lat="44.40439" lon="3.23582">
        <ele>746.59997558594</ele>
        <time>2019-05-24T15:58:42Z</time>
      </trkpt>
      <trkpt lat="44.40436" lon="3.23579">
        <ele>747.20001220703</ele>
        <time>2019-05-24T15:58:44Z</time>
      </trkpt>
      <trkpt lat="44.40423" lon="3.23571">
        <ele>748.40002441406</ele>
        <time>2019-05-24T15:58:50Z</time>
      </trkpt>
      <trkpt lat="44.40413" lon="3.23565">
        <ele>749.40002441406</ele>
        <time>2019-05-24T15:58:55Z</time>
      </trkpt>
      <trkpt lat="44.40401" lon="3.2356">
        <ele>750.40002441406</ele>
        <time>2019-05-24T15:59:01Z</time>
      </trkpt>
      <trkpt lat="44.40388" lon="3.23551">
        <ele>751.79998779297</ele>
        <time>2019-05-24T15:59:09Z</time>
      </trkpt>
      <trkpt lat="44.40387" lon="3.2355">
        <ele>752</ele>
        <time>2019-05-24T15:59:10Z</time>
      </trkpt>
      <trkpt lat="44.40381" lon="3.23544">
        <ele>752.79998779297</ele>
        <time>2019-05-24T15:59:14Z</time>
      </trkpt>
      <trkpt lat="44.40375" lon="3.23539">
        <ele>753.40002441406</ele>
        <time>2019-05-24T15:59:18Z</time>
      </trkpt>
      <trkpt lat="44.40366" lon="3.23532">
        <ele>754</ele>
        <time>2019-05-24T15:59:23Z</time>
      </trkpt>
      <trkpt lat="44.40363" lon="3.23529">
        <ele>754.59997558594</ele>
        <time>2019-05-24T15:59:25Z</time>
      </trkpt>
      <trkpt lat="44.4036" lon="3.23525">
        <ele>755</ele>
        <time>2019-05-24T15:59:27Z</time>
      </trkpt>
      <trkpt lat="44.40347" lon="3.23515">
        <ele>756.20001220703</ele>
        <time>2019-05-24T15:59:34Z</time>
      </trkpt>
      <trkpt lat="44.40338" lon="3.23506">
        <ele>757.20001220703</ele>
        <time>2019-05-24T15:59:39Z</time>
      </trkpt>
      <trkpt lat="44.40328" lon="3.23496">
        <ele>758.20001220703</ele>
        <time>2019-05-24T15:59:44Z</time>
      </trkpt>
      <trkpt lat="44.40319" lon="3.2349">
        <ele>758.59997558594</ele>
        <time>2019-05-24T15:59:48Z</time>
      </trkpt>
      <trkpt lat="44.40315" lon="3.23489">
        <ele>758.40002441406</ele>
        <time>2019-05-24T15:59:50Z</time>
      </trkpt>
      <trkpt lat="44.4031" lon="3.23493">
        <ele>759</ele>
        <time>2019-05-24T15:59:54Z</time>
      </trkpt>
      <trkpt lat="44.40308" lon="3.23494">
        <ele>759.20001220703</ele>
        <time>2019-05-24T15:59:55Z</time>
      </trkpt>
      <trkpt lat="44.40307" lon="3.23494">
        <ele>759.40002441406</ele>
        <time>2019-05-24T15:59:56Z</time>
      </trkpt>
      <trkpt lat="44.40302" lon="3.23493">
        <ele>760.20001220703</ele>
        <time>2019-05-24T16:00:00Z</time>
      </trkpt>
      <trkpt lat="44.40294" lon="3.23487">
        <ele>761.40002441406</ele>
        <time>2019-05-24T16:00:08Z</time>
      </trkpt>
      <trkpt lat="44.40285" lon="3.23484">
        <ele>762.79998779297</ele>
        <time>2019-05-24T16:00:15Z</time>
      </trkpt>
      <trkpt lat="44.40282" lon="3.23483">
        <ele>763.20001220703</ele>
        <time>2019-05-24T16:00:17Z</time>
      </trkpt>
      <trkpt lat="44.40224" lon="3.23552">
        <ele>776.40002441406</ele>
        <time>2019-05-24T16:01:42Z</time>
      </trkpt>
      <trkpt lat="44.40223" lon="3.23556">
        <ele>776.59997558594</ele>
        <time>2019-05-24T16:01:44Z</time>
      </trkpt>
      <trkpt lat="44.40217" lon="3.23568">
        <ele>777.59997558594</ele>
        <time>2019-05-24T16:01:51Z</time>
      </trkpt>
      <trkpt lat="44.40211" lon="3.23582">
        <ele>778.59997558594</ele>
        <time>2019-05-24T16:01:59Z</time>
      </trkpt>
      <trkpt lat="44.40207" lon="3.23593">
        <ele>779.20001220703</ele>
        <time>2019-05-24T16:02:05Z</time>
      </trkpt>
      <trkpt lat="44.40201" lon="3.23607">
        <ele>780.20001220703</ele>
        <time>2019-05-24T16:02:13Z</time>
      </trkpt>
      <trkpt lat="44.402" lon="3.23609">
        <ele>780.20001220703</ele>
        <time>2019-05-24T16:02:14Z</time>
      </trkpt>
      <trkpt lat="44.40199" lon="3.23616">
        <ele>780.59997558594</ele>
        <time>2019-05-24T16:02:18Z</time>
      </trkpt>
      <trkpt lat="44.40196" lon="3.2362">
        <ele>781</ele>
        <time>2019-05-24T16:02:21Z</time>
      </trkpt>
      <trkpt lat="44.40194" lon="3.23622">
        <ele>781.20001220703</ele>
        <time>2019-05-24T16:02:23Z</time>
      </trkpt>
      <trkpt lat="44.40194" lon="3.23624">
        <ele>781.20001220703</ele>
        <time>2019-05-24T16:02:24Z</time>
      </trkpt>
      <trkpt lat="44.40194" lon="3.23632">
        <ele>782</ele>
        <time>2019-05-24T16:02:29Z</time>
      </trkpt>
      <trkpt lat="44.40196" lon="3.23638">
        <ele>782.40002441406</ele>
        <time>2019-05-24T16:02:33Z</time>
      </trkpt>
      <trkpt lat="44.40196" lon="3.2364">
        <ele>782.40002441406</ele>
        <time>2019-05-24T16:02:34Z</time>
      </trkpt>
      <trkpt lat="44.40197" lon="3.23647">
        <ele>783</ele>
        <time>2019-05-24T16:02:38Z</time>
      </trkpt>
      <trkpt lat="44.40111" lon="3.2381">
        <ele>801.40002441406</ele>
        <time>2019-05-24T16:04:54Z</time>
      </trkpt>
      <trkpt lat="44.4011" lon="3.23812">
        <ele>801.40002441406</ele>
        <time>2019-05-24T16:04:55Z</time>
      </trkpt>
      <trkpt lat="44.401" lon="3.23823">
        <ele>802.79998779297</ele>
        <time>2019-05-24T16:05:03Z</time>
      </trkpt>
      <trkpt lat="44.40086" lon="3.23829">
        <ele>804</ele>
        <time>2019-05-24T16:05:10Z</time>
      </trkpt>
      <trkpt lat="44.40072" lon="3.23838">
        <ele>805</ele>
        <time>2019-05-24T16:05:17Z</time>
      </trkpt>
      <trkpt lat="44.40054" lon="3.23851">
        <ele>806.40002441406</ele>
        <time>2019-05-24T16:05:25Z</time>
      </trkpt>
      <trkpt lat="44.40037" lon="3.23862">
        <ele>807.20001220703</ele>
        <time>2019-05-24T16:05:31Z</time>
      </trkpt>
      <trkpt lat="44.40013" lon="3.23884">
        <ele>808</ele>
        <time>2019-05-24T16:05:38Z</time>
      </trkpt>
      <trkpt lat="44.40002" lon="3.23897">
        <ele>808.20001220703</ele>
        <time>2019-05-24T16:05:41Z</time>
      </trkpt>
      <trkpt lat="44.39996" lon="3.23909">
        <ele>808.40002441406</ele>
        <time>2019-05-24T16:05:43Z</time>
      </trkpt>
      <trkpt lat="44.39991" lon="3.23921">
        <ele>808.59997558594</ele>
        <time>2019-05-24T16:05:45Z</time>
      </trkpt>
      <trkpt lat="44.39986" lon="3.23941">
        <ele>808.79998779297</ele>
        <time>2019-05-24T16:05:48Z</time>
      </trkpt>
      <trkpt lat="44.39984" lon="3.23954">
        <ele>809</ele>
        <time>2019-05-24T16:05:50Z</time>
      </trkpt>
      <trkpt lat="44.39981" lon="3.23978">
        <ele>809.59997558594</ele>
        <time>2019-05-24T16:05:54Z</time>
      </trkpt>
      <trkpt lat="44.39981" lon="3.23985">
        <ele>809.59997558594</ele>
        <time>2019-05-24T16:05:55Z</time>
      </trkpt>
      <trkpt lat="44.39977" lon="3.24011">
        <ele>809.79998779297</ele>
        <time>2019-05-24T16:05:59Z</time>
      </trkpt>
      <trkpt lat="44.39967" lon="3.2405">
        <ele>809.79998779297</ele>
        <time>2019-05-24T16:06:05Z</time>
      </trkpt>
      <trkpt lat="44.39965" lon="3.24056">
        <ele>809.79998779297</ele>
        <time>2019-05-24T16:06:06Z</time>
      </trkpt>
      <trkpt lat="44.39957" lon="3.24074">
        <ele>809.79998779297</ele>
        <time>2019-05-24T16:06:09Z</time>
      </trkpt>
      <trkpt lat="44.39952" lon="3.24087">
        <ele>810</ele>
        <time>2019-05-24T16:06:11Z</time>
      </trkpt>
      <trkpt lat="44.39948" lon="3.24098">
        <ele>810.20001220703</ele>
        <time>2019-05-24T16:06:14Z</time>
      </trkpt>
      <trkpt lat="44.39949" lon="3.24099">
        <ele>810.20001220703</ele>
        <time>2019-05-24T16:06:15Z</time>
      </trkpt>
      <trkpt lat="44.39952" lon="3.24096">
        <ele>810.20001220703</ele>
        <time>2019-05-24T16:06:18Z</time>
      </trkpt>
      <trkpt lat="44.39951" lon="3.24094">
        <ele>810.40002441406</ele>
        <time>2019-05-24T16:06:19Z</time>
      </trkpt>
      <trkpt lat="44.39951" lon="3.24091">
        <ele>810.40002441406</ele>
        <time>2019-05-24T16:06:20Z</time>
      </trkpt>
      <trkpt lat="44.39947" lon="3.24087">
        <ele>810.40002441406</ele>
        <time>2019-05-24T16:06:22Z</time>
      </trkpt>
      <trkpt lat="44.39938" lon="3.24097">
        <ele>810.40002441406</ele>
        <time>2019-05-24T16:06:26Z</time>
      </trkpt>
      <trkpt lat="44.39921" lon="3.24102">
        <ele>810.59997558594</ele>
        <time>2019-05-24T16:06:31Z</time>
      </trkpt>
      <trkpt lat="44.39901" lon="3.24113">
        <ele>810.59997558594</ele>
        <time>2019-05-24T16:06:37Z</time>
      </trkpt>
      <trkpt lat="44.39888" lon="3.24121">
        <ele>810.40002441406</ele>
        <time>2019-05-24T16:06:41Z</time>
      </trkpt>
      <trkpt lat="44.39872" lon="3.24133">
        <ele>810.59997558594</ele>
        <time>2019-05-24T16:06:47Z</time>
      </trkpt>
      <trkpt lat="44.39856" lon="3.24146">
        <ele>810.59997558594</ele>
        <time>2019-05-24T16:06:54Z</time>
      </trkpt>
      <trkpt lat="44.39855" lon="3.24146">
        <ele>810.59997558594</ele>
        <time>2019-05-24T16:06:55Z</time>
      </trkpt>
      <trkpt lat="44.39849" lon="3.24148">
        <ele>810.79998779297</ele>
        <time>2019-05-24T16:06:58Z</time>
      </trkpt>
      <trkpt lat="44.39843" lon="3.24151">
        <ele>811</ele>
        <time>2019-05-24T16:07:01Z</time>
      </trkpt>
      <trkpt lat="44.39842" lon="3.24154">
        <ele>811</ele>
        <time>2019-05-24T16:07:02Z</time>
      </trkpt>
      <trkpt lat="44.39843" lon="3.24176">
        <ele>811</ele>
        <time>2019-05-24T16:07:07Z</time>
      </trkpt>
      <trkpt lat="44.3984" lon="3.24201">
        <ele>810.59997558594</ele>
        <time>2019-05-24T16:07:11Z</time>
      </trkpt>
      <trkpt lat="44.3984" lon="3.24207">
        <ele>810.40002441406</ele>
        <time>2019-05-24T16:07:12Z</time>
      </trkpt>
      <trkpt lat="44.39839" lon="3.2422">
        <ele>810.20001220703</ele>
        <time>2019-05-24T16:07:14Z</time>
      </trkpt>
      <trkpt lat="44.39839" lon="3.24233">
        <ele>810</ele>
        <time>2019-05-24T16:07:16Z</time>
      </trkpt>
      <trkpt lat="44.39839" lon="3.24248">
        <ele>809.59997558594</ele>
        <time>2019-05-24T16:07:18Z</time>
      </trkpt>
      <trkpt lat="44.39839" lon="3.24268">
        <ele>809.20001220703</ele>
        <time>2019-05-24T16:07:21Z</time>
      </trkpt>
      <trkpt lat="44.39838" lon="3.24288">
        <ele>808.40002441406</ele>
        <time>2019-05-24T16:07:25Z</time>
      </trkpt>
      <trkpt lat="44.39838" lon="3.24305">
        <ele>807.40002441406</ele>
        <time>2019-05-24T16:07:28Z</time>
      </trkpt>
      <trkpt lat="44.39837" lon="3.2431">
        <ele>807</ele>
        <time>2019-05-24T16:07:29Z</time>
      </trkpt>
      <trkpt lat="44.39835" lon="3.24316">
        <ele>806.79998779297</ele>
        <time>2019-05-24T16:07:30Z</time>
      </trkpt>
      <trkpt lat="44.39829" lon="3.24324">
        <ele>806.20001220703</ele>
        <time>2019-05-24T16:07:32Z</time>
      </trkpt>
      <trkpt lat="44.39823" lon="3.24332">
        <ele>805.59997558594</ele>
        <time>2019-05-24T16:07:34Z</time>
      </trkpt>
      <trkpt lat="44.39819" lon="3.24344">
        <ele>804.79998779297</ele>
        <time>2019-05-24T16:07:36Z</time>
      </trkpt>
      <trkpt lat="44.39817" lon="3.24351">
        <ele>804.40002441406</ele>
        <time>2019-05-24T16:07:37Z</time>
      </trkpt>
      <trkpt lat="44.39811" lon="3.2436">
        <ele>803.79998779297</ele>
        <time>2019-05-24T16:07:39Z</time>
      </trkpt>
      <trkpt lat="44.39807" lon="3.24362">
        <ele>803.40002441406</ele>
        <time>2019-05-24T16:07:40Z</time>
      </trkpt>
      <trkpt lat="44.39803" lon="3.24363">
        <ele>803.20001220703</ele>
        <time>2019-05-24T16:07:41Z</time>
      </trkpt>
      <trkpt lat="44.39794" lon="3.2436">
        <ele>802.40002441406</ele>
        <time>2019-05-24T16:07:43Z</time>
      </trkpt>
      <trkpt lat="44.39777" lon="3.24351">
        <ele>800.79998779297</ele>
        <time>2019-05-24T16:07:47Z</time>
      </trkpt>
      <trkpt lat="44.3977" lon="3.24345">
        <ele>800.20001220703</ele>
        <time>2019-05-24T16:07:49Z</time>
      </trkpt>
      <trkpt lat="44.39762" lon="3.24333">
        <ele>798.79998779297</ele>
        <time>2019-05-24T16:07:52Z</time>
      </trkpt>
      <trkpt lat="44.39755" lon="3.24326">
        <ele>797.79998779297</ele>
        <time>2019-05-24T16:07:54Z</time>
      </trkpt>
      <trkpt lat="44.39747" lon="3.24314">
        <ele>796.20001220703</ele>
        <time>2019-05-24T16:07:57Z</time>
      </trkpt>
      <trkpt lat="44.39745" lon="3.24311">
        <ele>795.79998779297</ele>
        <time>2019-05-24T16:07:58Z</time>
      </trkpt>
      <trkpt lat="44.39741" lon="3.24309">
        <ele>794.79998779297</ele>
        <time>2019-05-24T16:08:00Z</time>
      </trkpt>
      <trkpt lat="44.39739" lon="3.2431">
        <ele>794.20001220703</ele>
        <time>2019-05-24T16:08:01Z</time>
      </trkpt>
      <trkpt lat="44.39738" lon="3.24313">
        <ele>793.79998779297</ele>
        <time>2019-05-24T16:08:02Z</time>
      </trkpt>
      <trkpt lat="44.39731" lon="3.24338">
        <ele>791.20001220703</ele>
        <time>2019-05-24T16:08:07Z</time>
      </trkpt>
      <trkpt lat="44.39732" lon="3.24352">
        <ele>790</ele>
        <time>2019-05-24T16:08:09Z</time>
      </trkpt>
      <trkpt lat="44.39734" lon="3.24365">
        <ele>789</ele>
        <time>2019-05-24T16:08:11Z</time>
      </trkpt>
      <trkpt lat="44.3974" lon="3.24376">
        <ele>787.79998779297</ele>
        <time>2019-05-24T16:08:13Z</time>
      </trkpt>
      <trkpt lat="44.39745" lon="3.24387">
        <ele>786.59997558594</ele>
        <time>2019-05-24T16:08:15Z</time>
      </trkpt>
      <trkpt lat="44.39747" lon="3.24392">
        <ele>786</ele>
        <time>2019-05-24T16:08:16Z</time>
      </trkpt>
      <trkpt lat="44.39749" lon="3.24402">
        <ele>785.79998779297</ele>
        <time>2019-05-24T16:08:18Z</time>
      </trkpt>
      <trkpt lat="44.39749" lon="3.24406">
        <ele>785.59997558594</ele>
        <time>2019-05-24T16:08:19Z</time>
      </trkpt>
      <trkpt lat="44.39748" lon="3.24409">
        <ele>785.40002441406</ele>
        <time>2019-05-24T16:08:20Z</time>
      </trkpt>
      <trkpt lat="44.39742" lon="3.24415">
        <ele>784.79998779297</ele>
        <time>2019-05-24T16:08:23Z</time>
      </trkpt>
      <trkpt lat="44.39736" lon="3.24423">
        <ele>783.79998779297</ele>
        <time>2019-05-24T16:08:26Z</time>
      </trkpt>
      <trkpt lat="44.39732" lon="3.24426">
        <ele>783.79998779297</ele>
        <time>2019-05-24T16:08:27Z</time>
      </trkpt>
      <trkpt lat="44.39721" lon="3.24438">
        <ele>782.79998779297</ele>
        <time>2019-05-24T16:08:31Z</time>
      </trkpt>
      <trkpt lat="44.39714" lon="3.2445">
        <ele>781.59997558594</ele>
        <time>2019-05-24T16:08:34Z</time>
      </trkpt>
      <trkpt lat="44.3971" lon="3.24452">
        <ele>781.40002441406</ele>
        <time>2019-05-24T16:08:35Z</time>
      </trkpt>
      <trkpt lat="44.39705" lon="3.24453">
        <ele>781.20001220703</ele>
        <time>2019-05-24T16:08:36Z</time>
      </trkpt>
      <trkpt lat="44.39695" lon="3.24451">
        <ele>780.79998779297</ele>
        <time>2019-05-24T16:08:38Z</time>
      </trkpt>
      <trkpt lat="44.3969" lon="3.24449">
        <ele>780.59997558594</ele>
        <time>2019-05-24T16:08:39Z</time>
      </trkpt>
      <trkpt lat="44.39685" lon="3.24446">
        <ele>780.40002441406</ele>
        <time>2019-05-24T16:08:40Z</time>
      </trkpt>
      <trkpt lat="44.39676" lon="3.2444">
        <ele>780</ele>
        <time>2019-05-24T16:08:42Z</time>
      </trkpt>
      <trkpt lat="44.39672" lon="3.24436">
        <ele>779.79998779297</ele>
        <time>2019-05-24T16:08:43Z</time>
      </trkpt>
      <trkpt lat="44.39666" lon="3.24427">
        <ele>779.40002441406</ele>
        <time>2019-05-24T16:08:45Z</time>
      </trkpt>
      <trkpt lat="44.3966" lon="3.24419">
        <ele>779</ele>
        <time>2019-05-24T16:08:47Z</time>
      </trkpt>
      <trkpt lat="44.39642" lon="3.24402">
        <ele>778.40002441406</ele>
        <time>2019-05-24T16:08:52Z</time>
      </trkpt>
      <trkpt lat="44.39639" lon="3.24399">
        <ele>778.20001220703</ele>
        <time>2019-05-24T16:08:53Z</time>
      </trkpt>
      <trkpt lat="44.3962" lon="3.24381">
        <ele>777.59997558594</ele>
        <time>2019-05-24T16:08:58Z</time>
      </trkpt>
      <trkpt lat="44.39613" lon="3.24374">
        <ele>777.20001220703</ele>
        <time>2019-05-24T16:09:00Z</time>
      </trkpt>
      <trkpt lat="44.396" lon="3.24359">
        <ele>776.79998779297</ele>
        <time>2019-05-24T16:09:04Z</time>
      </trkpt>
      <trkpt lat="44.39578" lon="3.24329">
        <ele>776.20001220703</ele>
        <time>2019-05-24T16:09:11Z</time>
      </trkpt>
      <trkpt lat="44.39575" lon="3.24325">
        <ele>776</ele>
        <time>2019-05-24T16:09:12Z</time>
      </trkpt>
      <trkpt lat="44.39552" lon="3.24303">
        <ele>775.79998779297</ele>
        <time>2019-05-24T16:09:19Z</time>
      </trkpt>
      <trkpt lat="44.39535" lon="3.24293">
        <ele>775.40002441406</ele>
        <time>2019-05-24T16:09:24Z</time>
      </trkpt>
      <trkpt lat="44.3952" lon="3.24284">
        <ele>775.20001220703</ele>
        <time>2019-05-24T16:09:29Z</time>
      </trkpt>
      <trkpt lat="44.39499" lon="3.24271">
        <ele>774.79998779297</ele>
        <time>2019-05-24T16:09:36Z</time>
      </trkpt>
      <trkpt lat="44.39483" lon="3.24256">
        <ele>774.79998779297</ele>
        <time>2019-05-24T16:09:42Z</time>
      </trkpt>
      <trkpt lat="44.39466" lon="3.24244">
        <ele>775.20001220703</ele>
        <time>2019-05-24T16:09:48Z</time>
      </trkpt>
      <trkpt lat="44.39445" lon="3.24225">
        <ele>775.79998779297</ele>
        <time>2019-05-24T16:09:56Z</time>
      </trkpt>
      <trkpt lat="44.39429" lon="3.24205">
        <ele>775.79998779297</ele>
        <time>2019-05-24T16:10:03Z</time>
      </trkpt>
      <trkpt lat="44.39419" lon="3.24188">
        <ele>775.79998779297</ele>
        <time>2019-05-24T16:10:08Z</time>
      </trkpt>
      <trkpt lat="44.394" lon="3.24162">
        <ele>776.40002441406</ele>
        <time>2019-05-24T16:10:16Z</time>
      </trkpt>
      <trkpt lat="44.39384" lon="3.24148">
        <ele>777.20001220703</ele>
        <time>2019-05-24T16:10:22Z</time>
      </trkpt>
      <trkpt lat="44.39367" lon="3.24133">
        <ele>777.79998779297</ele>
        <time>2019-05-24T16:10:28Z</time>
      </trkpt>
      <trkpt lat="44.39351" lon="3.24118">
        <ele>778.40002441406</ele>
        <time>2019-05-24T16:10:34Z</time>
      </trkpt>
      <trkpt lat="44.39341" lon="3.24109">
        <ele>779</ele>
        <time>2019-05-24T16:10:38Z</time>
      </trkpt>
      <trkpt lat="44.39339" lon="3.24105">
        <ele>779.20001220703</ele>
        <time>2019-05-24T16:10:39Z</time>
      </trkpt>
      <trkpt lat="44.39337" lon="3.24095">
        <ele>779.79998779297</ele>
        <time>2019-05-24T16:10:42Z</time>
      </trkpt>
      <trkpt lat="44.39338" lon="3.24086">
        <ele>780.40002441406</ele>
        <time>2019-05-24T16:10:46Z</time>
      </trkpt>
      <trkpt lat="44.39342" lon="3.24071">
        <ele>781.20001220703</ele>
        <time>2019-05-24T16:10:53Z</time>
      </trkpt>
      <trkpt lat="44.39343" lon="3.24068">
        <ele>781.20001220703</ele>
        <time>2019-05-24T16:10:54Z</time>
      </trkpt>
      <trkpt lat="44.39344" lon="3.24063">
        <ele>781.40002441406</ele>
        <time>2019-05-24T16:10:56Z</time>
      </trkpt>
      <trkpt lat="44.39343" lon="3.24049">
        <ele>781.79998779297</ele>
        <time>2019-05-24T16:11:00Z</time>
      </trkpt>
      <trkpt lat="44.39342" lon="3.24042">
        <ele>782</ele>
        <time>2019-05-24T16:11:02Z</time>
      </trkpt>
      <trkpt lat="44.39339" lon="3.24036">
        <ele>782</ele>
        <time>2019-05-24T16:11:04Z</time>
      </trkpt>
      <trkpt lat="44.39334" lon="3.24028">
        <ele>782</ele>
        <time>2019-05-24T16:11:06Z</time>
      </trkpt>
      <trkpt lat="44.39332" lon="3.24026">
        <ele>782</ele>
        <time>2019-05-24T16:11:07Z</time>
      </trkpt>
      <trkpt lat="44.39326" lon="3.24014">
        <ele>782.59997558594</ele>
        <time>2019-05-24T16:11:11Z</time>
      </trkpt>
      <trkpt lat="44.39325" lon="3.2401">
        <ele>782.79998779297</ele>
        <time>2019-05-24T16:11:13Z</time>
      </trkpt>
      <trkpt lat="44.39323" lon="3.24002">
        <ele>783.40002441406</ele>
        <time>2019-05-24T16:11:16Z</time>
      </trkpt>
      <trkpt lat="44.39322" lon="3.23997">
        <ele>783.59997558594</ele>
        <time>2019-05-24T16:11:18Z</time>
      </trkpt>
      <trkpt lat="44.39322" lon="3.23989">
        <ele>783.79998779297</ele>
        <time>2019-05-24T16:11:21Z</time>
      </trkpt>
      <trkpt lat="44.39322" lon="3.23986">
        <ele>783.79998779297</ele>
        <time>2019-05-24T16:11:22Z</time>
      </trkpt>
      <trkpt lat="44.39325" lon="3.23976">
        <ele>784.20001220703</ele>
        <time>2019-05-24T16:11:27Z</time>
      </trkpt>
      <trkpt lat="44.39326" lon="3.23974">
        <ele>784.20001220703</ele>
        <time>2019-05-24T16:11:28Z</time>
      </trkpt>
      <trkpt lat="44.39326" lon="3.23964">
        <ele>784.20001220703</ele>
        <time>2019-05-24T16:11:32Z</time>
      </trkpt>
      <trkpt lat="44.39329" lon="3.23956">
        <ele>784.20001220703</ele>
        <time>2019-05-24T16:11:36Z</time>
      </trkpt>
      <trkpt lat="44.39385" lon="3.2382">
        <ele>805.20001220703</ele>
        <time>2019-05-24T16:14:15Z</time>
      </trkpt>
      <trkpt lat="44.39389" lon="3.23804">
        <ele>806</ele>
        <time>2019-05-24T16:14:23Z</time>
      </trkpt>
      <trkpt lat="44.39395" lon="3.23791">
        <ele>806.59997558594</ele>
        <time>2019-05-24T16:14:29Z</time>
      </trkpt>
      <trkpt lat="44.39396" lon="3.23789">
        <ele>806.59997558594</ele>
        <time>2019-05-24T16:14:30Z</time>
      </trkpt>
      <trkpt lat="44.39399" lon="3.23782">
        <ele>806.79998779297</ele>
        <time>2019-05-24T16:14:33Z</time>
      </trkpt>
      <trkpt lat="44.39404" lon="3.23772">
        <ele>806.79998779297</ele>
        <time>2019-05-24T16:14:37Z</time>
      </trkpt>
      <trkpt lat="44.39405" lon="3.23769">
        <ele>806.79998779297</ele>
        <time>2019-05-24T16:14:38Z</time>
      </trkpt>
      <trkpt lat="44.3941" lon="3.23752">
        <ele>807</ele>
        <time>2019-05-24T16:14:44Z</time>
      </trkpt>
      <trkpt lat="44.39417" lon="3.23731">
        <ele>807.40002441406</ele>
        <time>2019-05-24T16:14:50Z</time>
      </trkpt>
      <trkpt lat="44.39425" lon="3.23702">
        <ele>807.79998779297</ele>
        <time>2019-05-24T16:14:58Z</time>
      </trkpt>
      <trkpt lat="44.39429" lon="3.23682">
        <ele>808.20001220703</ele>
        <time>2019-05-24T16:15:04Z</time>
      </trkpt>
      <trkpt lat="44.39432" lon="3.23659">
        <ele>808.59997558594</ele>
        <time>2019-05-24T16:15:10Z</time>
      </trkpt>
      <trkpt lat="44.39431" lon="3.2364">
        <ele>809</ele>
        <time>2019-05-24T16:15:15Z</time>
      </trkpt>
      <trkpt lat="44.39426" lon="3.23617">
        <ele>809.59997558594</ele>
        <time>2019-05-24T16:15:21Z</time>
      </trkpt>
      <trkpt lat="44.39418" lon="3.23598">
        <ele>810.40002441406</ele>
        <time>2019-05-24T16:15:28Z</time>
      </trkpt>
      <trkpt lat="44.39408" lon="3.23587">
        <ele>811.40002441406</ele>
        <time>2019-05-24T16:15:35Z</time>
      </trkpt>
      <trkpt lat="44.39401" lon="3.2358">
        <ele>812.40002441406</ele>
        <time>2019-05-24T16:15:41Z</time>
      </trkpt>
      <trkpt lat="44.39399" lon="3.2358">
        <ele>812.59997558594</ele>
        <time>2019-05-24T16:15:42Z</time>
      </trkpt>
      <trkpt lat="44.39388" lon="3.23575">
        <ele>814.20001220703</ele>
        <time>2019-05-24T16:15:50Z</time>
      </trkpt>
      <trkpt lat="44.39379" lon="3.23571">
        <ele>815.40002441406</ele>
        <time>2019-05-24T16:15:57Z</time>
      </trkpt>
      <trkpt lat="44.3937" lon="3.23563">
        <ele>816.79998779297</ele>
        <time>2019-05-24T16:16:04Z</time>
      </trkpt>
      <trkpt lat="44.39361" lon="3.23553">
        <ele>818.20001220703</ele>
        <time>2019-05-24T16:16:12Z</time>
      </trkpt>
      <trkpt lat="44.39351" lon="3.23543">
        <ele>819.40002441406</ele>
        <time>2019-05-24T16:16:20Z</time>
      </trkpt>
      <trkpt lat="44.39339" lon="3.23532">
        <ele>820.59997558594</ele>
        <time>2019-05-24T16:16:28Z</time>
      </trkpt>
      <trkpt lat="44.39325" lon="3.23522">
        <ele>821.59997558594</ele>
        <time>2019-05-24T16:16:37Z</time>
      </trkpt>
      <trkpt lat="44.39309" lon="3.23511">
        <ele>822.20001220703</ele>
        <time>2019-05-24T16:16:44Z</time>
      </trkpt>
      <trkpt lat="44.39291" lon="3.23497">
        <ele>822.79998779297</ele>
        <time>2019-05-24T16:16:50Z</time>
      </trkpt>
      <trkpt lat="44.39288" lon="3.23486">
        <ele>823</ele>
        <time>2019-05-24T16:16:52Z</time>
      </trkpt>
      <trkpt lat="44.39288" lon="3.2348">
        <ele>823</ele>
        <time>2019-05-24T16:16:53Z</time>
      </trkpt>
      <trkpt lat="44.39291" lon="3.23471">
        <ele>823.40002441406</ele>
        <time>2019-05-24T16:16:55Z</time>
      </trkpt>
      <trkpt lat="44.39295" lon="3.23468">
        <ele>823.40002441406</ele>
        <time>2019-05-24T16:16:56Z</time>
      </trkpt>
      <trkpt lat="44.39316" lon="3.2345">
        <ele>824</ele>
        <time>2019-05-24T16:17:03Z</time>
      </trkpt>
      <trkpt lat="44.3933" lon="3.23432">
        <ele>824.79998779297</ele>
        <time>2019-05-24T16:17:09Z</time>
      </trkpt>
      <trkpt lat="44.39342" lon="3.23417">
        <ele>825.40002441406</ele>
        <time>2019-05-24T16:17:14Z</time>
      </trkpt>
      <trkpt lat="44.39355" lon="3.23403">
        <ele>826.79998779297</ele>
        <time>2019-05-24T16:17:20Z</time>
      </trkpt>
      <trkpt lat="44.39372" lon="3.2339">
        <ele>827.59997558594</ele>
        <time>2019-05-24T16:17:26Z</time>
      </trkpt>
      <trkpt lat="44.39384" lon="3.23383">
        <ele>828.40002441406</ele>
        <time>2019-05-24T16:17:31Z</time>
      </trkpt>
      <trkpt lat="44.39399" lon="3.23383">
        <ele>829</ele>
        <time>2019-05-24T16:17:36Z</time>
      </trkpt>
      <trkpt lat="44.39415" lon="3.23381">
        <ele>829.40002441406</ele>
        <time>2019-05-24T16:17:41Z</time>
      </trkpt>
      <trkpt lat="44.39438" lon="3.23375">
        <ele>829.79998779297</ele>
        <time>2019-05-24T16:17:48Z</time>
      </trkpt>
      <trkpt lat="44.39454" lon="3.23369">
        <ele>830.40002441406</ele>
        <time>2019-05-24T16:17:53Z</time>
      </trkpt>
      <trkpt lat="44.39468" lon="3.2336">
        <ele>830.59997558594</ele>
        <time>2019-05-24T16:17:57Z</time>
      </trkpt>
      <trkpt lat="44.39476" lon="3.23353">
        <ele>830.79998779297</ele>
        <time>2019-05-24T16:17:59Z</time>
      </trkpt>
      <trkpt lat="44.39497" lon="3.2333">
        <ele>830.59997558594</ele>
        <time>2019-05-24T16:18:05Z</time>
      </trkpt>
      <trkpt lat="44.39499" lon="3.23325">
        <ele>830.59997558594</ele>
        <time>2019-05-24T16:18:06Z</time>
      </trkpt>
      <trkpt lat="44.39504" lon="3.23316">
        <ele>830.59997558594</ele>
        <time>2019-05-24T16:18:08Z</time>
      </trkpt>
      <trkpt lat="44.39509" lon="3.23304">
        <ele>830.59997558594</ele>
        <time>2019-05-24T16:18:10Z</time>
      </trkpt>
      <trkpt lat="44.39511" lon="3.23298">
        <ele>830.59997558594</ele>
        <time>2019-05-24T16:18:11Z</time>
      </trkpt>
      <trkpt lat="44.39519" lon="3.23275">
        <ele>830.40002441406</ele>
        <time>2019-05-24T16:18:14Z</time>
      </trkpt>
      <trkpt lat="44.39529" lon="3.23233">
        <ele>829.79998779297</ele>
        <time>2019-05-24T16:18:19Z</time>
      </trkpt>
      <trkpt lat="44.3953" lon="3.23226">
        <ele>829.59997558594</ele>
        <time>2019-05-24T16:18:20Z</time>
      </trkpt>
      <trkpt lat="44.39536" lon="3.23215">
        <ele>829.20001220703</ele>
        <time>2019-05-24T16:18:22Z</time>
      </trkpt>
      <trkpt lat="44.39539" lon="3.23209">
        <ele>829</ele>
        <time>2019-05-24T16:18:23Z</time>
      </trkpt>
      <trkpt lat="44.39546" lon="3.23199">
        <ele>828.59997558594</ele>
        <time>2019-05-24T16:18:25Z</time>
      </trkpt>
      <trkpt lat="44.3955" lon="3.2319">
        <ele>828.20001220703</ele>
        <time>2019-05-24T16:18:27Z</time>
      </trkpt>
      <trkpt lat="44.39558" lon="3.23165">
        <ele>827</ele>
        <time>2019-05-24T16:18:31Z</time>
      </trkpt>
      <trkpt lat="44.39565" lon="3.2313">
        <ele>825.59997558594</ele>
        <time>2019-05-24T16:18:36Z</time>
      </trkpt>
      <trkpt lat="44.39568" lon="3.23116">
        <ele>824.79998779297</ele>
        <time>2019-05-24T16:18:38Z</time>
      </trkpt>
      <trkpt lat="44.39572" lon="3.23105">
        <ele>824.20001220703</ele>
        <time>2019-05-24T16:18:40Z</time>
      </trkpt>
      <trkpt lat="44.39577" lon="3.23092">
        <ele>823.40002441406</ele>
        <time>2019-05-24T16:18:42Z</time>
      </trkpt>
      <trkpt lat="44.39582" lon="3.23085">
        <ele>822.79998779297</ele>
        <time>2019-05-24T16:18:44Z</time>
      </trkpt>
      <trkpt lat="44.39592" lon="3.2307">
        <ele>821</ele>
        <time>2019-05-24T16:18:48Z</time>
      </trkpt>
      <trkpt lat="44.39598" lon="3.23059">
        <ele>819.20001220703</ele>
        <time>2019-05-24T16:18:52Z</time>
      </trkpt>
      <trkpt lat="44.39599" lon="3.23056">
        <ele>818.79998779297</ele>
        <time>2019-05-24T16:18:53Z</time>
      </trkpt>
      <trkpt lat="44.39604" lon="3.23046">
        <ele>817.20001220703</ele>
        <time>2019-05-24T16:18:56Z</time>
      </trkpt>
      <trkpt lat="44.39621" lon="3.23032">
        <ele>814.79998779297</ele>
        <time>2019-05-24T16:19:00Z</time>
      </trkpt>
      <trkpt lat="44.39622" lon="3.23029">
        <ele>814.20001220703</ele>
        <time>2019-05-24T16:19:01Z</time>
      </trkpt>
      <trkpt lat="44.3962" lon="3.23011">
        <ele>812.40002441406</ele>
        <time>2019-05-24T16:19:07Z</time>
      </trkpt>
      <trkpt lat="44.3962" lon="3.23007">
        <ele>811.79998779297</ele>
        <time>2019-05-24T16:19:09Z</time>
      </trkpt>
      <trkpt lat="44.39621" lon="3.22995">
        <ele>811.20001220703</ele>
        <time>2019-05-24T16:19:12Z</time>
      </trkpt>
      <trkpt lat="44.39621" lon="3.2297">
        <ele>808.79998779297</ele>
        <time>2019-05-24T16:19:18Z</time>
      </trkpt>
      <trkpt lat="44.39622" lon="3.22948">
        <ele>807.20001220703</ele>
        <time>2019-05-24T16:19:23Z</time>
      </trkpt>
      <trkpt lat="44.39622" lon="3.22945">
        <ele>806.79998779297</ele>
        <time>2019-05-24T16:19:24Z</time>
      </trkpt>
      <trkpt lat="44.39621" lon="3.22931">
        <ele>805.59997558594</ele>
        <time>2019-05-24T16:19:27Z</time>
      </trkpt>
      <trkpt lat="44.39621" lon="3.22913">
        <ele>804</ele>
        <time>2019-05-24T16:19:31Z</time>
      </trkpt>
      <trkpt lat="44.39619" lon="3.22881">
        <ele>801.79998779297</ele>
        <time>2019-05-24T16:19:38Z</time>
      </trkpt>
      <trkpt lat="44.39623" lon="3.22861">
        <ele>801.20001220703</ele>
        <time>2019-05-24T16:19:44Z</time>
      </trkpt>
      <trkpt lat="44.39629" lon="3.22845">
        <ele>800.79998779297</ele>
        <time>2019-05-24T16:19:51Z</time>
      </trkpt>
      <trkpt lat="44.39633" lon="3.2283">
        <ele>800.40002441406</ele>
        <time>2019-05-24T16:19:57Z</time>
      </trkpt>
      <trkpt lat="44.39634" lon="3.22822">
        <ele>800.20001220703</ele>
        <time>2019-05-24T16:20:01Z</time>
      </trkpt>
      <trkpt lat="44.39687" lon="3.22681">
        <ele>807.59997558594</ele>
        <time>2019-05-24T16:21:29Z</time>
      </trkpt>
      <trkpt lat="44.3969" lon="3.22679">
        <ele>808</ele>
        <time>2019-05-24T16:21:31Z</time>
      </trkpt>
      <trkpt lat="44.39711" lon="3.2265">
        <ele>812.79998779297</ele>
        <time>2019-05-24T16:21:57Z</time>
      </trkpt>
      <trkpt lat="44.39715" lon="3.22645">
        <ele>813.40002441406</ele>
        <time>2019-05-24T16:22:00Z</time>
      </trkpt>
      <trkpt lat="44.39724" lon="3.22635">
        <ele>814.79998779297</ele>
        <time>2019-05-24T16:22:08Z</time>
      </trkpt>
      <trkpt lat="44.39732" lon="3.2262">
        <ele>816</ele>
        <time>2019-05-24T16:22:15Z</time>
      </trkpt>
      <trkpt lat="44.3974" lon="3.22607">
        <ele>817.20001220703</ele>
        <time>2019-05-24T16:22:22Z</time>
      </trkpt>
      <trkpt lat="44.39752" lon="3.22594">
        <ele>818.59997558594</ele>
        <time>2019-05-24T16:22:30Z</time>
      </trkpt>
      <trkpt lat="44.39759" lon="3.22585">
        <ele>819.40002441406</ele>
        <time>2019-05-24T16:22:35Z</time>
      </trkpt>
      <trkpt lat="44.39766" lon="3.22579">
        <ele>820.20001220703</ele>
        <time>2019-05-24T16:22:40Z</time>
      </trkpt>
      <trkpt lat="44.39771" lon="3.22576">
        <ele>821</ele>
        <time>2019-05-24T16:22:44Z</time>
      </trkpt>
      <trkpt lat="44.39773" lon="3.22573">
        <ele>821.40002441406</ele>
        <time>2019-05-24T16:22:46Z</time>
      </trkpt>
      <trkpt lat="44.39777" lon="3.22568">
        <ele>821.79998779297</ele>
        <time>2019-05-24T16:22:49Z</time>
      </trkpt>
      <trkpt lat="44.39783" lon="3.22556">
        <ele>822.40002441406</ele>
        <time>2019-05-24T16:22:55Z</time>
      </trkpt>
      <trkpt lat="44.39784" lon="3.22553">
        <ele>822.59997558594</ele>
        <time>2019-05-24T16:22:56Z</time>
      </trkpt>
      <trkpt lat="44.39784" lon="3.2255">
        <ele>822.79998779297</ele>
        <time>2019-05-24T16:22:58Z</time>
      </trkpt>
      <trkpt lat="44.39787" lon="3.22544">
        <ele>831.79998779297</ele>
        <time>2019-05-24T16:26:36Z</time>
      </trkpt>
      <trkpt lat="44.39781" lon="3.22524">
        <ele>831.20001220703</ele>
        <time>2019-05-24T16:26:42Z</time>
      </trkpt>
      <trkpt lat="44.39767" lon="3.22506">
        <ele>831</ele>
        <time>2019-05-24T16:26:47Z</time>
      </trkpt>
      <trkpt lat="44.39762" lon="3.22492">
        <ele>830.59997558594</ele>
        <time>2019-05-24T16:26:50Z</time>
      </trkpt>
      <trkpt lat="44.3976" lon="3.22479">
        <ele>830.40002441406</ele>
        <time>2019-05-24T16:26:52Z</time>
      </trkpt>
      <trkpt lat="44.3976" lon="3.22468">
        <ele>830.40002441406</ele>
        <time>2019-05-24T16:26:54Z</time>
      </trkpt>
      <trkpt lat="44.39756" lon="3.22454">
        <ele>830.59997558594</ele>
        <time>2019-05-24T16:26:58Z</time>
      </trkpt>
      <trkpt lat="44.39743" lon="3.2244">
        <ele>830.79998779297</ele>
        <time>2019-05-24T16:27:03Z</time>
      </trkpt>
      <trkpt lat="44.39719" lon="3.22422">
        <ele>831</ele>
        <time>2019-05-24T16:27:11Z</time>
      </trkpt>
      <trkpt lat="44.39694" lon="3.2241">
        <ele>831</ele>
        <time>2019-05-24T16:27:18Z</time>
      </trkpt>
      <trkpt lat="44.39662" lon="3.22397">
        <ele>831</ele>
        <time>2019-05-24T16:27:27Z</time>
      </trkpt>
      <trkpt lat="44.39632" lon="3.22388">
        <ele>831</ele>
        <time>2019-05-24T16:27:34Z</time>
      </trkpt>
      <trkpt lat="44.39609" lon="3.22381">
        <ele>831</ele>
        <time>2019-05-24T16:27:39Z</time>
      </trkpt>
      <trkpt lat="44.39604" lon="3.22381">
        <ele>831</ele>
        <time>2019-05-24T16:27:40Z</time>
      </trkpt>
      <trkpt lat="44.396" lon="3.22381">
        <ele>831</ele>
        <time>2019-05-24T16:27:41Z</time>
      </trkpt>
      <trkpt lat="44.39588" lon="3.22375">
        <ele>830.79998779297</ele>
        <time>2019-05-24T16:27:44Z</time>
      </trkpt>
      <trkpt lat="44.39584" lon="3.22372">
        <ele>830.79998779297</ele>
        <time>2019-05-24T16:27:45Z</time>
      </trkpt>
      <trkpt lat="44.39568" lon="3.2235">
        <ele>830.40002441406</ele>
        <time>2019-05-24T16:27:51Z</time>
      </trkpt>
      <trkpt lat="44.39559" lon="3.22331">
        <ele>830.20001220703</ele>
        <time>2019-05-24T16:27:55Z</time>
      </trkpt>
      <trkpt lat="44.39554" lon="3.2232">
        <ele>830.20001220703</ele>
        <time>2019-05-24T16:27:57Z</time>
      </trkpt>
      <trkpt lat="44.39549" lon="3.22309">
        <ele>830</ele>
        <time>2019-05-24T16:27:59Z</time>
      </trkpt>
      <trkpt lat="44.39545" lon="3.22304">
        <ele>830</ele>
        <time>2019-05-24T16:28:00Z</time>
      </trkpt>
      <trkpt lat="44.39522" lon="3.22279">
        <ele>829.79998779297</ele>
        <time>2019-05-24T16:28:06Z</time>
      </trkpt>
      <trkpt lat="44.39519" lon="3.22275">
        <ele>829.59997558594</ele>
        <time>2019-05-24T16:28:07Z</time>
      </trkpt>
      <trkpt lat="44.39509" lon="3.22264">
        <ele>829.40002441406</ele>
        <time>2019-05-24T16:28:10Z</time>
      </trkpt>
      <trkpt lat="44.39496" lon="3.22242">
        <ele>829</ele>
        <time>2019-05-24T16:28:15Z</time>
      </trkpt>
      <trkpt lat="44.39483" lon="3.22214">
        <ele>829</ele>
        <time>2019-05-24T16:28:21Z</time>
      </trkpt>
      <trkpt lat="44.3947" lon="3.22189">
        <ele>829.20001220703</ele>
        <time>2019-05-24T16:28:27Z</time>
      </trkpt>
      <trkpt lat="44.39453" lon="3.22172">
        <ele>829.40002441406</ele>
        <time>2019-05-24T16:28:33Z</time>
      </trkpt>
      <trkpt lat="44.3944" lon="3.22153">
        <ele>829.59997558594</ele>
        <time>2019-05-24T16:28:38Z</time>
      </trkpt>
      <trkpt lat="44.39437" lon="3.22135">
        <ele>829.79998779297</ele>
        <time>2019-05-24T16:28:42Z</time>
      </trkpt>
      <trkpt lat="44.3943" lon="3.22094">
        <ele>830.20001220703</ele>
        <time>2019-05-24T16:28:50Z</time>
      </trkpt>
      <trkpt lat="44.39418" lon="3.22066">
        <ele>830.40002441406</ele>
        <time>2019-05-24T16:28:56Z</time>
      </trkpt>
      <trkpt lat="44.39402" lon="3.22044">
        <ele>830.59997558594</ele>
        <time>2019-05-24T16:29:02Z</time>
      </trkpt>
      <trkpt lat="44.39382" lon="3.2202">
        <ele>830.59997558594</ele>
        <time>2019-05-24T16:29:09Z</time>
      </trkpt>
      <trkpt lat="44.39366" lon="3.22">
        <ele>830.79998779297</ele>
        <time>2019-05-24T16:29:15Z</time>
      </trkpt>
      <trkpt lat="44.39351" lon="3.2198">
        <ele>830.79998779297</ele>
        <time>2019-05-24T16:29:21Z</time>
      </trkpt>
      <trkpt lat="44.39339" lon="3.21961">
        <ele>831.59997558594</ele>
        <time>2019-05-24T16:29:28Z</time>
      </trkpt>
      <trkpt lat="44.39331" lon="3.21947">
        <ele>832.20001220703</ele>
        <time>2019-05-24T16:29:33Z</time>
      </trkpt>
      <trkpt lat="44.39321" lon="3.21929">
        <ele>832.20001220703</ele>
        <time>2019-05-24T16:29:39Z</time>
      </trkpt>
      <trkpt lat="44.39315" lon="3.2192">
        <ele>832.20001220703</ele>
        <time>2019-05-24T16:29:43Z</time>
      </trkpt>
      <trkpt lat="44.39308" lon="3.21907">
        <ele>832.20001220703</ele>
        <time>2019-05-24T16:29:48Z</time>
      </trkpt>
      <trkpt lat="44.39303" lon="3.21892">
        <ele>832.59997558594</ele>
        <time>2019-05-24T16:29:53Z</time>
      </trkpt>
      <trkpt lat="44.39301" lon="3.2188">
        <ele>833.40002441406</ele>
        <time>2019-05-24T16:29:57Z</time>
      </trkpt>
      <trkpt lat="44.39297" lon="3.21863">
        <ele>834.20001220703</ele>
        <time>2019-05-24T16:30:04Z</time>
      </trkpt>
      <trkpt lat="44.3929" lon="3.21852">
        <ele>834.59997558594</ele>
        <time>2019-05-24T16:30:10Z</time>
      </trkpt>
      <trkpt lat="44.39284" lon="3.21837">
        <ele>835.20001220703</ele>
        <time>2019-05-24T16:30:16Z</time>
      </trkpt>
      <trkpt lat="44.39278" lon="3.21829">
        <ele>835.59997558594</ele>
        <time>2019-05-24T16:30:21Z</time>
      </trkpt>
      <trkpt lat="44.39269" lon="3.21815">
        <ele>836.79998779297</ele>
        <time>2019-05-24T16:30:29Z</time>
      </trkpt>
      <trkpt lat="44.39261" lon="3.21805">
        <ele>837.59997558594</ele>
        <time>2019-05-24T16:30:36Z</time>
      </trkpt>
      <trkpt lat="44.39253" lon="3.21791">
        <ele>838.40002441406</ele>
        <time>2019-05-24T16:30:43Z</time>
      </trkpt>
      <trkpt lat="44.39247" lon="3.21781">
        <ele>839</ele>
        <time>2019-05-24T16:30:49Z</time>
      </trkpt>
      <trkpt lat="44.39243" lon="3.21771">
        <ele>839.79998779297</ele>
        <time>2019-05-24T16:30:55Z</time>
      </trkpt>
      <trkpt lat="44.39236" lon="3.21761">
        <ele>840.59997558594</ele>
        <time>2019-05-24T16:31:01Z</time>
      </trkpt>
      <trkpt lat="44.39229" lon="3.21745">
        <ele>841.20001220703</ele>
        <time>2019-05-24T16:31:09Z</time>
      </trkpt>
      <trkpt lat="44.39227" lon="3.21735">
        <ele>841.59997558594</ele>
        <time>2019-05-24T16:31:14Z</time>
      </trkpt>
      <trkpt lat="44.39226" lon="3.21724">
        <ele>842</ele>
        <time>2019-05-24T16:31:19Z</time>
      </trkpt>
      <trkpt lat="44.39226" lon="3.21722">
        <ele>842.20001220703</ele>
        <time>2019-05-24T16:31:20Z</time>
      </trkpt>
      <trkpt lat="44.39224" lon="3.21709">
        <ele>842.20001220703</ele>
        <time>2019-05-24T16:31:26Z</time>
      </trkpt>
      <trkpt lat="44.39223" lon="3.2169">
        <ele>842.59997558594</ele>
        <time>2019-05-24T16:31:33Z</time>
      </trkpt>
      <trkpt lat="44.39224" lon="3.21673">
        <ele>843.20001220703</ele>
        <time>2019-05-24T16:31:39Z</time>
      </trkpt>
      <trkpt lat="44.39225" lon="3.21655">
        <ele>843.59997558594</ele>
        <time>2019-05-24T16:31:46Z</time>
      </trkpt>
      <trkpt lat="44.39225" lon="3.21646">
        <ele>843.79998779297</ele>
        <time>2019-05-24T16:31:50Z</time>
      </trkpt>
      <trkpt lat="44.39224" lon="3.21643">
        <ele>843.79998779297</ele>
        <time>2019-05-24T16:31:51Z</time>
      </trkpt>
      <trkpt lat="44.39224" lon="3.21631">
        <ele>844</ele>
        <time>2019-05-24T16:31:57Z</time>
      </trkpt>
      <trkpt lat="44.39224" lon="3.21617">
        <ele>844.40002441406</ele>
        <time>2019-05-24T16:32:04Z</time>
      </trkpt>
      <trkpt lat="44.39222" lon="3.21613">
        <ele>844.79998779297</ele>
        <time>2019-05-24T16:32:07Z</time>
      </trkpt>
      <trkpt lat="44.39219" lon="3.21612">
        <ele>845.20001220703</ele>
        <time>2019-05-24T16:32:09Z</time>
      </trkpt>
      <trkpt lat="44.39217" lon="3.21613">
        <ele>845.20001220703</ele>
        <time>2019-05-24T16:32:10Z</time>
      </trkpt>
      <trkpt lat="44.39212" lon="3.21612">
        <ele>846.20001220703</ele>
        <time>2019-05-24T16:32:15Z</time>
      </trkpt>
      <trkpt lat="44.39207" lon="3.21613">
        <ele>846.40002441406</ele>
        <time>2019-05-24T16:32:19Z</time>
      </trkpt>
      <trkpt lat="44.39204" lon="3.21613">
        <ele>846.79998779297</ele>
        <time>2019-05-24T16:32:21Z</time>
      </trkpt>
      <trkpt lat="44.39195" lon="3.21616">
        <ele>846.59997558594</ele>
        <time>2019-05-24T16:32:28Z</time>
      </trkpt>
      <trkpt lat="44.39186" lon="3.21617">
        <ele>847</ele>
        <time>2019-05-24T16:32:33Z</time>
      </trkpt>
      <trkpt lat="44.39171" lon="3.21619">
        <ele>848.40002441406</ele>
        <time>2019-05-24T16:32:41Z</time>
      </trkpt>
      <trkpt lat="44.39168" lon="3.21621">
        <ele>848.79998779297</ele>
        <time>2019-05-24T16:32:43Z</time>
      </trkpt>
      <trkpt lat="44.3916" lon="3.21621">
        <ele>849.59997558594</ele>
        <time>2019-05-24T16:32:47Z</time>
      </trkpt>
      <trkpt lat="44.39147" lon="3.21619">
        <ele>850.20001220703</ele>
        <time>2019-05-24T16:32:52Z</time>
      </trkpt>
      <trkpt lat="44.39129" lon="3.21611">
        <ele>850.79998779297</ele>
        <time>2019-05-24T16:32:57Z</time>
      </trkpt>
      <trkpt lat="44.39107" lon="3.21594">
        <ele>850.79998779297</ele>
        <time>2019-05-24T16:33:03Z</time>
      </trkpt>
      <trkpt lat="44.39089" lon="3.21584">
        <ele>851</ele>
        <time>2019-05-24T16:33:09Z</time>
      </trkpt>
      <trkpt lat="44.39065" lon="3.21574">
        <ele>851.40002441406</ele>
        <time>2019-05-24T16:33:16Z</time>
      </trkpt>
      <trkpt lat="44.39049" lon="3.21571">
        <ele>851.59997558594</ele>
        <time>2019-05-24T16:33:22Z</time>
      </trkpt>
      <trkpt lat="44.39045" lon="3.2157">
        <ele>851.59997558594</ele>
        <time>2019-05-24T16:33:24Z</time>
      </trkpt>
      <trkpt lat="44.39041" lon="3.21571">
        <ele>851.40002441406</ele>
        <time>2019-05-24T16:33:26Z</time>
      </trkpt>
      <trkpt lat="44.39033" lon="3.21571">
        <ele>851.40002441406</ele>
        <time>2019-05-24T16:33:30Z</time>
      </trkpt>
      <trkpt lat="44.39031" lon="3.21571">
        <ele>851.59997558594</ele>
        <time>2019-05-24T16:33:31Z</time>
      </trkpt>
      <trkpt lat="44.39021" lon="3.21566">
        <ele>852</ele>
        <time>2019-05-24T16:33:36Z</time>
      </trkpt>
      <trkpt lat="44.39006" lon="3.21561">
        <ele>853.20001220703</ele>
        <time>2019-05-24T16:33:43Z</time>
      </trkpt>
      <trkpt lat="44.38991" lon="3.21558">
        <ele>854.20001220703</ele>
        <time>2019-05-24T16:33:51Z</time>
      </trkpt>
      <trkpt lat="44.38983" lon="3.21554">
        <ele>854.59997558594</ele>
        <time>2019-05-24T16:33:56Z</time>
      </trkpt>
      <trkpt lat="44.38973" lon="3.21549">
        <ele>855.20001220703</ele>
        <time>2019-05-24T16:34:02Z</time>
      </trkpt>
      <trkpt lat="44.3896" lon="3.21544">
        <ele>856.40002441406</ele>
        <time>2019-05-24T16:34:09Z</time>
      </trkpt>
      <trkpt lat="44.38946" lon="3.21543">
        <ele>857.40002441406</ele>
        <time>2019-05-24T16:34:17Z</time>
      </trkpt>
      <trkpt lat="44.38938" lon="3.21544">
        <ele>858</ele>
        <time>2019-05-24T16:34:22Z</time>
      </trkpt>
      <trkpt lat="44.38925" lon="3.21548">
        <ele>858.59997558594</ele>
        <time>2019-05-24T16:34:30Z</time>
      </trkpt>
      <trkpt lat="44.38923" lon="3.21548">
        <ele>858.79998779297</ele>
        <time>2019-05-24T16:34:32Z</time>
      </trkpt>
      <trkpt lat="44.38919" lon="3.21549">
        <ele>859</ele>
        <time>2019-05-24T16:34:35Z</time>
      </trkpt>
      <trkpt lat="44.38915" lon="3.21551">
        <ele>859.40002441406</ele>
        <time>2019-05-24T16:34:39Z</time>
      </trkpt>
      <trkpt lat="44.38901" lon="3.21566">
        <ele>860.20001220703</ele>
        <time>2019-05-24T16:34:52Z</time>
      </trkpt>
      <trkpt lat="44.38899" lon="3.21569">
        <ele>860.20001220703</ele>
        <time>2019-05-24T16:34:53Z</time>
      </trkpt>
      <trkpt lat="44.38895" lon="3.21576">
        <ele>860.59997558594</ele>
        <time>2019-05-24T16:34:56Z</time>
      </trkpt>
      <trkpt lat="44.38893" lon="3.2158">
        <ele>861</ele>
        <time>2019-05-24T16:34:58Z</time>
      </trkpt>
      <trkpt lat="44.38885" lon="3.21593">
        <ele>862</ele>
        <time>2019-05-24T16:35:03Z</time>
      </trkpt>
      <trkpt lat="44.38878" lon="3.21608">
        <ele>862.59997558594</ele>
        <time>2019-05-24T16:35:09Z</time>
      </trkpt>
      <trkpt lat="44.38877" lon="3.2161">
        <ele>862.79998779297</ele>
        <time>2019-05-24T16:35:10Z</time>
      </trkpt>
      <trkpt lat="44.38874" lon="3.21617">
        <ele>862.79998779297</ele>
        <time>2019-05-24T16:35:14Z</time>
      </trkpt>
      <trkpt lat="44.3887" lon="3.2162">
        <ele>863</ele>
        <time>2019-05-24T16:35:17Z</time>
      </trkpt>
      <trkpt lat="44.38869" lon="3.21621">
        <ele>863.20001220703</ele>
        <time>2019-05-24T16:35:18Z</time>
      </trkpt>
      <trkpt lat="44.3887" lon="3.21617">
        <ele>863.59997558594</ele>
        <time>2019-05-24T16:35:20Z</time>
      </trkpt>
      <trkpt lat="44.38872" lon="3.21607">
        <ele>864.40002441406</ele>
        <time>2019-05-24T16:35:26Z</time>
      </trkpt>
      <trkpt lat="44.38873" lon="3.21595">
        <ele>865</ele>
        <time>2019-05-24T16:35:33Z</time>
      </trkpt>
      <trkpt lat="44.38874" lon="3.21591">
        <ele>865</ele>
        <time>2019-05-24T16:35:35Z</time>
      </trkpt>
      <trkpt lat="44.38867" lon="3.21484">
        <ele>874.59997558594</ele>
        <time>2019-05-24T16:36:30Z</time>
      </trkpt>
      <trkpt lat="44.38866" lon="3.21481">
        <ele>874.79998779297</ele>
        <time>2019-05-24T16:36:31Z</time>
      </trkpt>
      <trkpt lat="44.38866" lon="3.21479">
        <ele>875</ele>
        <time>2019-05-24T16:36:32Z</time>
      </trkpt>
      <trkpt lat="44.38869" lon="3.21475">
        <ele>875.40002441406</ele>
        <time>2019-05-24T16:36:35Z</time>
      </trkpt>
      <trkpt lat="44.38879" lon="3.21465">
        <ele>876.20001220703</ele>
        <time>2019-05-24T16:36:43Z</time>
      </trkpt>
      <trkpt lat="44.38881" lon="3.21464">
        <ele>876.40002441406</ele>
        <time>2019-05-24T16:36:44Z</time>
      </trkpt>
      <trkpt lat="44.38884" lon="3.21461">
        <ele>876.40002441406</ele>
        <time>2019-05-24T16:36:46Z</time>
      </trkpt>
      <trkpt lat="44.38898" lon="3.21454">
        <ele>876.79998779297</ele>
        <time>2019-05-24T16:36:52Z</time>
      </trkpt>
      <trkpt lat="44.38906" lon="3.21448">
        <ele>877.20001220703</ele>
        <time>2019-05-24T16:36:56Z</time>
      </trkpt>
      <trkpt lat="44.38908" lon="3.21447">
        <ele>877.20001220703</ele>
        <time>2019-05-24T16:36:57Z</time>
      </trkpt>
      <trkpt lat="44.38913" lon="3.21445">
        <ele>877.40002441406</ele>
        <time>2019-05-24T16:37:00Z</time>
      </trkpt>
      <trkpt lat="44.3892" lon="3.21441">
        <ele>877.79998779297</ele>
        <time>2019-05-24T16:37:03Z</time>
      </trkpt>
      <trkpt lat="44.38923" lon="3.21438">
        <ele>878</ele>
        <time>2019-05-24T16:37:05Z</time>
      </trkpt>
      <trkpt lat="44.38929" lon="3.21434">
        <ele>878.40002441406</ele>
        <time>2019-05-24T16:37:08Z</time>
      </trkpt>
      <trkpt lat="44.38933" lon="3.21433">
        <ele>878.79998779297</ele>
        <time>2019-05-24T16:37:10Z</time>
      </trkpt>
      <trkpt lat="44.38939" lon="3.21431">
        <ele>879.40002441406</ele>
        <time>2019-05-24T16:37:13Z</time>
      </trkpt>
      <trkpt lat="44.38945" lon="3.21428">
        <ele>880</ele>
        <time>2019-05-24T16:37:15Z</time>
      </trkpt>
      <trkpt lat="44.38949" lon="3.21428">
        <ele>880.20001220703</ele>
        <time>2019-05-24T16:37:16Z</time>
      </trkpt>
      <trkpt lat="44.38963" lon="3.21426">
        <ele>880.79998779297</ele>
        <time>2019-05-24T16:37:20Z</time>
      </trkpt>
      <trkpt lat="44.38977" lon="3.21418">
        <ele>881.40002441406</ele>
        <time>2019-05-24T16:37:24Z</time>
      </trkpt>
      <trkpt lat="44.38986" lon="3.21414">
        <ele>881.79998779297</ele>
        <time>2019-05-24T16:37:27Z</time>
      </trkpt>
      <trkpt lat="44.38999" lon="3.21403">
        <ele>882.40002441406</ele>
        <time>2019-05-24T16:37:31Z</time>
      </trkpt>
      <trkpt lat="44.39012" lon="3.21388">
        <ele>882.79998779297</ele>
        <time>2019-05-24T16:37:35Z</time>
      </trkpt>
      <trkpt lat="44.39027" lon="3.21375">
        <ele>883.20001220703</ele>
        <time>2019-05-24T16:37:40Z</time>
      </trkpt>
      <trkpt lat="44.39043" lon="3.21356">
        <ele>883.40002441406</ele>
        <time>2019-05-24T16:37:46Z</time>
      </trkpt>
      <trkpt lat="44.39055" lon="3.21341">
        <ele>883.59997558594</ele>
        <time>2019-05-24T16:37:51Z</time>
      </trkpt>
      <trkpt lat="44.39063" lon="3.2133">
        <ele>884</ele>
        <time>2019-05-24T16:37:55Z</time>
      </trkpt>
      <trkpt lat="44.39067" lon="3.21324">
        <ele>884</ele>
        <time>2019-05-24T16:37:57Z</time>
      </trkpt>
      <trkpt lat="44.39069" lon="3.21317">
        <ele>884.40002441406</ele>
        <time>2019-05-24T16:37:59Z</time>
      </trkpt>
      <trkpt lat="44.3907" lon="3.21315">
        <ele>884.40002441406</ele>
        <time>2019-05-24T16:38:00Z</time>
      </trkpt>
      <trkpt lat="44.39079" lon="3.21301">
        <ele>884.79998779297</ele>
        <time>2019-05-24T16:38:04Z</time>
      </trkpt>
      <trkpt lat="44.3909" lon="3.21282">
        <ele>885</ele>
        <time>2019-05-24T16:38:09Z</time>
      </trkpt>
      <trkpt lat="44.39094" lon="3.21276">
        <ele>885</ele>
        <time>2019-05-24T16:38:11Z</time>
      </trkpt>
      <trkpt lat="44.391" lon="3.21264">
        <ele>885</ele>
        <time>2019-05-24T16:38:14Z</time>
      </trkpt>
      <trkpt lat="44.39107" lon="3.21242">
        <ele>885.20001220703</ele>
        <time>2019-05-24T16:38:19Z</time>
      </trkpt>
      <trkpt lat="44.39112" lon="3.21225">
        <ele>885.20001220703</ele>
        <time>2019-05-24T16:38:23Z</time>
      </trkpt>
      <trkpt lat="44.3912" lon="3.21201">
        <ele>885.40002441406</ele>
        <time>2019-05-24T16:38:28Z</time>
      </trkpt>
      <trkpt lat="44.39128" lon="3.21189">
        <ele>885.59997558594</ele>
        <time>2019-05-24T16:38:33Z</time>
      </trkpt>
      <trkpt lat="44.39134" lon="3.21181">
        <ele>885.79998779297</ele>
        <time>2019-05-24T16:38:38Z</time>
      </trkpt>
      <trkpt lat="44.39135" lon="3.2118">
        <ele>885.79998779297</ele>
        <time>2019-05-24T16:38:39Z</time>
      </trkpt>
      <trkpt lat="44.39139" lon="3.21177">
        <ele>885.79998779297</ele>
        <time>2019-05-24T16:38:42Z</time>
      </trkpt>
      <trkpt lat="44.39163" lon="3.21144">
        <ele>889.79998779297</ele>
        <time>2019-05-24T16:39:07Z</time>
      </trkpt>
      <trkpt lat="44.39171" lon="3.21135">
        <ele>890.59997558594</ele>
        <time>2019-05-24T16:39:12Z</time>
      </trkpt>
      <trkpt lat="44.39172" lon="3.21133">
        <ele>890.59997558594</ele>
        <time>2019-05-24T16:39:13Z</time>
      </trkpt>
      <trkpt lat="44.39173" lon="3.2113">
        <ele>890.79998779297</ele>
        <time>2019-05-24T16:39:14Z</time>
      </trkpt>
      <trkpt lat="44.39181" lon="3.21121">
        <ele>891</ele>
        <time>2019-05-24T16:39:18Z</time>
      </trkpt>
      <trkpt lat="44.39193" lon="3.21109">
        <ele>891.20001220703</ele>
        <time>2019-05-24T16:39:24Z</time>
      </trkpt>
      <trkpt lat="44.39196" lon="3.21107">
        <ele>891.20001220703</ele>
        <time>2019-05-24T16:39:25Z</time>
      </trkpt>
      <trkpt lat="44.39198" lon="3.21105">
        <ele>891.20001220703</ele>
        <time>2019-05-24T16:39:26Z</time>
      </trkpt>
      <trkpt lat="44.39203" lon="3.21099">
        <ele>891.40002441406</ele>
        <time>2019-05-24T16:39:29Z</time>
      </trkpt>
      <trkpt lat="44.39206" lon="3.21092">
        <ele>891.79998779297</ele>
        <time>2019-05-24T16:39:33Z</time>
      </trkpt>
      <trkpt lat="44.39207" lon="3.2109">
        <ele>892</ele>
        <time>2019-05-24T16:39:34Z</time>
      </trkpt>
      <trkpt lat="44.39208" lon="3.21089">
        <ele>892</ele>
        <time>2019-05-24T16:39:35Z</time>
      </trkpt>
      <trkpt lat="44.39221" lon="3.21043">
        <ele>895.40002441406</ele>
        <time>2019-05-24T16:40:02Z</time>
      </trkpt>
      <trkpt lat="44.39222" lon="3.21034">
        <ele>896</ele>
        <time>2019-05-24T16:40:05Z</time>
      </trkpt>
      <trkpt lat="44.39223" lon="3.21016">
        <ele>896.79998779297</ele>
        <time>2019-05-24T16:40:10Z</time>
      </trkpt>
      <trkpt lat="44.39225" lon="3.20996">
        <ele>897.40002441406</ele>
        <time>2019-05-24T16:40:15Z</time>
      </trkpt>
      <trkpt lat="44.39228" lon="3.20973">
        <ele>897.79998779297</ele>
        <time>2019-05-24T16:40:20Z</time>
      </trkpt>
      <trkpt lat="44.39232" lon="3.2093">
        <ele>898.40002441406</ele>
        <time>2019-05-24T16:40:27Z</time>
      </trkpt>
      <trkpt lat="44.39234" lon="3.20894">
        <ele>898.20001220703</ele>
        <time>2019-05-24T16:40:32Z</time>
      </trkpt>
      <trkpt lat="44.39239" lon="3.20878">
        <ele>897.79998779297</ele>
        <time>2019-05-24T16:40:34Z</time>
      </trkpt>
      <trkpt lat="44.39244" lon="3.20862">
        <ele>897.59997558594</ele>
        <time>2019-05-24T16:40:36Z</time>
      </trkpt>
      <trkpt lat="44.39252" lon="3.20836">
        <ele>897</ele>
        <time>2019-05-24T16:40:39Z</time>
      </trkpt>
      <trkpt lat="44.39255" lon="3.2082">
        <ele>896.59997558594</ele>
        <time>2019-05-24T16:40:41Z</time>
      </trkpt>
      <trkpt lat="44.39262" lon="3.20797">
        <ele>896</ele>
        <time>2019-05-24T16:40:44Z</time>
      </trkpt>
      <trkpt lat="44.39263" lon="3.20789">
        <ele>895.79998779297</ele>
        <time>2019-05-24T16:40:45Z</time>
      </trkpt>
      <trkpt lat="44.39266" lon="3.20772">
        <ele>895.40002441406</ele>
        <time>2019-05-24T16:40:47Z</time>
      </trkpt>
      <trkpt lat="44.39269" lon="3.20753">
        <ele>895.20001220703</ele>
        <time>2019-05-24T16:40:49Z</time>
      </trkpt>
      <trkpt lat="44.39274" lon="3.20719">
        <ele>894.59997558594</ele>
        <time>2019-05-24T16:40:53Z</time>
      </trkpt>
      <trkpt lat="44.39283" lon="3.20691">
        <ele>894</ele>
        <time>2019-05-24T16:40:57Z</time>
      </trkpt>
      <trkpt lat="44.3929" lon="3.2067">
        <ele>893.40002441406</ele>
        <time>2019-05-24T16:41:00Z</time>
      </trkpt>
      <trkpt lat="44.39295" lon="3.20659">
        <ele>892.79998779297</ele>
        <time>2019-05-24T16:41:02Z</time>
      </trkpt>
      <trkpt lat="44.39305" lon="3.20648">
        <ele>892</ele>
        <time>2019-05-24T16:41:05Z</time>
      </trkpt>
      <trkpt lat="44.39308" lon="3.20643">
        <ele>891.79998779297</ele>
        <time>2019-05-24T16:41:06Z</time>
      </trkpt>
      <trkpt lat="44.39311" lon="3.20637">
        <ele>891.40002441406</ele>
        <time>2019-05-24T16:41:07Z</time>
      </trkpt>
      <trkpt lat="44.39314" lon="3.20615">
        <ele>890.40002441406</ele>
        <time>2019-05-24T16:41:10Z</time>
      </trkpt>
      <trkpt lat="44.39315" lon="3.20601">
        <ele>890</ele>
        <time>2019-05-24T16:41:12Z</time>
      </trkpt>
      <trkpt lat="44.39317" lon="3.20589">
        <ele>889.40002441406</ele>
        <time>2019-05-24T16:41:14Z</time>
      </trkpt>
      <trkpt lat="44.39324" lon="3.20551">
        <ele>888</ele>
        <time>2019-05-24T16:41:20Z</time>
      </trkpt>
      <trkpt lat="44.39327" lon="3.20532">
        <ele>887</ele>
        <time>2019-05-24T16:41:24Z</time>
      </trkpt>
      <trkpt lat="44.39332" lon="3.20508">
        <ele>886</ele>
        <time>2019-05-24T16:41:28Z</time>
      </trkpt>
      <trkpt lat="44.39336" lon="3.20489">
        <ele>885.20001220703</ele>
        <time>2019-05-24T16:41:31Z</time>
      </trkpt>
      <trkpt lat="44.39336" lon="3.20482">
        <ele>884.79998779297</ele>
        <time>2019-05-24T16:41:32Z</time>
      </trkpt>
      <trkpt lat="44.39335" lon="3.2045">
        <ele>883.40002441406</ele>
        <time>2019-05-24T16:41:37Z</time>
      </trkpt>
      <trkpt lat="44.39336" lon="3.20444">
        <ele>883.20001220703</ele>
        <time>2019-05-24T16:41:38Z</time>
      </trkpt>
      <trkpt lat="44.39337" lon="3.20411">
        <ele>882.20001220703</ele>
        <time>2019-05-24T16:41:43Z</time>
      </trkpt>
      <trkpt lat="44.39341" lon="3.20386">
        <ele>881</ele>
        <time>2019-05-24T16:41:48Z</time>
      </trkpt>
      <trkpt lat="44.39341" lon="3.20365">
        <ele>880</ele>
        <time>2019-05-24T16:41:53Z</time>
      </trkpt>
      <trkpt lat="44.39344" lon="3.20345">
        <ele>878.59997558594</ele>
        <time>2019-05-24T16:41:58Z</time>
      </trkpt>
      <trkpt lat="44.39344" lon="3.20341">
        <ele>878.20001220703</ele>
        <time>2019-05-24T16:41:59Z</time>
      </trkpt>
      <trkpt lat="44.39349" lon="3.20327">
        <ele>877.40002441406</ele>
        <time>2019-05-24T16:42:02Z</time>
      </trkpt>
      <trkpt lat="44.39352" lon="3.20311">
        <ele>876.40002441406</ele>
        <time>2019-05-24T16:42:05Z</time>
      </trkpt>
      <trkpt lat="44.39373" lon="3.20287">
        <ele>875.40002441406</ele>
        <time>2019-05-24T16:42:10Z</time>
      </trkpt>
      <trkpt lat="44.39406" lon="3.20245">
        <ele>874.59997558594</ele>
        <time>2019-05-24T16:42:17Z</time>
      </trkpt>
      <trkpt lat="44.39435" lon="3.2021">
        <ele>873.59997558594</ele>
        <time>2019-05-24T16:42:23Z</time>
      </trkpt>
      <trkpt lat="44.3944" lon="3.20205">
        <ele>873.59997558594</ele>
        <time>2019-05-24T16:42:24Z</time>
      </trkpt>
      <trkpt lat="44.39457" lon="3.20195">
        <ele>873.79998779297</ele>
        <time>2019-05-24T16:42:27Z</time>
      </trkpt>
      <trkpt lat="44.39468" lon="3.20194">
        <ele>873.59997558594</ele>
        <time>2019-05-24T16:42:29Z</time>
      </trkpt>
      <trkpt lat="44.39474" lon="3.20196">
        <ele>873.59997558594</ele>
        <time>2019-05-24T16:42:30Z</time>
      </trkpt>
      <trkpt lat="44.39493" lon="3.20206">
        <ele>873.40002441406</ele>
        <time>2019-05-24T16:42:33Z</time>
      </trkpt>
      <trkpt lat="44.395" lon="3.20207">
        <ele>873.40002441406</ele>
        <time>2019-05-24T16:42:34Z</time>
      </trkpt>
      <trkpt lat="44.39507" lon="3.20207">
        <ele>873.20001220703</ele>
        <time>2019-05-24T16:42:35Z</time>
      </trkpt>
      <trkpt lat="44.3952" lon="3.20199">
        <ele>873</ele>
        <time>2019-05-24T16:42:37Z</time>
      </trkpt>
      <trkpt lat="44.39552" lon="3.20179">
        <ele>872.79998779297</ele>
        <time>2019-05-24T16:42:42Z</time>
      </trkpt>
      <trkpt lat="44.39564" lon="3.20175">
        <ele>872.79998779297</ele>
        <time>2019-05-24T16:42:44Z</time>
      </trkpt>
      <trkpt lat="44.39571" lon="3.20176">
        <ele>872.79998779297</ele>
        <time>2019-05-24T16:42:45Z</time>
      </trkpt>
      <trkpt lat="44.39577" lon="3.20177">
        <ele>872.79998779297</ele>
        <time>2019-05-24T16:42:46Z</time>
      </trkpt>
      <trkpt lat="44.39589" lon="3.20188">
        <ele>872.79998779297</ele>
        <time>2019-05-24T16:42:48Z</time>
      </trkpt>
      <trkpt lat="44.39602" lon="3.20214">
        <ele>872.59997558594</ele>
        <time>2019-05-24T16:42:51Z</time>
      </trkpt>
      <trkpt lat="44.39616" lon="3.20229">
        <ele>872.40002441406</ele>
        <time>2019-05-24T16:42:53Z</time>
      </trkpt>
      <trkpt lat="44.39623" lon="3.20234">
        <ele>872.40002441406</ele>
        <time>2019-05-24T16:42:54Z</time>
      </trkpt>
      <trkpt lat="44.3963" lon="3.20238">
        <ele>872.20001220703</ele>
        <time>2019-05-24T16:42:55Z</time>
      </trkpt>
      <trkpt lat="44.39646" lon="3.2024">
        <ele>872.20001220703</ele>
        <time>2019-05-24T16:42:57Z</time>
      </trkpt>
      <trkpt lat="44.39675" lon="3.20238">
        <ele>872</ele>
        <time>2019-05-24T16:43:01Z</time>
      </trkpt>
      <trkpt lat="44.39689" lon="3.20242">
        <ele>872</ele>
        <time>2019-05-24T16:43:03Z</time>
      </trkpt>
      <trkpt lat="44.397" lon="3.20252">
        <ele>872</ele>
        <time>2019-05-24T16:43:05Z</time>
      </trkpt>
      <trkpt lat="44.39729" lon="3.20283">
        <ele>872.20001220703</ele>
        <time>2019-05-24T16:43:11Z</time>
      </trkpt>
      <trkpt lat="44.39768" lon="3.20321">
        <ele>872.40002441406</ele>
        <time>2019-05-24T16:43:19Z</time>
      </trkpt>
      <trkpt lat="44.39787" lon="3.20343">
        <ele>872.40002441406</ele>
        <time>2019-05-24T16:43:23Z</time>
      </trkpt>
      <trkpt lat="44.3979" lon="3.2035">
        <ele>872.20001220703</ele>
        <time>2019-05-24T16:43:24Z</time>
      </trkpt>
      <trkpt lat="44.39794" lon="3.20363">
        <ele>872.20001220703</ele>
        <time>2019-05-24T16:43:26Z</time>
      </trkpt>
      <trkpt lat="44.39795" lon="3.20374">
        <ele>872.40002441406</ele>
        <time>2019-05-24T16:43:28Z</time>
      </trkpt>
      <trkpt lat="44.39797" lon="3.20377">
        <ele>872.40002441406</ele>
        <time>2019-05-24T16:43:29Z</time>
      </trkpt>
      <trkpt lat="44.39801" lon="3.20378">
        <ele>872.40002441406</ele>
        <time>2019-05-24T16:43:31Z</time>
      </trkpt>
      <trkpt lat="44.3981" lon="3.20368">
        <ele>872.20001220703</ele>
        <time>2019-05-24T16:43:35Z</time>
      </trkpt>
      <trkpt lat="44.39813" lon="3.20366">
        <ele>872.20001220703</ele>
        <time>2019-05-24T16:43:37Z</time>
      </trkpt>
      <trkpt lat="44.39816" lon="3.20369">
        <ele>872</ele>
        <time>2019-05-24T16:43:39Z</time>
      </trkpt>
      <trkpt lat="44.39821" lon="3.20375">
        <ele>871.79998779297</ele>
        <time>2019-05-24T16:43:43Z</time>
      </trkpt>
      <trkpt lat="44.39838" lon="3.20391">
        <ele>872.40002441406</ele>
        <time>2019-05-24T16:43:56Z</time>
      </trkpt>
      <trkpt lat="44.3984" lon="3.20393">
        <ele>872.40002441406</ele>
        <time>2019-05-24T16:43:57Z</time>
      </trkpt>
      <trkpt lat="44.39849" lon="3.20403">
        <ele>872.59997558594</ele>
        <time>2019-05-24T16:44:03Z</time>
      </trkpt>
      <trkpt lat="44.39859" lon="3.20417">
        <ele>872.59997558594</ele>
        <time>2019-05-24T16:44:11Z</time>
      </trkpt>
      <trkpt lat="44.39869" lon="3.20425">
        <ele>872.79998779297</ele>
        <time>2019-05-24T16:44:18Z</time>
      </trkpt>
      <trkpt lat="44.39878" lon="3.20434">
        <ele>873.20001220703</ele>
        <time>2019-05-24T16:44:24Z</time>
      </trkpt>
      <trkpt lat="44.39889" lon="3.20444">
        <ele>873.59997558594</ele>
        <time>2019-05-24T16:44:30Z</time>
      </trkpt>
      <trkpt lat="44.39898" lon="3.20456">
        <ele>874.40002441406</ele>
        <time>2019-05-24T16:44:37Z</time>
      </trkpt>
      <trkpt lat="44.39905" lon="3.20464">
        <ele>874.79998779297</ele>
        <time>2019-05-24T16:44:43Z</time>
      </trkpt>
      <trkpt lat="44.39914" lon="3.20472">
        <ele>875</ele>
        <time>2019-05-24T16:44:49Z</time>
      </trkpt>
      <trkpt lat="44.39925" lon="3.20485">
        <ele>875.59997558594</ele>
        <time>2019-05-24T16:44:56Z</time>
      </trkpt>
      <trkpt lat="44.39939" lon="3.20503">
        <ele>876.40002441406</ele>
        <time>2019-05-24T16:45:05Z</time>
      </trkpt>
      <trkpt lat="44.39946" lon="3.20514">
        <ele>876.59997558594</ele>
        <time>2019-05-24T16:45:10Z</time>
      </trkpt>
      <trkpt lat="44.39955" lon="3.20526">
        <ele>877</ele>
        <time>2019-05-24T16:45:16Z</time>
      </trkpt>
      <trkpt lat="44.39966" lon="3.20535">
        <ele>877.20001220703</ele>
        <time>2019-05-24T16:45:22Z</time>
      </trkpt>
      <trkpt lat="44.39968" lon="3.20537">
        <ele>877.40002441406</ele>
        <time>2019-05-24T16:45:23Z</time>
      </trkpt>
      <trkpt lat="44.39979" lon="3.20552">
        <ele>877.79998779297</ele>
        <time>2019-05-24T16:45:30Z</time>
      </trkpt>
      <trkpt lat="44.3999" lon="3.20567">
        <ele>878.20001220703</ele>
        <time>2019-05-24T16:45:37Z</time>
      </trkpt>
      <trkpt lat="44.4" lon="3.2058">
        <ele>878.79998779297</ele>
        <time>2019-05-24T16:45:43Z</time>
      </trkpt>
      <trkpt lat="44.40012" lon="3.20598">
        <ele>879.40002441406</ele>
        <time>2019-05-24T16:45:52Z</time>
      </trkpt>
      <trkpt lat="44.40024" lon="3.20613">
        <ele>880</ele>
        <time>2019-05-24T16:46:00Z</time>
      </trkpt>
      <trkpt lat="44.40036" lon="3.2063">
        <ele>881</ele>
        <time>2019-05-24T16:46:08Z</time>
      </trkpt>
      <trkpt lat="44.40048" lon="3.20642">
        <ele>881.59997558594</ele>
        <time>2019-05-24T16:46:15Z</time>
      </trkpt>
      <trkpt lat="44.40061" lon="3.20654">
        <ele>882.20001220703</ele>
        <time>2019-05-24T16:46:22Z</time>
      </trkpt>
      <trkpt lat="44.40075" lon="3.20665">
        <ele>883.20001220703</ele>
        <time>2019-05-24T16:46:30Z</time>
      </trkpt>
      <trkpt lat="44.40087" lon="3.20675">
        <ele>883.79998779297</ele>
        <time>2019-05-24T16:46:36Z</time>
      </trkpt>
      <trkpt lat="44.40099" lon="3.20686">
        <ele>884.79998779297</ele>
        <time>2019-05-24T16:46:43Z</time>
      </trkpt>
      <trkpt lat="44.40113" lon="3.207">
        <ele>886.20001220703</ele>
        <time>2019-05-24T16:46:52Z</time>
      </trkpt>
      <trkpt lat="44.40121" lon="3.20709">
        <ele>887.20001220703</ele>
        <time>2019-05-24T16:46:58Z</time>
      </trkpt>
      <trkpt lat="44.40131" lon="3.20723">
        <ele>888.59997558594</ele>
        <time>2019-05-24T16:47:06Z</time>
      </trkpt>
      <trkpt lat="44.40143" lon="3.20735">
        <ele>890</ele>
        <time>2019-05-24T16:47:14Z</time>
      </trkpt>
      <trkpt lat="44.40152" lon="3.20743">
        <ele>891.20001220703</ele>
        <time>2019-05-24T16:47:21Z</time>
      </trkpt>
      <trkpt lat="44.40155" lon="3.20746">
        <ele>891.59997558594</ele>
        <time>2019-05-24T16:47:23Z</time>
      </trkpt>
      <trkpt lat="44.4016" lon="3.20751">
        <ele>892.40002441406</ele>
        <time>2019-05-24T16:47:27Z</time>
      </trkpt>
      <trkpt lat="44.40163" lon="3.20754">
        <ele>893</ele>
        <time>2019-05-24T16:47:30Z</time>
      </trkpt>
      <trkpt lat="44.40166" lon="3.20757">
        <ele>893.40002441406</ele>
        <time>2019-05-24T16:47:32Z</time>
      </trkpt>
      <trkpt lat="44.40175" lon="3.20766">
        <ele>894.59997558594</ele>
        <time>2019-05-24T16:47:39Z</time>
      </trkpt>
      <trkpt lat="44.40184" lon="3.20775">
        <ele>895.79998779297</ele>
        <time>2019-05-24T16:47:46Z</time>
      </trkpt>
      <trkpt lat="44.40185" lon="3.20776">
        <ele>896</ele>
        <time>2019-05-24T16:47:47Z</time>
      </trkpt>
      <trkpt lat="44.40188" lon="3.20778">
        <ele>896.20001220703</ele>
        <time>2019-05-24T16:47:49Z</time>
      </trkpt>
      <trkpt lat="44.40195" lon="3.20783">
        <ele>897.20001220703</ele>
        <time>2019-05-24T16:47:54Z</time>
      </trkpt>
      <trkpt lat="44.40202" lon="3.20788">
        <ele>898.20001220703</ele>
        <time>2019-05-24T16:47:59Z</time>
      </trkpt>
      <trkpt lat="44.40211" lon="3.20793">
        <ele>899.20001220703</ele>
        <time>2019-05-24T16:48:05Z</time>
      </trkpt>
      <trkpt lat="44.40221" lon="3.20802">
        <ele>900.20001220703</ele>
        <time>2019-05-24T16:48:12Z</time>
      </trkpt>
      <trkpt lat="44.40229" lon="3.2081">
        <ele>901</ele>
        <time>2019-05-24T16:48:18Z</time>
      </trkpt>
      <trkpt lat="44.40237" lon="3.20817">
        <ele>902</ele>
        <time>2019-05-24T16:48:24Z</time>
      </trkpt>
      <trkpt lat="44.40247" lon="3.20827">
        <ele>903</ele>
        <time>2019-05-24T16:48:30Z</time>
      </trkpt>
      <trkpt lat="44.40249" lon="3.20829">
        <ele>903</ele>
        <time>2019-05-24T16:48:31Z</time>
      </trkpt>
      <trkpt lat="44.40253" lon="3.20835">
        <ele>903.59997558594</ele>
        <time>2019-05-24T16:48:34Z</time>
      </trkpt>
      <trkpt lat="44.40265" lon="3.20854">
        <ele>904.40002441406</ele>
        <time>2019-05-24T16:48:41Z</time>
      </trkpt>
      <trkpt lat="44.40269" lon="3.20862">
        <ele>904.59997558594</ele>
        <time>2019-05-24T16:48:43Z</time>
      </trkpt>
      <trkpt lat="44.40275" lon="3.20869">
        <ele>904.79998779297</ele>
        <time>2019-05-24T16:48:45Z</time>
      </trkpt>
      <trkpt lat="44.40289" lon="3.2088">
        <ele>905.40002441406</ele>
        <time>2019-05-24T16:48:50Z</time>
      </trkpt>
      <trkpt lat="44.40303" lon="3.2089">
        <ele>905.79998779297</ele>
        <time>2019-05-24T16:48:55Z</time>
      </trkpt>
      <trkpt lat="44.40318" lon="3.209">
        <ele>906.20001220703</ele>
        <time>2019-05-24T16:49:00Z</time>
      </trkpt>
      <trkpt lat="44.40337" lon="3.20912">
        <ele>906.40002441406</ele>
        <time>2019-05-24T16:49:06Z</time>
      </trkpt>
      <trkpt lat="44.40343" lon="3.20922">
        <ele>906.59997558594</ele>
        <time>2019-05-24T16:49:08Z</time>
      </trkpt>
      <trkpt lat="44.40347" lon="3.20931">
        <ele>906.59997558594</ele>
        <time>2019-05-24T16:49:10Z</time>
      </trkpt>
      <trkpt lat="44.40348" lon="3.20934">
        <ele>906.59997558594</ele>
        <time>2019-05-24T16:49:11Z</time>
      </trkpt>
      <trkpt lat="44.40348" lon="3.20937">
        <ele>906.59997558594</ele>
        <time>2019-05-24T16:49:12Z</time>
      </trkpt>
      <trkpt lat="44.40358" lon="3.2095">
        <ele>906.40002441406</ele>
        <time>2019-05-24T16:49:15Z</time>
      </trkpt>
      <trkpt lat="44.4036" lon="3.20955">
        <ele>906.40002441406</ele>
        <time>2019-05-24T16:49:16Z</time>
      </trkpt>
      <trkpt lat="44.40372" lon="3.2097">
        <ele>906.40002441406</ele>
        <time>2019-05-24T16:49:20Z</time>
      </trkpt>
      <trkpt lat="44.40384" lon="3.20983">
        <ele>906.59997558594</ele>
        <time>2019-05-24T16:49:24Z</time>
      </trkpt>
      <trkpt lat="44.40393" lon="3.20996">
        <ele>907</ele>
        <time>2019-05-24T16:49:29Z</time>
      </trkpt>
      <trkpt lat="44.404" lon="3.21007">
        <ele>907.40002441406</ele>
        <time>2019-05-24T16:49:34Z</time>
      </trkpt>
      <trkpt lat="44.40404" lon="3.21016">
        <ele>908</ele>
        <time>2019-05-24T16:49:39Z</time>
      </trkpt>
      <trkpt lat="44.40407" lon="3.21021">
        <ele>908.40002441406</ele>
        <time>2019-05-24T16:49:42Z</time>
      </trkpt>
      <trkpt lat="44.40411" lon="3.2103">
        <ele>908.59997558594</ele>
        <time>2019-05-24T16:49:46Z</time>
      </trkpt>
      <trkpt lat="44.40411" lon="3.21034">
        <ele>908.79998779297</ele>
        <time>2019-05-24T16:49:48Z</time>
      </trkpt>
      <trkpt lat="44.40415" lon="3.21043">
        <ele>909.40002441406</ele>
        <time>2019-05-24T16:49:53Z</time>
      </trkpt>
      <trkpt lat="44.40416" lon="3.21047">
        <ele>909.59997558594</ele>
        <time>2019-05-24T16:49:55Z</time>
      </trkpt>
      <trkpt lat="44.40461" lon="3.21166">
        <ele>917.20001220703</ele>
        <time>2019-05-24T16:51:02Z</time>
      </trkpt>
      <trkpt lat="44.40462" lon="3.21168">
        <ele>917.40002441406</ele>
        <time>2019-05-24T16:51:03Z</time>
      </trkpt>
      <trkpt lat="44.40464" lon="3.21171">
        <ele>917.59997558594</ele>
        <time>2019-05-24T16:51:05Z</time>
      </trkpt>
      <trkpt lat="44.40465" lon="3.21175">
        <ele>917.79998779297</ele>
        <time>2019-05-24T16:51:07Z</time>
      </trkpt>
      <trkpt lat="44.40465" lon="3.2118">
        <ele>918.20001220703</ele>
        <time>2019-05-24T16:51:09Z</time>
      </trkpt>
      <trkpt lat="44.40469" lon="3.21195">
        <ele>918.79998779297</ele>
        <time>2019-05-24T16:51:15Z</time>
      </trkpt>
      <trkpt lat="44.40472" lon="3.21203">
        <ele>919</ele>
        <time>2019-05-24T16:51:18Z</time>
      </trkpt>
      <trkpt lat="44.40473" lon="3.21208">
        <ele>919</ele>
        <time>2019-05-24T16:51:20Z</time>
      </trkpt>
      <trkpt lat="44.40476" lon="3.2122">
        <ele>919</ele>
        <time>2019-05-24T16:51:24Z</time>
      </trkpt>
      <trkpt lat="44.40479" lon="3.21228">
        <ele>918.59997558594</ele>
        <time>2019-05-24T16:51:27Z</time>
      </trkpt>
      <trkpt lat="44.40479" lon="3.21234">
        <ele>918.40002441406</ele>
        <time>2019-05-24T16:51:29Z</time>
      </trkpt>
      <trkpt lat="44.40482" lon="3.21245">
        <ele>918</ele>
        <time>2019-05-24T16:51:33Z</time>
      </trkpt>
      <trkpt lat="44.40485" lon="3.21257">
        <ele>917.59997558594</ele>
        <time>2019-05-24T16:51:37Z</time>
      </trkpt>
      <trkpt lat="44.40485" lon="3.21259">
        <ele>917.59997558594</ele>
        <time>2019-05-24T16:51:38Z</time>
      </trkpt>
      <trkpt lat="44.40487" lon="3.21267">
        <ele>917.40002441406</ele>
        <time>2019-05-24T16:51:41Z</time>
      </trkpt>
      <trkpt lat="44.40488" lon="3.21271">
        <ele>917.40002441406</ele>
        <time>2019-05-24T16:51:42Z</time>
      </trkpt>
      <trkpt lat="44.40489" lon="3.21274">
        <ele>917.40002441406</ele>
        <time>2019-05-24T16:51:43Z</time>
      </trkpt>
      <trkpt lat="44.4049" lon="3.21285">
        <ele>917.40002441406</ele>
        <time>2019-05-24T16:51:46Z</time>
      </trkpt>
      <trkpt lat="44.40491" lon="3.21289">
        <ele>917.40002441406</ele>
        <time>2019-05-24T16:51:47Z</time>
      </trkpt>
      <trkpt lat="44.40491" lon="3.21294">
        <ele>917.20001220703</ele>
        <time>2019-05-24T16:51:49Z</time>
      </trkpt>
      <trkpt lat="44.40493" lon="3.21301">
        <ele>917.20001220703</ele>
        <time>2019-05-24T16:51:51Z</time>
      </trkpt>
      <trkpt lat="44.40494" lon="3.2131">
        <ele>917.20001220703</ele>
        <time>2019-05-24T16:51:53Z</time>
      </trkpt>
      <trkpt lat="44.40496" lon="3.21324">
        <ele>917.20001220703</ele>
        <time>2019-05-24T16:51:56Z</time>
      </trkpt>
      <trkpt lat="44.40497" lon="3.21329">
        <ele>917.20001220703</ele>
        <time>2019-05-24T16:51:57Z</time>
      </trkpt>
      <trkpt lat="44.40504" lon="3.21352">
        <ele>917.40002441406</ele>
        <time>2019-05-24T16:52:02Z</time>
      </trkpt>
      <trkpt lat="44.40507" lon="3.21361">
        <ele>917.40002441406</ele>
        <time>2019-05-24T16:52:04Z</time>
      </trkpt>
      <trkpt lat="44.40508" lon="3.21369">
        <ele>917.40002441406</ele>
        <time>2019-05-24T16:52:06Z</time>
      </trkpt>
      <trkpt lat="44.40515" lon="3.21394">
        <ele>917.59997558594</ele>
        <time>2019-05-24T16:52:11Z</time>
      </trkpt>
      <trkpt lat="44.40523" lon="3.21419">
        <ele>917.79998779297</ele>
        <time>2019-05-24T16:52:16Z</time>
      </trkpt>
      <trkpt lat="44.4053" lon="3.21437">
        <ele>917.79998779297</ele>
        <time>2019-05-24T16:52:20Z</time>
      </trkpt>
      <trkpt lat="44.40537" lon="3.2145">
        <ele>917.79998779297</ele>
        <time>2019-05-24T16:52:24Z</time>
      </trkpt>
      <trkpt lat="44.40544" lon="3.21465">
        <ele>918</ele>
        <time>2019-05-24T16:52:29Z</time>
      </trkpt>
      <trkpt lat="44.40545" lon="3.21468">
        <ele>918.20001220703</ele>
        <time>2019-05-24T16:52:30Z</time>
      </trkpt>
      <trkpt lat="44.4055" lon="3.21476">
        <ele>918.40002441406</ele>
        <time>2019-05-24T16:52:33Z</time>
      </trkpt>
      <trkpt lat="44.40561" lon="3.21491">
        <ele>918.59997558594</ele>
        <time>2019-05-24T16:52:39Z</time>
      </trkpt>
      <trkpt lat="44.4057" lon="3.21501">
        <ele>918.40002441406</ele>
        <time>2019-05-24T16:52:44Z</time>
      </trkpt>
      <trkpt lat="44.40582" lon="3.21507">
        <ele>918.40002441406</ele>
        <time>2019-05-24T16:52:49Z</time>
      </trkpt>
      <trkpt lat="44.40592" lon="3.21511">
        <ele>918.20001220703</ele>
        <time>2019-05-24T16:52:53Z</time>
      </trkpt>
      <trkpt lat="44.40608" lon="3.21516">
        <ele>918.20001220703</ele>
        <time>2019-05-24T16:52:58Z</time>
      </trkpt>
      <trkpt lat="44.40625" lon="3.21515">
        <ele>918.20001220703</ele>
        <time>2019-05-24T16:53:02Z</time>
      </trkpt>
      <trkpt lat="44.40639" lon="3.21511">
        <ele>918</ele>
        <time>2019-05-24T16:53:06Z</time>
      </trkpt>
      <trkpt lat="44.40657" lon="3.21507">
        <ele>917.40002441406</ele>
        <time>2019-05-24T16:53:11Z</time>
      </trkpt>
      <trkpt lat="44.40672" lon="3.21507">
        <ele>917</ele>
        <time>2019-05-24T16:53:16Z</time>
      </trkpt>
      <trkpt lat="44.40682" lon="3.21512">
        <ele>917</ele>
        <time>2019-05-24T16:53:20Z</time>
      </trkpt>
      <trkpt lat="44.40685" lon="3.21513">
        <ele>917</ele>
        <time>2019-05-24T16:53:21Z</time>
      </trkpt>
      <trkpt lat="44.40701" lon="3.21524">
        <ele>916.79998779297</ele>
        <time>2019-05-24T16:53:27Z</time>
      </trkpt>
      <trkpt lat="44.40715" lon="3.21538">
        <ele>916.59997558594</ele>
        <time>2019-05-24T16:53:33Z</time>
      </trkpt>
      <trkpt lat="44.40725" lon="3.21551">
        <ele>916.79998779297</ele>
        <time>2019-05-24T16:53:38Z</time>
      </trkpt>
      <trkpt lat="44.40736" lon="3.21561">
        <ele>917</ele>
        <time>2019-05-24T16:53:42Z</time>
      </trkpt>
      <trkpt lat="44.40746" lon="3.21569">
        <ele>917.20001220703</ele>
        <time>2019-05-24T16:53:48Z</time>
      </trkpt>
      <trkpt lat="44.4075" lon="3.21572">
        <ele>917.59997558594</ele>
        <time>2019-05-24T16:53:51Z</time>
      </trkpt>
      <trkpt lat="44.40755" lon="3.21576">
        <ele>918</ele>
        <time>2019-05-24T16:53:54Z</time>
      </trkpt>
      <trkpt lat="44.40764" lon="3.21581">
        <ele>918.79998779297</ele>
        <time>2019-05-24T16:53:59Z</time>
      </trkpt>
      <trkpt lat="44.40774" lon="3.21583">
        <ele>919.20001220703</ele>
        <time>2019-05-24T16:54:04Z</time>
      </trkpt>
      <trkpt lat="44.40787" lon="3.21593">
        <ele>920</ele>
        <time>2019-05-24T16:54:11Z</time>
      </trkpt>
      <trkpt lat="44.40799" lon="3.21608">
        <ele>921</ele>
        <time>2019-05-24T16:54:19Z</time>
      </trkpt>
      <trkpt lat="44.40809" lon="3.21619">
        <ele>922</ele>
        <time>2019-05-24T16:54:26Z</time>
      </trkpt>
      <trkpt lat="44.40819" lon="3.21626">
        <ele>922.79998779297</ele>
        <time>2019-05-24T16:54:33Z</time>
      </trkpt>
      <trkpt lat="44.40825" lon="3.21629">
        <ele>923.40002441406</ele>
        <time>2019-05-24T16:54:38Z</time>
      </trkpt>
      <trkpt lat="44.40831" lon="3.21631">
        <ele>923.79998779297</ele>
        <time>2019-05-24T16:54:42Z</time>
      </trkpt>
      <trkpt lat="44.40838" lon="3.21633">
        <ele>924.40002441406</ele>
        <time>2019-05-24T16:54:47Z</time>
      </trkpt>
      <trkpt lat="44.40848" lon="3.21634">
        <ele>925</ele>
        <time>2019-05-24T16:54:54Z</time>
      </trkpt>
      <trkpt lat="44.40852" lon="3.21634">
        <ele>925.40002441406</ele>
        <time>2019-05-24T16:54:57Z</time>
      </trkpt>
      <trkpt lat="44.40855" lon="3.21635">
        <ele>925.59997558594</ele>
        <time>2019-05-24T16:54:59Z</time>
      </trkpt>
      <trkpt lat="44.40858" lon="3.21635">
        <ele>926</ele>
        <time>2019-05-24T16:55:01Z</time>
      </trkpt>
      <trkpt lat="44.40869" lon="3.21639">
        <ele>927</ele>
        <time>2019-05-24T16:55:08Z</time>
      </trkpt>
      <trkpt lat="44.40879" lon="3.21639">
        <ele>927.79998779297</ele>
        <time>2019-05-24T16:55:15Z</time>
      </trkpt>
      <trkpt lat="44.4089" lon="3.21635">
        <ele>928.79998779297</ele>
        <time>2019-05-24T16:55:22Z</time>
      </trkpt>
      <trkpt lat="44.40899" lon="3.21628">
        <ele>929.59997558594</ele>
        <time>2019-05-24T16:55:28Z</time>
      </trkpt>
      <trkpt lat="44.40911" lon="3.21614">
        <ele>930.40002441406</ele>
        <time>2019-05-24T16:55:35Z</time>
      </trkpt>
      <trkpt lat="44.40927" lon="3.21597">
        <ele>931.20001220703</ele>
        <time>2019-05-24T16:55:43Z</time>
      </trkpt>
      <trkpt lat="44.40935" lon="3.2158">
        <ele>931.79998779297</ele>
        <time>2019-05-24T16:55:49Z</time>
      </trkpt>
      <trkpt lat="44.40942" lon="3.21558">
        <ele>932.59997558594</ele>
        <time>2019-05-24T16:55:56Z</time>
      </trkpt>
      <trkpt lat="44.40955" lon="3.2154">
        <ele>933.59997558594</ele>
        <time>2019-05-24T16:56:03Z</time>
      </trkpt>
      <trkpt lat="44.40966" lon="3.21527">
        <ele>934.40002441406</ele>
        <time>2019-05-24T16:56:09Z</time>
      </trkpt>
      <trkpt lat="44.4098" lon="3.21516">
        <ele>935.59997558594</ele>
        <time>2019-05-24T16:56:15Z</time>
      </trkpt>
      <trkpt lat="44.40991" lon="3.21507">
        <ele>936.59997558594</ele>
        <time>2019-05-24T16:56:20Z</time>
      </trkpt>
      <trkpt lat="44.41003" lon="3.21492">
        <ele>937.79998779297</ele>
        <time>2019-05-24T16:56:26Z</time>
      </trkpt>
      <trkpt lat="44.41016" lon="3.21473">
        <ele>939</ele>
        <time>2019-05-24T16:56:33Z</time>
      </trkpt>
      <trkpt lat="44.41036" lon="3.21444">
        <ele>940.40002441406</ele>
        <time>2019-05-24T16:56:43Z</time>
      </trkpt>
      <trkpt lat="44.41049" lon="3.21431">
        <ele>940.79998779297</ele>
        <time>2019-05-24T16:56:47Z</time>
      </trkpt>
      <trkpt lat="44.41053" lon="3.21428">
        <ele>940.79998779297</ele>
        <time>2019-05-24T16:56:48Z</time>
      </trkpt>
      <trkpt lat="44.41057" lon="3.21424">
        <ele>941</ele>
        <time>2019-05-24T16:56:49Z</time>
      </trkpt>
      <trkpt lat="44.41071" lon="3.21409">
        <ele>941</ele>
        <time>2019-05-24T16:56:52Z</time>
      </trkpt>
      <trkpt lat="44.41083" lon="3.21397">
        <ele>941</ele>
        <time>2019-05-24T16:56:54Z</time>
      </trkpt>
      <trkpt lat="44.41098" lon="3.21389">
        <ele>941</ele>
        <time>2019-05-24T16:56:56Z</time>
      </trkpt>
      <trkpt lat="44.41133" lon="3.2138">
        <ele>940.59997558594</ele>
        <time>2019-05-24T16:57:00Z</time>
      </trkpt>
      <trkpt lat="44.41192" lon="3.21361">
        <ele>939.59997558594</ele>
        <time>2019-05-24T16:57:06Z</time>
      </trkpt>
      <trkpt lat="44.41228" lon="3.21341">
        <ele>939</ele>
        <time>2019-05-24T16:57:10Z</time>
      </trkpt>
      <trkpt lat="44.41237" lon="3.21337">
        <ele>938.79998779297</ele>
        <time>2019-05-24T16:57:11Z</time>
      </trkpt>
      <trkpt lat="44.41271" lon="3.21319">
        <ele>938.20001220703</ele>
        <time>2019-05-24T16:57:15Z</time>
      </trkpt>
      <trkpt lat="44.41279" lon="3.21313">
        <ele>938</ele>
        <time>2019-05-24T16:57:16Z</time>
      </trkpt>
      <trkpt lat="44.41318" lon="3.21279">
        <ele>937.20001220703</ele>
        <time>2019-05-24T16:57:21Z</time>
      </trkpt>
      <trkpt lat="44.41371" lon="3.21245">
        <ele>936</ele>
        <time>2019-05-24T16:57:27Z</time>
      </trkpt>
      <trkpt lat="44.41381" lon="3.2124">
        <ele>935.79998779297</ele>
        <time>2019-05-24T16:57:28Z</time>
      </trkpt>
      <trkpt lat="44.41434" lon="3.2122">
        <ele>934.59997558594</ele>
        <time>2019-05-24T16:57:33Z</time>
      </trkpt>
      <trkpt lat="44.41476" lon="3.21206">
        <ele>933.40002441406</ele>
        <time>2019-05-24T16:57:37Z</time>
      </trkpt>
      <trkpt lat="44.41488" lon="3.21204">
        <ele>932.79998779297</ele>
        <time>2019-05-24T16:57:39Z</time>
      </trkpt>
      <trkpt lat="44.41493" lon="3.212">
        <ele>932.59997558594</ele>
        <time>2019-05-24T16:57:40Z</time>
      </trkpt>
      <trkpt lat="44.41499" lon="3.2119">
        <ele>932</ele>
        <time>2019-05-24T16:57:42Z</time>
      </trkpt>
      <trkpt lat="44.41501" lon="3.21179">
        <ele>931.40002441406</ele>
        <time>2019-05-24T16:57:44Z</time>
      </trkpt>
      <trkpt lat="44.41502" lon="3.21157">
        <ele>930.40002441406</ele>
        <time>2019-05-24T16:57:48Z</time>
      </trkpt>
      <trkpt lat="44.41505" lon="3.21146">
        <ele>930</ele>
        <time>2019-05-24T16:57:50Z</time>
      </trkpt>
      <trkpt lat="44.41506" lon="3.21136">
        <ele>929.40002441406</ele>
        <time>2019-05-24T16:57:52Z</time>
      </trkpt>
      <trkpt lat="44.41508" lon="3.21131">
        <ele>929.20001220703</ele>
        <time>2019-05-24T16:57:53Z</time>
      </trkpt>
      <trkpt lat="44.4151" lon="3.21125">
        <ele>928.79998779297</ele>
        <time>2019-05-24T16:57:54Z</time>
      </trkpt>
      <trkpt lat="44.4151" lon="3.21111">
        <ele>928.20001220703</ele>
        <time>2019-05-24T16:57:56Z</time>
      </trkpt>
      <trkpt lat="44.41509" lon="3.21105">
        <ele>928</ele>
        <time>2019-05-24T16:57:57Z</time>
      </trkpt>
      <trkpt lat="44.41504" lon="3.21072">
        <ele>926.20001220703</ele>
        <time>2019-05-24T16:58:03Z</time>
      </trkpt>
      <trkpt lat="44.41505" lon="3.2106">
        <ele>925.40002441406</ele>
        <time>2019-05-24T16:58:05Z</time>
      </trkpt>
      <trkpt lat="44.41506" lon="3.21049">
        <ele>924.79998779297</ele>
        <time>2019-05-24T16:58:07Z</time>
      </trkpt>
      <trkpt lat="44.41503" lon="3.21028">
        <ele>923.20001220703</ele>
        <time>2019-05-24T16:58:11Z</time>
      </trkpt>
      <trkpt lat="44.41504" lon="3.21023">
        <ele>923</ele>
        <time>2019-05-24T16:58:12Z</time>
      </trkpt>
      <trkpt lat="44.41508" lon="3.21006">
        <ele>921.79998779297</ele>
        <time>2019-05-24T16:58:15Z</time>
      </trkpt>
      <trkpt lat="44.4151" lon="3.20987">
        <ele>920</ele>
        <time>2019-05-24T16:58:19Z</time>
      </trkpt>
      <trkpt lat="44.41507" lon="3.20974">
        <ele>918</ele>
        <time>2019-05-24T16:58:23Z</time>
      </trkpt>
      <trkpt lat="44.41509" lon="3.2096">
        <ele>916.20001220703</ele>
        <time>2019-05-24T16:58:26Z</time>
      </trkpt>
      <trkpt lat="44.4151" lon="3.20955">
        <ele>915.59997558594</ele>
        <time>2019-05-24T16:58:27Z</time>
      </trkpt>
      <trkpt lat="44.41518" lon="3.20938">
        <ele>914</ele>
        <time>2019-05-24T16:58:30Z</time>
      </trkpt>
      <trkpt lat="44.41524" lon="3.20927">
        <ele>912.79998779297</ele>
        <time>2019-05-24T16:58:32Z</time>
      </trkpt>
      <trkpt lat="44.41531" lon="3.20916">
        <ele>911.59997558594</ele>
        <time>2019-05-24T16:58:34Z</time>
      </trkpt>
      <trkpt lat="44.41542" lon="3.20886">
        <ele>909.40002441406</ele>
        <time>2019-05-24T16:58:38Z</time>
      </trkpt>
      <trkpt lat="44.4155" lon="3.20874">
        <ele>908.20001220703</ele>
        <time>2019-05-24T16:58:40Z</time>
      </trkpt>
      <trkpt lat="44.41562" lon="3.20857">
        <ele>906.59997558594</ele>
        <time>2019-05-24T16:58:43Z</time>
      </trkpt>
      <trkpt lat="44.41566" lon="3.20843">
        <ele>905.40002441406</ele>
        <time>2019-05-24T16:58:45Z</time>
      </trkpt>
      <trkpt lat="44.41569" lon="3.20829">
        <ele>904.40002441406</ele>
        <time>2019-05-24T16:58:47Z</time>
      </trkpt>
      <trkpt lat="44.41574" lon="3.20819">
        <ele>903.59997558594</ele>
        <time>2019-05-24T16:58:49Z</time>
      </trkpt>
      <trkpt lat="44.41579" lon="3.20803">
        <ele>902.20001220703</ele>
        <time>2019-05-24T16:58:52Z</time>
      </trkpt>
      <trkpt lat="44.41579" lon="3.20798">
        <ele>901.59997558594</ele>
        <time>2019-05-24T16:58:53Z</time>
      </trkpt>
      <trkpt lat="44.4158" lon="3.20789">
        <ele>900.59997558594</ele>
        <time>2019-05-24T16:58:55Z</time>
      </trkpt>
      <trkpt lat="44.41581" lon="3.20782">
        <ele>899.79998779297</ele>
        <time>2019-05-24T16:58:57Z</time>
      </trkpt>
      <trkpt lat="44.41579" lon="3.20766">
        <ele>898.20001220703</ele>
        <time>2019-05-24T16:59:01Z</time>
      </trkpt>
      <trkpt lat="44.41576" lon="3.20755">
        <ele>897.40002441406</ele>
        <time>2019-05-24T16:59:04Z</time>
      </trkpt>
      <trkpt lat="44.41574" lon="3.20747">
        <ele>897</ele>
        <time>2019-05-24T16:59:06Z</time>
      </trkpt>
      <trkpt lat="44.41571" lon="3.20741">
        <ele>896</ele>
        <time>2019-05-24T16:59:09Z</time>
      </trkpt>
      <trkpt lat="44.41571" lon="3.20739">
        <ele>895.79998779297</ele>
        <time>2019-05-24T16:59:10Z</time>
      </trkpt>
      <trkpt lat="44.41569" lon="3.20735">
        <ele>894.79998779297</ele>
        <time>2019-05-24T16:59:12Z</time>
      </trkpt>
      <trkpt lat="44.41567" lon="3.20722">
        <ele>893.59997558594</ele>
        <time>2019-05-24T16:59:15Z</time>
      </trkpt>
      <trkpt lat="44.41565" lon="3.20716">
        <ele>893</ele>
        <time>2019-05-24T16:59:17Z</time>
      </trkpt>
      <trkpt lat="44.41565" lon="3.2071">
        <ele>892.20001220703</ele>
        <time>2019-05-24T16:59:20Z</time>
      </trkpt>
      <trkpt lat="44.41565" lon="3.20708">
        <ele>892</ele>
        <time>2019-05-24T16:59:21Z</time>
      </trkpt>
      <trkpt lat="44.41563" lon="3.20704">
        <ele>891</ele>
        <time>2019-05-24T16:59:23Z</time>
      </trkpt>
      <trkpt lat="44.41557" lon="3.20688">
        <ele>889.40002441406</ele>
        <time>2019-05-24T16:59:28Z</time>
      </trkpt>
      <trkpt lat="44.41554" lon="3.20681">
        <ele>888.79998779297</ele>
        <time>2019-05-24T16:59:30Z</time>
      </trkpt>
      <trkpt lat="44.41552" lon="3.20673">
        <ele>888.79998779297</ele>
        <time>2019-05-24T16:59:32Z</time>
      </trkpt>
      <trkpt lat="44.41551" lon="3.20669">
        <ele>888.40002441406</ele>
        <time>2019-05-24T16:59:33Z</time>
      </trkpt>
      <trkpt lat="44.4155" lon="3.20659">
        <ele>887.79998779297</ele>
        <time>2019-05-24T16:59:36Z</time>
      </trkpt>
      <trkpt lat="44.4155" lon="3.20656">
        <ele>887.59997558594</ele>
        <time>2019-05-24T16:59:37Z</time>
      </trkpt>
      <trkpt lat="44.41549" lon="3.20648">
        <ele>886.79998779297</ele>
        <time>2019-05-24T16:59:40Z</time>
      </trkpt>
      <trkpt lat="44.41548" lon="3.20646">
        <ele>886.59997558594</ele>
        <time>2019-05-24T16:59:41Z</time>
      </trkpt>
      <trkpt lat="44.41546" lon="3.20642">
        <ele>886</ele>
        <time>2019-05-24T16:59:43Z</time>
      </trkpt>
      <trkpt lat="44.41542" lon="3.20632">
        <ele>885.20001220703</ele>
        <time>2019-05-24T16:59:46Z</time>
      </trkpt>
      <trkpt lat="44.41541" lon="3.20629">
        <ele>884.79998779297</ele>
        <time>2019-05-24T16:59:47Z</time>
      </trkpt>
      <trkpt lat="44.41536" lon="3.20621">
        <ele>884.20001220703</ele>
        <time>2019-05-24T16:59:49Z</time>
      </trkpt>
      <trkpt lat="44.41525" lon="3.20606">
        <ele>883</ele>
        <time>2019-05-24T16:59:53Z</time>
      </trkpt>
      <trkpt lat="44.41512" lon="3.20586">
        <ele>882.40002441406</ele>
        <time>2019-05-24T16:59:58Z</time>
      </trkpt>
      <trkpt lat="44.41504" lon="3.2058">
        <ele>882</ele>
        <time>2019-05-24T17:00:01Z</time>
      </trkpt>
      <trkpt lat="44.41493" lon="3.20577">
        <ele>881.40002441406</ele>
        <time>2019-05-24T17:00:04Z</time>
      </trkpt>
      <trkpt lat="44.41489" lon="3.20576">
        <ele>881.20001220703</ele>
        <time>2019-05-24T17:00:05Z</time>
      </trkpt>
      <trkpt lat="44.41477" lon="3.20569">
        <ele>880.59997558594</ele>
        <time>2019-05-24T17:00:08Z</time>
      </trkpt>
      <trkpt lat="44.41466" lon="3.20565">
        <ele>880.59997558594</ele>
        <time>2019-05-24T17:00:10Z</time>
      </trkpt>
      <trkpt lat="44.41452" lon="3.2056">
        <ele>880.59997558594</ele>
        <time>2019-05-24T17:00:13Z</time>
      </trkpt>
      <trkpt lat="44.41433" lon="3.20548">
        <ele>881.20001220703</ele>
        <time>2019-05-24T17:00:18Z</time>
      </trkpt>
      <trkpt lat="44.41424" lon="3.20541">
        <ele>881.20001220703</ele>
        <time>2019-05-24T17:00:20Z</time>
      </trkpt>
      <trkpt lat="44.41418" lon="3.20532">
        <ele>881.40002441406</ele>
        <time>2019-05-24T17:00:22Z</time>
      </trkpt>
      <trkpt lat="44.41415" lon="3.20528">
        <ele>881.40002441406</ele>
        <time>2019-05-24T17:00:23Z</time>
      </trkpt>
      <trkpt lat="44.41404" lon="3.20508">
        <ele>881.79998779297</ele>
        <time>2019-05-24T17:00:27Z</time>
      </trkpt>
      <trkpt lat="44.41402" lon="3.20504">
        <ele>881.79998779297</ele>
        <time>2019-05-24T17:00:28Z</time>
      </trkpt>
      <trkpt lat="44.41396" lon="3.20494">
        <ele>882</ele>
        <time>2019-05-24T17:00:30Z</time>
      </trkpt>
      <trkpt lat="44.41394" lon="3.20488">
        <ele>882</ele>
        <time>2019-05-24T17:00:31Z</time>
      </trkpt>
      <trkpt lat="44.41389" lon="3.20475">
        <ele>882.20001220703</ele>
        <time>2019-05-24T17:00:33Z</time>
      </trkpt>
      <trkpt lat="44.41386" lon="3.20462">
        <ele>882.20001220703</ele>
        <time>2019-05-24T17:00:35Z</time>
      </trkpt>
      <trkpt lat="44.41385" lon="3.20457">
        <ele>882.20001220703</ele>
        <time>2019-05-24T17:00:36Z</time>
      </trkpt>
      <trkpt lat="44.41387" lon="3.2045">
        <ele>882.20001220703</ele>
        <time>2019-05-24T17:00:38Z</time>
      </trkpt>
      <trkpt lat="44.41386" lon="3.20437">
        <ele>881.79998779297</ele>
        <time>2019-05-24T17:00:41Z</time>
      </trkpt>
      <trkpt lat="44.41387" lon="3.20419">
        <ele>881.20001220703</ele>
        <time>2019-05-24T17:00:46Z</time>
      </trkpt>
      <trkpt lat="44.41387" lon="3.20412">
        <ele>880.79998779297</ele>
        <time>2019-05-24T17:00:48Z</time>
      </trkpt>
      <trkpt lat="44.41385" lon="3.20408">
        <ele>880.79998779297</ele>
        <time>2019-05-24T17:00:49Z</time>
      </trkpt>
      <trkpt lat="44.41384" lon="3.20405">
        <ele>880.40002441406</ele>
        <time>2019-05-24T17:00:51Z</time>
      </trkpt>
      <trkpt lat="44.4149" lon="3.20444">
        <ele>894.40002441406</ele>
        <time>2019-05-24T17:02:33Z</time>
      </trkpt>
      <trkpt lat="44.41492" lon="3.20445">
        <ele>894.79998779297</ele>
        <time>2019-05-24T17:02:35Z</time>
      </trkpt>
      <trkpt lat="44.4151" lon="3.20448">
        <ele>896.79998779297</ele>
        <time>2019-05-24T17:02:51Z</time>
      </trkpt>
      <trkpt lat="44.41513" lon="3.20449">
        <ele>897.20001220703</ele>
        <time>2019-05-24T17:02:53Z</time>
      </trkpt>
      <trkpt lat="44.41518" lon="3.20451">
        <ele>897.79998779297</ele>
        <time>2019-05-24T17:02:57Z</time>
      </trkpt>
      <trkpt lat="44.41524" lon="3.2045">
        <ele>898.40002441406</ele>
        <time>2019-05-24T17:03:02Z</time>
      </trkpt>
      <trkpt lat="44.41528" lon="3.20447">
        <ele>898.79998779297</ele>
        <time>2019-05-24T17:03:06Z</time>
      </trkpt>
      <trkpt lat="44.41537" lon="3.2044">
        <ele>900</ele>
        <time>2019-05-24T17:03:14Z</time>
      </trkpt>
      <trkpt lat="44.41538" lon="3.20439">
        <ele>900</ele>
        <time>2019-05-24T17:03:15Z</time>
      </trkpt>
      <trkpt lat="44.41545" lon="3.20437">
        <ele>900.79998779297</ele>
        <time>2019-05-24T17:03:20Z</time>
      </trkpt>
      <trkpt lat="44.41546" lon="3.20437">
        <ele>901</ele>
        <time>2019-05-24T17:03:21Z</time>
      </trkpt>
      <trkpt lat="44.41571" lon="3.20432">
        <ele>905.20001220703</ele>
        <time>2019-05-24T17:03:41Z</time>
      </trkpt>
      <trkpt lat="44.41574" lon="3.2043">
        <ele>905.59997558594</ele>
        <time>2019-05-24T17:03:44Z</time>
      </trkpt>
      <trkpt lat="44.41575" lon="3.20429">
        <ele>905.79998779297</ele>
        <time>2019-05-24T17:03:45Z</time>
      </trkpt>
      <trkpt lat="44.41628" lon="3.20428">
        <ele>916.40002441406</ele>
        <time>2019-05-24T17:04:29Z</time>
      </trkpt>
      <trkpt lat="44.41629" lon="3.20425">
        <ele>917</ele>
        <time>2019-05-24T17:04:31Z</time>
      </trkpt>
      <trkpt lat="44.41635" lon="3.20419">
        <ele>918.59997558594</ele>
        <time>2019-05-24T17:04:37Z</time>
      </trkpt>
      <trkpt lat="44.41766" lon="3.20385">
        <ele>940.40002441406</ele>
        <time>2019-05-24T17:06:49Z</time>
      </trkpt>
      <trkpt lat="44.4177" lon="3.20381">
        <ele>940.79998779297</ele>
        <time>2019-05-24T17:06:52Z</time>
      </trkpt>
      <trkpt lat="44.41771" lon="3.2038">
        <ele>940.79998779297</ele>
        <time>2019-05-24T17:06:53Z</time>
      </trkpt>
      <trkpt lat="44.41774" lon="3.20379">
        <ele>941.20001220703</ele>
        <time>2019-05-24T17:06:55Z</time>
      </trkpt>
      <trkpt lat="44.41778" lon="3.20376">
        <ele>941.40002441406</ele>
        <time>2019-05-24T17:06:58Z</time>
      </trkpt>
      <trkpt lat="44.41779" lon="3.20374">
        <ele>941.40002441406</ele>
        <time>2019-05-24T17:06:59Z</time>
      </trkpt>
      <trkpt lat="44.41778" lon="3.2037">
        <ele>941.59997558594</ele>
        <time>2019-05-24T17:07:01Z</time>
      </trkpt>
      <trkpt lat="44.41778" lon="3.20362">
        <ele>941.79998779297</ele>
        <time>2019-05-24T17:07:04Z</time>
      </trkpt>
      <trkpt lat="44.41777" lon="3.20357">
        <ele>941.79998779297</ele>
        <time>2019-05-24T17:07:06Z</time>
      </trkpt>
      <trkpt lat="44.41776" lon="3.20351">
        <ele>942</ele>
        <time>2019-05-24T17:07:08Z</time>
      </trkpt>
      <trkpt lat="44.41779" lon="3.20345">
        <ele>942</ele>
        <time>2019-05-24T17:07:10Z</time>
      </trkpt>
      <trkpt lat="44.41787" lon="3.20336">
        <ele>942</ele>
        <time>2019-05-24T17:07:14Z</time>
      </trkpt>
      <trkpt lat="44.4179" lon="3.20331">
        <ele>942</ele>
        <time>2019-05-24T17:07:16Z</time>
      </trkpt>
      <trkpt lat="44.41789" lon="3.20324">
        <ele>942</ele>
        <time>2019-05-24T17:07:18Z</time>
      </trkpt>
      <trkpt lat="44.41786" lon="3.20302">
        <ele>941.79998779297</ele>
        <time>2019-05-24T17:07:23Z</time>
      </trkpt>
      <trkpt lat="44.41785" lon="3.20297">
        <ele>941.59997558594</ele>
        <time>2019-05-24T17:07:24Z</time>
      </trkpt>
      <trkpt lat="44.41783" lon="3.2029">
        <ele>941.40002441406</ele>
        <time>2019-05-24T17:07:26Z</time>
      </trkpt>
      <trkpt lat="44.41779" lon="3.20282">
        <ele>940.79998779297</ele>
        <time>2019-05-24T17:07:29Z</time>
      </trkpt>
      <trkpt lat="44.4178" lon="3.20277">
        <ele>940.79998779297</ele>
        <time>2019-05-24T17:07:30Z</time>
      </trkpt>
      <trkpt lat="44.41782" lon="3.20267">
        <ele>940.40002441406</ele>
        <time>2019-05-24T17:07:33Z</time>
      </trkpt>
      <trkpt lat="44.41783" lon="3.20265">
        <ele>940.20001220703</ele>
        <time>2019-05-24T17:07:34Z</time>
      </trkpt>
      <trkpt lat="44.41785" lon="3.20263">
        <ele>940</ele>
        <time>2019-05-24T17:07:35Z</time>
      </trkpt>
      <trkpt lat="44.41791" lon="3.2026">
        <ele>939.79998779297</ele>
        <time>2019-05-24T17:07:37Z</time>
      </trkpt>
      <trkpt lat="44.41799" lon="3.20252">
        <ele>939.40002441406</ele>
        <time>2019-05-24T17:07:40Z</time>
      </trkpt>
      <trkpt lat="44.41799" lon="3.20249">
        <ele>939.20001220703</ele>
        <time>2019-05-24T17:07:41Z</time>
      </trkpt>
      <trkpt lat="44.41798" lon="3.20231">
        <ele>938.59997558594</ele>
        <time>2019-05-24T17:07:45Z</time>
      </trkpt>
      <trkpt lat="44.41798" lon="3.20225">
        <ele>938.40002441406</ele>
        <time>2019-05-24T17:07:46Z</time>
      </trkpt>
      <trkpt lat="44.41801" lon="3.20213">
        <ele>937.59997558594</ele>
        <time>2019-05-24T17:07:49Z</time>
      </trkpt>
      <trkpt lat="44.4181" lon="3.20193">
        <ele>936.59997558594</ele>
        <time>2019-05-24T17:07:54Z</time>
      </trkpt>
      <trkpt lat="44.41811" lon="3.20175">
        <ele>936</ele>
        <time>2019-05-24T17:07:57Z</time>
      </trkpt>
      <trkpt lat="44.41814" lon="3.20169">
        <ele>935.79998779297</ele>
        <time>2019-05-24T17:07:58Z</time>
      </trkpt>
      <trkpt lat="44.41825" lon="3.20151">
        <ele>933.79998779297</ele>
        <time>2019-05-24T17:08:03Z</time>
      </trkpt>
      <trkpt lat="44.41828" lon="3.20144">
        <ele>933</ele>
        <time>2019-05-24T17:08:05Z</time>
      </trkpt>
      <trkpt lat="44.41831" lon="3.20138">
        <ele>932</ele>
        <time>2019-05-24T17:08:07Z</time>
      </trkpt>
      <trkpt lat="44.41837" lon="3.20131">
        <ele>930.79998779297</ele>
        <time>2019-05-24T17:08:10Z</time>
      </trkpt>
      <trkpt lat="44.41838" lon="3.20127">
        <ele>930.20001220703</ele>
        <time>2019-05-24T17:08:11Z</time>
      </trkpt>
      <trkpt lat="44.41838" lon="3.20113">
        <ele>928.79998779297</ele>
        <time>2019-05-24T17:08:14Z</time>
      </trkpt>
      <trkpt lat="44.41841" lon="3.2011">
        <ele>928.40002441406</ele>
        <time>2019-05-24T17:08:15Z</time>
      </trkpt>
      <trkpt lat="44.4185" lon="3.20092">
        <ele>926.59997558594</ele>
        <time>2019-05-24T17:08:19Z</time>
      </trkpt>
      <trkpt lat="44.41853" lon="3.20083">
        <ele>925.20001220703</ele>
        <time>2019-05-24T17:08:22Z</time>
      </trkpt>
      <trkpt lat="44.41854" lon="3.2008">
        <ele>924.79998779297</ele>
        <time>2019-05-24T17:08:23Z</time>
      </trkpt>
      <trkpt lat="44.41854" lon="3.20075">
        <ele>924.59997558594</ele>
        <time>2019-05-24T17:08:25Z</time>
      </trkpt>
      <trkpt lat="44.41855" lon="3.20072">
        <ele>924.59997558594</ele>
        <time>2019-05-24T17:08:26Z</time>
      </trkpt>
      <trkpt lat="44.4186" lon="3.20069">
        <ele>922.79998779297</ele>
        <time>2019-05-24T17:08:30Z</time>
      </trkpt>
      <trkpt lat="44.41861" lon="3.20067">
        <ele>922.40002441406</ele>
        <time>2019-05-24T17:08:31Z</time>
      </trkpt>
      <trkpt lat="44.41864" lon="3.20065">
        <ele>922</ele>
        <time>2019-05-24T17:08:33Z</time>
      </trkpt>
      <trkpt lat="44.41869" lon="3.20064">
        <ele>921.79998779297</ele>
        <time>2019-05-24T17:08:36Z</time>
      </trkpt>
      <trkpt lat="44.41871" lon="3.20067">
        <ele>920.79998779297</ele>
        <time>2019-05-24T17:08:39Z</time>
      </trkpt>
      <trkpt lat="44.41874" lon="3.20072">
        <ele>920.40002441406</ele>
        <time>2019-05-24T17:08:42Z</time>
      </trkpt>
      <trkpt lat="44.41876" lon="3.20074">
        <ele>919.79998779297</ele>
        <time>2019-05-24T17:08:44Z</time>
      </trkpt>
      <trkpt lat="44.41885" lon="3.20083">
        <ele>919</ele>
        <time>2019-05-24T17:08:49Z</time>
      </trkpt>
      <trkpt lat="44.41894" lon="3.20093">
        <ele>918.79998779297</ele>
        <time>2019-05-24T17:08:54Z</time>
      </trkpt>
      <trkpt lat="44.41895" lon="3.20095">
        <ele>918.79998779297</ele>
        <time>2019-05-24T17:08:55Z</time>
      </trkpt>
      <trkpt lat="44.41899" lon="3.201">
        <ele>918.59997558594</ele>
        <time>2019-05-24T17:08:57Z</time>
      </trkpt>
      <trkpt lat="44.41904" lon="3.20106">
        <ele>918.40002441406</ele>
        <time>2019-05-24T17:08:59Z</time>
      </trkpt>
      <trkpt lat="44.41911" lon="3.20111">
        <ele>918</ele>
        <time>2019-05-24T17:09:02Z</time>
      </trkpt>
      <trkpt lat="44.41912" lon="3.20113">
        <ele>917.79998779297</ele>
        <time>2019-05-24T17:09:03Z</time>
      </trkpt>
      <trkpt lat="44.41914" lon="3.20119">
        <ele>917.59997558594</ele>
        <time>2019-05-24T17:09:05Z</time>
      </trkpt>
      <trkpt lat="44.41917" lon="3.20124">
        <ele>917.40002441406</ele>
        <time>2019-05-24T17:09:07Z</time>
      </trkpt>
      <trkpt lat="44.41924" lon="3.20135">
        <ele>917</ele>
        <time>2019-05-24T17:09:11Z</time>
      </trkpt>
      <trkpt lat="44.41932" lon="3.20143">
        <ele>916.59997558594</ele>
        <time>2019-05-24T17:09:16Z</time>
      </trkpt>
      <trkpt lat="44.4194" lon="3.20148">
        <ele>915.79998779297</ele>
        <time>2019-05-24T17:09:23Z</time>
      </trkpt>
      <trkpt lat="44.41942" lon="3.20151">
        <ele>915.79998779297</ele>
        <time>2019-05-24T17:09:25Z</time>
      </trkpt>
      <trkpt lat="44.41943" lon="3.20152">
        <ele>915.59997558594</ele>
        <time>2019-05-24T17:09:26Z</time>
      </trkpt>
      <trkpt lat="44.41951" lon="3.20155">
        <ele>915.40002441406</ele>
        <time>2019-05-24T17:09:30Z</time>
      </trkpt>
      <trkpt lat="44.41955" lon="3.20158">
        <ele>915.40002441406</ele>
        <time>2019-05-24T17:09:32Z</time>
      </trkpt>
      <trkpt lat="44.41962" lon="3.20163">
        <ele>915</ele>
        <time>2019-05-24T17:09:35Z</time>
      </trkpt>
      <trkpt lat="44.41965" lon="3.20165">
        <ele>914.59997558594</ele>
        <time>2019-05-24T17:09:37Z</time>
      </trkpt>
      <trkpt lat="44.41971" lon="3.2017">
        <ele>913.79998779297</ele>
        <time>2019-05-24T17:09:43Z</time>
      </trkpt>
      <trkpt lat="44.41981" lon="3.20174">
        <ele>913</ele>
        <time>2019-05-24T17:09:48Z</time>
      </trkpt>
      <trkpt lat="44.42029" lon="3.20212">
        <ele>904</ele>
        <time>2019-05-24T17:11:01Z</time>
      </trkpt>
      <trkpt lat="44.42031" lon="3.20213">
        <ele>903.59997558594</ele>
        <time>2019-05-24T17:11:03Z</time>
      </trkpt>
      <trkpt lat="44.42098" lon="3.20237">
        <ele>896</ele>
        <time>2019-05-24T17:12:14Z</time>
      </trkpt>
      <trkpt lat="44.421" lon="3.20238">
        <ele>896</ele>
        <time>2019-05-24T17:12:15Z</time>
      </trkpt>
      <trkpt lat="44.42102" lon="3.20239">
        <ele>896</ele>
        <time>2019-05-24T17:12:16Z</time>
      </trkpt>
      <trkpt lat="44.42104" lon="3.20239">
        <ele>896</ele>
        <time>2019-05-24T17:12:17Z</time>
      </trkpt>
      <trkpt lat="44.42107" lon="3.20238">
        <ele>895.79998779297</ele>
        <time>2019-05-24T17:12:19Z</time>
      </trkpt>
      <trkpt lat="44.42113" lon="3.20241">
        <ele>895.59997558594</ele>
        <time>2019-05-24T17:12:22Z</time>
      </trkpt>
      <trkpt lat="44.42115" lon="3.20243">
        <ele>895.40002441406</ele>
        <time>2019-05-24T17:12:23Z</time>
      </trkpt>
      <trkpt lat="44.42124" lon="3.20246">
        <ele>895</ele>
        <time>2019-05-24T17:12:27Z</time>
      </trkpt>
      <trkpt lat="44.42132" lon="3.20253">
        <ele>894.20001220703</ele>
        <time>2019-05-24T17:12:31Z</time>
      </trkpt>
      <trkpt lat="44.42136" lon="3.20254">
        <ele>893.59997558594</ele>
        <time>2019-05-24T17:12:34Z</time>
      </trkpt>
      <trkpt lat="44.4214" lon="3.20253">
        <ele>893.59997558594</ele>
        <time>2019-05-24T17:12:36Z</time>
      </trkpt>
      <trkpt lat="44.42151" lon="3.2024">
        <ele>892.20001220703</ele>
        <time>2019-05-24T17:12:48Z</time>
      </trkpt>
      <trkpt lat="44.42152" lon="3.20237">
        <ele>892</ele>
        <time>2019-05-24T17:12:49Z</time>
      </trkpt>
      <trkpt lat="44.42153" lon="3.20233">
        <ele>891.79998779297</ele>
        <time>2019-05-24T17:12:51Z</time>
      </trkpt>
      <trkpt lat="44.42155" lon="3.20223">
        <ele>891</ele>
        <time>2019-05-24T17:12:55Z</time>
      </trkpt>
      <trkpt lat="44.42156" lon="3.20216">
        <ele>890.40002441406</ele>
        <time>2019-05-24T17:12:58Z</time>
      </trkpt>
      <trkpt lat="44.42178" lon="3.20204">
        <ele>884.59997558594</ele>
        <time>2019-05-24T17:13:29Z</time>
      </trkpt>
      <trkpt lat="44.42182" lon="3.20204">
        <ele>884.20001220703</ele>
        <time>2019-05-24T17:13:32Z</time>
      </trkpt>
      <trkpt lat="44.42187" lon="3.20203">
        <ele>883.79998779297</ele>
        <time>2019-05-24T17:13:35Z</time>
      </trkpt>
      <trkpt lat="44.42189" lon="3.20203">
        <ele>883.59997558594</ele>
        <time>2019-05-24T17:13:36Z</time>
      </trkpt>
      <trkpt lat="44.42191" lon="3.20203">
        <ele>883.40002441406</ele>
        <time>2019-05-24T17:13:37Z</time>
      </trkpt>
      <trkpt lat="44.422" lon="3.20199">
        <ele>883</ele>
        <time>2019-05-24T17:13:41Z</time>
      </trkpt>
      <trkpt lat="44.42205" lon="3.20198">
        <ele>882.59997558594</ele>
        <time>2019-05-24T17:13:43Z</time>
      </trkpt>
      <trkpt lat="44.42207" lon="3.20197">
        <ele>882.59997558594</ele>
        <time>2019-05-24T17:13:44Z</time>
      </trkpt>
      <trkpt lat="44.4221" lon="3.20197">
        <ele>882.59997558594</ele>
        <time>2019-05-24T17:13:45Z</time>
      </trkpt>
      <trkpt lat="44.42213" lon="3.20196">
        <ele>882.20001220703</ele>
        <time>2019-05-24T17:13:47Z</time>
      </trkpt>
      <trkpt lat="44.42241" lon="3.20148">
        <ele>858.40002441406</ele>
        <time>2019-05-24T17:16:08Z</time>
      </trkpt>
      <trkpt lat="44.42239" lon="3.20146">
        <ele>858</ele>
        <time>2019-05-24T17:16:10Z</time>
      </trkpt>
      <trkpt lat="44.42236" lon="3.20144">
        <ele>857.59997558594</ele>
        <time>2019-05-24T17:16:12Z</time>
      </trkpt>
      <trkpt lat="44.42233" lon="3.20143">
        <ele>857.20001220703</ele>
        <time>2019-05-24T17:16:14Z</time>
      </trkpt>
      <trkpt lat="44.4223" lon="3.20142">
        <ele>856.79998779297</ele>
        <time>2019-05-24T17:16:16Z</time>
      </trkpt>
      <trkpt lat="44.42183" lon="3.2011">
        <ele>841.59997558594</ele>
        <time>2019-05-24T17:17:24Z</time>
      </trkpt>
      <trkpt lat="44.4218" lon="3.20108">
        <ele>841.20001220703</ele>
        <time>2019-05-24T17:17:25Z</time>
      </trkpt>
      <trkpt lat="44.42171" lon="3.20104">
        <ele>839.59997558594</ele>
        <time>2019-05-24T17:17:29Z</time>
      </trkpt>
      <trkpt lat="44.42171" lon="3.20104">
        <ele>839.20001220703</ele>
        <time>2019-05-24T17:17:30Z</time>
      </trkpt>
      <trkpt lat="44.42175" lon="3.20092">
        <ele>827</ele>
        <time>2019-05-24T17:18:20Z</time>
      </trkpt>
      <trkpt lat="44.42177" lon="3.20091">
        <ele>826.79998779297</ele>
        <time>2019-05-24T17:18:22Z</time>
      </trkpt>
      <trkpt lat="44.42222" lon="3.20083">
        <ele>814.79998779297</ele>
        <time>2019-05-24T17:21:56Z</time>
      </trkpt>
      <trkpt lat="44.4222" lon="3.20083">
        <ele>814.40002441406</ele>
        <time>2019-05-24T17:21:58Z</time>
      </trkpt>
      <trkpt lat="44.4222" lon="3.20082">
        <ele>813.79998779297</ele>
        <time>2019-05-24T17:22:00Z</time>
      </trkpt>
      <trkpt lat="44.42218" lon="3.20081">
        <ele>812.59997558594</ele>
        <time>2019-05-24T17:22:04Z</time>
      </trkpt>
      <trkpt lat="44.42217" lon="3.20081">
        <ele>812.20001220703</ele>
        <time>2019-05-24T17:22:05Z</time>
      </trkpt>
      <trkpt lat="44.42217" lon="3.20078">
        <ele>811.20001220703</ele>
        <time>2019-05-24T17:22:09Z</time>
      </trkpt>
      <trkpt lat="44.42236" lon="3.20038">
        <ele>793.40002441406</ele>
        <time>2019-05-24T17:23:02Z</time>
      </trkpt>
      <trkpt lat="44.42228" lon="3.20031">
        <ele>791.40002441406</ele>
        <time>2019-05-24T17:23:06Z</time>
      </trkpt>
      <trkpt lat="44.42226" lon="3.20027">
        <ele>790</ele>
        <time>2019-05-24T17:23:09Z</time>
      </trkpt>
      <trkpt lat="44.42208" lon="3.20011">
        <ele>784.40002441406</ele>
        <time>2019-05-24T17:23:20Z</time>
      </trkpt>
      <trkpt lat="44.42206" lon="3.20011">
        <ele>783.40002441406</ele>
        <time>2019-05-24T17:23:22Z</time>
      </trkpt>
      <trkpt lat="44.42117" lon="3.19956">
        <ele>753.40002441406</ele>
        <time>2019-05-24T17:26:41Z</time>
      </trkpt>
      <trkpt lat="44.42118" lon="3.19952">
        <ele>753.40002441406</ele>
        <time>2019-05-24T17:26:43Z</time>
      </trkpt>
      <trkpt lat="44.42119" lon="3.1995">
        <ele>753.40002441406</ele>
        <time>2019-05-24T17:26:44Z</time>
      </trkpt>
      <trkpt lat="44.42121" lon="3.19883">
        <ele>743</ele>
        <time>2019-05-24T17:27:52Z</time>
      </trkpt>
      <trkpt lat="44.42119" lon="3.1988">
        <ele>742.79998779297</ele>
        <time>2019-05-24T17:27:53Z</time>
      </trkpt>
      <trkpt lat="44.42118" lon="3.19877">
        <ele>742.59997558594</ele>
        <time>2019-05-24T17:27:54Z</time>
      </trkpt>
      <trkpt lat="44.42117" lon="3.19872">
        <ele>742</ele>
        <time>2019-05-24T17:27:56Z</time>
      </trkpt>
      <trkpt lat="44.42116" lon="3.19869">
        <ele>741.59997558594</ele>
        <time>2019-05-24T17:27:57Z</time>
      </trkpt>
      <trkpt lat="44.42111" lon="3.19859">
        <ele>740.20001220703</ele>
        <time>2019-05-24T17:28:01Z</time>
      </trkpt>
      <trkpt lat="44.4211" lon="3.19854">
        <ele>739</ele>
        <time>2019-05-24T17:28:04Z</time>
      </trkpt>
      <trkpt lat="44.42109" lon="3.19852">
        <ele>738.79998779297</ele>
        <time>2019-05-24T17:28:05Z</time>
      </trkpt>
      <trkpt lat="44.42109" lon="3.19837">
        <ele>736.59997558594</ele>
        <time>2019-05-24T17:28:10Z</time>
      </trkpt>
      <trkpt lat="44.42109" lon="3.19826">
        <ele>735.20001220703</ele>
        <time>2019-05-24T17:28:13Z</time>
      </trkpt>
      <trkpt lat="44.42111" lon="3.19817">
        <ele>734.40002441406</ele>
        <time>2019-05-24T17:28:15Z</time>
      </trkpt>
      <trkpt lat="44.4211" lon="3.19798">
        <ele>732.59997558594</ele>
        <time>2019-05-24T17:28:19Z</time>
      </trkpt>
      <trkpt lat="44.42113" lon="3.19775">
        <ele>730.20001220703</ele>
        <time>2019-05-24T17:28:24Z</time>
      </trkpt>
      <trkpt lat="44.42111" lon="3.1976">
        <ele>728.59997558594</ele>
        <time>2019-05-24T17:28:27Z</time>
      </trkpt>
      <trkpt lat="44.42107" lon="3.19747">
        <ele>727.40002441406</ele>
        <time>2019-05-24T17:28:29Z</time>
      </trkpt>
      <trkpt lat="44.42095" lon="3.19717">
        <ele>725.40002441406</ele>
        <time>2019-05-24T17:28:33Z</time>
      </trkpt>
      <trkpt lat="44.42082" lon="3.19703">
        <ele>724.59997558594</ele>
        <time>2019-05-24T17:28:35Z</time>
      </trkpt>
      <trkpt lat="44.42074" lon="3.19683">
        <ele>723.20001220703</ele>
        <time>2019-05-24T17:28:38Z</time>
      </trkpt>
      <trkpt lat="44.42072" lon="3.19671">
        <ele>722.20001220703</ele>
        <time>2019-05-24T17:28:41Z</time>
      </trkpt>
      <trkpt lat="44.42071" lon="3.19663">
        <ele>721.40002441406</ele>
        <time>2019-05-24T17:28:43Z</time>
      </trkpt>
      <trkpt lat="44.42069" lon="3.19649">
        <ele>720.59997558594</ele>
        <time>2019-05-24T17:28:45Z</time>
      </trkpt>
      <trkpt lat="44.42073" lon="3.19625">
        <ele>719.20001220703</ele>
        <time>2019-05-24T17:28:48Z</time>
      </trkpt>
      <trkpt lat="44.42076" lon="3.1961">
        <ele>718.20001220703</ele>
        <time>2019-05-24T17:28:50Z</time>
      </trkpt>
      <trkpt lat="44.42076" lon="3.19603">
        <ele>717.79998779297</ele>
        <time>2019-05-24T17:28:51Z</time>
      </trkpt>
      <trkpt lat="44.42075" lon="3.19592">
        <ele>717</ele>
        <time>2019-05-24T17:28:53Z</time>
      </trkpt>
      <trkpt lat="44.42075" lon="3.19586">
        <ele>716</ele>
        <time>2019-05-24T17:28:55Z</time>
      </trkpt>
      <trkpt lat="44.4208" lon="3.19585">
        <ele>715.79998779297</ele>
        <time>2019-05-24T17:28:56Z</time>
      </trkpt>
      <trkpt lat="44.42084" lon="3.19584">
        <ele>715.59997558594</ele>
        <time>2019-05-24T17:28:57Z</time>
      </trkpt>
      <trkpt lat="44.42091" lon="3.19589">
        <ele>715</ele>
        <time>2019-05-24T17:28:59Z</time>
      </trkpt>
      <trkpt lat="44.42112" lon="3.19609">
        <ele>713.40002441406</ele>
        <time>2019-05-24T17:29:04Z</time>
      </trkpt>
      <trkpt lat="44.42129" lon="3.19622">
        <ele>712.59997558594</ele>
        <time>2019-05-24T17:29:07Z</time>
      </trkpt>
      <trkpt lat="44.42135" lon="3.19627">
        <ele>712.20001220703</ele>
        <time>2019-05-24T17:29:08Z</time>
      </trkpt>
      <trkpt lat="44.42139" lon="3.19634">
        <ele>712</ele>
        <time>2019-05-24T17:29:09Z</time>
      </trkpt>
      <trkpt lat="44.42149" lon="3.19651">
        <ele>711.20001220703</ele>
        <time>2019-05-24T17:29:12Z</time>
      </trkpt>
      <trkpt lat="44.4216" lon="3.19671">
        <ele>710.20001220703</ele>
        <time>2019-05-24T17:29:17Z</time>
      </trkpt>
      <trkpt lat="44.42174" lon="3.19683">
        <ele>709.40002441406</ele>
        <time>2019-05-24T17:29:22Z</time>
      </trkpt>
      <trkpt lat="44.42184" lon="3.19688">
        <ele>708.79998779297</ele>
        <time>2019-05-24T17:29:26Z</time>
      </trkpt>
      <trkpt lat="44.422" lon="3.19693">
        <ele>708.20001220703</ele>
        <time>2019-05-24T17:29:31Z</time>
      </trkpt>
      <trkpt lat="44.42215" lon="3.19695">
        <ele>707.79998779297</ele>
        <time>2019-05-24T17:29:36Z</time>
      </trkpt>
      <trkpt lat="44.42228" lon="3.19698">
        <ele>707.59997558594</ele>
        <time>2019-05-24T17:29:42Z</time>
      </trkpt>
      <trkpt lat="44.42236" lon="3.19702">
        <ele>707.79998779297</ele>
        <time>2019-05-24T17:29:47Z</time>
      </trkpt>
      <trkpt lat="44.42248" lon="3.19706">
        <ele>708</ele>
        <time>2019-05-24T17:29:54Z</time>
      </trkpt>
      <trkpt lat="44.42259" lon="3.19709">
        <ele>708.59997558594</ele>
        <time>2019-05-24T17:30:01Z</time>
      </trkpt>
      <trkpt lat="44.4227" lon="3.19713">
        <ele>709</ele>
        <time>2019-05-24T17:30:07Z</time>
      </trkpt>
      <trkpt lat="44.4228" lon="3.19717">
        <ele>709.40002441406</ele>
        <time>2019-05-24T17:30:13Z</time>
      </trkpt>
      <trkpt lat="44.42292" lon="3.19722">
        <ele>710</ele>
        <time>2019-05-24T17:30:20Z</time>
      </trkpt>
      <trkpt lat="44.42303" lon="3.19725">
        <ele>710.59997558594</ele>
        <time>2019-05-24T17:30:26Z</time>
      </trkpt>
      <trkpt lat="44.42315" lon="3.1973">
        <ele>711.40002441406</ele>
        <time>2019-05-24T17:30:33Z</time>
      </trkpt>
      <trkpt lat="44.42326" lon="3.19735">
        <ele>711.79998779297</ele>
        <time>2019-05-24T17:30:40Z</time>
      </trkpt>
      <trkpt lat="44.42337" lon="3.1974">
        <ele>712.79998779297</ele>
        <time>2019-05-24T17:30:47Z</time>
      </trkpt>
      <trkpt lat="44.42351" lon="3.19747">
        <ele>713.40002441406</ele>
        <time>2019-05-24T17:30:54Z</time>
      </trkpt>
      <trkpt lat="44.42364" lon="3.19755">
        <ele>714.20001220703</ele>
        <time>2019-05-24T17:31:01Z</time>
      </trkpt>
      <trkpt lat="44.4238" lon="3.19767">
        <ele>714.79998779297</ele>
        <time>2019-05-24T17:31:09Z</time>
      </trkpt>
      <trkpt lat="44.42394" lon="3.19776">
        <ele>715</ele>
        <time>2019-05-24T17:31:14Z</time>
      </trkpt>
      <trkpt lat="44.42408" lon="3.19788">
        <ele>715.20001220703</ele>
        <time>2019-05-24T17:31:18Z</time>
      </trkpt>
      <trkpt lat="44.42412" lon="3.1979">
        <ele>715.20001220703</ele>
        <time>2019-05-24T17:31:19Z</time>
      </trkpt>
      <trkpt lat="44.42435" lon="3.19804">
        <ele>715.20001220703</ele>
        <time>2019-05-24T17:31:23Z</time>
      </trkpt>
      <trkpt lat="44.42467" lon="3.19823">
        <ele>714.59997558594</ele>
        <time>2019-05-24T17:31:27Z</time>
      </trkpt>
      <trkpt lat="44.42493" lon="3.19844">
        <ele>714.20001220703</ele>
        <time>2019-05-24T17:31:30Z</time>
      </trkpt>
      <trkpt lat="44.42499" lon="3.19852">
        <ele>714</ele>
        <time>2019-05-24T17:31:31Z</time>
      </trkpt>
      <trkpt lat="44.42505" lon="3.19861">
        <ele>714</ele>
        <time>2019-05-24T17:31:32Z</time>
      </trkpt>
      <trkpt lat="44.42512" lon="3.19879">
        <ele>714.20001220703</ele>
        <time>2019-05-24T17:31:34Z</time>
      </trkpt>
      <trkpt lat="44.4252" lon="3.19905">
        <ele>714.59997558594</ele>
        <time>2019-05-24T17:31:38Z</time>
      </trkpt>
      <trkpt lat="44.42523" lon="3.19913">
        <ele>714.79998779297</ele>
        <time>2019-05-24T17:31:41Z</time>
      </trkpt>
      <trkpt lat="44.42523" lon="3.19915">
        <ele>715</ele>
        <time>2019-05-24T17:31:42Z</time>
      </trkpt>
      <trkpt lat="44.42523" lon="3.19917">
        <ele>715</ele>
        <time>2019-05-24T17:31:44Z</time>
      </trkpt>
      <trkpt lat="44.42535" lon="3.19951">
        <ele>716.20001220703</ele>
        <time>2019-05-24T17:32:04Z</time>
      </trkpt>
      <trkpt lat="44.42536" lon="3.19953">
        <ele>716.40002441406</ele>
        <time>2019-05-24T17:32:05Z</time>
      </trkpt>
      <trkpt lat="44.42538" lon="3.19954">
        <ele>716.59997558594</ele>
        <time>2019-05-24T17:32:07Z</time>
      </trkpt>
      <trkpt lat="44.42544" lon="3.19966">
        <ele>717</ele>
        <time>2019-05-24T17:32:15Z</time>
      </trkpt>
      <trkpt lat="44.42546" lon="3.19968">
        <ele>717</ele>
        <time>2019-05-24T17:32:17Z</time>
      </trkpt>
      <trkpt lat="44.4255" lon="3.19972">
        <ele>717.40002441406</ele>
        <time>2019-05-24T17:32:20Z</time>
      </trkpt>
      <trkpt lat="44.42554" lon="3.19977">
        <ele>717.79998779297</ele>
        <time>2019-05-24T17:32:24Z</time>
      </trkpt>
      <trkpt lat="44.4256" lon="3.19984">
        <ele>718.59997558594</ele>
        <time>2019-05-24T17:32:29Z</time>
      </trkpt>
      <trkpt lat="44.4257" lon="3.19994">
        <ele>719.59997558594</ele>
        <time>2019-05-24T17:32:37Z</time>
      </trkpt>
      <trkpt lat="44.42578" lon="3.20004">
        <ele>720</ele>
        <time>2019-05-24T17:32:45Z</time>
      </trkpt>
      <trkpt lat="44.42587" lon="3.20019">
        <ele>721</ele>
        <time>2019-05-24T17:32:54Z</time>
      </trkpt>
      <trkpt lat="44.42587" lon="3.20021">
        <ele>721.20001220703</ele>
        <time>2019-05-24T17:32:55Z</time>
      </trkpt>
      <trkpt lat="44.42593" lon="3.20028">
        <ele>721.40002441406</ele>
        <time>2019-05-24T17:32:59Z</time>
      </trkpt>
      <trkpt lat="44.42601" lon="3.2004">
        <ele>722.20001220703</ele>
        <time>2019-05-24T17:33:06Z</time>
      </trkpt>
      <trkpt lat="44.42608" lon="3.2005">
        <ele>722.79998779297</ele>
        <time>2019-05-24T17:33:11Z</time>
      </trkpt>
      <trkpt lat="44.42614" lon="3.20064">
        <ele>723.20001220703</ele>
        <time>2019-05-24T17:33:16Z</time>
      </trkpt>
      <trkpt lat="44.42621" lon="3.20079">
        <ele>723.59997558594</ele>
        <time>2019-05-24T17:33:22Z</time>
      </trkpt>
      <trkpt lat="44.42629" lon="3.20091">
        <ele>724.20001220703</ele>
        <time>2019-05-24T17:33:28Z</time>
      </trkpt>
      <trkpt lat="44.42633" lon="3.20101">
        <ele>724.79998779297</ele>
        <time>2019-05-24T17:33:33Z</time>
      </trkpt>
      <trkpt lat="44.42641" lon="3.20115">
        <ele>725.79998779297</ele>
        <time>2019-05-24T17:33:40Z</time>
      </trkpt>
      <trkpt lat="44.42648" lon="3.20129">
        <ele>726.79998779297</ele>
        <time>2019-05-24T17:33:47Z</time>
      </trkpt>
      <trkpt lat="44.42658" lon="3.20144">
        <ele>728</ele>
        <time>2019-05-24T17:33:56Z</time>
      </trkpt>
      <trkpt lat="44.42666" lon="3.20157">
        <ele>728.59997558594</ele>
        <time>2019-05-24T17:34:03Z</time>
      </trkpt>
      <trkpt lat="44.42677" lon="3.20175">
        <ele>729.20001220703</ele>
        <time>2019-05-24T17:34:10Z</time>
      </trkpt>
      <trkpt lat="44.42691" lon="3.20193">
        <ele>729.40002441406</ele>
        <time>2019-05-24T17:34:14Z</time>
      </trkpt>
      <trkpt lat="44.42717" lon="3.20222">
        <ele>729</ele>
        <time>2019-05-24T17:34:19Z</time>
      </trkpt>
      <trkpt lat="44.42723" lon="3.20228">
        <ele>728.79998779297</ele>
        <time>2019-05-24T17:34:20Z</time>
      </trkpt>
      <trkpt lat="44.42741" lon="3.20251">
        <ele>728.40002441406</ele>
        <time>2019-05-24T17:34:23Z</time>
      </trkpt>
      <trkpt lat="44.42746" lon="3.20261">
        <ele>728.20001220703</ele>
        <time>2019-05-24T17:34:24Z</time>
      </trkpt>
      <trkpt lat="44.42761" lon="3.20296">
        <ele>727.59997558594</ele>
        <time>2019-05-24T17:34:27Z</time>
      </trkpt>
      <trkpt lat="44.42791" lon="3.20368">
        <ele>726</ele>
        <time>2019-05-24T17:34:32Z</time>
      </trkpt>
      <trkpt lat="44.42813" lon="3.20425">
        <ele>724.59997558594</ele>
        <time>2019-05-24T17:34:36Z</time>
      </trkpt>
      <trkpt lat="44.42819" lon="3.20458">
        <ele>723.59997558594</ele>
        <time>2019-05-24T17:34:39Z</time>
      </trkpt>
      <trkpt lat="44.4282" lon="3.20465">
        <ele>723.20001220703</ele>
        <time>2019-05-24T17:34:40Z</time>
      </trkpt>
      <trkpt lat="44.42818" lon="3.20474">
        <ele>722.59997558594</ele>
        <time>2019-05-24T17:34:42Z</time>
      </trkpt>
      <trkpt lat="44.42815" lon="3.20484">
        <ele>722.20001220703</ele>
        <time>2019-05-24T17:34:44Z</time>
      </trkpt>
      <trkpt lat="44.42813" lon="3.20488">
        <ele>721.79998779297</ele>
        <time>2019-05-24T17:34:45Z</time>
      </trkpt>
      <trkpt lat="44.4281" lon="3.20492">
        <ele>721.59997558594</ele>
        <time>2019-05-24T17:34:46Z</time>
      </trkpt>
      <trkpt lat="44.428" lon="3.205">
        <ele>720.40002441406</ele>
        <time>2019-05-24T17:34:49Z</time>
      </trkpt>
      <trkpt lat="44.42787" lon="3.20508">
        <ele>718.79998779297</ele>
        <time>2019-05-24T17:34:53Z</time>
      </trkpt>
      <trkpt lat="44.42784" lon="3.20511">
        <ele>718.20001220703</ele>
        <time>2019-05-24T17:34:54Z</time>
      </trkpt>
      <trkpt lat="44.42783" lon="3.20515">
        <ele>717.79998779297</ele>
        <time>2019-05-24T17:34:55Z</time>
      </trkpt>
      <trkpt lat="44.42782" lon="3.20523">
        <ele>716.79998779297</ele>
        <time>2019-05-24T17:34:57Z</time>
      </trkpt>
      <trkpt lat="44.42782" lon="3.20539">
        <ele>715.40002441406</ele>
        <time>2019-05-24T17:35:00Z</time>
      </trkpt>
      <trkpt lat="44.42782" lon="3.20545">
        <ele>715</ele>
        <time>2019-05-24T17:35:01Z</time>
      </trkpt>
      <trkpt lat="44.42782" lon="3.20551">
        <ele>714.59997558594</ele>
        <time>2019-05-24T17:35:02Z</time>
      </trkpt>
      <trkpt lat="44.42779" lon="3.20562">
        <ele>713.79998779297</ele>
        <time>2019-05-24T17:35:04Z</time>
      </trkpt>
      <trkpt lat="44.42779" lon="3.20568">
        <ele>713.59997558594</ele>
        <time>2019-05-24T17:35:05Z</time>
      </trkpt>
      <trkpt lat="44.4278" lon="3.20579">
        <ele>712.79998779297</ele>
        <time>2019-05-24T17:35:07Z</time>
      </trkpt>
      <trkpt lat="44.42786" lon="3.20594">
        <ele>711.40002441406</ele>
        <time>2019-05-24T17:35:11Z</time>
      </trkpt>
      <trkpt lat="44.42794" lon="3.20609">
        <ele>710</ele>
        <time>2019-05-24T17:35:15Z</time>
      </trkpt>
      <trkpt lat="44.42797" lon="3.20614">
        <ele>709.79998779297</ele>
        <time>2019-05-24T17:35:16Z</time>
      </trkpt>
      <trkpt lat="44.42799" lon="3.20624">
        <ele>709</ele>
        <time>2019-05-24T17:35:18Z</time>
      </trkpt>
      <trkpt lat="44.42802" lon="3.2064">
        <ele>708</ele>
        <time>2019-05-24T17:35:21Z</time>
      </trkpt>
      <trkpt lat="44.42802" lon="3.20644">
        <ele>707.59997558594</ele>
        <time>2019-05-24T17:35:22Z</time>
      </trkpt>
      <trkpt lat="44.42803" lon="3.20661">
        <ele>706.20001220703</ele>
        <time>2019-05-24T17:35:26Z</time>
      </trkpt>
      <trkpt lat="44.42804" lon="3.20665">
        <ele>705.79998779297</ele>
        <time>2019-05-24T17:35:27Z</time>
      </trkpt>
      <trkpt lat="44.42804" lon="3.20676">
        <ele>704.79998779297</ele>
        <time>2019-05-24T17:35:30Z</time>
      </trkpt>
      <trkpt lat="44.42804" lon="3.20679">
        <ele>704.40002441406</ele>
        <time>2019-05-24T17:35:31Z</time>
      </trkpt>
      <trkpt lat="44.42797" lon="3.20705">
        <ele>702.20001220703</ele>
        <time>2019-05-24T17:35:37Z</time>
      </trkpt>
      <trkpt lat="44.42789" lon="3.2073">
        <ele>700.79998779297</ele>
        <time>2019-05-24T17:35:42Z</time>
      </trkpt>
      <trkpt lat="44.42787" lon="3.20736">
        <ele>700.20001220703</ele>
        <time>2019-05-24T17:35:45Z</time>
      </trkpt>
      <trkpt lat="44.42761" lon="3.20802">
        <ele>682.59997558594</ele>
        <time>2019-05-24T17:37:21Z</time>
      </trkpt>
      <trkpt lat="44.42758" lon="3.20815">
        <ele>682.20001220703</ele>
        <time>2019-05-24T17:37:25Z</time>
      </trkpt>
      <trkpt lat="44.42757" lon="3.20817">
        <ele>682</ele>
        <time>2019-05-24T17:37:26Z</time>
      </trkpt>
      <trkpt lat="44.42756" lon="3.20825">
        <ele>681.59997558594</ele>
        <time>2019-05-24T17:37:29Z</time>
      </trkpt>
      <trkpt lat="44.42756" lon="3.20827">
        <ele>681.40002441406</ele>
        <time>2019-05-24T17:37:30Z</time>
      </trkpt>
      <trkpt lat="44.42755" lon="3.20831">
        <ele>681</ele>
        <time>2019-05-24T17:37:32Z</time>
      </trkpt>
      <trkpt lat="44.42834" lon="3.20936">
        <ele>664.59997558594</ele>
        <time>2019-05-24T17:40:40Z</time>
      </trkpt>
      <trkpt lat="44.42836" lon="3.20937">
        <ele>664.59997558594</ele>
        <time>2019-05-24T17:40:41Z</time>
      </trkpt>
      <trkpt lat="44.42837" lon="3.20939">
        <ele>664</ele>
        <time>2019-05-24T17:40:44Z</time>
      </trkpt>
      <trkpt lat="44.42876" lon="3.20982">
        <ele>652.59997558594</ele>
        <time>2019-05-24T17:41:45Z</time>
      </trkpt>
      <trkpt lat="44.42877" lon="3.20983">
        <ele>652.40002441406</ele>
        <time>2019-05-24T17:41:46Z</time>
      </trkpt>
      <trkpt lat="44.42877" lon="3.20984">
        <ele>652.20001220703</ele>
        <time>2019-05-24T17:41:47Z</time>
      </trkpt>
      <trkpt lat="44.42912" lon="3.21062">
        <ele>638</ele>
        <time>2019-05-24T17:43:07Z</time>
      </trkpt>
      <trkpt lat="44.42913" lon="3.21064">
        <ele>637.79998779297</ele>
        <time>2019-05-24T17:43:09Z</time>
      </trkpt>
      <trkpt lat="44.42929" lon="3.21088">
        <ele>635.20001220703</ele>
        <time>2019-05-24T17:43:33Z</time>
      </trkpt>
      <trkpt lat="44.42932" lon="3.2109">
        <ele>635</ele>
        <time>2019-05-24T17:43:35Z</time>
      </trkpt>
      <trkpt lat="44.42936" lon="3.21098">
        <ele>634.20001220703</ele>
        <time>2019-05-24T17:43:45Z</time>
      </trkpt>
      <trkpt lat="44.42937" lon="3.211">
        <ele>634</ele>
        <time>2019-05-24T17:43:46Z</time>
      </trkpt>
      <trkpt lat="44.42937" lon="3.21101">
        <ele>633.79998779297</ele>
        <time>2019-05-24T17:43:47Z</time>
      </trkpt>
      <trkpt lat="44.42941" lon="3.21107">
        <ele>633.59997558594</ele>
        <time>2019-05-24T17:43:50Z</time>
      </trkpt>
      <trkpt lat="44.4295" lon="3.21122">
        <ele>632.59997558594</ele>
        <time>2019-05-24T17:43:56Z</time>
      </trkpt>
      <trkpt lat="44.42958" lon="3.21127">
        <ele>631.79998779297</ele>
        <time>2019-05-24T17:44:01Z</time>
      </trkpt>
      <trkpt lat="44.42968" lon="3.21133">
        <ele>631.20001220703</ele>
        <time>2019-05-24T17:44:06Z</time>
      </trkpt>
      <trkpt lat="44.42984" lon="3.21145">
        <ele>630.59997558594</ele>
        <time>2019-05-24T17:44:10Z</time>
      </trkpt>
      <trkpt lat="44.42992" lon="3.21151">
        <ele>630.40002441406</ele>
        <time>2019-05-24T17:44:12Z</time>
      </trkpt>
      <trkpt lat="44.43004" lon="3.21157">
        <ele>629.79998779297</ele>
        <time>2019-05-24T17:44:15Z</time>
      </trkpt>
      <trkpt lat="44.43028" lon="3.21166">
        <ele>629.20001220703</ele>
        <time>2019-05-24T17:44:19Z</time>
      </trkpt>
      <trkpt lat="44.43042" lon="3.21171">
        <ele>628.59997558594</ele>
        <time>2019-05-24T17:44:21Z</time>
      </trkpt>
      <trkpt lat="44.43057" lon="3.21174">
        <ele>628</ele>
        <time>2019-05-24T17:44:23Z</time>
      </trkpt>
      <trkpt lat="44.43078" lon="3.21179">
        <ele>627</ele>
        <time>2019-05-24T17:44:26Z</time>
      </trkpt>
      <trkpt lat="44.43091" lon="3.2118">
        <ele>626.40002441406</ele>
        <time>2019-05-24T17:44:28Z</time>
      </trkpt>
      <trkpt lat="44.43105" lon="3.2118">
        <ele>625.59997558594</ele>
        <time>2019-05-24T17:44:31Z</time>
      </trkpt>
      <trkpt lat="44.4311" lon="3.21184">
        <ele>625</ele>
        <time>2019-05-24T17:44:33Z</time>
      </trkpt>
      <trkpt lat="44.43113" lon="3.21193">
        <ele>624.59997558594</ele>
        <time>2019-05-24T17:44:35Z</time>
      </trkpt>
      <trkpt lat="44.43112" lon="3.21215">
        <ele>623.79998779297</ele>
        <time>2019-05-24T17:44:39Z</time>
      </trkpt>
      <trkpt lat="44.43115" lon="3.21227">
        <ele>623.40002441406</ele>
        <time>2019-05-24T17:44:41Z</time>
      </trkpt>
      <trkpt lat="44.43117" lon="3.21233">
        <ele>623</ele>
        <time>2019-05-24T17:44:42Z</time>
      </trkpt>
      <trkpt lat="44.43119" lon="3.2124">
        <ele>622.59997558594</ele>
        <time>2019-05-24T17:44:43Z</time>
      </trkpt>
      <trkpt lat="44.43122" lon="3.21259">
        <ele>621.40002441406</ele>
        <time>2019-05-24T17:44:46Z</time>
      </trkpt>
      <trkpt lat="44.43127" lon="3.21287">
        <ele>618.79998779297</ele>
        <time>2019-05-24T17:44:52Z</time>
      </trkpt>
      <trkpt lat="44.43128" lon="3.21289">
        <ele>618.20001220703</ele>
        <time>2019-05-24T17:44:53Z</time>
      </trkpt>
      <trkpt lat="44.43133" lon="3.21292">
        <ele>616.79998779297</ele>
        <time>2019-05-24T17:44:56Z</time>
      </trkpt>
      <trkpt lat="44.43142" lon="3.21298">
        <ele>614.79998779297</ele>
        <time>2019-05-24T17:45:00Z</time>
      </trkpt>
      <trkpt lat="44.43157" lon="3.21307">
        <ele>612</ele>
        <time>2019-05-24T17:45:06Z</time>
      </trkpt>
      <trkpt lat="44.43167" lon="3.21312">
        <ele>610.40002441406</ele>
        <time>2019-05-24T17:45:09Z</time>
      </trkpt>
      <trkpt lat="44.43173" lon="3.21312">
        <ele>609.59997558594</ele>
        <time>2019-05-24T17:45:10Z</time>
      </trkpt>
      <trkpt lat="44.43178" lon="3.21313">
        <ele>609</ele>
        <time>2019-05-24T17:45:11Z</time>
      </trkpt>
      <trkpt lat="44.43193" lon="3.21322">
        <ele>607.20001220703</ele>
        <time>2019-05-24T17:45:14Z</time>
      </trkpt>
      <trkpt lat="44.43203" lon="3.21329">
        <ele>606</ele>
        <time>2019-05-24T17:45:16Z</time>
      </trkpt>
      <trkpt lat="44.4321" lon="3.21338">
        <ele>604.79998779297</ele>
        <time>2019-05-24T17:45:18Z</time>
      </trkpt>
      <trkpt lat="44.43213" lon="3.21342">
        <ele>604.40002441406</ele>
        <time>2019-05-24T17:45:19Z</time>
      </trkpt>
      <trkpt lat="44.43225" lon="3.21363">
        <ele>601.40002441406</ele>
        <time>2019-05-24T17:45:24Z</time>
      </trkpt>
      <trkpt lat="44.43228" lon="3.21384">
        <ele>598.59997558594</ele>
        <time>2019-05-24T17:45:29Z</time>
      </trkpt>
      <trkpt lat="44.4323" lon="3.21394">
        <ele>595.40002441406</ele>
        <time>2019-05-24T17:45:35Z</time>
      </trkpt>
      <trkpt lat="44.43232" lon="3.21442">
        <ele>574.20001220703</ele>
        <time>2019-05-24T17:46:32Z</time>
      </trkpt>
      <trkpt lat="44.4323" lon="3.21446">
        <ele>573.59997558594</ele>
        <time>2019-05-24T17:46:34Z</time>
      </trkpt>
      <trkpt lat="44.43217" lon="3.2145">
        <ele>572.40002441406</ele>
        <time>2019-05-24T17:46:38Z</time>
      </trkpt>
      <trkpt lat="44.43201" lon="3.21454">
        <ele>571.40002441406</ele>
        <time>2019-05-24T17:46:43Z</time>
      </trkpt>
      <trkpt lat="44.43179" lon="3.21465">
        <ele>570.40002441406</ele>
        <time>2019-05-24T17:46:50Z</time>
      </trkpt>
      <trkpt lat="44.43158" lon="3.21472">
        <ele>569.79998779297</ele>
        <time>2019-05-24T17:46:57Z</time>
      </trkpt>
      <trkpt lat="44.43145" lon="3.21482">
        <ele>568.79998779297</ele>
        <time>2019-05-24T17:47:02Z</time>
      </trkpt>
      <trkpt lat="44.43132" lon="3.21498">
        <ele>567.59997558594</ele>
        <time>2019-05-24T17:47:08Z</time>
      </trkpt>
      <trkpt lat="44.43122" lon="3.21512">
        <ele>566.40002441406</ele>
        <time>2019-05-24T17:47:15Z</time>
      </trkpt>
      <trkpt lat="44.43121" lon="3.21513">
        <ele>566.20001220703</ele>
        <time>2019-05-24T17:47:16Z</time>
      </trkpt>
      <trkpt lat="44.4312" lon="3.21515">
        <ele>565.59997558594</ele>
        <time>2019-05-24T17:47:19Z</time>
      </trkpt>
      <trkpt lat="44.43129" lon="3.21516">
        <ele>562</ele>
        <time>2019-05-24T17:55:45Z</time>
      </trkpt>
      <trkpt lat="44.43132" lon="3.21517">
        <ele>562</ele>
        <time>2019-05-24T17:55:48Z</time>
      </trkpt>
      <trkpt lat="44.43143" lon="3.21508">
        <ele>562.20001220703</ele>
        <time>2019-05-24T17:55:53Z</time>
      </trkpt>
      <trkpt lat="44.43156" lon="3.21493">
        <ele>562</ele>
        <time>2019-05-24T17:55:58Z</time>
      </trkpt>
      <trkpt lat="44.43175" lon="3.21471">
        <ele>562</ele>
        <time>2019-05-24T17:56:04Z</time>
      </trkpt>
      <trkpt lat="44.43179" lon="3.21468">
        <ele>562</ele>
        <time>2019-05-24T17:56:05Z</time>
      </trkpt>
      <trkpt lat="44.43186" lon="3.21463">
        <ele>562</ele>
        <time>2019-05-24T17:56:07Z</time>
      </trkpt>
      <trkpt lat="44.43195" lon="3.21459">
        <ele>562</ele>
        <time>2019-05-24T17:56:09Z</time>
      </trkpt>
      <trkpt lat="44.43204" lon="3.21456">
        <ele>561.79998779297</ele>
        <time>2019-05-24T17:56:11Z</time>
      </trkpt>
      <trkpt lat="44.43221" lon="3.21451">
        <ele>561.59997558594</ele>
        <time>2019-05-24T17:56:15Z</time>
      </trkpt>
      <trkpt lat="44.43243" lon="3.21446">
        <ele>561.59997558594</ele>
        <time>2019-05-24T17:56:20Z</time>
      </trkpt>
      <trkpt lat="44.43248" lon="3.21444">
        <ele>561.59997558594</ele>
        <time>2019-05-24T17:56:21Z</time>
      </trkpt>
      <trkpt lat="44.43259" lon="3.21441">
        <ele>561.79998779297</ele>
        <time>2019-05-24T17:56:23Z</time>
      </trkpt>
      <trkpt lat="44.43272" lon="3.21437">
        <ele>562</ele>
        <time>2019-05-24T17:56:25Z</time>
      </trkpt>
      <trkpt lat="44.43287" lon="3.21431">
        <ele>562</ele>
        <time>2019-05-24T17:56:28Z</time>
      </trkpt>
      <trkpt lat="44.43298" lon="3.2143">
        <ele>562</ele>
        <time>2019-05-24T17:56:30Z</time>
      </trkpt>
      <trkpt lat="44.43303" lon="3.21429">
        <ele>562</ele>
        <time>2019-05-24T17:56:31Z</time>
      </trkpt>
      <trkpt lat="44.43313" lon="3.21425">
        <ele>562.20001220703</ele>
        <time>2019-05-24T17:56:33Z</time>
      </trkpt>
      <trkpt lat="44.43318" lon="3.21422">
        <ele>562.20001220703</ele>
        <time>2019-05-24T17:56:34Z</time>
      </trkpt>
      <trkpt lat="44.4334" lon="3.21402">
        <ele>562</ele>
        <time>2019-05-24T17:56:39Z</time>
      </trkpt>
      <trkpt lat="44.43343" lon="3.21396">
        <ele>562</ele>
        <time>2019-05-24T17:56:40Z</time>
      </trkpt>
      <trkpt lat="44.43346" lon="3.2139">
        <ele>562</ele>
        <time>2019-05-24T17:56:41Z</time>
      </trkpt>
      <trkpt lat="44.4335" lon="3.21376">
        <ele>561.79998779297</ele>
        <time>2019-05-24T17:56:43Z</time>
      </trkpt>
      <trkpt lat="44.43351" lon="3.21368">
        <ele>561.59997558594</ele>
        <time>2019-05-24T17:56:44Z</time>
      </trkpt>
      <trkpt lat="44.43352" lon="3.2136">
        <ele>561.59997558594</ele>
        <time>2019-05-24T17:56:45Z</time>
      </trkpt>
      <trkpt lat="44.43353" lon="3.21326">
        <ele>561.20001220703</ele>
        <time>2019-05-24T17:56:49Z</time>
      </trkpt>
      <trkpt lat="44.43351" lon="3.21263">
        <ele>560.79998779297</ele>
        <time>2019-05-24T17:56:56Z</time>
      </trkpt>
      <trkpt lat="44.43348" lon="3.21192">
        <ele>560.20001220703</ele>
        <time>2019-05-24T17:57:04Z</time>
      </trkpt>
      <trkpt lat="44.43346" lon="3.21147">
        <ele>559.79998779297</ele>
        <time>2019-05-24T17:57:09Z</time>
      </trkpt>
      <trkpt lat="44.43343" lon="3.21083">
        <ele>559.20001220703</ele>
        <time>2019-05-24T17:57:16Z</time>
      </trkpt>
      <trkpt lat="44.43342" lon="3.21065">
        <ele>559</ele>
        <time>2019-05-24T17:57:18Z</time>
      </trkpt>
      <trkpt lat="44.43342" lon="3.21046">
        <ele>558.79998779297</ele>
        <time>2019-05-24T17:57:20Z</time>
      </trkpt>
      <trkpt lat="44.43343" lon="3.20984">
        <ele>558.20001220703</ele>
        <time>2019-05-24T17:57:27Z</time>
      </trkpt>
      <trkpt lat="44.43345" lon="3.20949">
        <ele>558</ele>
        <time>2019-05-24T17:57:31Z</time>
      </trkpt>
      <trkpt lat="44.43346" lon="3.20932">
        <ele>557.79998779297</ele>
        <time>2019-05-24T17:57:33Z</time>
      </trkpt>
      <trkpt lat="44.43351" lon="3.20883">
        <ele>557.40002441406</ele>
        <time>2019-05-24T17:57:39Z</time>
      </trkpt>
      <trkpt lat="44.43353" lon="3.20866">
        <ele>557.40002441406</ele>
        <time>2019-05-24T17:57:41Z</time>
      </trkpt>
      <trkpt lat="44.43354" lon="3.2085">
        <ele>557.40002441406</ele>
        <time>2019-05-24T17:57:43Z</time>
      </trkpt>
      <trkpt lat="44.43357" lon="3.20827">
        <ele>557.20001220703</ele>
        <time>2019-05-24T17:57:46Z</time>
      </trkpt>
      <trkpt lat="44.43367" lon="3.20771">
        <ele>556.79998779297</ele>
        <time>2019-05-24T17:57:53Z</time>
      </trkpt>
      <trkpt lat="44.4337" lon="3.20755">
        <ele>556.59997558594</ele>
        <time>2019-05-24T17:57:55Z</time>
      </trkpt>
      <trkpt lat="44.43378" lon="3.20724">
        <ele>556.40002441406</ele>
        <time>2019-05-24T17:57:59Z</time>
      </trkpt>
      <trkpt lat="44.43386" lon="3.20694">
        <ele>556</ele>
        <time>2019-05-24T17:58:03Z</time>
      </trkpt>
      <trkpt lat="44.43392" lon="3.20673">
        <ele>555.79998779297</ele>
        <time>2019-05-24T17:58:06Z</time>
      </trkpt>
      <trkpt lat="44.43407" lon="3.20625">
        <ele>555.20001220703</ele>
        <time>2019-05-24T17:58:13Z</time>
      </trkpt>
      <trkpt lat="44.43423" lon="3.20579">
        <ele>554.79998779297</ele>
        <time>2019-05-24T17:58:20Z</time>
      </trkpt>
      <trkpt lat="44.43433" lon="3.20553">
        <ele>554.40002441406</ele>
        <time>2019-05-24T17:58:24Z</time>
      </trkpt>
      <trkpt lat="44.43438" lon="3.2054">
        <ele>554.40002441406</ele>
        <time>2019-05-24T17:58:26Z</time>
      </trkpt>
      <trkpt lat="44.43458" lon="3.20497">
        <ele>553.79998779297</ele>
        <time>2019-05-24T17:58:33Z</time>
      </trkpt>
      <trkpt lat="44.43476" lon="3.2046">
        <ele>553.40002441406</ele>
        <time>2019-05-24T17:58:39Z</time>
      </trkpt>
      <trkpt lat="44.4349" lon="3.20434">
        <ele>553</ele>
        <time>2019-05-24T17:58:43Z</time>
      </trkpt>
      <trkpt lat="44.435" lon="3.20423">
        <ele>552.79998779297</ele>
        <time>2019-05-24T17:58:45Z</time>
      </trkpt>
      <trkpt lat="44.43524" lon="3.20381">
        <ele>552</ele>
        <time>2019-05-24T17:58:51Z</time>
      </trkpt>
      <trkpt lat="44.43555" lon="3.20323">
        <ele>550.79998779297</ele>
        <time>2019-05-24T17:58:58Z</time>
      </trkpt>
      <trkpt lat="44.43587" lon="3.20266">
        <ele>549.40002441406</ele>
        <time>2019-05-24T17:59:05Z</time>
      </trkpt>
      <trkpt lat="44.43603" lon="3.20239">
        <ele>548.20001220703</ele>
        <time>2019-05-24T17:59:10Z</time>
      </trkpt>
      <trkpt lat="44.43605" lon="3.20237">
        <ele>548</ele>
        <time>2019-05-24T17:59:11Z</time>
      </trkpt>
      <trkpt lat="44.4361" lon="3.2024">
        <ele>547.79998779297</ele>
        <time>2019-05-24T17:59:13Z</time>
      </trkpt>
      <trkpt lat="44.43618" lon="3.20261">
        <ele>547.20001220703</ele>
        <time>2019-05-24T17:59:18Z</time>
      </trkpt>
      <trkpt lat="44.43627" lon="3.20277">
        <ele>547</ele>
        <time>2019-05-24T17:59:23Z</time>
      </trkpt>
      <trkpt lat="44.43637" lon="3.20301">
        <ele>546.79998779297</ele>
        <time>2019-05-24T17:59:30Z</time>
      </trkpt>
      <trkpt lat="44.43648" lon="3.20321">
        <ele>546.59997558594</ele>
        <time>2019-05-24T17:59:37Z</time>
      </trkpt>
      <trkpt lat="44.43657" lon="3.20336">
        <ele>546.79998779297</ele>
        <time>2019-05-24T17:59:43Z</time>
      </trkpt>
      <trkpt lat="44.43672" lon="3.20344">
        <ele>547</ele>
        <time>2019-05-24T17:59:49Z</time>
      </trkpt>
      <trkpt lat="44.43688" lon="3.20344">
        <ele>546.79998779297</ele>
        <time>2019-05-24T17:59:55Z</time>
      </trkpt>
      <trkpt lat="44.43707" lon="3.2034">
        <ele>546.79998779297</ele>
        <time>2019-05-24T18:00:02Z</time>
      </trkpt>
      <trkpt lat="44.43718" lon="3.20346">
        <ele>547</ele>
        <time>2019-05-24T18:00:07Z</time>
      </trkpt>
      <trkpt lat="44.43719" lon="3.20348">
        <ele>547.20001220703</ele>
        <time>2019-05-24T18:00:08Z</time>
      </trkpt>
      <trkpt lat="44.43721" lon="3.20353">
        <ele>547.20001220703</ele>
        <time>2019-05-24T18:00:10Z</time>
      </trkpt>
      <trkpt lat="44.43721" lon="3.20372">
        <ele>547.59997558594</ele>
        <time>2019-05-24T18:00:16Z</time>
      </trkpt>
      <trkpt lat="44.43721" lon="3.20385">
        <ele>547.79998779297</ele>
        <time>2019-05-24T18:00:21Z</time>
      </trkpt>
      <trkpt lat="44.43721" lon="3.20388">
        <ele>548</ele>
        <time>2019-05-24T18:00:22Z</time>
      </trkpt>
      <trkpt lat="44.43721" lon="3.2039">
        <ele>548</ele>
        <time>2019-05-24T18:00:23Z</time>
      </trkpt>
      <trkpt lat="44.43719" lon="3.20397">
        <ele>548.40002441406</ele>
        <time>2019-05-24T18:00:26Z</time>
      </trkpt>
      <trkpt lat="44.43716" lon="3.20411">
        <ele>549</ele>
        <time>2019-05-24T18:00:32Z</time>
      </trkpt>
      <trkpt lat="44.43713" lon="3.20425">
        <ele>549.59997558594</ele>
        <time>2019-05-24T18:00:39Z</time>
      </trkpt>
      <trkpt lat="44.43711" lon="3.20437">
        <ele>550.20001220703</ele>
        <time>2019-05-24T18:00:45Z</time>
      </trkpt>
      <trkpt lat="44.43711" lon="3.20439">
        <ele>550.40002441406</ele>
        <time>2019-05-24T18:00:46Z</time>
      </trkpt>
      <trkpt lat="44.43709" lon="3.20447">
        <ele>550.79998779297</ele>
        <time>2019-05-24T18:00:50Z</time>
      </trkpt>
      <trkpt lat="44.43709" lon="3.2046">
        <ele>551.59997558594</ele>
        <time>2019-05-24T18:00:57Z</time>
      </trkpt>
      <trkpt lat="44.43709" lon="3.20473">
        <ele>552.40002441406</ele>
        <time>2019-05-24T18:01:04Z</time>
      </trkpt>
      <trkpt lat="44.43713" lon="3.20485">
        <ele>553.59997558594</ele>
        <time>2019-05-24T18:01:10Z</time>
      </trkpt>
      <trkpt lat="44.43714" lon="3.20498">
        <ele>554.59997558594</ele>
        <time>2019-05-24T18:01:16Z</time>
      </trkpt>
      <trkpt lat="44.43717" lon="3.20508">
        <ele>555.40002441406</ele>
        <time>2019-05-24T18:01:22Z</time>
      </trkpt>
      <trkpt lat="44.4372" lon="3.2051">
        <ele>555.59997558594</ele>
        <time>2019-05-24T18:01:24Z</time>
      </trkpt>
      <trkpt lat="44.43722" lon="3.20516">
        <ele>556</ele>
        <time>2019-05-24T18:01:28Z</time>
      </trkpt>
      <trkpt lat="44.43727" lon="3.20523">
        <ele>556.59997558594</ele>
        <time>2019-05-24T18:01:34Z</time>
      </trkpt>
      <trkpt lat="44.43729" lon="3.20524">
        <ele>556.59997558594</ele>
        <time>2019-05-24T18:01:36Z</time>
      </trkpt>
      <trkpt lat="44.43716" lon="3.20539">
        <ele>559</ele>
        <time>2019-05-24T18:02:00Z</time>
      </trkpt>
      <trkpt lat="44.43714" lon="3.20538">
        <ele>559</ele>
        <time>2019-05-24T18:02:01Z</time>
      </trkpt>
      <trkpt lat="44.43705" lon="3.20528">
        <ele>559.79998779297</ele>
        <time>2019-05-24T18:02:07Z</time>
      </trkpt>
      <trkpt lat="44.43702" lon="3.20525">
        <ele>559.79998779297</ele>
        <time>2019-05-24T18:02:09Z</time>
      </trkpt>
      <trkpt lat="44.43701" lon="3.20523">
        <ele>560</ele>
        <time>2019-05-24T18:02:10Z</time>
      </trkpt>
      <trkpt lat="44.43688" lon="3.20516">
        <ele>560.40002441406</ele>
        <time>2019-05-24T18:02:17Z</time>
      </trkpt>
      <trkpt lat="44.43678" lon="3.20512">
        <ele>560.79998779297</ele>
        <time>2019-05-24T18:02:23Z</time>
      </trkpt>
      <trkpt lat="44.43676" lon="3.20511">
        <ele>561</ele>
        <time>2019-05-24T18:02:24Z</time>
      </trkpt>
      <trkpt lat="44.43672" lon="3.20516">
        <ele>561.20001220703</ele>
        <time>2019-05-24T18:02:27Z</time>
      </trkpt>
      <trkpt lat="44.43663" lon="3.20519">
        <ele>561.59997558594</ele>
        <time>2019-05-24T18:02:32Z</time>
      </trkpt>
      <trkpt lat="44.43652" lon="3.20524">
        <ele>561.59997558594</ele>
        <time>2019-05-24T18:02:38Z</time>
      </trkpt>
      <trkpt lat="44.43642" lon="3.20524">
        <ele>561.79998779297</ele>
        <time>2019-05-24T18:02:43Z</time>
      </trkpt>
      <trkpt lat="44.43632" lon="3.20525">
        <ele>561.79998779297</ele>
        <time>2019-05-24T18:02:47Z</time>
      </trkpt>
      <trkpt lat="44.43624" lon="3.20525">
        <ele>562</ele>
        <time>2019-05-24T18:02:52Z</time>
      </trkpt>
    </trkseg>
  </trk>
</gpx>